<?xml version="1.0" encoding="UTF-8" standalone="no" ?>
<gpx xmlns="http://www.topografix.com/GPX/1/1" xmlns:xsi="http://www.w3.org/2001/XMLSchema-instance" xsi:schemaLocation="http://www.topografix.com/GPX/1/1 http://www.topografix.com/GPX/1/1/gpx.xsd" version="1.1" creator="VisuGPX - https://www.visugpx.com">
  <metadata>
    <name>Conflans - La Frette - Maisons Lafitte</name>
  </metadata>
  <trk>
    <name><![CDATA[Conflans - La Frette - Maisons Lafitte_1]]></name>
    <trkseg>
      <trkpt lat="48.99055" lon="2.08719">
        <ele>23</ele>
        <time>2022-05-29T07:34:09Z</time>
      </trkpt>
      <trkpt lat="48.9906" lon="2.08725">
        <ele>23</ele>
        <time>2022-05-29T07:34:14Z</time>
      </trkpt>
      <trkpt lat="48.9906" lon="2.08725">
        <ele>23</ele>
        <time>2022-05-29T07:34:20Z</time>
      </trkpt>
      <trkpt lat="48.99065" lon="2.0872">
        <ele>23.3</ele>
        <time>2022-05-29T07:34:25Z</time>
      </trkpt>
      <trkpt lat="48.99067" lon="2.08711">
        <ele>23.4</ele>
        <time>2022-05-29T07:34:31Z</time>
      </trkpt>
      <trkpt lat="48.99067" lon="2.08704">
        <ele>23.4</ele>
        <time>2022-05-29T07:34:36Z</time>
      </trkpt>
      <trkpt lat="48.99067" lon="2.08693">
        <ele>23.5</ele>
        <time>2022-05-29T07:34:42Z</time>
      </trkpt>
      <trkpt lat="48.99066" lon="2.08685">
        <ele>23.7</ele>
        <time>2022-05-29T07:34:48Z</time>
      </trkpt>
      <trkpt lat="48.99065" lon="2.08682">
        <ele>23.8</ele>
        <time>2022-05-29T07:34:53Z</time>
      </trkpt>
      <trkpt lat="48.99066" lon="2.08681">
        <ele>23.8</ele>
        <time>2022-05-29T07:34:58Z</time>
      </trkpt>
      <trkpt lat="48.9907" lon="2.08678">
        <ele>24.1</ele>
        <time>2022-05-29T07:35:04Z</time>
      </trkpt>
      <trkpt lat="48.99081" lon="2.08675">
        <ele>24.6</ele>
        <time>2022-05-29T07:35:11Z</time>
      </trkpt>
      <trkpt lat="48.9909" lon="2.08672">
        <ele>26.7</ele>
        <time>2022-05-29T07:35:16Z</time>
      </trkpt>
      <trkpt lat="48.99097" lon="2.08672">
        <ele>29</ele>
        <time>2022-05-29T07:35:22Z</time>
      </trkpt>
      <trkpt lat="48.99101" lon="2.08672">
        <ele>29.9</ele>
        <time>2022-05-29T07:35:28Z</time>
      </trkpt>
      <trkpt lat="48.99102" lon="2.08673">
        <ele>30.3</ele>
        <time>2022-05-29T07:35:34Z</time>
      </trkpt>
      <trkpt lat="48.99103" lon="2.08673">
        <ele>30.5</ele>
        <time>2022-05-29T07:35:40Z</time>
      </trkpt>
      <trkpt lat="48.99103" lon="2.08673">
        <ele>30.5</ele>
        <time>2022-05-29T07:35:45Z</time>
      </trkpt>
      <trkpt lat="48.99105" lon="2.08671">
        <ele>31.5</ele>
        <time>2022-05-29T07:35:50Z</time>
      </trkpt>
      <trkpt lat="48.99109" lon="2.08666">
        <ele>33.5</ele>
        <time>2022-05-29T07:35:56Z</time>
      </trkpt>
      <trkpt lat="48.99112" lon="2.08663">
        <ele>34.5</ele>
        <time>2022-05-29T07:36:02Z</time>
      </trkpt>
      <trkpt lat="48.99114" lon="2.08662">
        <ele>34.9</ele>
        <time>2022-05-29T07:36:07Z</time>
      </trkpt>
      <trkpt lat="48.99117" lon="2.08659">
        <ele>35.9</ele>
        <time>2022-05-29T07:36:13Z</time>
      </trkpt>
      <trkpt lat="48.9912" lon="2.08657">
        <ele>36.6</ele>
        <time>2022-05-29T07:36:18Z</time>
      </trkpt>
      <trkpt lat="48.99124" lon="2.08658">
        <ele>37.5</ele>
        <time>2022-05-29T07:36:24Z</time>
      </trkpt>
      <trkpt lat="48.99126" lon="2.08663">
        <ele>37.9</ele>
        <time>2022-05-29T07:36:29Z</time>
      </trkpt>
      <trkpt lat="48.99129" lon="2.08671">
        <ele>38</ele>
        <time>2022-05-29T07:36:34Z</time>
      </trkpt>
      <trkpt lat="48.99131" lon="2.08683">
        <ele>37.8</ele>
        <time>2022-05-29T07:36:40Z</time>
      </trkpt>
      <trkpt lat="48.99134" lon="2.08696">
        <ele>38</ele>
        <time>2022-05-29T07:36:46Z</time>
      </trkpt>
      <trkpt lat="48.99137" lon="2.08707">
        <ele>38.6</ele>
        <time>2022-05-29T07:36:51Z</time>
      </trkpt>
      <trkpt lat="48.99139" lon="2.08717">
        <ele>39.2</ele>
        <time>2022-05-29T07:36:56Z</time>
      </trkpt>
      <trkpt lat="48.99141" lon="2.08727">
        <ele>38.6</ele>
        <time>2022-05-29T07:37:01Z</time>
      </trkpt>
      <trkpt lat="48.99143" lon="2.08737">
        <ele>37.5</ele>
        <time>2022-05-29T07:37:07Z</time>
      </trkpt>
      <trkpt lat="48.99144" lon="2.08746">
        <ele>36.4</ele>
        <time>2022-05-29T07:37:12Z</time>
      </trkpt>
      <trkpt lat="48.99146" lon="2.08757">
        <ele>34.9</ele>
        <time>2022-05-29T07:37:18Z</time>
      </trkpt>
      <trkpt lat="48.99148" lon="2.08766">
        <ele>33.7</ele>
        <time>2022-05-29T07:37:23Z</time>
      </trkpt>
      <trkpt lat="48.99148" lon="2.08775">
        <ele>32.7</ele>
        <time>2022-05-29T07:37:28Z</time>
      </trkpt>
      <trkpt lat="48.99147" lon="2.08783">
        <ele>31.8</ele>
        <time>2022-05-29T07:37:33Z</time>
      </trkpt>
      <trkpt lat="48.99147" lon="2.08793">
        <ele>30.6</ele>
        <time>2022-05-29T07:37:39Z</time>
      </trkpt>
      <trkpt lat="48.99148" lon="2.08802">
        <ele>29.9</ele>
        <time>2022-05-29T07:37:44Z</time>
      </trkpt>
      <trkpt lat="48.99149" lon="2.08814">
        <ele>30.1</ele>
        <time>2022-05-29T07:37:50Z</time>
      </trkpt>
      <trkpt lat="48.99148" lon="2.08824">
        <ele>29.5</ele>
        <time>2022-05-29T07:37:55Z</time>
      </trkpt>
      <trkpt lat="48.99149" lon="2.08838">
        <ele>29.3</ele>
        <time>2022-05-29T07:38:01Z</time>
      </trkpt>
      <trkpt lat="48.99152" lon="2.08849">
        <ele>30</ele>
        <time>2022-05-29T07:38:07Z</time>
      </trkpt>
      <trkpt lat="48.99156" lon="2.08859">
        <ele>30.5</ele>
        <time>2022-05-29T07:38:12Z</time>
      </trkpt>
      <trkpt lat="48.9916" lon="2.08871">
        <ele>30.7</ele>
        <time>2022-05-29T07:38:18Z</time>
      </trkpt>
      <trkpt lat="48.99164" lon="2.0888">
        <ele>30.5</ele>
        <time>2022-05-29T07:38:23Z</time>
      </trkpt>
      <trkpt lat="48.99167" lon="2.08889">
        <ele>30.1</ele>
        <time>2022-05-29T07:38:29Z</time>
      </trkpt>
      <trkpt lat="48.9917" lon="2.08898">
        <ele>30</ele>
        <time>2022-05-29T07:38:34Z</time>
      </trkpt>
      <trkpt lat="48.99173" lon="2.0891">
        <ele>29.7</ele>
        <time>2022-05-29T07:38:40Z</time>
      </trkpt>
      <trkpt lat="48.99175" lon="2.08921">
        <ele>29.6</ele>
        <time>2022-05-29T07:38:46Z</time>
      </trkpt>
      <trkpt lat="48.99178" lon="2.08929">
        <ele>30</ele>
        <time>2022-05-29T07:38:51Z</time>
      </trkpt>
      <trkpt lat="48.99183" lon="2.08939">
        <ele>30.7</ele>
        <time>2022-05-29T07:38:57Z</time>
      </trkpt>
      <trkpt lat="48.99187" lon="2.08951">
        <ele>30.9</ele>
        <time>2022-05-29T07:39:03Z</time>
      </trkpt>
      <trkpt lat="48.99191" lon="2.0896">
        <ele>30.7</ele>
        <time>2022-05-29T07:39:08Z</time>
      </trkpt>
      <trkpt lat="48.99195" lon="2.08967">
        <ele>30.7</ele>
        <time>2022-05-29T07:39:13Z</time>
      </trkpt>
      <trkpt lat="48.992" lon="2.08974">
        <ele>30.8</ele>
        <time>2022-05-29T07:39:18Z</time>
      </trkpt>
      <trkpt lat="48.99205" lon="2.08983">
        <ele>30.4</ele>
        <time>2022-05-29T07:39:24Z</time>
      </trkpt>
      <trkpt lat="48.9921" lon="2.0899">
        <ele>30.4</ele>
        <time>2022-05-29T07:39:30Z</time>
      </trkpt>
      <trkpt lat="48.99216" lon="2.08996">
        <ele>30.5</ele>
        <time>2022-05-29T07:39:36Z</time>
      </trkpt>
      <trkpt lat="48.99221" lon="2.09002">
        <ele>30.6</ele>
        <time>2022-05-29T07:39:41Z</time>
      </trkpt>
      <trkpt lat="48.99225" lon="2.09006">
        <ele>30.9</ele>
        <time>2022-05-29T07:39:46Z</time>
      </trkpt>
      <trkpt lat="48.99229" lon="2.09006">
        <ele>31.4</ele>
        <time>2022-05-29T07:39:52Z</time>
      </trkpt>
      <trkpt lat="48.99231" lon="2.09007">
        <ele>31.7</ele>
        <time>2022-05-29T07:39:57Z</time>
      </trkpt>
      <trkpt lat="48.99236" lon="2.09007">
        <ele>32.5</ele>
        <time>2022-05-29T07:40:03Z</time>
      </trkpt>
      <trkpt lat="48.99241" lon="2.09009">
        <ele>33.1</ele>
        <time>2022-05-29T07:40:08Z</time>
      </trkpt>
      <trkpt lat="48.99244" lon="2.09016">
        <ele>33.3</ele>
        <time>2022-05-29T07:40:13Z</time>
      </trkpt>
      <trkpt lat="48.99246" lon="2.09025">
        <ele>33.3</ele>
        <time>2022-05-29T07:40:18Z</time>
      </trkpt>
      <trkpt lat="48.99249" lon="2.09039">
        <ele>32.6</ele>
        <time>2022-05-29T07:40:24Z</time>
      </trkpt>
      <trkpt lat="48.9925" lon="2.0905">
        <ele>31.6</ele>
        <time>2022-05-29T07:40:29Z</time>
      </trkpt>
      <trkpt lat="48.99251" lon="2.09064">
        <ele>30.8</ele>
        <time>2022-05-29T07:40:35Z</time>
      </trkpt>
      <trkpt lat="48.99253" lon="2.09078">
        <ele>30.2</ele>
        <time>2022-05-29T07:40:41Z</time>
      </trkpt>
      <trkpt lat="48.99256" lon="2.09089">
        <ele>29.7</ele>
        <time>2022-05-29T07:40:46Z</time>
      </trkpt>
      <trkpt lat="48.99259" lon="2.09102">
        <ele>29</ele>
        <time>2022-05-29T07:40:52Z</time>
      </trkpt>
      <trkpt lat="48.99261" lon="2.09112">
        <ele>28.5</ele>
        <time>2022-05-29T07:40:57Z</time>
      </trkpt>
      <trkpt lat="48.99267" lon="2.09124">
        <ele>29.4</ele>
        <time>2022-05-29T07:41:03Z</time>
      </trkpt>
      <trkpt lat="48.99271" lon="2.09134">
        <ele>29.7</ele>
        <time>2022-05-29T07:41:08Z</time>
      </trkpt>
      <trkpt lat="48.99273" lon="2.09146">
        <ele>29</ele>
        <time>2022-05-29T07:41:14Z</time>
      </trkpt>
      <trkpt lat="48.99271" lon="2.09158">
        <ele>27.6</ele>
        <time>2022-05-29T07:41:20Z</time>
      </trkpt>
      <trkpt lat="48.99269" lon="2.09169">
        <ele>26.7</ele>
        <time>2022-05-29T07:41:25Z</time>
      </trkpt>
      <trkpt lat="48.99267" lon="2.09182">
        <ele>26.4</ele>
        <time>2022-05-29T07:41:31Z</time>
      </trkpt>
      <trkpt lat="48.99266" lon="2.09196">
        <ele>26.1</ele>
        <time>2022-05-29T07:41:37Z</time>
      </trkpt>
      <trkpt lat="48.99264" lon="2.09207">
        <ele>25.8</ele>
        <time>2022-05-29T07:41:42Z</time>
      </trkpt>
      <trkpt lat="48.99261" lon="2.09217">
        <ele>25.5</ele>
        <time>2022-05-29T07:41:48Z</time>
      </trkpt>
      <trkpt lat="48.99257" lon="2.09218">
        <ele>25.3</ele>
        <time>2022-05-29T07:41:53Z</time>
      </trkpt>
      <trkpt lat="48.9925" lon="2.09214">
        <ele>25</ele>
        <time>2022-05-29T07:41:59Z</time>
      </trkpt>
      <trkpt lat="48.99245" lon="2.09207">
        <ele>25.4</ele>
        <time>2022-05-29T07:42:04Z</time>
      </trkpt>
      <trkpt lat="48.9924" lon="2.09199">
        <ele>25.8</ele>
        <time>2022-05-29T07:42:10Z</time>
      </trkpt>
      <trkpt lat="48.99237" lon="2.09195">
        <ele>25.9</ele>
        <time>2022-05-29T07:42:16Z</time>
      </trkpt>
      <trkpt lat="48.99235" lon="2.09196">
        <ele>26.1</ele>
        <time>2022-05-29T07:42:22Z</time>
      </trkpt>
      <trkpt lat="48.99231" lon="2.09196">
        <ele>26.4</ele>
        <time>2022-05-29T07:42:27Z</time>
      </trkpt>
      <trkpt lat="48.99226" lon="2.09197">
        <ele>26.8</ele>
        <time>2022-05-29T07:42:32Z</time>
      </trkpt>
      <trkpt lat="48.9922" lon="2.09199">
        <ele>27.5</ele>
        <time>2022-05-29T07:42:38Z</time>
      </trkpt>
      <trkpt lat="48.99217" lon="2.09203">
        <ele>28.3</ele>
        <time>2022-05-29T07:42:43Z</time>
      </trkpt>
      <trkpt lat="48.99215" lon="2.0921">
        <ele>29.5</ele>
        <time>2022-05-29T07:42:49Z</time>
      </trkpt>
      <trkpt lat="48.99212" lon="2.09211">
        <ele>30.3</ele>
        <time>2022-05-29T07:42:55Z</time>
      </trkpt>
      <trkpt lat="48.99207" lon="2.09207">
        <ele>30.9</ele>
        <time>2022-05-29T07:43:00Z</time>
      </trkpt>
      <trkpt lat="48.99199" lon="2.092">
        <ele>30.8</ele>
        <time>2022-05-29T07:43:06Z</time>
      </trkpt>
      <trkpt lat="48.99192" lon="2.09192">
        <ele>29.8</ele>
        <time>2022-05-29T07:43:12Z</time>
      </trkpt>
      <trkpt lat="48.99191" lon="2.09187">
        <ele>29.3</ele>
        <time>2022-05-29T07:43:18Z</time>
      </trkpt>
      <trkpt lat="48.99189" lon="2.09182">
        <ele>28.7</ele>
        <time>2022-05-29T07:43:24Z</time>
      </trkpt>
      <trkpt lat="48.99188" lon="2.0918">
        <ele>28.6</ele>
        <time>2022-05-29T07:43:29Z</time>
      </trkpt>
      <trkpt lat="48.99186" lon="2.09182">
        <ele>28.8</ele>
        <time>2022-05-29T07:43:34Z</time>
      </trkpt>
      <trkpt lat="48.99185" lon="2.09183">
        <ele>29</ele>
        <time>2022-05-29T07:43:40Z</time>
      </trkpt>
      <trkpt lat="48.99184" lon="2.09185">
        <ele>29.2</ele>
        <time>2022-05-29T07:43:46Z</time>
      </trkpt>
      <trkpt lat="48.99183" lon="2.09187">
        <ele>29.5</ele>
        <time>2022-05-29T07:43:51Z</time>
      </trkpt>
      <trkpt lat="48.99182" lon="2.09194">
        <ele>30.4</ele>
        <time>2022-05-29T07:43:57Z</time>
      </trkpt>
      <trkpt lat="48.99178" lon="2.09204">
        <ele>31.7</ele>
        <time>2022-05-29T07:44:03Z</time>
      </trkpt>
      <trkpt lat="48.99176" lon="2.09211">
        <ele>32.3</ele>
        <time>2022-05-29T07:44:09Z</time>
      </trkpt>
      <trkpt lat="48.99177" lon="2.09218">
        <ele>33.1</ele>
        <time>2022-05-29T07:44:14Z</time>
      </trkpt>
      <trkpt lat="48.99178" lon="2.09227">
        <ele>33.9</ele>
        <time>2022-05-29T07:44:20Z</time>
      </trkpt>
      <trkpt lat="48.99178" lon="2.09235">
        <ele>34.2</ele>
        <time>2022-05-29T07:44:26Z</time>
      </trkpt>
      <trkpt lat="48.99179" lon="2.09243">
        <ele>34.8</ele>
        <time>2022-05-29T07:44:32Z</time>
      </trkpt>
      <trkpt lat="48.99179" lon="2.09254">
        <ele>34.8</ele>
        <time>2022-05-29T07:44:38Z</time>
      </trkpt>
      <trkpt lat="48.99179" lon="2.09263">
        <ele>34.2</ele>
        <time>2022-05-29T07:44:43Z</time>
      </trkpt>
      <trkpt lat="48.99179" lon="2.09272">
        <ele>33.6</ele>
        <time>2022-05-29T07:44:48Z</time>
      </trkpt>
      <trkpt lat="48.9918" lon="2.09284">
        <ele>33.9</ele>
        <time>2022-05-29T07:44:54Z</time>
      </trkpt>
      <trkpt lat="48.99181" lon="2.09294">
        <ele>34.8</ele>
        <time>2022-05-29T07:44:59Z</time>
      </trkpt>
      <trkpt lat="48.99182" lon="2.09306">
        <ele>35.5</ele>
        <time>2022-05-29T07:45:05Z</time>
      </trkpt>
      <trkpt lat="48.99183" lon="2.09318">
        <ele>36.6</ele>
        <time>2022-05-29T07:45:11Z</time>
      </trkpt>
      <trkpt lat="48.99184" lon="2.09329">
        <ele>37.2</ele>
        <time>2022-05-29T07:45:16Z</time>
      </trkpt>
      <trkpt lat="48.99184" lon="2.09338">
        <ele>37.6</ele>
        <time>2022-05-29T07:45:21Z</time>
      </trkpt>
      <trkpt lat="48.99185" lon="2.0935">
        <ele>38.1</ele>
        <time>2022-05-29T07:45:27Z</time>
      </trkpt>
      <trkpt lat="48.99185" lon="2.0936">
        <ele>38.4</ele>
        <time>2022-05-29T07:45:32Z</time>
      </trkpt>
      <trkpt lat="48.99186" lon="2.09372">
        <ele>38.5</ele>
        <time>2022-05-29T07:45:38Z</time>
      </trkpt>
      <trkpt lat="48.99188" lon="2.09382">
        <ele>39.5</ele>
        <time>2022-05-29T07:45:44Z</time>
      </trkpt>
      <trkpt lat="48.9919" lon="2.09394">
        <ele>39.5</ele>
        <time>2022-05-29T07:45:50Z</time>
      </trkpt>
      <trkpt lat="48.99193" lon="2.09402">
        <ele>39.9</ele>
        <time>2022-05-29T07:45:55Z</time>
      </trkpt>
      <trkpt lat="48.99196" lon="2.09411">
        <ele>39</ele>
        <time>2022-05-29T07:46:01Z</time>
      </trkpt>
      <trkpt lat="48.99198" lon="2.09421">
        <ele>38</ele>
        <time>2022-05-29T07:46:07Z</time>
      </trkpt>
      <trkpt lat="48.99197" lon="2.09427">
        <ele>37.8</ele>
        <time>2022-05-29T07:46:13Z</time>
      </trkpt>
      <trkpt lat="48.99193" lon="2.09428">
        <ele>37</ele>
        <time>2022-05-29T07:46:18Z</time>
      </trkpt>
      <trkpt lat="48.9919" lon="2.09428">
        <ele>35.7</ele>
        <time>2022-05-29T07:46:24Z</time>
      </trkpt>
      <trkpt lat="48.9919" lon="2.0943">
        <ele>35.3</ele>
        <time>2022-05-29T07:46:29Z</time>
      </trkpt>
      <trkpt lat="48.99189" lon="2.09436">
        <ele>34.9</ele>
        <time>2022-05-29T07:46:35Z</time>
      </trkpt>
      <trkpt lat="48.99188" lon="2.09443">
        <ele>34.1</ele>
        <time>2022-05-29T07:46:40Z</time>
      </trkpt>
      <trkpt lat="48.99187" lon="2.09452">
        <ele>33.2</ele>
        <time>2022-05-29T07:46:46Z</time>
      </trkpt>
      <trkpt lat="48.99186" lon="2.09461">
        <ele>32.7</ele>
        <time>2022-05-29T07:46:52Z</time>
      </trkpt>
      <trkpt lat="48.99186" lon="2.09473">
        <ele>31.8</ele>
        <time>2022-05-29T07:46:58Z</time>
      </trkpt>
      <trkpt lat="48.99184" lon="2.09487">
        <ele>31.4</ele>
        <time>2022-05-29T07:47:05Z</time>
      </trkpt>
      <trkpt lat="48.99182" lon="2.095">
        <ele>31.1</ele>
        <time>2022-05-29T07:47:10Z</time>
      </trkpt>
      <trkpt lat="48.99184" lon="2.09517">
        <ele>31.3</ele>
        <time>2022-05-29T07:47:19Z</time>
      </trkpt>
      <trkpt lat="48.99187" lon="2.09534">
        <ele>31.3</ele>
        <time>2022-05-29T07:47:24Z</time>
      </trkpt>
      <trkpt lat="48.99189" lon="2.09546">
        <ele>31</ele>
        <time>2022-05-29T07:47:29Z</time>
      </trkpt>
      <trkpt lat="48.99191" lon="2.0956">
        <ele>30.6</ele>
        <time>2022-05-29T07:47:36Z</time>
      </trkpt>
      <trkpt lat="48.99194" lon="2.09574">
        <ele>30.4</ele>
        <time>2022-05-29T07:47:41Z</time>
      </trkpt>
      <trkpt lat="48.99196" lon="2.09585">
        <ele>30.5</ele>
        <time>2022-05-29T07:47:47Z</time>
      </trkpt>
      <trkpt lat="48.99198" lon="2.09599">
        <ele>30.3</ele>
        <time>2022-05-29T07:47:52Z</time>
      </trkpt>
      <trkpt lat="48.99198" lon="2.09609">
        <ele>29.3</ele>
        <time>2022-05-29T07:47:57Z</time>
      </trkpt>
      <trkpt lat="48.99197" lon="2.09621">
        <ele>28.2</ele>
        <time>2022-05-29T07:48:03Z</time>
      </trkpt>
      <trkpt lat="48.99197" lon="2.09632">
        <ele>27.3</ele>
        <time>2022-05-29T07:48:09Z</time>
      </trkpt>
      <trkpt lat="48.99196" lon="2.09643">
        <ele>26.5</ele>
        <time>2022-05-29T07:48:15Z</time>
      </trkpt>
      <trkpt lat="48.99197" lon="2.09656">
        <ele>26.7</ele>
        <time>2022-05-29T07:48:21Z</time>
      </trkpt>
      <trkpt lat="48.99198" lon="2.09665">
        <ele>27.4</ele>
        <time>2022-05-29T07:48:27Z</time>
      </trkpt>
      <trkpt lat="48.99198" lon="2.0967">
        <ele>28.2</ele>
        <time>2022-05-29T07:48:32Z</time>
      </trkpt>
      <trkpt lat="48.99201" lon="2.0968">
        <ele>30.4</ele>
        <time>2022-05-29T07:48:38Z</time>
      </trkpt>
      <trkpt lat="48.99205" lon="2.09692">
        <ele>33.5</ele>
        <time>2022-05-29T07:48:44Z</time>
      </trkpt>
      <trkpt lat="48.99208" lon="2.09701">
        <ele>35.5</ele>
        <time>2022-05-29T07:48:49Z</time>
      </trkpt>
      <trkpt lat="48.99208" lon="2.09711">
        <ele>35.2</ele>
        <time>2022-05-29T07:48:55Z</time>
      </trkpt>
      <trkpt lat="48.99208" lon="2.09719">
        <ele>34.3</ele>
        <time>2022-05-29T07:49:00Z</time>
      </trkpt>
      <trkpt lat="48.99206" lon="2.0973">
        <ele>32.7</ele>
        <time>2022-05-29T07:49:06Z</time>
      </trkpt>
      <trkpt lat="48.99204" lon="2.09741">
        <ele>31</ele>
        <time>2022-05-29T07:49:12Z</time>
      </trkpt>
      <trkpt lat="48.99201" lon="2.0975">
        <ele>29.1</ele>
        <time>2022-05-29T07:49:17Z</time>
      </trkpt>
      <trkpt lat="48.99198" lon="2.09756">
        <ele>27.1</ele>
        <time>2022-05-29T07:49:23Z</time>
      </trkpt>
      <trkpt lat="48.99197" lon="2.09763">
        <ele>26.8</ele>
        <time>2022-05-29T07:49:28Z</time>
      </trkpt>
      <trkpt lat="48.99201" lon="2.09774">
        <ele>28.9</ele>
        <time>2022-05-29T07:49:34Z</time>
      </trkpt>
      <trkpt lat="48.99205" lon="2.09784">
        <ele>30.9</ele>
        <time>2022-05-29T07:49:40Z</time>
      </trkpt>
      <trkpt lat="48.99208" lon="2.09795">
        <ele>32</ele>
        <time>2022-05-29T07:49:45Z</time>
      </trkpt>
      <trkpt lat="48.99209" lon="2.09804">
        <ele>32.4</ele>
        <time>2022-05-29T07:49:50Z</time>
      </trkpt>
      <trkpt lat="48.99211" lon="2.09815">
        <ele>32.3</ele>
        <time>2022-05-29T07:49:55Z</time>
      </trkpt>
      <trkpt lat="48.99212" lon="2.09829">
        <ele>31.7</ele>
        <time>2022-05-29T07:50:01Z</time>
      </trkpt>
      <trkpt lat="48.99213" lon="2.09841">
        <ele>31.9</ele>
        <time>2022-05-29T07:50:07Z</time>
      </trkpt>
      <trkpt lat="48.99212" lon="2.09851">
        <ele>32.3</ele>
        <time>2022-05-29T07:50:12Z</time>
      </trkpt>
      <trkpt lat="48.99211" lon="2.09865">
        <ele>32.3</ele>
        <time>2022-05-29T07:50:17Z</time>
      </trkpt>
      <trkpt lat="48.9921" lon="2.09879">
        <ele>31.4</ele>
        <time>2022-05-29T07:50:22Z</time>
      </trkpt>
      <trkpt lat="48.99209" lon="2.09894">
        <ele>30.5</ele>
        <time>2022-05-29T07:50:28Z</time>
      </trkpt>
      <trkpt lat="48.99208" lon="2.09905">
        <ele>29.9</ele>
        <time>2022-05-29T07:50:34Z</time>
      </trkpt>
      <trkpt lat="48.99207" lon="2.09915">
        <ele>29.3</ele>
        <time>2022-05-29T07:50:39Z</time>
      </trkpt>
      <trkpt lat="48.99208" lon="2.09924">
        <ele>29</ele>
        <time>2022-05-29T07:50:45Z</time>
      </trkpt>
      <trkpt lat="48.9921" lon="2.09935">
        <ele>28.6</ele>
        <time>2022-05-29T07:50:50Z</time>
      </trkpt>
      <trkpt lat="48.99211" lon="2.09949">
        <ele>28.4</ele>
        <time>2022-05-29T07:50:56Z</time>
      </trkpt>
      <trkpt lat="48.99208" lon="2.09964">
        <ele>28.1</ele>
        <time>2022-05-29T07:51:02Z</time>
      </trkpt>
      <trkpt lat="48.99201" lon="2.09972">
        <ele>26.6</ele>
        <time>2022-05-29T07:51:07Z</time>
      </trkpt>
      <trkpt lat="48.99189" lon="2.09975">
        <ele>24.6</ele>
        <time>2022-05-29T07:51:13Z</time>
      </trkpt>
      <trkpt lat="48.99178" lon="2.09975">
        <ele>23.8</ele>
        <time>2022-05-29T07:51:19Z</time>
      </trkpt>
      <trkpt lat="48.99169" lon="2.09976">
        <ele>23.2</ele>
        <time>2022-05-29T07:51:24Z</time>
      </trkpt>
      <trkpt lat="48.99162" lon="2.09978">
        <ele>22.6</ele>
        <time>2022-05-29T07:51:30Z</time>
      </trkpt>
      <trkpt lat="48.99159" lon="2.09988">
        <ele>22.4</ele>
        <time>2022-05-29T07:51:36Z</time>
      </trkpt>
      <trkpt lat="48.99157" lon="2.09998">
        <ele>22.3</ele>
        <time>2022-05-29T07:51:41Z</time>
      </trkpt>
      <trkpt lat="48.99157" lon="2.10011">
        <ele>22.3</ele>
        <time>2022-05-29T07:51:47Z</time>
      </trkpt>
      <trkpt lat="48.99158" lon="2.10025">
        <ele>22.4</ele>
        <time>2022-05-29T07:51:53Z</time>
      </trkpt>
      <trkpt lat="48.99159" lon="2.10037">
        <ele>22.5</ele>
        <time>2022-05-29T07:51:58Z</time>
      </trkpt>
      <trkpt lat="48.9916" lon="2.10051">
        <ele>22.6</ele>
        <time>2022-05-29T07:52:04Z</time>
      </trkpt>
      <trkpt lat="48.99162" lon="2.10065">
        <ele>22.6</ele>
        <time>2022-05-29T07:52:10Z</time>
      </trkpt>
      <trkpt lat="48.99161" lon="2.10079">
        <ele>22.6</ele>
        <time>2022-05-29T07:52:16Z</time>
      </trkpt>
      <trkpt lat="48.9916" lon="2.1009">
        <ele>22.5</ele>
        <time>2022-05-29T07:52:21Z</time>
      </trkpt>
      <trkpt lat="48.99159" lon="2.10104">
        <ele>22.4</ele>
        <time>2022-05-29T07:52:27Z</time>
      </trkpt>
      <trkpt lat="48.99159" lon="2.10115">
        <ele>22.5</ele>
        <time>2022-05-29T07:52:32Z</time>
      </trkpt>
      <trkpt lat="48.99159" lon="2.10127">
        <ele>22.5</ele>
        <time>2022-05-29T07:52:37Z</time>
      </trkpt>
      <trkpt lat="48.99161" lon="2.10142">
        <ele>22.6</ele>
        <time>2022-05-29T07:52:43Z</time>
      </trkpt>
      <trkpt lat="48.99161" lon="2.10154">
        <ele>22.6</ele>
        <time>2022-05-29T07:52:48Z</time>
      </trkpt>
      <trkpt lat="48.99162" lon="2.10169">
        <ele>22.6</ele>
        <time>2022-05-29T07:52:54Z</time>
      </trkpt>
      <trkpt lat="48.99162" lon="2.10182">
        <ele>22.7</ele>
        <time>2022-05-29T07:52:59Z</time>
      </trkpt>
      <trkpt lat="48.99161" lon="2.10195">
        <ele>22.6</ele>
        <time>2022-05-29T07:53:05Z</time>
      </trkpt>
      <trkpt lat="48.9916" lon="2.10207">
        <ele>22.5</ele>
        <time>2022-05-29T07:53:10Z</time>
      </trkpt>
      <trkpt lat="48.9916" lon="2.1022">
        <ele>22.5</ele>
        <time>2022-05-29T07:53:16Z</time>
      </trkpt>
      <trkpt lat="48.99159" lon="2.10231">
        <ele>22.5</ele>
        <time>2022-05-29T07:53:21Z</time>
      </trkpt>
      <trkpt lat="48.99159" lon="2.10244">
        <ele>22.5</ele>
        <time>2022-05-29T07:53:27Z</time>
      </trkpt>
      <trkpt lat="48.99162" lon="2.10258">
        <ele>22.6</ele>
        <time>2022-05-29T07:53:33Z</time>
      </trkpt>
      <trkpt lat="48.99164" lon="2.10267">
        <ele>22.8</ele>
        <time>2022-05-29T07:53:39Z</time>
      </trkpt>
      <trkpt lat="48.99166" lon="2.10281">
        <ele>22.8</ele>
        <time>2022-05-29T07:53:45Z</time>
      </trkpt>
      <trkpt lat="48.99168" lon="2.10293">
        <ele>22.5</ele>
        <time>2022-05-29T07:53:51Z</time>
      </trkpt>
      <trkpt lat="48.99169" lon="2.10306">
        <ele>22.1</ele>
        <time>2022-05-29T07:53:56Z</time>
      </trkpt>
      <trkpt lat="48.99171" lon="2.10318">
        <ele>21.8</ele>
        <time>2022-05-29T07:54:02Z</time>
      </trkpt>
      <trkpt lat="48.99172" lon="2.10329">
        <ele>21.6</ele>
        <time>2022-05-29T07:54:07Z</time>
      </trkpt>
      <trkpt lat="48.99173" lon="2.10343">
        <ele>21.7</ele>
        <time>2022-05-29T07:54:13Z</time>
      </trkpt>
      <trkpt lat="48.99174" lon="2.10352">
        <ele>21.7</ele>
        <time>2022-05-29T07:54:18Z</time>
      </trkpt>
      <trkpt lat="48.99175" lon="2.10364">
        <ele>21.9</ele>
        <time>2022-05-29T07:54:24Z</time>
      </trkpt>
      <trkpt lat="48.99175" lon="2.10377">
        <ele>21.9</ele>
        <time>2022-05-29T07:54:29Z</time>
      </trkpt>
      <trkpt lat="48.99173" lon="2.1039">
        <ele>21.7</ele>
        <time>2022-05-29T07:54:35Z</time>
      </trkpt>
      <trkpt lat="48.99176" lon="2.10401">
        <ele>22</ele>
        <time>2022-05-29T07:54:41Z</time>
      </trkpt>
      <trkpt lat="48.99178" lon="2.10415">
        <ele>22.2</ele>
        <time>2022-05-29T07:54:47Z</time>
      </trkpt>
      <trkpt lat="48.99177" lon="2.10429">
        <ele>22.2</ele>
        <time>2022-05-29T07:54:53Z</time>
      </trkpt>
      <trkpt lat="48.99178" lon="2.10437">
        <ele>22.2</ele>
        <time>2022-05-29T07:54:58Z</time>
      </trkpt>
      <trkpt lat="48.99179" lon="2.1045">
        <ele>22.4</ele>
        <time>2022-05-29T07:55:04Z</time>
      </trkpt>
      <trkpt lat="48.99182" lon="2.10464">
        <ele>22.6</ele>
        <time>2022-05-29T07:55:10Z</time>
      </trkpt>
      <trkpt lat="48.99182" lon="2.10474">
        <ele>22.6</ele>
        <time>2022-05-29T07:55:16Z</time>
      </trkpt>
      <trkpt lat="48.99182" lon="2.10487">
        <ele>22.5</ele>
        <time>2022-05-29T07:55:21Z</time>
      </trkpt>
      <trkpt lat="48.99185" lon="2.105">
        <ele>22.7</ele>
        <time>2022-05-29T07:55:27Z</time>
      </trkpt>
      <trkpt lat="48.99186" lon="2.10513">
        <ele>23</ele>
        <time>2022-05-29T07:55:32Z</time>
      </trkpt>
      <trkpt lat="48.99186" lon="2.10528">
        <ele>23.1</ele>
        <time>2022-05-29T07:55:38Z</time>
      </trkpt>
      <trkpt lat="48.99188" lon="2.10539">
        <ele>23.3</ele>
        <time>2022-05-29T07:55:44Z</time>
      </trkpt>
      <trkpt lat="48.99185" lon="2.10552">
        <ele>23</ele>
        <time>2022-05-29T07:55:50Z</time>
      </trkpt>
      <trkpt lat="48.99184" lon="2.10565">
        <ele>22.9</ele>
        <time>2022-05-29T07:55:55Z</time>
      </trkpt>
      <trkpt lat="48.99185" lon="2.1058">
        <ele>23</ele>
        <time>2022-05-29T07:56:01Z</time>
      </trkpt>
      <trkpt lat="48.99186" lon="2.10593">
        <ele>23.1</ele>
        <time>2022-05-29T07:56:07Z</time>
      </trkpt>
      <trkpt lat="48.99184" lon="2.10602">
        <ele>22.8</ele>
        <time>2022-05-29T07:56:13Z</time>
      </trkpt>
      <trkpt lat="48.99183" lon="2.10614">
        <ele>22.7</ele>
        <time>2022-05-29T07:56:19Z</time>
      </trkpt>
      <trkpt lat="48.99184" lon="2.10629">
        <ele>22.8</ele>
        <time>2022-05-29T07:56:24Z</time>
      </trkpt>
      <trkpt lat="48.99183" lon="2.10643">
        <ele>22.7</ele>
        <time>2022-05-29T07:56:29Z</time>
      </trkpt>
      <trkpt lat="48.9918" lon="2.10654">
        <ele>22.5</ele>
        <time>2022-05-29T07:56:34Z</time>
      </trkpt>
      <trkpt lat="48.99177" lon="2.10669">
        <ele>22.1</ele>
        <time>2022-05-29T07:56:40Z</time>
      </trkpt>
      <trkpt lat="48.99176" lon="2.10679">
        <ele>22</ele>
        <time>2022-05-29T07:56:45Z</time>
      </trkpt>
      <trkpt lat="48.99175" lon="2.10687">
        <ele>21.9</ele>
        <time>2022-05-29T07:56:51Z</time>
      </trkpt>
      <trkpt lat="48.99174" lon="2.10699">
        <ele>21.7</ele>
        <time>2022-05-29T07:56:57Z</time>
      </trkpt>
      <trkpt lat="48.99174" lon="2.10715">
        <ele>21.8</ele>
        <time>2022-05-29T07:57:03Z</time>
      </trkpt>
      <trkpt lat="48.99174" lon="2.10728">
        <ele>21.8</ele>
        <time>2022-05-29T07:57:09Z</time>
      </trkpt>
      <trkpt lat="48.99174" lon="2.10741">
        <ele>22</ele>
        <time>2022-05-29T07:57:15Z</time>
      </trkpt>
      <trkpt lat="48.99174" lon="2.10754">
        <ele>22.2</ele>
        <time>2022-05-29T07:57:21Z</time>
      </trkpt>
      <trkpt lat="48.99172" lon="2.10765">
        <ele>22.1</ele>
        <time>2022-05-29T07:57:26Z</time>
      </trkpt>
      <trkpt lat="48.99171" lon="2.10776">
        <ele>22.3</ele>
        <time>2022-05-29T07:57:31Z</time>
      </trkpt>
      <trkpt lat="48.99169" lon="2.1079">
        <ele>22.1</ele>
        <time>2022-05-29T07:57:37Z</time>
      </trkpt>
      <trkpt lat="48.9917" lon="2.10801">
        <ele>22.2</ele>
        <time>2022-05-29T07:57:42Z</time>
      </trkpt>
      <trkpt lat="48.99169" lon="2.10814">
        <ele>22.2</ele>
        <time>2022-05-29T07:57:48Z</time>
      </trkpt>
      <trkpt lat="48.99169" lon="2.10825">
        <ele>22.1</ele>
        <time>2022-05-29T07:57:53Z</time>
      </trkpt>
      <trkpt lat="48.99168" lon="2.10837">
        <ele>22.2</ele>
        <time>2022-05-29T07:57:59Z</time>
      </trkpt>
      <trkpt lat="48.99166" lon="2.10849">
        <ele>22.5</ele>
        <time>2022-05-29T07:58:04Z</time>
      </trkpt>
      <trkpt lat="48.99165" lon="2.10861">
        <ele>22.8</ele>
        <time>2022-05-29T07:58:09Z</time>
      </trkpt>
      <trkpt lat="48.99164" lon="2.10872">
        <ele>22.7</ele>
        <time>2022-05-29T07:58:14Z</time>
      </trkpt>
      <trkpt lat="48.99162" lon="2.10885">
        <ele>22.5</ele>
        <time>2022-05-29T07:58:20Z</time>
      </trkpt>
      <trkpt lat="48.99162" lon="2.10895">
        <ele>22.5</ele>
        <time>2022-05-29T07:58:25Z</time>
      </trkpt>
      <trkpt lat="48.99159" lon="2.10908">
        <ele>22.2</ele>
        <time>2022-05-29T07:58:31Z</time>
      </trkpt>
      <trkpt lat="48.99158" lon="2.10923">
        <ele>22.1</ele>
        <time>2022-05-29T07:58:37Z</time>
      </trkpt>
      <trkpt lat="48.99157" lon="2.10932">
        <ele>21.9</ele>
        <time>2022-05-29T07:58:42Z</time>
      </trkpt>
      <trkpt lat="48.99156" lon="2.10942">
        <ele>21.9</ele>
        <time>2022-05-29T07:58:47Z</time>
      </trkpt>
      <trkpt lat="48.99154" lon="2.10956">
        <ele>21.9</ele>
        <time>2022-05-29T07:58:53Z</time>
      </trkpt>
      <trkpt lat="48.99152" lon="2.1097">
        <ele>21.8</ele>
        <time>2022-05-29T07:58:59Z</time>
      </trkpt>
      <trkpt lat="48.99151" lon="2.10981">
        <ele>22</ele>
        <time>2022-05-29T07:59:04Z</time>
      </trkpt>
      <trkpt lat="48.99151" lon="2.10993">
        <ele>22.2</ele>
        <time>2022-05-29T07:59:10Z</time>
      </trkpt>
      <trkpt lat="48.99151" lon="2.11002">
        <ele>22.4</ele>
        <time>2022-05-29T07:59:15Z</time>
      </trkpt>
      <trkpt lat="48.9915" lon="2.11014">
        <ele>22.7</ele>
        <time>2022-05-29T07:59:20Z</time>
      </trkpt>
      <trkpt lat="48.99147" lon="2.11024">
        <ele>22.7</ele>
        <time>2022-05-29T07:59:26Z</time>
      </trkpt>
      <trkpt lat="48.99147" lon="2.11037">
        <ele>22.8</ele>
        <time>2022-05-29T07:59:32Z</time>
      </trkpt>
      <trkpt lat="48.99146" lon="2.11055">
        <ele>22.5</ele>
        <time>2022-05-29T07:59:38Z</time>
      </trkpt>
      <trkpt lat="48.99144" lon="2.1107">
        <ele>22.4</ele>
        <time>2022-05-29T07:59:44Z</time>
      </trkpt>
      <trkpt lat="48.99143" lon="2.11079">
        <ele>22.3</ele>
        <time>2022-05-29T07:59:49Z</time>
      </trkpt>
      <trkpt lat="48.99142" lon="2.11089">
        <ele>22.4</ele>
        <time>2022-05-29T07:59:54Z</time>
      </trkpt>
      <trkpt lat="48.99141" lon="2.11101">
        <ele>22.7</ele>
        <time>2022-05-29T08:00:00Z</time>
      </trkpt>
      <trkpt lat="48.99139" lon="2.11117">
        <ele>23</ele>
        <time>2022-05-29T08:00:06Z</time>
      </trkpt>
      <trkpt lat="48.99138" lon="2.11129">
        <ele>23</ele>
        <time>2022-05-29T08:00:12Z</time>
      </trkpt>
      <trkpt lat="48.99139" lon="2.11139">
        <ele>23</ele>
        <time>2022-05-29T08:00:17Z</time>
      </trkpt>
      <trkpt lat="48.99138" lon="2.11151">
        <ele>22.9</ele>
        <time>2022-05-29T08:00:22Z</time>
      </trkpt>
      <trkpt lat="48.99139" lon="2.11165">
        <ele>23</ele>
        <time>2022-05-29T08:00:28Z</time>
      </trkpt>
      <trkpt lat="48.9914" lon="2.11176">
        <ele>22.7</ele>
        <time>2022-05-29T08:00:33Z</time>
      </trkpt>
      <trkpt lat="48.99143" lon="2.11191">
        <ele>22.3</ele>
        <time>2022-05-29T08:00:39Z</time>
      </trkpt>
      <trkpt lat="48.99145" lon="2.11205">
        <ele>22</ele>
        <time>2022-05-29T08:00:45Z</time>
      </trkpt>
      <trkpt lat="48.99147" lon="2.11216">
        <ele>21.9</ele>
        <time>2022-05-29T08:00:51Z</time>
      </trkpt>
      <trkpt lat="48.99149" lon="2.11223">
        <ele>22</ele>
        <time>2022-05-29T08:00:56Z</time>
      </trkpt>
      <trkpt lat="48.99151" lon="2.11235">
        <ele>22.1</ele>
        <time>2022-05-29T08:01:02Z</time>
      </trkpt>
      <trkpt lat="48.99153" lon="2.1125">
        <ele>22.1</ele>
        <time>2022-05-29T08:01:08Z</time>
      </trkpt>
      <trkpt lat="48.99157" lon="2.11259">
        <ele>22.5</ele>
        <time>2022-05-29T08:01:13Z</time>
      </trkpt>
      <trkpt lat="48.99161" lon="2.11272">
        <ele>22.8</ele>
        <time>2022-05-29T08:01:19Z</time>
      </trkpt>
      <trkpt lat="48.99164" lon="2.11281">
        <ele>22.8</ele>
        <time>2022-05-29T08:01:24Z</time>
      </trkpt>
      <trkpt lat="48.99168" lon="2.11294">
        <ele>23</ele>
        <time>2022-05-29T08:01:30Z</time>
      </trkpt>
      <trkpt lat="48.9917" lon="2.11303">
        <ele>23</ele>
        <time>2022-05-29T08:01:35Z</time>
      </trkpt>
      <trkpt lat="48.99172" lon="2.11316">
        <ele>22.7</ele>
        <time>2022-05-29T08:01:41Z</time>
      </trkpt>
      <trkpt lat="48.99173" lon="2.11328">
        <ele>22.4</ele>
        <time>2022-05-29T08:01:46Z</time>
      </trkpt>
      <trkpt lat="48.99173" lon="2.11339">
        <ele>22.1</ele>
        <time>2022-05-29T08:01:51Z</time>
      </trkpt>
      <trkpt lat="48.99174" lon="2.11353">
        <ele>21.9</ele>
        <time>2022-05-29T08:01:57Z</time>
      </trkpt>
      <trkpt lat="48.99174" lon="2.11361">
        <ele>21.8</ele>
        <time>2022-05-29T08:02:02Z</time>
      </trkpt>
      <trkpt lat="48.99174" lon="2.11373">
        <ele>21.8</ele>
        <time>2022-05-29T08:02:08Z</time>
      </trkpt>
      <trkpt lat="48.99175" lon="2.11389">
        <ele>21.9</ele>
        <time>2022-05-29T08:02:14Z</time>
      </trkpt>
      <trkpt lat="48.99179" lon="2.11404">
        <ele>22</ele>
        <time>2022-05-29T08:02:19Z</time>
      </trkpt>
      <trkpt lat="48.99181" lon="2.11416">
        <ele>22.1</ele>
        <time>2022-05-29T08:02:24Z</time>
      </trkpt>
      <trkpt lat="48.99181" lon="2.11427">
        <ele>22.1</ele>
        <time>2022-05-29T08:02:29Z</time>
      </trkpt>
      <trkpt lat="48.99183" lon="2.11441">
        <ele>22.3</ele>
        <time>2022-05-29T08:02:35Z</time>
      </trkpt>
      <trkpt lat="48.99184" lon="2.1145">
        <ele>22.6</ele>
        <time>2022-05-29T08:02:40Z</time>
      </trkpt>
      <trkpt lat="48.99185" lon="2.11463">
        <ele>22.9</ele>
        <time>2022-05-29T08:02:46Z</time>
      </trkpt>
      <trkpt lat="48.99185" lon="2.11477">
        <ele>23</ele>
        <time>2022-05-29T08:02:51Z</time>
      </trkpt>
      <trkpt lat="48.99186" lon="2.11488">
        <ele>23.1</ele>
        <time>2022-05-29T08:02:57Z</time>
      </trkpt>
      <trkpt lat="48.99188" lon="2.11496">
        <ele>23.3</ele>
        <time>2022-05-29T08:03:02Z</time>
      </trkpt>
      <trkpt lat="48.9919" lon="2.11511">
        <ele>23.5</ele>
        <time>2022-05-29T08:03:08Z</time>
      </trkpt>
      <trkpt lat="48.99192" lon="2.11524">
        <ele>23.8</ele>
        <time>2022-05-29T08:03:14Z</time>
      </trkpt>
      <trkpt lat="48.99194" lon="2.11533">
        <ele>24</ele>
        <time>2022-05-29T08:03:19Z</time>
      </trkpt>
      <trkpt lat="48.99195" lon="2.11545">
        <ele>24</ele>
        <time>2022-05-29T08:03:25Z</time>
      </trkpt>
      <trkpt lat="48.99196" lon="2.11555">
        <ele>24</ele>
        <time>2022-05-29T08:03:30Z</time>
      </trkpt>
      <trkpt lat="48.99195" lon="2.11563">
        <ele>24</ele>
        <time>2022-05-29T08:03:35Z</time>
      </trkpt>
      <trkpt lat="48.99193" lon="2.11577">
        <ele>23.8</ele>
        <time>2022-05-29T08:03:41Z</time>
      </trkpt>
      <trkpt lat="48.99193" lon="2.11593">
        <ele>23.9</ele>
        <time>2022-05-29T08:03:47Z</time>
      </trkpt>
      <trkpt lat="48.99195" lon="2.11606">
        <ele>24</ele>
        <time>2022-05-29T08:03:53Z</time>
      </trkpt>
      <trkpt lat="48.99199" lon="2.11616">
        <ele>24</ele>
        <time>2022-05-29T08:03:58Z</time>
      </trkpt>
      <trkpt lat="48.99202" lon="2.11627">
        <ele>23.8</ele>
        <time>2022-05-29T08:04:04Z</time>
      </trkpt>
      <trkpt lat="48.99202" lon="2.1164">
        <ele>23.5</ele>
        <time>2022-05-29T08:04:09Z</time>
      </trkpt>
      <trkpt lat="48.99202" lon="2.11651">
        <ele>23.3</ele>
        <time>2022-05-29T08:04:14Z</time>
      </trkpt>
      <trkpt lat="48.99204" lon="2.11665">
        <ele>23</ele>
        <time>2022-05-29T08:04:20Z</time>
      </trkpt>
      <trkpt lat="48.99203" lon="2.11679">
        <ele>22.9</ele>
        <time>2022-05-29T08:04:26Z</time>
      </trkpt>
      <trkpt lat="48.99205" lon="2.11689">
        <ele>23.1</ele>
        <time>2022-05-29T08:04:31Z</time>
      </trkpt>
      <trkpt lat="48.99208" lon="2.11698">
        <ele>23.4</ele>
        <time>2022-05-29T08:04:36Z</time>
      </trkpt>
      <trkpt lat="48.99209" lon="2.11712">
        <ele>23.2</ele>
        <time>2022-05-29T08:04:42Z</time>
      </trkpt>
      <trkpt lat="48.99208" lon="2.11724">
        <ele>22.9</ele>
        <time>2022-05-29T08:04:47Z</time>
      </trkpt>
      <trkpt lat="48.99208" lon="2.11737">
        <ele>22.7</ele>
        <time>2022-05-29T08:04:53Z</time>
      </trkpt>
      <trkpt lat="48.99209" lon="2.1175">
        <ele>22.6</ele>
        <time>2022-05-29T08:04:59Z</time>
      </trkpt>
      <trkpt lat="48.9921" lon="2.11762">
        <ele>22.7</ele>
        <time>2022-05-29T08:05:05Z</time>
      </trkpt>
      <trkpt lat="48.99211" lon="2.11775">
        <ele>22.8</ele>
        <time>2022-05-29T08:05:11Z</time>
      </trkpt>
      <trkpt lat="48.99209" lon="2.11785">
        <ele>22.6</ele>
        <time>2022-05-29T08:05:16Z</time>
      </trkpt>
      <trkpt lat="48.99208" lon="2.11793">
        <ele>22.5</ele>
        <time>2022-05-29T08:05:21Z</time>
      </trkpt>
      <trkpt lat="48.9921" lon="2.11804">
        <ele>22.7</ele>
        <time>2022-05-29T08:05:27Z</time>
      </trkpt>
      <trkpt lat="48.99214" lon="2.11817">
        <ele>23.4</ele>
        <time>2022-05-29T08:05:33Z</time>
      </trkpt>
      <trkpt lat="48.99217" lon="2.11828">
        <ele>24.1</ele>
        <time>2022-05-29T08:05:38Z</time>
      </trkpt>
      <trkpt lat="48.99216" lon="2.11842">
        <ele>24.1</ele>
        <time>2022-05-29T08:05:44Z</time>
      </trkpt>
      <trkpt lat="48.99218" lon="2.11852">
        <ele>24.3</ele>
        <time>2022-05-29T08:05:50Z</time>
      </trkpt>
      <trkpt lat="48.99217" lon="2.11864">
        <ele>24.3</ele>
        <time>2022-05-29T08:05:55Z</time>
      </trkpt>
      <trkpt lat="48.99217" lon="2.11874">
        <ele>24.2</ele>
        <time>2022-05-29T08:06:00Z</time>
      </trkpt>
      <trkpt lat="48.99218" lon="2.11886">
        <ele>24.4</ele>
        <time>2022-05-29T08:06:06Z</time>
      </trkpt>
      <trkpt lat="48.99221" lon="2.11901">
        <ele>24</ele>
        <time>2022-05-29T08:06:12Z</time>
      </trkpt>
      <trkpt lat="48.99223" lon="2.11911">
        <ele>23.5</ele>
        <time>2022-05-29T08:06:18Z</time>
      </trkpt>
      <trkpt lat="48.99226" lon="2.11919">
        <ele>23.2</ele>
        <time>2022-05-29T08:06:23Z</time>
      </trkpt>
      <trkpt lat="48.99228" lon="2.11933">
        <ele>22.9</ele>
        <time>2022-05-29T08:06:29Z</time>
      </trkpt>
      <trkpt lat="48.9923" lon="2.11943">
        <ele>22.9</ele>
        <time>2022-05-29T08:06:35Z</time>
      </trkpt>
      <trkpt lat="48.99231" lon="2.11957">
        <ele>22.7</ele>
        <time>2022-05-29T08:06:41Z</time>
      </trkpt>
      <trkpt lat="48.99233" lon="2.1197">
        <ele>22.6</ele>
        <time>2022-05-29T08:06:46Z</time>
      </trkpt>
      <trkpt lat="48.99235" lon="2.11981">
        <ele>22.9</ele>
        <time>2022-05-29T08:06:52Z</time>
      </trkpt>
      <trkpt lat="48.99241" lon="2.11986">
        <ele>24</ele>
        <time>2022-05-29T08:06:58Z</time>
      </trkpt>
      <trkpt lat="48.99243" lon="2.11992">
        <ele>24.6</ele>
        <time>2022-05-29T08:07:03Z</time>
      </trkpt>
      <trkpt lat="48.99248" lon="2.11991">
        <ele>25.3</ele>
        <time>2022-05-29T08:07:09Z</time>
      </trkpt>
      <trkpt lat="48.99253" lon="2.11986">
        <ele>25.7</ele>
        <time>2022-05-29T08:07:15Z</time>
      </trkpt>
      <trkpt lat="48.9926" lon="2.11983">
        <ele>26.3</ele>
        <time>2022-05-29T08:07:21Z</time>
      </trkpt>
      <trkpt lat="48.99268" lon="2.11977">
        <ele>27.3</ele>
        <time>2022-05-29T08:07:27Z</time>
      </trkpt>
      <trkpt lat="48.99272" lon="2.11968">
        <ele>28.2</ele>
        <time>2022-05-29T08:07:33Z</time>
      </trkpt>
      <trkpt lat="48.99276" lon="2.11961">
        <ele>29.1</ele>
        <time>2022-05-29T08:07:38Z</time>
      </trkpt>
      <trkpt lat="48.99279" lon="2.11953">
        <ele>30.4</ele>
        <time>2022-05-29T08:07:43Z</time>
      </trkpt>
      <trkpt lat="48.99282" lon="2.11943">
        <ele>32.2</ele>
        <time>2022-05-29T08:07:49Z</time>
      </trkpt>
      <trkpt lat="48.99284" lon="2.11935">
        <ele>33.8</ele>
        <time>2022-05-29T08:07:54Z</time>
      </trkpt>
      <trkpt lat="48.99288" lon="2.11927">
        <ele>35.9</ele>
        <time>2022-05-29T08:08:00Z</time>
      </trkpt>
      <trkpt lat="48.99292" lon="2.11918">
        <ele>38.1</ele>
        <time>2022-05-29T08:08:06Z</time>
      </trkpt>
      <trkpt lat="48.99293" lon="2.1191">
        <ele>38.5</ele>
        <time>2022-05-29T08:08:11Z</time>
      </trkpt>
      <trkpt lat="48.99295" lon="2.11898">
        <ele>39.6</ele>
        <time>2022-05-29T08:08:17Z</time>
      </trkpt>
      <trkpt lat="48.99297" lon="2.11889">
        <ele>39.9</ele>
        <time>2022-05-29T08:08:23Z</time>
      </trkpt>
      <trkpt lat="48.993" lon="2.11882">
        <ele>40.9</ele>
        <time>2022-05-29T08:08:28Z</time>
      </trkpt>
      <trkpt lat="48.99303" lon="2.11875">
        <ele>42</ele>
        <time>2022-05-29T08:08:34Z</time>
      </trkpt>
      <trkpt lat="48.99305" lon="2.11866">
        <ele>43</ele>
        <time>2022-05-29T08:08:40Z</time>
      </trkpt>
      <trkpt lat="48.99308" lon="2.11859">
        <ele>43.6</ele>
        <time>2022-05-29T08:08:45Z</time>
      </trkpt>
      <trkpt lat="48.99313" lon="2.1185">
        <ele>44.9</ele>
        <time>2022-05-29T08:08:51Z</time>
      </trkpt>
      <trkpt lat="48.99316" lon="2.11841">
        <ele>45.5</ele>
        <time>2022-05-29T08:08:56Z</time>
      </trkpt>
      <trkpt lat="48.9932" lon="2.11837">
        <ele>46</ele>
        <time>2022-05-29T08:09:01Z</time>
      </trkpt>
      <trkpt lat="48.99327" lon="2.11835">
        <ele>46.5</ele>
        <time>2022-05-29T08:09:07Z</time>
      </trkpt>
      <trkpt lat="48.99333" lon="2.11833">
        <ele>47</ele>
        <time>2022-05-29T08:09:13Z</time>
      </trkpt>
      <trkpt lat="48.99338" lon="2.11831">
        <ele>47.5</ele>
        <time>2022-05-29T08:09:18Z</time>
      </trkpt>
      <trkpt lat="48.99344" lon="2.11831">
        <ele>48.2</ele>
        <time>2022-05-29T08:09:24Z</time>
      </trkpt>
      <trkpt lat="48.9935" lon="2.11829">
        <ele>48.9</ele>
        <time>2022-05-29T08:09:29Z</time>
      </trkpt>
      <trkpt lat="48.99358" lon="2.11828">
        <ele>49.6</ele>
        <time>2022-05-29T08:09:34Z</time>
      </trkpt>
      <trkpt lat="48.99366" lon="2.11826">
        <ele>50.5</ele>
        <time>2022-05-29T08:09:40Z</time>
      </trkpt>
      <trkpt lat="48.99374" lon="2.11825">
        <ele>51.4</ele>
        <time>2022-05-29T08:09:46Z</time>
      </trkpt>
      <trkpt lat="48.99381" lon="2.11824">
        <ele>52.1</ele>
        <time>2022-05-29T08:09:52Z</time>
      </trkpt>
      <trkpt lat="48.99387" lon="2.11824">
        <ele>52.8</ele>
        <time>2022-05-29T08:09:57Z</time>
      </trkpt>
      <trkpt lat="48.99394" lon="2.11824">
        <ele>53.6</ele>
        <time>2022-05-29T08:10:03Z</time>
      </trkpt>
      <trkpt lat="48.99399" lon="2.11827">
        <ele>54.3</ele>
        <time>2022-05-29T08:10:08Z</time>
      </trkpt>
      <trkpt lat="48.99405" lon="2.11829">
        <ele>55.2</ele>
        <time>2022-05-29T08:10:13Z</time>
      </trkpt>
      <trkpt lat="48.99412" lon="2.11827">
        <ele>56.2</ele>
        <time>2022-05-29T08:10:18Z</time>
      </trkpt>
      <trkpt lat="48.99417" lon="2.11825">
        <ele>56.7</ele>
        <time>2022-05-29T08:10:23Z</time>
      </trkpt>
      <trkpt lat="48.99422" lon="2.11819">
        <ele>56.6</ele>
        <time>2022-05-29T08:10:29Z</time>
      </trkpt>
      <trkpt lat="48.99424" lon="2.11811">
        <ele>56.4</ele>
        <time>2022-05-29T08:10:34Z</time>
      </trkpt>
      <trkpt lat="48.99427" lon="2.11803">
        <ele>56.4</ele>
        <time>2022-05-29T08:10:40Z</time>
      </trkpt>
      <trkpt lat="48.99432" lon="2.11798">
        <ele>56.5</ele>
        <time>2022-05-29T08:10:45Z</time>
      </trkpt>
      <trkpt lat="48.9944" lon="2.11799">
        <ele>56.8</ele>
        <time>2022-05-29T08:10:51Z</time>
      </trkpt>
      <trkpt lat="48.99443" lon="2.11801">
        <ele>57</ele>
        <time>2022-05-29T08:10:57Z</time>
      </trkpt>
      <trkpt lat="48.99446" lon="2.11802">
        <ele>57</ele>
        <time>2022-05-29T08:11:02Z</time>
      </trkpt>
      <trkpt lat="48.99452" lon="2.11802">
        <ele>57</ele>
        <time>2022-05-29T08:11:08Z</time>
      </trkpt>
      <trkpt lat="48.99457" lon="2.11803">
        <ele>57</ele>
        <time>2022-05-29T08:11:13Z</time>
      </trkpt>
      <trkpt lat="48.99464" lon="2.11804">
        <ele>57</ele>
        <time>2022-05-29T08:11:19Z</time>
      </trkpt>
      <trkpt lat="48.99472" lon="2.11806">
        <ele>57</ele>
        <time>2022-05-29T08:11:25Z</time>
      </trkpt>
      <trkpt lat="48.9948" lon="2.11805">
        <ele>57.3</ele>
        <time>2022-05-29T08:11:31Z</time>
      </trkpt>
      <trkpt lat="48.99488" lon="2.11803">
        <ele>57.6</ele>
        <time>2022-05-29T08:11:37Z</time>
      </trkpt>
      <trkpt lat="48.99496" lon="2.11801">
        <ele>57.9</ele>
        <time>2022-05-29T08:11:43Z</time>
      </trkpt>
      <trkpt lat="48.99503" lon="2.118">
        <ele>57.9</ele>
        <time>2022-05-29T08:11:49Z</time>
      </trkpt>
      <trkpt lat="48.99513" lon="2.11798">
        <ele>57.7</ele>
        <time>2022-05-29T08:11:55Z</time>
      </trkpt>
      <trkpt lat="48.99519" lon="2.11797">
        <ele>57.5</ele>
        <time>2022-05-29T08:12:00Z</time>
      </trkpt>
      <trkpt lat="48.99528" lon="2.11798">
        <ele>57.3</ele>
        <time>2022-05-29T08:12:06Z</time>
      </trkpt>
      <trkpt lat="48.99534" lon="2.11799">
        <ele>57.2</ele>
        <time>2022-05-29T08:12:11Z</time>
      </trkpt>
      <trkpt lat="48.99543" lon="2.11801">
        <ele>57.2</ele>
        <time>2022-05-29T08:12:17Z</time>
      </trkpt>
      <trkpt lat="48.9955" lon="2.11801">
        <ele>57.2</ele>
        <time>2022-05-29T08:12:23Z</time>
      </trkpt>
      <trkpt lat="48.99559" lon="2.11802">
        <ele>57.1</ele>
        <time>2022-05-29T08:12:29Z</time>
      </trkpt>
      <trkpt lat="48.99567" lon="2.11804">
        <ele>57</ele>
        <time>2022-05-29T08:12:35Z</time>
      </trkpt>
      <trkpt lat="48.99574" lon="2.11805">
        <ele>57</ele>
        <time>2022-05-29T08:12:40Z</time>
      </trkpt>
      <trkpt lat="48.99582" lon="2.11806">
        <ele>57</ele>
        <time>2022-05-29T08:12:46Z</time>
      </trkpt>
      <trkpt lat="48.99588" lon="2.11807">
        <ele>57.2</ele>
        <time>2022-05-29T08:12:51Z</time>
      </trkpt>
      <trkpt lat="48.99597" lon="2.11805">
        <ele>57.5</ele>
        <time>2022-05-29T08:12:57Z</time>
      </trkpt>
      <trkpt lat="48.99604" lon="2.1179">
        <ele>57.8</ele>
        <time>2022-05-29T08:13:06Z</time>
      </trkpt>
      <trkpt lat="48.99605" lon="2.11779">
        <ele>57.8</ele>
        <time>2022-05-29T08:13:12Z</time>
      </trkpt>
      <trkpt lat="48.99604" lon="2.11768">
        <ele>57.5</ele>
        <time>2022-05-29T08:13:17Z</time>
      </trkpt>
      <trkpt lat="48.99606" lon="2.11758">
        <ele>57.2</ele>
        <time>2022-05-29T08:13:22Z</time>
      </trkpt>
      <trkpt lat="48.99604" lon="2.11747">
        <ele>57</ele>
        <time>2022-05-29T08:13:28Z</time>
      </trkpt>
      <trkpt lat="48.99604" lon="2.11735">
        <ele>57</ele>
        <time>2022-05-29T08:13:34Z</time>
      </trkpt>
      <trkpt lat="48.99605" lon="2.11723">
        <ele>57</ele>
        <time>2022-05-29T08:13:39Z</time>
      </trkpt>
      <trkpt lat="48.99606" lon="2.11714">
        <ele>57</ele>
        <time>2022-05-29T08:13:44Z</time>
      </trkpt>
      <trkpt lat="48.99612" lon="2.117">
        <ele>57</ele>
        <time>2022-05-29T08:13:50Z</time>
      </trkpt>
      <trkpt lat="48.9962" lon="2.11696">
        <ele>57</ele>
        <time>2022-05-29T08:13:56Z</time>
      </trkpt>
      <trkpt lat="48.99629" lon="2.11695">
        <ele>57</ele>
        <time>2022-05-29T08:14:02Z</time>
      </trkpt>
      <trkpt lat="48.99637" lon="2.11694">
        <ele>57</ele>
        <time>2022-05-29T08:14:08Z</time>
      </trkpt>
      <trkpt lat="48.99642" lon="2.11693">
        <ele>57</ele>
        <time>2022-05-29T08:14:13Z</time>
      </trkpt>
      <trkpt lat="48.99652" lon="2.1169">
        <ele>57</ele>
        <time>2022-05-29T08:14:20Z</time>
      </trkpt>
      <trkpt lat="48.99661" lon="2.11687">
        <ele>57</ele>
        <time>2022-05-29T08:14:26Z</time>
      </trkpt>
      <trkpt lat="48.99668" lon="2.11686">
        <ele>57</ele>
        <time>2022-05-29T08:14:31Z</time>
      </trkpt>
      <trkpt lat="48.99676" lon="2.11683">
        <ele>56.8</ele>
        <time>2022-05-29T08:14:37Z</time>
      </trkpt>
      <trkpt lat="48.99682" lon="2.1168">
        <ele>56.7</ele>
        <time>2022-05-29T08:14:42Z</time>
      </trkpt>
      <trkpt lat="48.99689" lon="2.11679">
        <ele>56.6</ele>
        <time>2022-05-29T08:14:47Z</time>
      </trkpt>
      <trkpt lat="48.99696" lon="2.11675">
        <ele>56.6</ele>
        <time>2022-05-29T08:14:53Z</time>
      </trkpt>
      <trkpt lat="48.99706" lon="2.11672">
        <ele>56.5</ele>
        <time>2022-05-29T08:14:59Z</time>
      </trkpt>
      <trkpt lat="48.99713" lon="2.1167">
        <ele>56.3</ele>
        <time>2022-05-29T08:15:05Z</time>
      </trkpt>
      <trkpt lat="48.9972" lon="2.11667">
        <ele>56.1</ele>
        <time>2022-05-29T08:15:10Z</time>
      </trkpt>
      <trkpt lat="48.99728" lon="2.11666">
        <ele>56</ele>
        <time>2022-05-29T08:15:16Z</time>
      </trkpt>
      <trkpt lat="48.99735" lon="2.11671">
        <ele>56</ele>
        <time>2022-05-29T08:15:21Z</time>
      </trkpt>
      <trkpt lat="48.99743" lon="2.11676">
        <ele>56</ele>
        <time>2022-05-29T08:15:26Z</time>
      </trkpt>
      <trkpt lat="48.9975" lon="2.11681">
        <ele>56</ele>
        <time>2022-05-29T08:15:31Z</time>
      </trkpt>
      <trkpt lat="48.99757" lon="2.11682">
        <ele>56</ele>
        <time>2022-05-29T08:15:37Z</time>
      </trkpt>
      <trkpt lat="48.99765" lon="2.11678">
        <ele>56</ele>
        <time>2022-05-29T08:15:43Z</time>
      </trkpt>
      <trkpt lat="48.99771" lon="2.11674">
        <ele>56</ele>
        <time>2022-05-29T08:15:48Z</time>
      </trkpt>
      <trkpt lat="48.99776" lon="2.11671">
        <ele>56</ele>
        <time>2022-05-29T08:15:53Z</time>
      </trkpt>
      <trkpt lat="48.99784" lon="2.11664">
        <ele>55.8</ele>
        <time>2022-05-29T08:15:59Z</time>
      </trkpt>
      <trkpt lat="48.99793" lon="2.11655">
        <ele>55.4</ele>
        <time>2022-05-29T08:16:05Z</time>
      </trkpt>
      <trkpt lat="48.99801" lon="2.11645">
        <ele>55.2</ele>
        <time>2022-05-29T08:16:11Z</time>
      </trkpt>
      <trkpt lat="48.99805" lon="2.11636">
        <ele>55</ele>
        <time>2022-05-29T08:16:17Z</time>
      </trkpt>
      <trkpt lat="48.99813" lon="2.11638">
        <ele>54.7</ele>
        <time>2022-05-29T08:16:23Z</time>
      </trkpt>
      <trkpt lat="48.99821" lon="2.11647">
        <ele>54.6</ele>
        <time>2022-05-29T08:16:29Z</time>
      </trkpt>
      <trkpt lat="48.9983" lon="2.11654">
        <ele>54.6</ele>
        <time>2022-05-29T08:16:35Z</time>
      </trkpt>
      <trkpt lat="48.99837" lon="2.11659">
        <ele>54.4</ele>
        <time>2022-05-29T08:16:40Z</time>
      </trkpt>
      <trkpt lat="48.99843" lon="2.11665">
        <ele>54.3</ele>
        <time>2022-05-29T08:16:45Z</time>
      </trkpt>
      <trkpt lat="48.99851" lon="2.11671">
        <ele>53.8</ele>
        <time>2022-05-29T08:16:51Z</time>
      </trkpt>
      <trkpt lat="48.99857" lon="2.11676">
        <ele>53.5</ele>
        <time>2022-05-29T08:16:56Z</time>
      </trkpt>
      <trkpt lat="48.99865" lon="2.11681">
        <ele>53.2</ele>
        <time>2022-05-29T08:17:02Z</time>
      </trkpt>
      <trkpt lat="48.99873" lon="2.11685">
        <ele>52.8</ele>
        <time>2022-05-29T08:17:08Z</time>
      </trkpt>
      <trkpt lat="48.99882" lon="2.11693">
        <ele>52.4</ele>
        <time>2022-05-29T08:17:14Z</time>
      </trkpt>
      <trkpt lat="48.9989" lon="2.11701">
        <ele>52.4</ele>
        <time>2022-05-29T08:17:20Z</time>
      </trkpt>
      <trkpt lat="48.99897" lon="2.11708">
        <ele>52.4</ele>
        <time>2022-05-29T08:17:26Z</time>
      </trkpt>
      <trkpt lat="48.99905" lon="2.11715">
        <ele>52.1</ele>
        <time>2022-05-29T08:17:32Z</time>
      </trkpt>
      <trkpt lat="48.99911" lon="2.1172">
        <ele>51.5</ele>
        <time>2022-05-29T08:17:37Z</time>
      </trkpt>
      <trkpt lat="48.99917" lon="2.11727">
        <ele>51.3</ele>
        <time>2022-05-29T08:17:42Z</time>
      </trkpt>
      <trkpt lat="48.99924" lon="2.11733">
        <ele>51.7</ele>
        <time>2022-05-29T08:17:48Z</time>
      </trkpt>
      <trkpt lat="48.99934" lon="2.11736">
        <ele>51.7</ele>
        <time>2022-05-29T08:17:54Z</time>
      </trkpt>
      <trkpt lat="48.99941" lon="2.11732">
        <ele>51.4</ele>
        <time>2022-05-29T08:18:00Z</time>
      </trkpt>
      <trkpt lat="48.99942" lon="2.11724">
        <ele>51.1</ele>
        <time>2022-05-29T08:18:05Z</time>
      </trkpt>
      <trkpt lat="48.99942" lon="2.11709">
        <ele>50.6</ele>
        <time>2022-05-29T08:18:10Z</time>
      </trkpt>
      <trkpt lat="48.99941" lon="2.11696">
        <ele>50.2</ele>
        <time>2022-05-29T08:18:15Z</time>
      </trkpt>
      <trkpt lat="48.99942" lon="2.11681">
        <ele>49.6</ele>
        <time>2022-05-29T08:18:21Z</time>
      </trkpt>
      <trkpt lat="48.99942" lon="2.11672">
        <ele>49.3</ele>
        <time>2022-05-29T08:18:26Z</time>
      </trkpt>
      <trkpt lat="48.99943" lon="2.11658">
        <ele>48.7</ele>
        <time>2022-05-29T08:18:32Z</time>
      </trkpt>
      <trkpt lat="48.99944" lon="2.11641">
        <ele>48.1</ele>
        <time>2022-05-29T08:18:38Z</time>
      </trkpt>
      <trkpt lat="48.99945" lon="2.11633">
        <ele>48</ele>
        <time>2022-05-29T08:18:43Z</time>
      </trkpt>
      <trkpt lat="48.99945" lon="2.11621">
        <ele>48</ele>
        <time>2022-05-29T08:18:49Z</time>
      </trkpt>
      <trkpt lat="48.99945" lon="2.11609">
        <ele>48</ele>
        <time>2022-05-29T08:18:55Z</time>
      </trkpt>
      <trkpt lat="48.99952" lon="2.11607">
        <ele>48.1</ele>
        <time>2022-05-29T08:19:00Z</time>
      </trkpt>
      <trkpt lat="48.99959" lon="2.1161">
        <ele>48.1</ele>
        <time>2022-05-29T08:19:06Z</time>
      </trkpt>
      <trkpt lat="48.99967" lon="2.11608">
        <ele>48.3</ele>
        <time>2022-05-29T08:19:11Z</time>
      </trkpt>
      <trkpt lat="48.99974" lon="2.11609">
        <ele>48.1</ele>
        <time>2022-05-29T08:19:17Z</time>
      </trkpt>
      <trkpt lat="48.99981" lon="2.11614">
        <ele>47.7</ele>
        <time>2022-05-29T08:19:22Z</time>
      </trkpt>
      <trkpt lat="48.9999" lon="2.11622">
        <ele>47.5</ele>
        <time>2022-05-29T08:19:28Z</time>
      </trkpt>
      <trkpt lat="48.99991" lon="2.11632">
        <ele>47.6</ele>
        <time>2022-05-29T08:19:33Z</time>
      </trkpt>
      <trkpt lat="48.99989" lon="2.11641">
        <ele>47.8</ele>
        <time>2022-05-29T08:19:39Z</time>
      </trkpt>
      <trkpt lat="48.9999" lon="2.11647">
        <ele>47.7</ele>
        <time>2022-05-29T08:19:44Z</time>
      </trkpt>
      <trkpt lat="48.9999" lon="2.11657">
        <ele>47.7</ele>
        <time>2022-05-29T08:19:50Z</time>
      </trkpt>
      <trkpt lat="48.99989" lon="2.11664">
        <ele>47.8</ele>
        <time>2022-05-29T08:19:55Z</time>
      </trkpt>
      <trkpt lat="48.99989" lon="2.11673">
        <ele>47.8</ele>
        <time>2022-05-29T08:20:01Z</time>
      </trkpt>
      <trkpt lat="48.9999" lon="2.11682">
        <ele>47.7</ele>
        <time>2022-05-29T08:20:07Z</time>
      </trkpt>
      <trkpt lat="48.99991" lon="2.1169">
        <ele>47.7</ele>
        <time>2022-05-29T08:20:12Z</time>
      </trkpt>
      <trkpt lat="48.99992" lon="2.11703">
        <ele>47.8</ele>
        <time>2022-05-29T08:20:17Z</time>
      </trkpt>
      <trkpt lat="48.99996" lon="2.11716">
        <ele>48</ele>
        <time>2022-05-29T08:20:23Z</time>
      </trkpt>
      <trkpt lat="48.99999" lon="2.11725">
        <ele>48.1</ele>
        <time>2022-05-29T08:20:28Z</time>
      </trkpt>
      <trkpt lat="49.00003" lon="2.11731">
        <ele>48.3</ele>
        <time>2022-05-29T08:20:34Z</time>
      </trkpt>
      <trkpt lat="49.00008" lon="2.1174">
        <ele>48.5</ele>
        <time>2022-05-29T08:20:40Z</time>
      </trkpt>
      <trkpt lat="49.00011" lon="2.11749">
        <ele>48.6</ele>
        <time>2022-05-29T08:20:45Z</time>
      </trkpt>
      <trkpt lat="49.00017" lon="2.11759">
        <ele>48.5</ele>
        <time>2022-05-29T08:20:51Z</time>
      </trkpt>
      <trkpt lat="49.00021" lon="2.11769">
        <ele>48.4</ele>
        <time>2022-05-29T08:20:57Z</time>
      </trkpt>
      <trkpt lat="49.00023" lon="2.11778">
        <ele>48.3</ele>
        <time>2022-05-29T08:21:03Z</time>
      </trkpt>
      <trkpt lat="49.00023" lon="2.11784">
        <ele>48.8</ele>
        <time>2022-05-29T08:21:08Z</time>
      </trkpt>
      <trkpt lat="49.00024" lon="2.11785">
        <ele>48.8</ele>
        <time>2022-05-29T08:21:13Z</time>
      </trkpt>
      <trkpt lat="49.00026" lon="2.1179">
        <ele>49</ele>
        <time>2022-05-29T08:21:19Z</time>
      </trkpt>
      <trkpt lat="49.00027" lon="2.11795">
        <ele>49.3</ele>
        <time>2022-05-29T08:21:25Z</time>
      </trkpt>
      <trkpt lat="49.00027" lon="2.11802">
        <ele>49.8</ele>
        <time>2022-05-29T08:21:31Z</time>
      </trkpt>
      <trkpt lat="49.00028" lon="2.11807">
        <ele>50.1</ele>
        <time>2022-05-29T08:21:36Z</time>
      </trkpt>
      <trkpt lat="49.00029" lon="2.11814">
        <ele>50.3</ele>
        <time>2022-05-29T08:21:42Z</time>
      </trkpt>
      <trkpt lat="49.00029" lon="2.11816">
        <ele>50.3</ele>
        <time>2022-05-29T08:21:48Z</time>
      </trkpt>
      <trkpt lat="49.00027" lon="2.11813">
        <ele>50.3</ele>
        <time>2022-05-29T08:21:55Z</time>
      </trkpt>
      <trkpt lat="49.00026" lon="2.11809">
        <ele>50.2</ele>
        <time>2022-05-29T08:22:01Z</time>
      </trkpt>
      <trkpt lat="49.00026" lon="2.11808">
        <ele>50.2</ele>
        <time>2022-05-29T08:22:06Z</time>
      </trkpt>
      <trkpt lat="49.00026" lon="2.11807">
        <ele>50.2</ele>
        <time>2022-05-29T08:22:12Z</time>
      </trkpt>
      <trkpt lat="49.00026" lon="2.11807">
        <ele>50.2</ele>
        <time>2022-05-29T08:22:17Z</time>
      </trkpt>
      <trkpt lat="49.00026" lon="2.11807">
        <ele>50.2</ele>
        <time>2022-05-29T08:22:23Z</time>
      </trkpt>
      <trkpt lat="49.00027" lon="2.11807">
        <ele>50.1</ele>
        <time>2022-05-29T08:22:28Z</time>
      </trkpt>
      <trkpt lat="49.00028" lon="2.11808">
        <ele>50.1</ele>
        <time>2022-05-29T08:22:36Z</time>
      </trkpt>
      <trkpt lat="49.00028" lon="2.11809">
        <ele>50.1</ele>
        <time>2022-05-29T08:22:42Z</time>
      </trkpt>
      <trkpt lat="49.00028" lon="2.11808">
        <ele>50.1</ele>
        <time>2022-05-29T08:22:48Z</time>
      </trkpt>
      <trkpt lat="49.00028" lon="2.11806">
        <ele>50</ele>
        <time>2022-05-29T08:22:54Z</time>
      </trkpt>
      <trkpt lat="49.00028" lon="2.11806">
        <ele>50</ele>
        <time>2022-05-29T08:23:00Z</time>
      </trkpt>
      <trkpt lat="49.00028" lon="2.11808">
        <ele>50.1</ele>
        <time>2022-05-29T08:23:06Z</time>
      </trkpt>
      <trkpt lat="49.00028" lon="2.11811">
        <ele>50.2</ele>
        <time>2022-05-29T08:23:12Z</time>
      </trkpt>
      <trkpt lat="49.00029" lon="2.11812">
        <ele>50.2</ele>
        <time>2022-05-29T08:23:17Z</time>
      </trkpt>
      <trkpt lat="49.0003" lon="2.11812">
        <ele>50.1</ele>
        <time>2022-05-29T08:23:23Z</time>
      </trkpt>
      <trkpt lat="49.0003" lon="2.11811">
        <ele>50.1</ele>
        <time>2022-05-29T08:23:28Z</time>
      </trkpt>
      <trkpt lat="49.00032" lon="2.11815">
        <ele>50.2</ele>
        <time>2022-05-29T08:23:33Z</time>
      </trkpt>
      <trkpt lat="49.00038" lon="2.11819">
        <ele>50.1</ele>
        <time>2022-05-29T08:23:39Z</time>
      </trkpt>
      <trkpt lat="49.00045" lon="2.11828">
        <ele>50.2</ele>
        <time>2022-05-29T08:23:45Z</time>
      </trkpt>
      <trkpt lat="49.0005" lon="2.11833">
        <ele>50.2</ele>
        <time>2022-05-29T08:23:50Z</time>
      </trkpt>
      <trkpt lat="49.00057" lon="2.11837">
        <ele>50</ele>
        <time>2022-05-29T08:23:55Z</time>
      </trkpt>
      <trkpt lat="49.00063" lon="2.11841">
        <ele>49.8</ele>
        <time>2022-05-29T08:24:01Z</time>
      </trkpt>
      <trkpt lat="49.0007" lon="2.11847">
        <ele>49.7</ele>
        <time>2022-05-29T08:24:06Z</time>
      </trkpt>
      <trkpt lat="49.00078" lon="2.11854">
        <ele>49.7</ele>
        <time>2022-05-29T08:24:12Z</time>
      </trkpt>
      <trkpt lat="49.00085" lon="2.11864">
        <ele>50</ele>
        <time>2022-05-29T08:24:18Z</time>
      </trkpt>
      <trkpt lat="49.00091" lon="2.11873">
        <ele>49.7</ele>
        <time>2022-05-29T08:24:24Z</time>
      </trkpt>
      <trkpt lat="49.00088" lon="2.11883">
        <ele>49.8</ele>
        <time>2022-05-29T08:24:30Z</time>
      </trkpt>
      <trkpt lat="49.00083" lon="2.11897">
        <ele>50</ele>
        <time>2022-05-29T08:24:35Z</time>
      </trkpt>
      <trkpt lat="49.0008" lon="2.11911">
        <ele>50</ele>
        <time>2022-05-29T08:24:40Z</time>
      </trkpt>
      <trkpt lat="49.00074" lon="2.11921">
        <ele>50.1</ele>
        <time>2022-05-29T08:24:45Z</time>
      </trkpt>
      <trkpt lat="49.0007" lon="2.11933">
        <ele>50.3</ele>
        <time>2022-05-29T08:24:51Z</time>
      </trkpt>
      <trkpt lat="49.00066" lon="2.11942">
        <ele>50.3</ele>
        <time>2022-05-29T08:24:56Z</time>
      </trkpt>
      <trkpt lat="49.00062" lon="2.11952">
        <ele>50.2</ele>
        <time>2022-05-29T08:25:01Z</time>
      </trkpt>
      <trkpt lat="49.00059" lon="2.11965">
        <ele>50</ele>
        <time>2022-05-29T08:25:07Z</time>
      </trkpt>
      <trkpt lat="49.00055" lon="2.11976">
        <ele>50</ele>
        <time>2022-05-29T08:25:13Z</time>
      </trkpt>
      <trkpt lat="49.00052" lon="2.11987">
        <ele>50.1</ele>
        <time>2022-05-29T08:25:18Z</time>
      </trkpt>
      <trkpt lat="49.0005" lon="2.11997">
        <ele>50.2</ele>
        <time>2022-05-29T08:25:23Z</time>
      </trkpt>
      <trkpt lat="49.00053" lon="2.1201">
        <ele>50.1</ele>
        <time>2022-05-29T08:25:29Z</time>
      </trkpt>
      <trkpt lat="49.0006" lon="2.12019">
        <ele>50</ele>
        <time>2022-05-29T08:25:34Z</time>
      </trkpt>
      <trkpt lat="49.00069" lon="2.12026">
        <ele>50</ele>
        <time>2022-05-29T08:25:40Z</time>
      </trkpt>
      <trkpt lat="49.00078" lon="2.1203">
        <ele>50</ele>
        <time>2022-05-29T08:25:45Z</time>
      </trkpt>
      <trkpt lat="49.00086" lon="2.12036">
        <ele>50</ele>
        <time>2022-05-29T08:25:51Z</time>
      </trkpt>
      <trkpt lat="49.00094" lon="2.12042">
        <ele>50</ele>
        <time>2022-05-29T08:25:57Z</time>
      </trkpt>
      <trkpt lat="49.001" lon="2.12051">
        <ele>50</ele>
        <time>2022-05-29T08:26:02Z</time>
      </trkpt>
      <trkpt lat="49.00106" lon="2.12055">
        <ele>50</ele>
        <time>2022-05-29T08:26:07Z</time>
      </trkpt>
      <trkpt lat="49.00112" lon="2.12059">
        <ele>49.8</ele>
        <time>2022-05-29T08:26:12Z</time>
      </trkpt>
      <trkpt lat="49.00117" lon="2.12069">
        <ele>49.3</ele>
        <time>2022-05-29T08:26:18Z</time>
      </trkpt>
      <trkpt lat="49.00118" lon="2.12082">
        <ele>49</ele>
        <time>2022-05-29T08:26:23Z</time>
      </trkpt>
      <trkpt lat="49.00118" lon="2.12097">
        <ele>49.5</ele>
        <time>2022-05-29T08:26:29Z</time>
      </trkpt>
      <trkpt lat="49.00113" lon="2.12106">
        <ele>49.8</ele>
        <time>2022-05-29T08:26:34Z</time>
      </trkpt>
      <trkpt lat="49.00108" lon="2.12113">
        <ele>50.1</ele>
        <time>2022-05-29T08:26:39Z</time>
      </trkpt>
      <trkpt lat="49.00105" lon="2.12121">
        <ele>50.3</ele>
        <time>2022-05-29T08:26:44Z</time>
      </trkpt>
      <trkpt lat="49.00101" lon="2.12134">
        <ele>50.8</ele>
        <time>2022-05-29T08:26:50Z</time>
      </trkpt>
      <trkpt lat="49.00098" lon="2.12147">
        <ele>50.8</ele>
        <time>2022-05-29T08:26:55Z</time>
      </trkpt>
      <trkpt lat="49.00096" lon="2.12159">
        <ele>50.7</ele>
        <time>2022-05-29T08:27:00Z</time>
      </trkpt>
      <trkpt lat="49.00098" lon="2.12175">
        <ele>50.6</ele>
        <time>2022-05-29T08:27:06Z</time>
      </trkpt>
      <trkpt lat="49.00099" lon="2.12184">
        <ele>50.7</ele>
        <time>2022-05-29T08:27:11Z</time>
      </trkpt>
      <trkpt lat="49.001" lon="2.12196">
        <ele>50.9</ele>
        <time>2022-05-29T08:27:17Z</time>
      </trkpt>
      <trkpt lat="49.00101" lon="2.12208">
        <ele>51.4</ele>
        <time>2022-05-29T08:27:22Z</time>
      </trkpt>
      <trkpt lat="49.001" lon="2.12222">
        <ele>52.2</ele>
        <time>2022-05-29T08:27:28Z</time>
      </trkpt>
      <trkpt lat="49.001" lon="2.12234">
        <ele>52.1</ele>
        <time>2022-05-29T08:27:33Z</time>
      </trkpt>
      <trkpt lat="49.00107" lon="2.12244">
        <ele>51.9</ele>
        <time>2022-05-29T08:27:39Z</time>
      </trkpt>
      <trkpt lat="49.00112" lon="2.12249">
        <ele>51.9</ele>
        <time>2022-05-29T08:27:44Z</time>
      </trkpt>
      <trkpt lat="49.00117" lon="2.12255">
        <ele>51.4</ele>
        <time>2022-05-29T08:27:49Z</time>
      </trkpt>
      <trkpt lat="49.00122" lon="2.12268">
        <ele>50.6</ele>
        <time>2022-05-29T08:27:55Z</time>
      </trkpt>
      <trkpt lat="49.00124" lon="2.1228">
        <ele>50.1</ele>
        <time>2022-05-29T08:28:00Z</time>
      </trkpt>
      <trkpt lat="49.00133" lon="2.12285">
        <ele>49.8</ele>
        <time>2022-05-29T08:28:06Z</time>
      </trkpt>
      <trkpt lat="49.00141" lon="2.12288">
        <ele>49.8</ele>
        <time>2022-05-29T08:28:12Z</time>
      </trkpt>
      <trkpt lat="49.00147" lon="2.12291">
        <ele>50</ele>
        <time>2022-05-29T08:28:18Z</time>
      </trkpt>
      <trkpt lat="49.00157" lon="2.12294">
        <ele>50</ele>
        <time>2022-05-29T08:28:23Z</time>
      </trkpt>
      <trkpt lat="49.00161" lon="2.12299">
        <ele>50.1</ele>
        <time>2022-05-29T08:28:29Z</time>
      </trkpt>
      <trkpt lat="49.0016" lon="2.12303">
        <ele>50.2</ele>
        <time>2022-05-29T08:28:34Z</time>
      </trkpt>
      <trkpt lat="49.00156" lon="2.12314">
        <ele>50.4</ele>
        <time>2022-05-29T08:28:39Z</time>
      </trkpt>
      <trkpt lat="49.00153" lon="2.12323">
        <ele>50.5</ele>
        <time>2022-05-29T08:28:44Z</time>
      </trkpt>
      <trkpt lat="49.00148" lon="2.12336">
        <ele>50.7</ele>
        <time>2022-05-29T08:28:50Z</time>
      </trkpt>
      <trkpt lat="49.00141" lon="2.12342">
        <ele>51</ele>
        <time>2022-05-29T08:28:56Z</time>
      </trkpt>
      <trkpt lat="49.00138" lon="2.12352">
        <ele>51</ele>
        <time>2022-05-29T08:29:02Z</time>
      </trkpt>
      <trkpt lat="49.0014" lon="2.12359">
        <ele>51</ele>
        <time>2022-05-29T08:29:07Z</time>
      </trkpt>
      <trkpt lat="49.00138" lon="2.12364">
        <ele>51</ele>
        <time>2022-05-29T08:29:13Z</time>
      </trkpt>
      <trkpt lat="49.00137" lon="2.12371">
        <ele>51</ele>
        <time>2022-05-29T08:29:18Z</time>
      </trkpt>
      <trkpt lat="49.00135" lon="2.12384">
        <ele>50.9</ele>
        <time>2022-05-29T08:29:24Z</time>
      </trkpt>
      <trkpt lat="49.00132" lon="2.12392">
        <ele>50.7</ele>
        <time>2022-05-29T08:29:29Z</time>
      </trkpt>
      <trkpt lat="49.00132" lon="2.12402">
        <ele>50.7</ele>
        <time>2022-05-29T08:29:34Z</time>
      </trkpt>
      <trkpt lat="49.00133" lon="2.12415">
        <ele>50.6</ele>
        <time>2022-05-29T08:29:40Z</time>
      </trkpt>
      <trkpt lat="49.00133" lon="2.1243">
        <ele>50.7</ele>
        <time>2022-05-29T08:29:45Z</time>
      </trkpt>
      <trkpt lat="49.00136" lon="2.12439">
        <ele>50.9</ele>
        <time>2022-05-29T08:29:50Z</time>
      </trkpt>
      <trkpt lat="49.00138" lon="2.12452">
        <ele>51.3</ele>
        <time>2022-05-29T08:29:56Z</time>
      </trkpt>
      <trkpt lat="49.00139" lon="2.12462">
        <ele>51.6</ele>
        <time>2022-05-29T08:30:01Z</time>
      </trkpt>
      <trkpt lat="49.00139" lon="2.12474">
        <ele>52</ele>
        <time>2022-05-29T08:30:07Z</time>
      </trkpt>
      <trkpt lat="49.00138" lon="2.12489">
        <ele>52</ele>
        <time>2022-05-29T08:30:13Z</time>
      </trkpt>
      <trkpt lat="49.00136" lon="2.125">
        <ele>51.9</ele>
        <time>2022-05-29T08:30:18Z</time>
      </trkpt>
      <trkpt lat="49.00132" lon="2.12509">
        <ele>51.8</ele>
        <time>2022-05-29T08:30:24Z</time>
      </trkpt>
      <trkpt lat="49.00126" lon="2.1252">
        <ele>51.9</ele>
        <time>2022-05-29T08:30:30Z</time>
      </trkpt>
      <trkpt lat="49.00119" lon="2.12528">
        <ele>52</ele>
        <time>2022-05-29T08:30:36Z</time>
      </trkpt>
      <trkpt lat="49.00116" lon="2.12535">
        <ele>52.2</ele>
        <time>2022-05-29T08:30:41Z</time>
      </trkpt>
      <trkpt lat="49.0011" lon="2.12547">
        <ele>52.7</ele>
        <time>2022-05-29T08:30:47Z</time>
      </trkpt>
      <trkpt lat="49.00106" lon="2.12557">
        <ele>52.8</ele>
        <time>2022-05-29T08:30:52Z</time>
      </trkpt>
      <trkpt lat="49.00104" lon="2.12569">
        <ele>52.9</ele>
        <time>2022-05-29T08:30:58Z</time>
      </trkpt>
      <trkpt lat="49.00101" lon="2.12579">
        <ele>52.9</ele>
        <time>2022-05-29T08:31:03Z</time>
      </trkpt>
      <trkpt lat="49.00099" lon="2.12594">
        <ele>53</ele>
        <time>2022-05-29T08:31:09Z</time>
      </trkpt>
      <trkpt lat="49.00096" lon="2.12601">
        <ele>53</ele>
        <time>2022-05-29T08:31:15Z</time>
      </trkpt>
      <trkpt lat="49.00092" lon="2.1261">
        <ele>53</ele>
        <time>2022-05-29T08:31:20Z</time>
      </trkpt>
      <trkpt lat="49.00091" lon="2.12617">
        <ele>53.2</ele>
        <time>2022-05-29T08:31:25Z</time>
      </trkpt>
      <trkpt lat="49.00087" lon="2.12628">
        <ele>53.5</ele>
        <time>2022-05-29T08:31:30Z</time>
      </trkpt>
      <trkpt lat="49.00084" lon="2.12639">
        <ele>54</ele>
        <time>2022-05-29T08:31:36Z</time>
      </trkpt>
      <trkpt lat="49.0008" lon="2.12649">
        <ele>53.9</ele>
        <time>2022-05-29T08:31:42Z</time>
      </trkpt>
      <trkpt lat="49.00078" lon="2.12661">
        <ele>54</ele>
        <time>2022-05-29T08:31:47Z</time>
      </trkpt>
      <trkpt lat="49.00075" lon="2.12671">
        <ele>54</ele>
        <time>2022-05-29T08:31:52Z</time>
      </trkpt>
      <trkpt lat="49.00072" lon="2.12681">
        <ele>54</ele>
        <time>2022-05-29T08:31:57Z</time>
      </trkpt>
      <trkpt lat="49.00068" lon="2.12693">
        <ele>54</ele>
        <time>2022-05-29T08:32:03Z</time>
      </trkpt>
      <trkpt lat="49.00065" lon="2.12705">
        <ele>54.3</ele>
        <time>2022-05-29T08:32:08Z</time>
      </trkpt>
      <trkpt lat="49.00062" lon="2.12717">
        <ele>54.6</ele>
        <time>2022-05-29T08:32:13Z</time>
      </trkpt>
      <trkpt lat="49.00057" lon="2.12732">
        <ele>55</ele>
        <time>2022-05-29T08:32:19Z</time>
      </trkpt>
      <trkpt lat="49.00053" lon="2.12743">
        <ele>55</ele>
        <time>2022-05-29T08:32:24Z</time>
      </trkpt>
      <trkpt lat="49.00052" lon="2.12753">
        <ele>55</ele>
        <time>2022-05-29T08:32:30Z</time>
      </trkpt>
      <trkpt lat="49.00049" lon="2.12763">
        <ele>55</ele>
        <time>2022-05-29T08:32:36Z</time>
      </trkpt>
      <trkpt lat="49.00044" lon="2.12774">
        <ele>55</ele>
        <time>2022-05-29T08:32:41Z</time>
      </trkpt>
      <trkpt lat="49.0004" lon="2.12786">
        <ele>55</ele>
        <time>2022-05-29T08:32:47Z</time>
      </trkpt>
      <trkpt lat="49.00036" lon="2.12798">
        <ele>55.3</ele>
        <time>2022-05-29T08:32:53Z</time>
      </trkpt>
      <trkpt lat="49.00035" lon="2.12807">
        <ele>55.5</ele>
        <time>2022-05-29T08:32:58Z</time>
      </trkpt>
      <trkpt lat="49.00034" lon="2.12818">
        <ele>55.7</ele>
        <time>2022-05-29T08:33:03Z</time>
      </trkpt>
      <trkpt lat="49.00029" lon="2.12832">
        <ele>56</ele>
        <time>2022-05-29T08:33:09Z</time>
      </trkpt>
      <trkpt lat="49.00026" lon="2.12842">
        <ele>56.3</ele>
        <time>2022-05-29T08:33:14Z</time>
      </trkpt>
      <trkpt lat="49.00023" lon="2.12852">
        <ele>56.7</ele>
        <time>2022-05-29T08:33:19Z</time>
      </trkpt>
      <trkpt lat="49.00022" lon="2.12863">
        <ele>57</ele>
        <time>2022-05-29T08:33:25Z</time>
      </trkpt>
      <trkpt lat="49.00021" lon="2.12874">
        <ele>56.6</ele>
        <time>2022-05-29T08:33:31Z</time>
      </trkpt>
      <trkpt lat="49.00018" lon="2.12886">
        <ele>56.4</ele>
        <time>2022-05-29T08:33:37Z</time>
      </trkpt>
      <trkpt lat="49.00014" lon="2.129">
        <ele>56.5</ele>
        <time>2022-05-29T08:33:43Z</time>
      </trkpt>
      <trkpt lat="49.00011" lon="2.12911">
        <ele>56.6</ele>
        <time>2022-05-29T08:33:48Z</time>
      </trkpt>
      <trkpt lat="49.00009" lon="2.12923">
        <ele>56.7</ele>
        <time>2022-05-29T08:33:54Z</time>
      </trkpt>
      <trkpt lat="49.00006" lon="2.12936">
        <ele>56.8</ele>
        <time>2022-05-29T08:34:00Z</time>
      </trkpt>
      <trkpt lat="49.00004" lon="2.12947">
        <ele>57</ele>
        <time>2022-05-29T08:34:05Z</time>
      </trkpt>
      <trkpt lat="49" lon="2.1296">
        <ele>57.6</ele>
        <time>2022-05-29T08:34:11Z</time>
      </trkpt>
      <trkpt lat="48.99997" lon="2.12969">
        <ele>57.9</ele>
        <time>2022-05-29T08:34:16Z</time>
      </trkpt>
      <trkpt lat="48.99996" lon="2.12981">
        <ele>57.7</ele>
        <time>2022-05-29T08:34:22Z</time>
      </trkpt>
      <trkpt lat="48.99993" lon="2.12999">
        <ele>57.3</ele>
        <time>2022-05-29T08:34:28Z</time>
      </trkpt>
      <trkpt lat="48.99991" lon="2.13009">
        <ele>57.5</ele>
        <time>2022-05-29T08:34:33Z</time>
      </trkpt>
      <trkpt lat="48.99989" lon="2.13019">
        <ele>57.8</ele>
        <time>2022-05-29T08:34:38Z</time>
      </trkpt>
      <trkpt lat="48.99987" lon="2.13031">
        <ele>58</ele>
        <time>2022-05-29T08:34:44Z</time>
      </trkpt>
      <trkpt lat="48.99986" lon="2.13042">
        <ele>58</ele>
        <time>2022-05-29T08:34:49Z</time>
      </trkpt>
      <trkpt lat="48.99983" lon="2.13056">
        <ele>58</ele>
        <time>2022-05-29T08:34:55Z</time>
      </trkpt>
      <trkpt lat="48.99981" lon="2.13069">
        <ele>58.3</ele>
        <time>2022-05-29T08:35:01Z</time>
      </trkpt>
      <trkpt lat="48.99979" lon="2.13081">
        <ele>58.7</ele>
        <time>2022-05-29T08:35:07Z</time>
      </trkpt>
      <trkpt lat="48.99976" lon="2.13095">
        <ele>58.9</ele>
        <time>2022-05-29T08:35:13Z</time>
      </trkpt>
      <trkpt lat="48.99974" lon="2.13106">
        <ele>58.9</ele>
        <time>2022-05-29T08:35:18Z</time>
      </trkpt>
      <trkpt lat="48.99972" lon="2.13119">
        <ele>58.7</ele>
        <time>2022-05-29T08:35:24Z</time>
      </trkpt>
      <trkpt lat="48.99969" lon="2.13133">
        <ele>58.2</ele>
        <time>2022-05-29T08:35:30Z</time>
      </trkpt>
      <trkpt lat="48.99965" lon="2.13144">
        <ele>58.1</ele>
        <time>2022-05-29T08:35:35Z</time>
      </trkpt>
      <trkpt lat="48.99962" lon="2.13158">
        <ele>58.2</ele>
        <time>2022-05-29T08:35:41Z</time>
      </trkpt>
      <trkpt lat="48.99959" lon="2.1317">
        <ele>58.5</ele>
        <time>2022-05-29T08:35:47Z</time>
      </trkpt>
      <trkpt lat="48.99956" lon="2.1318">
        <ele>58.6</ele>
        <time>2022-05-29T08:35:53Z</time>
      </trkpt>
      <trkpt lat="48.99952" lon="2.13195">
        <ele>58.7</ele>
        <time>2022-05-29T08:35:59Z</time>
      </trkpt>
      <trkpt lat="48.9995" lon="2.13208">
        <ele>58.8</ele>
        <time>2022-05-29T08:36:04Z</time>
      </trkpt>
      <trkpt lat="48.99946" lon="2.13218">
        <ele>58.9</ele>
        <time>2022-05-29T08:36:09Z</time>
      </trkpt>
      <trkpt lat="48.99943" lon="2.13234">
        <ele>59</ele>
        <time>2022-05-29T08:36:17Z</time>
      </trkpt>
      <trkpt lat="48.99939" lon="2.13247">
        <ele>59</ele>
        <time>2022-05-29T08:36:23Z</time>
      </trkpt>
      <trkpt lat="48.99935" lon="2.13257">
        <ele>59</ele>
        <time>2022-05-29T08:36:28Z</time>
      </trkpt>
      <trkpt lat="48.99933" lon="2.13267">
        <ele>59</ele>
        <time>2022-05-29T08:36:33Z</time>
      </trkpt>
      <trkpt lat="48.99931" lon="2.1328">
        <ele>59</ele>
        <time>2022-05-29T08:36:39Z</time>
      </trkpt>
      <trkpt lat="48.99928" lon="2.13292">
        <ele>59</ele>
        <time>2022-05-29T08:36:44Z</time>
      </trkpt>
      <trkpt lat="48.99924" lon="2.13303">
        <ele>59</ele>
        <time>2022-05-29T08:36:49Z</time>
      </trkpt>
      <trkpt lat="48.99918" lon="2.13313">
        <ele>59</ele>
        <time>2022-05-29T08:36:55Z</time>
      </trkpt>
      <trkpt lat="48.99909" lon="2.13315">
        <ele>59</ele>
        <time>2022-05-29T08:37:01Z</time>
      </trkpt>
      <trkpt lat="48.99899" lon="2.13312">
        <ele>59</ele>
        <time>2022-05-29T08:37:07Z</time>
      </trkpt>
      <trkpt lat="48.9989" lon="2.13308">
        <ele>59</ele>
        <time>2022-05-29T08:37:13Z</time>
      </trkpt>
      <trkpt lat="48.99884" lon="2.13306">
        <ele>59</ele>
        <time>2022-05-29T08:37:18Z</time>
      </trkpt>
      <trkpt lat="48.99876" lon="2.13304">
        <ele>59</ele>
        <time>2022-05-29T08:37:23Z</time>
      </trkpt>
      <trkpt lat="48.99869" lon="2.13302">
        <ele>59</ele>
        <time>2022-05-29T08:37:28Z</time>
      </trkpt>
      <trkpt lat="48.9986" lon="2.13298">
        <ele>59</ele>
        <time>2022-05-29T08:37:34Z</time>
      </trkpt>
      <trkpt lat="48.99852" lon="2.13296">
        <ele>59</ele>
        <time>2022-05-29T08:37:40Z</time>
      </trkpt>
      <trkpt lat="48.99841" lon="2.13293">
        <ele>59</ele>
        <time>2022-05-29T08:37:46Z</time>
      </trkpt>
      <trkpt lat="48.99833" lon="2.13292">
        <ele>59</ele>
        <time>2022-05-29T08:37:52Z</time>
      </trkpt>
      <trkpt lat="48.99826" lon="2.1329">
        <ele>59</ele>
        <time>2022-05-29T08:37:57Z</time>
      </trkpt>
      <trkpt lat="48.99818" lon="2.13289">
        <ele>59</ele>
        <time>2022-05-29T08:38:03Z</time>
      </trkpt>
      <trkpt lat="48.99809" lon="2.13286">
        <ele>59</ele>
        <time>2022-05-29T08:38:09Z</time>
      </trkpt>
      <trkpt lat="48.99801" lon="2.13284">
        <ele>59</ele>
        <time>2022-05-29T08:38:14Z</time>
      </trkpt>
      <trkpt lat="48.99791" lon="2.13281">
        <ele>59</ele>
        <time>2022-05-29T08:38:20Z</time>
      </trkpt>
      <trkpt lat="48.99786" lon="2.13279">
        <ele>59</ele>
        <time>2022-05-29T08:38:25Z</time>
      </trkpt>
      <trkpt lat="48.99778" lon="2.13276">
        <ele>59</ele>
        <time>2022-05-29T08:38:31Z</time>
      </trkpt>
      <trkpt lat="48.9977" lon="2.13272">
        <ele>59</ele>
        <time>2022-05-29T08:38:37Z</time>
      </trkpt>
      <trkpt lat="48.99762" lon="2.13269">
        <ele>59</ele>
        <time>2022-05-29T08:38:42Z</time>
      </trkpt>
      <trkpt lat="48.99754" lon="2.13269">
        <ele>59</ele>
        <time>2022-05-29T08:38:48Z</time>
      </trkpt>
      <trkpt lat="48.99745" lon="2.13267">
        <ele>59.3</ele>
        <time>2022-05-29T08:38:54Z</time>
      </trkpt>
      <trkpt lat="48.99738" lon="2.1327">
        <ele>59.8</ele>
        <time>2022-05-29T08:39:00Z</time>
      </trkpt>
      <trkpt lat="48.99733" lon="2.13274">
        <ele>60.2</ele>
        <time>2022-05-29T08:39:05Z</time>
      </trkpt>
      <trkpt lat="48.99725" lon="2.13269">
        <ele>60.5</ele>
        <time>2022-05-29T08:39:11Z</time>
      </trkpt>
      <trkpt lat="48.99721" lon="2.13266">
        <ele>60.5</ele>
        <time>2022-05-29T08:39:17Z</time>
      </trkpt>
      <trkpt lat="48.99718" lon="2.13264">
        <ele>60.3</ele>
        <time>2022-05-29T08:39:22Z</time>
      </trkpt>
      <trkpt lat="48.99713" lon="2.13261">
        <ele>60</ele>
        <time>2022-05-29T08:39:28Z</time>
      </trkpt>
      <trkpt lat="48.9971" lon="2.13261">
        <ele>59.8</ele>
        <time>2022-05-29T08:39:34Z</time>
      </trkpt>
      <trkpt lat="48.99709" lon="2.13261">
        <ele>59.7</ele>
        <time>2022-05-29T08:39:39Z</time>
      </trkpt>
      <trkpt lat="48.99702" lon="2.13259">
        <ele>59.3</ele>
        <time>2022-05-29T08:39:45Z</time>
      </trkpt>
      <trkpt lat="48.99694" lon="2.13256">
        <ele>59</ele>
        <time>2022-05-29T08:39:51Z</time>
      </trkpt>
      <trkpt lat="48.99685" lon="2.13254">
        <ele>59.9</ele>
        <time>2022-05-29T08:39:56Z</time>
      </trkpt>
      <trkpt lat="48.99677" lon="2.13249">
        <ele>60.8</ele>
        <time>2022-05-29T08:40:02Z</time>
      </trkpt>
      <trkpt lat="48.99671" lon="2.13246">
        <ele>61.2</ele>
        <time>2022-05-29T08:40:07Z</time>
      </trkpt>
      <trkpt lat="48.99663" lon="2.13242">
        <ele>61.1</ele>
        <time>2022-05-29T08:40:12Z</time>
      </trkpt>
      <trkpt lat="48.99657" lon="2.13237">
        <ele>60.3</ele>
        <time>2022-05-29T08:40:17Z</time>
      </trkpt>
      <trkpt lat="48.99651" lon="2.13233">
        <ele>59.8</ele>
        <time>2022-05-29T08:40:22Z</time>
      </trkpt>
      <trkpt lat="48.99645" lon="2.13231">
        <ele>59.4</ele>
        <time>2022-05-29T08:40:28Z</time>
      </trkpt>
      <trkpt lat="48.99636" lon="2.1323">
        <ele>59</ele>
        <time>2022-05-29T08:40:34Z</time>
      </trkpt>
      <trkpt lat="48.99628" lon="2.13227">
        <ele>59</ele>
        <time>2022-05-29T08:40:39Z</time>
      </trkpt>
      <trkpt lat="48.9962" lon="2.13226">
        <ele>59</ele>
        <time>2022-05-29T08:40:44Z</time>
      </trkpt>
      <trkpt lat="48.99615" lon="2.13219">
        <ele>59</ele>
        <time>2022-05-29T08:40:50Z</time>
      </trkpt>
      <trkpt lat="48.99609" lon="2.13215">
        <ele>59</ele>
        <time>2022-05-29T08:40:55Z</time>
      </trkpt>
      <trkpt lat="48.99599" lon="2.13212">
        <ele>59</ele>
        <time>2022-05-29T08:41:01Z</time>
      </trkpt>
      <trkpt lat="48.99592" lon="2.13209">
        <ele>59</ele>
        <time>2022-05-29T08:41:06Z</time>
      </trkpt>
      <trkpt lat="48.99585" lon="2.13206">
        <ele>59</ele>
        <time>2022-05-29T08:41:12Z</time>
      </trkpt>
      <trkpt lat="48.99577" lon="2.13203">
        <ele>59</ele>
        <time>2022-05-29T08:41:18Z</time>
      </trkpt>
      <trkpt lat="48.99568" lon="2.13199">
        <ele>59</ele>
        <time>2022-05-29T08:41:24Z</time>
      </trkpt>
      <trkpt lat="48.99558" lon="2.13195">
        <ele>59</ele>
        <time>2022-05-29T08:41:30Z</time>
      </trkpt>
      <trkpt lat="48.99552" lon="2.13193">
        <ele>59</ele>
        <time>2022-05-29T08:41:35Z</time>
      </trkpt>
      <trkpt lat="48.99545" lon="2.13188">
        <ele>59</ele>
        <time>2022-05-29T08:41:41Z</time>
      </trkpt>
      <trkpt lat="48.99538" lon="2.13186">
        <ele>59</ele>
        <time>2022-05-29T08:41:46Z</time>
      </trkpt>
      <trkpt lat="48.99529" lon="2.13185">
        <ele>59</ele>
        <time>2022-05-29T08:41:52Z</time>
      </trkpt>
      <trkpt lat="48.99523" lon="2.13188">
        <ele>59</ele>
        <time>2022-05-29T08:41:57Z</time>
      </trkpt>
      <trkpt lat="48.99516" lon="2.13196">
        <ele>59</ele>
        <time>2022-05-29T08:42:03Z</time>
      </trkpt>
      <trkpt lat="48.99507" lon="2.132">
        <ele>59</ele>
        <time>2022-05-29T08:42:09Z</time>
      </trkpt>
      <trkpt lat="48.99497" lon="2.13199">
        <ele>58.9</ele>
        <time>2022-05-29T08:42:14Z</time>
      </trkpt>
      <trkpt lat="48.9949" lon="2.13198">
        <ele>58.7</ele>
        <time>2022-05-29T08:42:19Z</time>
      </trkpt>
      <trkpt lat="48.99481" lon="2.13199">
        <ele>58.4</ele>
        <time>2022-05-29T08:42:25Z</time>
      </trkpt>
      <trkpt lat="48.99471" lon="2.13199">
        <ele>58.2</ele>
        <time>2022-05-29T08:42:31Z</time>
      </trkpt>
      <trkpt lat="48.99463" lon="2.13198">
        <ele>58.1</ele>
        <time>2022-05-29T08:42:37Z</time>
      </trkpt>
      <trkpt lat="48.99453" lon="2.13198">
        <ele>58</ele>
        <time>2022-05-29T08:42:43Z</time>
      </trkpt>
      <trkpt lat="48.99446" lon="2.13198">
        <ele>58</ele>
        <time>2022-05-29T08:42:48Z</time>
      </trkpt>
      <trkpt lat="48.99434" lon="2.13195">
        <ele>58</ele>
        <time>2022-05-29T08:42:54Z</time>
      </trkpt>
      <trkpt lat="48.99425" lon="2.13195">
        <ele>58</ele>
        <time>2022-05-29T08:42:59Z</time>
      </trkpt>
      <trkpt lat="48.99413" lon="2.13195">
        <ele>57.9</ele>
        <time>2022-05-29T08:43:05Z</time>
      </trkpt>
      <trkpt lat="48.99404" lon="2.13197">
        <ele>57.6</ele>
        <time>2022-05-29T08:43:10Z</time>
      </trkpt>
      <trkpt lat="48.99394" lon="2.13196">
        <ele>57.2</ele>
        <time>2022-05-29T08:43:16Z</time>
      </trkpt>
      <trkpt lat="48.99386" lon="2.13192">
        <ele>57</ele>
        <time>2022-05-29T08:43:21Z</time>
      </trkpt>
      <trkpt lat="48.99375" lon="2.13184">
        <ele>57</ele>
        <time>2022-05-29T08:43:27Z</time>
      </trkpt>
      <trkpt lat="48.99369" lon="2.13177">
        <ele>57</ele>
        <time>2022-05-29T08:43:33Z</time>
      </trkpt>
      <trkpt lat="48.99367" lon="2.13174">
        <ele>57</ele>
        <time>2022-05-29T08:43:39Z</time>
      </trkpt>
      <trkpt lat="48.99365" lon="2.13169">
        <ele>57</ele>
        <time>2022-05-29T08:43:44Z</time>
      </trkpt>
      <trkpt lat="48.9936" lon="2.13164">
        <ele>57.1</ele>
        <time>2022-05-29T08:43:49Z</time>
      </trkpt>
      <trkpt lat="48.99351" lon="2.13162">
        <ele>57.1</ele>
        <time>2022-05-29T08:43:55Z</time>
      </trkpt>
      <trkpt lat="48.99342" lon="2.13161">
        <ele>57.1</ele>
        <time>2022-05-29T08:44:01Z</time>
      </trkpt>
      <trkpt lat="48.99336" lon="2.13161">
        <ele>57</ele>
        <time>2022-05-29T08:44:06Z</time>
      </trkpt>
      <trkpt lat="48.99331" lon="2.13162">
        <ele>56.8</ele>
        <time>2022-05-29T08:44:11Z</time>
      </trkpt>
      <trkpt lat="48.99324" lon="2.13161">
        <ele>56.4</ele>
        <time>2022-05-29T08:44:16Z</time>
      </trkpt>
      <trkpt lat="48.99318" lon="2.13161">
        <ele>56</ele>
        <time>2022-05-29T08:44:22Z</time>
      </trkpt>
      <trkpt lat="48.99311" lon="2.13157">
        <ele>55.7</ele>
        <time>2022-05-29T08:44:27Z</time>
      </trkpt>
      <trkpt lat="48.99305" lon="2.13158">
        <ele>55.3</ele>
        <time>2022-05-29T08:44:32Z</time>
      </trkpt>
      <trkpt lat="48.99298" lon="2.13159">
        <ele>55.2</ele>
        <time>2022-05-29T08:44:38Z</time>
      </trkpt>
      <trkpt lat="48.99289" lon="2.1316">
        <ele>55.1</ele>
        <time>2022-05-29T08:44:44Z</time>
      </trkpt>
      <trkpt lat="48.99282" lon="2.13158">
        <ele>55</ele>
        <time>2022-05-29T08:44:50Z</time>
      </trkpt>
      <trkpt lat="48.99277" lon="2.13157">
        <ele>55</ele>
        <time>2022-05-29T08:44:55Z</time>
      </trkpt>
      <trkpt lat="48.99269" lon="2.13154">
        <ele>53.9</ele>
        <time>2022-05-29T08:45:01Z</time>
      </trkpt>
      <trkpt lat="48.99262" lon="2.1315">
        <ele>53</ele>
        <time>2022-05-29T08:45:06Z</time>
      </trkpt>
      <trkpt lat="48.99256" lon="2.1315">
        <ele>52.1</ele>
        <time>2022-05-29T08:45:11Z</time>
      </trkpt>
      <trkpt lat="48.99251" lon="2.13145">
        <ele>51.4</ele>
        <time>2022-05-29T08:45:17Z</time>
      </trkpt>
      <trkpt lat="48.99246" lon="2.1314">
        <ele>49.8</ele>
        <time>2022-05-29T08:45:23Z</time>
      </trkpt>
      <trkpt lat="48.99244" lon="2.13133">
        <ele>48</ele>
        <time>2022-05-29T08:45:28Z</time>
      </trkpt>
      <trkpt lat="48.99243" lon="2.13125">
        <ele>46.9</ele>
        <time>2022-05-29T08:45:34Z</time>
      </trkpt>
      <trkpt lat="48.99242" lon="2.13121">
        <ele>46</ele>
        <time>2022-05-29T08:45:39Z</time>
      </trkpt>
      <trkpt lat="48.99239" lon="2.13115">
        <ele>44.4</ele>
        <time>2022-05-29T08:45:45Z</time>
      </trkpt>
      <trkpt lat="48.99237" lon="2.1311">
        <ele>43.2</ele>
        <time>2022-05-29T08:45:50Z</time>
      </trkpt>
      <trkpt lat="48.99236" lon="2.13108">
        <ele>42.9</ele>
        <time>2022-05-29T08:45:56Z</time>
      </trkpt>
      <trkpt lat="48.99236" lon="2.13105">
        <ele>42.6</ele>
        <time>2022-05-29T08:46:02Z</time>
      </trkpt>
      <trkpt lat="48.99235" lon="2.13097">
        <ele>41.6</ele>
        <time>2022-05-29T08:46:07Z</time>
      </trkpt>
      <trkpt lat="48.99234" lon="2.13098">
        <ele>41.5</ele>
        <time>2022-05-29T08:46:13Z</time>
      </trkpt>
      <trkpt lat="48.99236" lon="2.13107">
        <ele>42.6</ele>
        <time>2022-05-29T08:46:19Z</time>
      </trkpt>
      <trkpt lat="48.99238" lon="2.13111">
        <ele>43.4</ele>
        <time>2022-05-29T08:46:24Z</time>
      </trkpt>
      <trkpt lat="48.99236" lon="2.1311">
        <ele>42.9</ele>
        <time>2022-05-29T08:46:30Z</time>
      </trkpt>
      <trkpt lat="48.99231" lon="2.13107">
        <ele>41.1</ele>
        <time>2022-05-29T08:46:36Z</time>
      </trkpt>
      <trkpt lat="48.99227" lon="2.13105">
        <ele>39.7</ele>
        <time>2022-05-29T08:46:41Z</time>
      </trkpt>
      <trkpt lat="48.99221" lon="2.13102">
        <ele>37.6</ele>
        <time>2022-05-29T08:46:47Z</time>
      </trkpt>
      <trkpt lat="48.99216" lon="2.13101">
        <ele>35.7</ele>
        <time>2022-05-29T08:46:53Z</time>
      </trkpt>
      <trkpt lat="48.99211" lon="2.13103">
        <ele>34.5</ele>
        <time>2022-05-29T08:46:58Z</time>
      </trkpt>
      <trkpt lat="48.99207" lon="2.13108">
        <ele>33.6</ele>
        <time>2022-05-29T08:47:03Z</time>
      </trkpt>
      <trkpt lat="48.99201" lon="2.13114">
        <ele>32</ele>
        <time>2022-05-29T08:47:08Z</time>
      </trkpt>
      <trkpt lat="48.99195" lon="2.13118">
        <ele>30.1</ele>
        <time>2022-05-29T08:47:14Z</time>
      </trkpt>
      <trkpt lat="48.99193" lon="2.13119">
        <ele>29.7</ele>
        <time>2022-05-29T08:47:22Z</time>
      </trkpt>
      <trkpt lat="48.99192" lon="2.13125">
        <ele>29.7</ele>
        <time>2022-05-29T08:47:27Z</time>
      </trkpt>
      <trkpt lat="48.99191" lon="2.13135">
        <ele>29.5</ele>
        <time>2022-05-29T08:47:32Z</time>
      </trkpt>
      <trkpt lat="48.9919" lon="2.13146">
        <ele>29.6</ele>
        <time>2022-05-29T08:47:37Z</time>
      </trkpt>
      <trkpt lat="48.9919" lon="2.13156">
        <ele>29.8</ele>
        <time>2022-05-29T08:47:43Z</time>
      </trkpt>
      <trkpt lat="48.99188" lon="2.13167">
        <ele>29.7</ele>
        <time>2022-05-29T08:47:48Z</time>
      </trkpt>
      <trkpt lat="48.99185" lon="2.13181">
        <ele>29</ele>
        <time>2022-05-29T08:47:54Z</time>
      </trkpt>
      <trkpt lat="48.99184" lon="2.13193">
        <ele>29</ele>
        <time>2022-05-29T08:47:59Z</time>
      </trkpt>
      <trkpt lat="48.99186" lon="2.13205">
        <ele>29.8</ele>
        <time>2022-05-29T08:48:05Z</time>
      </trkpt>
      <trkpt lat="48.99184" lon="2.13219">
        <ele>29.5</ele>
        <time>2022-05-29T08:48:11Z</time>
      </trkpt>
      <trkpt lat="48.99181" lon="2.13232">
        <ele>28.9</ele>
        <time>2022-05-29T08:48:17Z</time>
      </trkpt>
      <trkpt lat="48.99178" lon="2.13243">
        <ele>28.5</ele>
        <time>2022-05-29T08:48:23Z</time>
      </trkpt>
      <trkpt lat="48.99175" lon="2.13257">
        <ele>28.3</ele>
        <time>2022-05-29T08:48:29Z</time>
      </trkpt>
      <trkpt lat="48.99173" lon="2.13269">
        <ele>28.1</ele>
        <time>2022-05-29T08:48:35Z</time>
      </trkpt>
      <trkpt lat="48.99171" lon="2.13277">
        <ele>27.9</ele>
        <time>2022-05-29T08:48:40Z</time>
      </trkpt>
      <trkpt lat="48.99168" lon="2.13292">
        <ele>27.4</ele>
        <time>2022-05-29T08:48:46Z</time>
      </trkpt>
      <trkpt lat="48.99168" lon="2.13304">
        <ele>27.2</ele>
        <time>2022-05-29T08:48:51Z</time>
      </trkpt>
      <trkpt lat="48.99167" lon="2.1332">
        <ele>27.2</ele>
        <time>2022-05-29T08:48:57Z</time>
      </trkpt>
      <trkpt lat="48.99166" lon="2.13334">
        <ele>27</ele>
        <time>2022-05-29T08:49:02Z</time>
      </trkpt>
      <trkpt lat="48.99164" lon="2.13347">
        <ele>26.8</ele>
        <time>2022-05-29T08:49:08Z</time>
      </trkpt>
      <trkpt lat="48.99164" lon="2.13356">
        <ele>26.7</ele>
        <time>2022-05-29T08:49:13Z</time>
      </trkpt>
      <trkpt lat="48.99163" lon="2.13366">
        <ele>26.6</ele>
        <time>2022-05-29T08:49:19Z</time>
      </trkpt>
      <trkpt lat="48.99163" lon="2.1338">
        <ele>26.6</ele>
        <time>2022-05-29T08:49:24Z</time>
      </trkpt>
      <trkpt lat="48.99161" lon="2.13393">
        <ele>26.5</ele>
        <time>2022-05-29T08:49:30Z</time>
      </trkpt>
      <trkpt lat="48.99164" lon="2.13402">
        <ele>27.1</ele>
        <time>2022-05-29T08:49:35Z</time>
      </trkpt>
      <trkpt lat="48.99167" lon="2.13416">
        <ele>28.2</ele>
        <time>2022-05-29T08:49:41Z</time>
      </trkpt>
      <trkpt lat="48.99168" lon="2.13425">
        <ele>28.4</ele>
        <time>2022-05-29T08:49:46Z</time>
      </trkpt>
      <trkpt lat="48.99168" lon="2.13434">
        <ele>28.4</ele>
        <time>2022-05-29T08:49:52Z</time>
      </trkpt>
      <trkpt lat="48.99171" lon="2.13438">
        <ele>29.6</ele>
        <time>2022-05-29T08:49:57Z</time>
      </trkpt>
      <trkpt lat="48.99177" lon="2.13436">
        <ele>31.5</ele>
        <time>2022-05-29T08:50:03Z</time>
      </trkpt>
      <trkpt lat="48.9918" lon="2.13432">
        <ele>33</ele>
        <time>2022-05-29T08:50:09Z</time>
      </trkpt>
      <trkpt lat="48.99184" lon="2.13428">
        <ele>34.1</ele>
        <time>2022-05-29T08:50:15Z</time>
      </trkpt>
      <trkpt lat="48.99184" lon="2.13434">
        <ele>34.3</ele>
        <time>2022-05-29T08:50:20Z</time>
      </trkpt>
      <trkpt lat="48.99186" lon="2.13438">
        <ele>35</ele>
        <time>2022-05-29T08:50:25Z</time>
      </trkpt>
      <trkpt lat="48.9919" lon="2.13441">
        <ele>36.3</ele>
        <time>2022-05-29T08:50:31Z</time>
      </trkpt>
      <trkpt lat="48.99196" lon="2.13442">
        <ele>38.5</ele>
        <time>2022-05-29T08:50:37Z</time>
      </trkpt>
      <trkpt lat="48.99201" lon="2.1344">
        <ele>40.2</ele>
        <time>2022-05-29T08:50:42Z</time>
      </trkpt>
      <trkpt lat="48.99204" lon="2.13437">
        <ele>41.2</ele>
        <time>2022-05-29T08:50:48Z</time>
      </trkpt>
      <trkpt lat="48.99206" lon="2.1344">
        <ele>41.6</ele>
        <time>2022-05-29T08:50:53Z</time>
      </trkpt>
      <trkpt lat="48.99208" lon="2.13446">
        <ele>42.4</ele>
        <time>2022-05-29T08:50:59Z</time>
      </trkpt>
      <trkpt lat="48.99214" lon="2.13447">
        <ele>44.2</ele>
        <time>2022-05-29T08:51:05Z</time>
      </trkpt>
      <trkpt lat="48.99216" lon="2.13447">
        <ele>44.9</ele>
        <time>2022-05-29T08:51:10Z</time>
      </trkpt>
      <trkpt lat="48.99222" lon="2.13448">
        <ele>46.7</ele>
        <time>2022-05-29T08:51:16Z</time>
      </trkpt>
      <trkpt lat="48.99224" lon="2.13449">
        <ele>47.4</ele>
        <time>2022-05-29T08:51:22Z</time>
      </trkpt>
      <trkpt lat="48.9923" lon="2.13452">
        <ele>48.6</ele>
        <time>2022-05-29T08:51:28Z</time>
      </trkpt>
      <trkpt lat="48.99235" lon="2.13454">
        <ele>49.7</ele>
        <time>2022-05-29T08:51:33Z</time>
      </trkpt>
      <trkpt lat="48.99239" lon="2.13456">
        <ele>50.5</ele>
        <time>2022-05-29T08:51:39Z</time>
      </trkpt>
      <trkpt lat="48.99244" lon="2.1346">
        <ele>51.4</ele>
        <time>2022-05-29T08:51:45Z</time>
      </trkpt>
      <trkpt lat="48.99248" lon="2.13462">
        <ele>52.3</ele>
        <time>2022-05-29T08:51:51Z</time>
      </trkpt>
      <trkpt lat="48.99253" lon="2.13462">
        <ele>52.9</ele>
        <time>2022-05-29T08:51:56Z</time>
      </trkpt>
      <trkpt lat="48.99258" lon="2.13455">
        <ele>53.6</ele>
        <time>2022-05-29T08:52:02Z</time>
      </trkpt>
      <trkpt lat="48.99262" lon="2.13448">
        <ele>54.2</ele>
        <time>2022-05-29T08:52:08Z</time>
      </trkpt>
      <trkpt lat="48.99267" lon="2.13453">
        <ele>54.2</ele>
        <time>2022-05-29T08:52:13Z</time>
      </trkpt>
      <trkpt lat="48.99272" lon="2.13463">
        <ele>54</ele>
        <time>2022-05-29T08:52:19Z</time>
      </trkpt>
      <trkpt lat="48.99278" lon="2.13467">
        <ele>54.2</ele>
        <time>2022-05-29T08:52:24Z</time>
      </trkpt>
      <trkpt lat="48.99285" lon="2.13469">
        <ele>54.6</ele>
        <time>2022-05-29T08:52:30Z</time>
      </trkpt>
      <trkpt lat="48.99291" lon="2.13475">
        <ele>55.1</ele>
        <time>2022-05-29T08:52:36Z</time>
      </trkpt>
      <trkpt lat="48.99301" lon="2.13477">
        <ele>55.7</ele>
        <time>2022-05-29T08:52:42Z</time>
      </trkpt>
      <trkpt lat="48.9931" lon="2.13481">
        <ele>56</ele>
        <time>2022-05-29T08:52:48Z</time>
      </trkpt>
      <trkpt lat="48.99318" lon="2.13485">
        <ele>56</ele>
        <time>2022-05-29T08:52:54Z</time>
      </trkpt>
      <trkpt lat="48.99324" lon="2.1349">
        <ele>56</ele>
        <time>2022-05-29T08:53:00Z</time>
      </trkpt>
      <trkpt lat="48.99329" lon="2.13493">
        <ele>56</ele>
        <time>2022-05-29T08:53:05Z</time>
      </trkpt>
      <trkpt lat="48.99338" lon="2.13495">
        <ele>56.2</ele>
        <time>2022-05-29T08:53:11Z</time>
      </trkpt>
      <trkpt lat="48.99343" lon="2.13501">
        <ele>56.4</ele>
        <time>2022-05-29T08:53:16Z</time>
      </trkpt>
      <trkpt lat="48.99349" lon="2.13506">
        <ele>56.7</ele>
        <time>2022-05-29T08:53:22Z</time>
      </trkpt>
      <trkpt lat="48.99355" lon="2.13507">
        <ele>56.8</ele>
        <time>2022-05-29T08:53:27Z</time>
      </trkpt>
      <trkpt lat="48.99363" lon="2.13512">
        <ele>57.1</ele>
        <time>2022-05-29T08:53:33Z</time>
      </trkpt>
      <trkpt lat="48.9937" lon="2.13513">
        <ele>57.7</ele>
        <time>2022-05-29T08:53:39Z</time>
      </trkpt>
      <trkpt lat="48.99378" lon="2.13507">
        <ele>58.2</ele>
        <time>2022-05-29T08:53:45Z</time>
      </trkpt>
      <trkpt lat="48.99383" lon="2.13507">
        <ele>58.6</ele>
        <time>2022-05-29T08:53:50Z</time>
      </trkpt>
      <trkpt lat="48.99389" lon="2.13511">
        <ele>59</ele>
        <time>2022-05-29T08:53:55Z</time>
      </trkpt>
      <trkpt lat="48.99391" lon="2.13518">
        <ele>59</ele>
        <time>2022-05-29T08:54:01Z</time>
      </trkpt>
      <trkpt lat="48.99392" lon="2.13525">
        <ele>59</ele>
        <time>2022-05-29T08:54:06Z</time>
      </trkpt>
      <trkpt lat="48.99393" lon="2.13536">
        <ele>59</ele>
        <time>2022-05-29T08:54:11Z</time>
      </trkpt>
      <trkpt lat="48.99401" lon="2.13543">
        <ele>59</ele>
        <time>2022-05-29T08:54:17Z</time>
      </trkpt>
      <trkpt lat="48.99402" lon="2.13552">
        <ele>59</ele>
        <time>2022-05-29T08:54:23Z</time>
      </trkpt>
      <trkpt lat="48.99403" lon="2.13562">
        <ele>59.1</ele>
        <time>2022-05-29T08:54:29Z</time>
      </trkpt>
      <trkpt lat="48.99405" lon="2.13577">
        <ele>59.5</ele>
        <time>2022-05-29T08:54:35Z</time>
      </trkpt>
      <trkpt lat="48.99406" lon="2.13588">
        <ele>59.5</ele>
        <time>2022-05-29T08:54:40Z</time>
      </trkpt>
      <trkpt lat="48.99407" lon="2.13601">
        <ele>59.4</ele>
        <time>2022-05-29T08:54:46Z</time>
      </trkpt>
      <trkpt lat="48.99407" lon="2.13612">
        <ele>59.3</ele>
        <time>2022-05-29T08:54:51Z</time>
      </trkpt>
      <trkpt lat="48.99409" lon="2.13624">
        <ele>59.4</ele>
        <time>2022-05-29T08:54:57Z</time>
      </trkpt>
      <trkpt lat="48.99409" lon="2.13636">
        <ele>59.4</ele>
        <time>2022-05-29T08:55:03Z</time>
      </trkpt>
      <trkpt lat="48.9941" lon="2.13644">
        <ele>59.5</ele>
        <time>2022-05-29T08:55:08Z</time>
      </trkpt>
      <trkpt lat="48.9941" lon="2.13657">
        <ele>59.5</ele>
        <time>2022-05-29T08:55:14Z</time>
      </trkpt>
      <trkpt lat="48.99411" lon="2.13668">
        <ele>59.7</ele>
        <time>2022-05-29T08:55:20Z</time>
      </trkpt>
      <trkpt lat="48.99413" lon="2.13681">
        <ele>60.3</ele>
        <time>2022-05-29T08:55:26Z</time>
      </trkpt>
      <trkpt lat="48.99413" lon="2.13693">
        <ele>60.8</ele>
        <time>2022-05-29T08:55:32Z</time>
      </trkpt>
      <trkpt lat="48.99412" lon="2.13703">
        <ele>60.8</ele>
        <time>2022-05-29T08:55:37Z</time>
      </trkpt>
      <trkpt lat="48.99411" lon="2.13712">
        <ele>60.8</ele>
        <time>2022-05-29T08:55:43Z</time>
      </trkpt>
      <trkpt lat="48.99405" lon="2.13712">
        <ele>60.6</ele>
        <time>2022-05-29T08:55:48Z</time>
      </trkpt>
      <trkpt lat="48.99397" lon="2.13711">
        <ele>60.3</ele>
        <time>2022-05-29T08:55:54Z</time>
      </trkpt>
      <trkpt lat="48.99389" lon="2.13715">
        <ele>60</ele>
        <time>2022-05-29T08:56:00Z</time>
      </trkpt>
      <trkpt lat="48.99382" lon="2.13716">
        <ele>59.7</ele>
        <time>2022-05-29T08:56:05Z</time>
      </trkpt>
      <trkpt lat="48.99373" lon="2.13717">
        <ele>59.3</ele>
        <time>2022-05-29T08:56:11Z</time>
      </trkpt>
      <trkpt lat="48.99366" lon="2.13716">
        <ele>59</ele>
        <time>2022-05-29T08:56:17Z</time>
      </trkpt>
      <trkpt lat="48.99358" lon="2.13712">
        <ele>58.5</ele>
        <time>2022-05-29T08:56:22Z</time>
      </trkpt>
      <trkpt lat="48.9935" lon="2.13708">
        <ele>58.1</ele>
        <time>2022-05-29T08:56:28Z</time>
      </trkpt>
      <trkpt lat="48.99344" lon="2.1371">
        <ele>57.9</ele>
        <time>2022-05-29T08:56:33Z</time>
      </trkpt>
      <trkpt lat="48.99337" lon="2.13711">
        <ele>57.8</ele>
        <time>2022-05-29T08:56:38Z</time>
      </trkpt>
      <trkpt lat="48.9933" lon="2.13711">
        <ele>57.4</ele>
        <time>2022-05-29T08:56:44Z</time>
      </trkpt>
      <trkpt lat="48.99322" lon="2.1371">
        <ele>57.1</ele>
        <time>2022-05-29T08:56:49Z</time>
      </trkpt>
      <trkpt lat="48.99314" lon="2.13705">
        <ele>56.8</ele>
        <time>2022-05-29T08:56:55Z</time>
      </trkpt>
      <trkpt lat="48.99306" lon="2.13703">
        <ele>56.7</ele>
        <time>2022-05-29T08:57:00Z</time>
      </trkpt>
      <trkpt lat="48.993" lon="2.13704">
        <ele>56.2</ele>
        <time>2022-05-29T08:57:05Z</time>
      </trkpt>
      <trkpt lat="48.99292" lon="2.137">
        <ele>55.5</ele>
        <time>2022-05-29T08:57:11Z</time>
      </trkpt>
      <trkpt lat="48.99284" lon="2.13699">
        <ele>54.8</ele>
        <time>2022-05-29T08:57:17Z</time>
      </trkpt>
      <trkpt lat="48.99277" lon="2.13702">
        <ele>54.2</ele>
        <time>2022-05-29T08:57:23Z</time>
      </trkpt>
      <trkpt lat="48.99268" lon="2.13703">
        <ele>53.5</ele>
        <time>2022-05-29T08:57:29Z</time>
      </trkpt>
      <trkpt lat="48.99262" lon="2.13702">
        <ele>53</ele>
        <time>2022-05-29T08:57:34Z</time>
      </trkpt>
      <trkpt lat="48.99257" lon="2.13703">
        <ele>52.6</ele>
        <time>2022-05-29T08:57:40Z</time>
      </trkpt>
      <trkpt lat="48.99255" lon="2.13703">
        <ele>52.4</ele>
        <time>2022-05-29T08:57:45Z</time>
      </trkpt>
      <trkpt lat="48.99252" lon="2.13704">
        <ele>52.2</ele>
        <time>2022-05-29T08:57:50Z</time>
      </trkpt>
      <trkpt lat="48.99247" lon="2.13703">
        <ele>50.8</ele>
        <time>2022-05-29T08:57:56Z</time>
      </trkpt>
      <trkpt lat="48.99242" lon="2.13702">
        <ele>48.9</ele>
        <time>2022-05-29T08:58:02Z</time>
      </trkpt>
      <trkpt lat="48.99238" lon="2.13705">
        <ele>47.4</ele>
        <time>2022-05-29T08:58:07Z</time>
      </trkpt>
      <trkpt lat="48.99236" lon="2.13704">
        <ele>46.5</ele>
        <time>2022-05-29T08:58:12Z</time>
      </trkpt>
      <trkpt lat="48.99233" lon="2.13705">
        <ele>45.5</ele>
        <time>2022-05-29T08:58:19Z</time>
      </trkpt>
      <trkpt lat="48.99229" lon="2.13704">
        <ele>44</ele>
        <time>2022-05-29T08:58:24Z</time>
      </trkpt>
      <trkpt lat="48.99224" lon="2.13706">
        <ele>42</ele>
        <time>2022-05-29T08:58:30Z</time>
      </trkpt>
      <trkpt lat="48.99219" lon="2.13704">
        <ele>40.4</ele>
        <time>2022-05-29T08:58:36Z</time>
      </trkpt>
      <trkpt lat="48.99216" lon="2.13704">
        <ele>39.1</ele>
        <time>2022-05-29T08:58:42Z</time>
      </trkpt>
      <trkpt lat="48.99212" lon="2.13708">
        <ele>37.7</ele>
        <time>2022-05-29T08:58:48Z</time>
      </trkpt>
      <trkpt lat="48.99205" lon="2.13707">
        <ele>35.6</ele>
        <time>2022-05-29T08:58:54Z</time>
      </trkpt>
      <trkpt lat="48.99201" lon="2.13707">
        <ele>34.2</ele>
        <time>2022-05-29T08:58:59Z</time>
      </trkpt>
      <trkpt lat="48.99197" lon="2.1371">
        <ele>32.7</ele>
        <time>2022-05-29T08:59:05Z</time>
      </trkpt>
      <trkpt lat="48.99194" lon="2.13713">
        <ele>31.9</ele>
        <time>2022-05-29T08:59:11Z</time>
      </trkpt>
      <trkpt lat="48.99191" lon="2.13709">
        <ele>31.3</ele>
        <time>2022-05-29T08:59:17Z</time>
      </trkpt>
      <trkpt lat="48.99185" lon="2.13707">
        <ele>29.8</ele>
        <time>2022-05-29T08:59:23Z</time>
      </trkpt>
      <trkpt lat="48.9918" lon="2.13718">
        <ele>28.4</ele>
        <time>2022-05-29T08:59:30Z</time>
      </trkpt>
      <trkpt lat="48.99179" lon="2.13729">
        <ele>27.9</ele>
        <time>2022-05-29T08:59:35Z</time>
      </trkpt>
      <trkpt lat="48.99178" lon="2.13742">
        <ele>27.2</ele>
        <time>2022-05-29T08:59:41Z</time>
      </trkpt>
      <trkpt lat="48.99178" lon="2.13752">
        <ele>26.9</ele>
        <time>2022-05-29T08:59:46Z</time>
      </trkpt>
      <trkpt lat="48.99177" lon="2.13765">
        <ele>26.7</ele>
        <time>2022-05-29T08:59:52Z</time>
      </trkpt>
      <trkpt lat="48.99179" lon="2.13777">
        <ele>27</ele>
        <time>2022-05-29T08:59:58Z</time>
      </trkpt>
      <trkpt lat="48.99181" lon="2.13789">
        <ele>27.7</ele>
        <time>2022-05-29T09:00:04Z</time>
      </trkpt>
      <trkpt lat="48.99182" lon="2.13804">
        <ele>27.9</ele>
        <time>2022-05-29T09:00:10Z</time>
      </trkpt>
      <trkpt lat="48.99183" lon="2.13815">
        <ele>28.4</ele>
        <time>2022-05-29T09:00:15Z</time>
      </trkpt>
      <trkpt lat="48.99184" lon="2.13825">
        <ele>28.8</ele>
        <time>2022-05-29T09:00:20Z</time>
      </trkpt>
      <trkpt lat="48.99185" lon="2.13838">
        <ele>29.1</ele>
        <time>2022-05-29T09:00:26Z</time>
      </trkpt>
      <trkpt lat="48.99184" lon="2.13849">
        <ele>29</ele>
        <time>2022-05-29T09:00:31Z</time>
      </trkpt>
      <trkpt lat="48.99185" lon="2.1386">
        <ele>29.2</ele>
        <time>2022-05-29T09:00:37Z</time>
      </trkpt>
      <trkpt lat="48.99184" lon="2.13869">
        <ele>29.2</ele>
        <time>2022-05-29T09:00:42Z</time>
      </trkpt>
      <trkpt lat="48.99182" lon="2.13879">
        <ele>28.9</ele>
        <time>2022-05-29T09:00:48Z</time>
      </trkpt>
      <trkpt lat="48.99183" lon="2.13892">
        <ele>29.2</ele>
        <time>2022-05-29T09:00:54Z</time>
      </trkpt>
      <trkpt lat="48.99182" lon="2.13908">
        <ele>29.3</ele>
        <time>2022-05-29T09:01:00Z</time>
      </trkpt>
      <trkpt lat="48.99182" lon="2.13919">
        <ele>29.5</ele>
        <time>2022-05-29T09:01:05Z</time>
      </trkpt>
      <trkpt lat="48.99182" lon="2.13931">
        <ele>29.7</ele>
        <time>2022-05-29T09:01:11Z</time>
      </trkpt>
      <trkpt lat="48.99182" lon="2.13946">
        <ele>29.9</ele>
        <time>2022-05-29T09:01:17Z</time>
      </trkpt>
      <trkpt lat="48.99182" lon="2.13963">
        <ele>30.5</ele>
        <time>2022-05-29T09:01:23Z</time>
      </trkpt>
      <trkpt lat="48.99183" lon="2.13977">
        <ele>31.1</ele>
        <time>2022-05-29T09:01:28Z</time>
      </trkpt>
      <trkpt lat="48.99184" lon="2.13986">
        <ele>31.8</ele>
        <time>2022-05-29T09:01:33Z</time>
      </trkpt>
      <trkpt lat="48.99186" lon="2.13993">
        <ele>32.8</ele>
        <time>2022-05-29T09:01:39Z</time>
      </trkpt>
      <trkpt lat="48.9919" lon="2.14">
        <ele>34.4</ele>
        <time>2022-05-29T09:01:45Z</time>
      </trkpt>
      <trkpt lat="48.9919" lon="2.14009">
        <ele>34.8</ele>
        <time>2022-05-29T09:01:50Z</time>
      </trkpt>
      <trkpt lat="48.99187" lon="2.14022">
        <ele>34.7</ele>
        <time>2022-05-29T09:01:56Z</time>
      </trkpt>
      <trkpt lat="48.99186" lon="2.14037">
        <ele>34.5</ele>
        <time>2022-05-29T09:02:01Z</time>
      </trkpt>
      <trkpt lat="48.99182" lon="2.14049">
        <ele>33.5</ele>
        <time>2022-05-29T09:02:06Z</time>
      </trkpt>
      <trkpt lat="48.99179" lon="2.14061">
        <ele>32.6</ele>
        <time>2022-05-29T09:02:12Z</time>
      </trkpt>
      <trkpt lat="48.99178" lon="2.14075">
        <ele>33.1</ele>
        <time>2022-05-29T09:02:17Z</time>
      </trkpt>
      <trkpt lat="48.99177" lon="2.14086">
        <ele>33.5</ele>
        <time>2022-05-29T09:02:23Z</time>
      </trkpt>
      <trkpt lat="48.99175" lon="2.14099">
        <ele>33.3</ele>
        <time>2022-05-29T09:02:28Z</time>
      </trkpt>
      <trkpt lat="48.99174" lon="2.14113">
        <ele>33.6</ele>
        <time>2022-05-29T09:02:34Z</time>
      </trkpt>
      <trkpt lat="48.99172" lon="2.14123">
        <ele>33</ele>
        <time>2022-05-29T09:02:39Z</time>
      </trkpt>
      <trkpt lat="48.9917" lon="2.14137">
        <ele>32.3</ele>
        <time>2022-05-29T09:02:45Z</time>
      </trkpt>
      <trkpt lat="48.99166" lon="2.1415">
        <ele>31.1</ele>
        <time>2022-05-29T09:02:51Z</time>
      </trkpt>
      <trkpt lat="48.99163" lon="2.1416">
        <ele>30.6</ele>
        <time>2022-05-29T09:02:56Z</time>
      </trkpt>
      <trkpt lat="48.9916" lon="2.14169">
        <ele>30.2</ele>
        <time>2022-05-29T09:03:02Z</time>
      </trkpt>
      <trkpt lat="48.99157" lon="2.14183">
        <ele>29.9</ele>
        <time>2022-05-29T09:03:08Z</time>
      </trkpt>
      <trkpt lat="48.99156" lon="2.14191">
        <ele>29.7</ele>
        <time>2022-05-29T09:03:13Z</time>
      </trkpt>
      <trkpt lat="48.99153" lon="2.14201">
        <ele>29.3</ele>
        <time>2022-05-29T09:03:19Z</time>
      </trkpt>
      <trkpt lat="48.99153" lon="2.1421">
        <ele>29.3</ele>
        <time>2022-05-29T09:03:24Z</time>
      </trkpt>
      <trkpt lat="48.99152" lon="2.14223">
        <ele>29.4</ele>
        <time>2022-05-29T09:03:30Z</time>
      </trkpt>
      <trkpt lat="48.99151" lon="2.14234">
        <ele>29.5</ele>
        <time>2022-05-29T09:03:35Z</time>
      </trkpt>
      <trkpt lat="48.99148" lon="2.14248">
        <ele>29.3</ele>
        <time>2022-05-29T09:03:41Z</time>
      </trkpt>
      <trkpt lat="48.99148" lon="2.14259">
        <ele>29.6</ele>
        <time>2022-05-29T09:03:47Z</time>
      </trkpt>
      <trkpt lat="48.9915" lon="2.1426">
        <ele>30</ele>
        <time>2022-05-29T09:03:52Z</time>
      </trkpt>
      <trkpt lat="48.99152" lon="2.14261">
        <ele>30.7</ele>
        <time>2022-05-29T09:03:57Z</time>
      </trkpt>
      <trkpt lat="48.99155" lon="2.14262">
        <ele>31.5</ele>
        <time>2022-05-29T09:04:03Z</time>
      </trkpt>
      <trkpt lat="48.9916" lon="2.14265">
        <ele>33.1</ele>
        <time>2022-05-29T09:04:09Z</time>
      </trkpt>
      <trkpt lat="48.99165" lon="2.14267">
        <ele>34.9</ele>
        <time>2022-05-29T09:04:15Z</time>
      </trkpt>
      <trkpt lat="48.9917" lon="2.14269">
        <ele>36.9</ele>
        <time>2022-05-29T09:04:20Z</time>
      </trkpt>
      <trkpt lat="48.99175" lon="2.14271">
        <ele>39</ele>
        <time>2022-05-29T09:04:26Z</time>
      </trkpt>
      <trkpt lat="48.99178" lon="2.14271">
        <ele>40.4</ele>
        <time>2022-05-29T09:04:32Z</time>
      </trkpt>
      <trkpt lat="48.9918" lon="2.14272">
        <ele>41.6</ele>
        <time>2022-05-29T09:04:38Z</time>
      </trkpt>
      <trkpt lat="48.99183" lon="2.14272">
        <ele>42.9</ele>
        <time>2022-05-29T09:04:44Z</time>
      </trkpt>
      <trkpt lat="48.99185" lon="2.14272">
        <ele>44</ele>
        <time>2022-05-29T09:04:49Z</time>
      </trkpt>
      <trkpt lat="48.99187" lon="2.14271">
        <ele>44.8</ele>
        <time>2022-05-29T09:04:55Z</time>
      </trkpt>
      <trkpt lat="48.99188" lon="2.1427">
        <ele>45.2</ele>
        <time>2022-05-29T09:05:01Z</time>
      </trkpt>
      <trkpt lat="48.9919" lon="2.1427">
        <ele>45.8</ele>
        <time>2022-05-29T09:05:06Z</time>
      </trkpt>
      <trkpt lat="48.99191" lon="2.14268">
        <ele>46.6</ele>
        <time>2022-05-29T09:05:12Z</time>
      </trkpt>
      <trkpt lat="48.99194" lon="2.14269">
        <ele>47.9</ele>
        <time>2022-05-29T09:05:18Z</time>
      </trkpt>
      <trkpt lat="48.99197" lon="2.1427">
        <ele>49</ele>
        <time>2022-05-29T09:05:23Z</time>
      </trkpt>
      <trkpt lat="48.992" lon="2.14271">
        <ele>49.9</ele>
        <time>2022-05-29T09:05:29Z</time>
      </trkpt>
      <trkpt lat="48.99203" lon="2.14274">
        <ele>51</ele>
        <time>2022-05-29T09:05:35Z</time>
      </trkpt>
      <trkpt lat="48.99206" lon="2.14277">
        <ele>52.1</ele>
        <time>2022-05-29T09:05:40Z</time>
      </trkpt>
      <trkpt lat="48.99209" lon="2.14279">
        <ele>53.4</ele>
        <time>2022-05-29T09:05:46Z</time>
      </trkpt>
      <trkpt lat="48.99213" lon="2.1428">
        <ele>54.7</ele>
        <time>2022-05-29T09:05:52Z</time>
      </trkpt>
      <trkpt lat="48.99217" lon="2.14279">
        <ele>56.2</ele>
        <time>2022-05-29T09:05:57Z</time>
      </trkpt>
      <trkpt lat="48.99221" lon="2.14279">
        <ele>57.6</ele>
        <time>2022-05-29T09:06:02Z</time>
      </trkpt>
      <trkpt lat="48.99222" lon="2.14282">
        <ele>58</ele>
        <time>2022-05-29T09:06:07Z</time>
      </trkpt>
      <trkpt lat="48.99222" lon="2.14286">
        <ele>57.9</ele>
        <time>2022-05-29T09:06:14Z</time>
      </trkpt>
      <trkpt lat="48.99222" lon="2.14291">
        <ele>57.8</ele>
        <time>2022-05-29T09:06:20Z</time>
      </trkpt>
      <trkpt lat="48.99222" lon="2.14295">
        <ele>57.8</ele>
        <time>2022-05-29T09:06:26Z</time>
      </trkpt>
      <trkpt lat="48.99222" lon="2.14296">
        <ele>57.8</ele>
        <time>2022-05-29T09:06:32Z</time>
      </trkpt>
      <trkpt lat="48.99224" lon="2.14295">
        <ele>58.1</ele>
        <time>2022-05-29T09:06:38Z</time>
      </trkpt>
      <trkpt lat="48.99225" lon="2.14294">
        <ele>58.2</ele>
        <time>2022-05-29T09:06:44Z</time>
      </trkpt>
      <trkpt lat="48.99225" lon="2.14294">
        <ele>58.2</ele>
        <time>2022-05-29T09:06:49Z</time>
      </trkpt>
      <trkpt lat="48.99225" lon="2.14293">
        <ele>58.2</ele>
        <time>2022-05-29T09:06:55Z</time>
      </trkpt>
      <trkpt lat="48.99225" lon="2.14293">
        <ele>58.2</ele>
        <time>2022-05-29T09:07:00Z</time>
      </trkpt>
      <trkpt lat="48.99224" lon="2.14294">
        <ele>58.1</ele>
        <time>2022-05-29T09:07:06Z</time>
      </trkpt>
      <trkpt lat="48.99221" lon="2.14295">
        <ele>57.7</ele>
        <time>2022-05-29T09:07:11Z</time>
      </trkpt>
      <trkpt lat="48.9922" lon="2.14295">
        <ele>57.2</ele>
        <time>2022-05-29T09:07:17Z</time>
      </trkpt>
      <trkpt lat="48.99219" lon="2.14295">
        <ele>57.1</ele>
        <time>2022-05-29T09:07:22Z</time>
      </trkpt>
      <trkpt lat="48.99219" lon="2.14296">
        <ele>56.9</ele>
        <time>2022-05-29T09:07:28Z</time>
      </trkpt>
      <trkpt lat="48.99218" lon="2.14296">
        <ele>56.8</ele>
        <time>2022-05-29T09:07:33Z</time>
      </trkpt>
      <trkpt lat="48.99218" lon="2.14295">
        <ele>56.8</ele>
        <time>2022-05-29T09:07:39Z</time>
      </trkpt>
      <trkpt lat="48.99219" lon="2.14293">
        <ele>56.8</ele>
        <time>2022-05-29T09:07:44Z</time>
      </trkpt>
      <trkpt lat="48.9922" lon="2.14291">
        <ele>57.1</ele>
        <time>2022-05-29T09:07:50Z</time>
      </trkpt>
      <trkpt lat="48.9922" lon="2.14291">
        <ele>57.3</ele>
        <time>2022-05-29T09:07:55Z</time>
      </trkpt>
      <trkpt lat="48.9922" lon="2.14291">
        <ele>57.3</ele>
        <time>2022-05-29T09:08:01Z</time>
      </trkpt>
      <trkpt lat="48.9922" lon="2.14291">
        <ele>57.3</ele>
        <time>2022-05-29T09:08:06Z</time>
      </trkpt>
      <trkpt lat="48.9922" lon="2.1429">
        <ele>57.2</ele>
        <time>2022-05-29T09:08:12Z</time>
      </trkpt>
      <trkpt lat="48.9922" lon="2.1429">
        <ele>57.2</ele>
        <time>2022-05-29T09:08:17Z</time>
      </trkpt>
      <trkpt lat="48.9922" lon="2.1429">
        <ele>57.2</ele>
        <time>2022-05-29T09:08:23Z</time>
      </trkpt>
      <trkpt lat="48.9922" lon="2.1429">
        <ele>57.1</ele>
        <time>2022-05-29T09:08:28Z</time>
      </trkpt>
      <trkpt lat="48.9922" lon="2.1429">
        <ele>57.1</ele>
        <time>2022-05-29T09:08:34Z</time>
      </trkpt>
      <trkpt lat="48.99219" lon="2.1429">
        <ele>57.1</ele>
        <time>2022-05-29T09:08:39Z</time>
      </trkpt>
      <trkpt lat="48.99219" lon="2.1429">
        <ele>57.1</ele>
        <time>2022-05-29T09:08:45Z</time>
      </trkpt>
      <trkpt lat="48.9922" lon="2.1429">
        <ele>57.1</ele>
        <time>2022-05-29T09:08:50Z</time>
      </trkpt>
      <trkpt lat="48.9922" lon="2.1429">
        <ele>57.1</ele>
        <time>2022-05-29T09:08:56Z</time>
      </trkpt>
      <trkpt lat="48.99219" lon="2.14291">
        <ele>57</ele>
        <time>2022-05-29T09:09:02Z</time>
      </trkpt>
      <trkpt lat="48.99219" lon="2.14291">
        <ele>57</ele>
        <time>2022-05-29T09:09:08Z</time>
      </trkpt>
      <trkpt lat="48.99219" lon="2.14292">
        <ele>57</ele>
        <time>2022-05-29T09:09:13Z</time>
      </trkpt>
      <trkpt lat="48.9922" lon="2.14293">
        <ele>57.2</ele>
        <time>2022-05-29T09:09:19Z</time>
      </trkpt>
      <trkpt lat="48.9922" lon="2.14301">
        <ele>57.3</ele>
        <time>2022-05-29T09:09:25Z</time>
      </trkpt>
      <trkpt lat="48.99219" lon="2.14309">
        <ele>57</ele>
        <time>2022-05-29T09:09:30Z</time>
      </trkpt>
      <trkpt lat="48.99219" lon="2.14319">
        <ele>57.3</ele>
        <time>2022-05-29T09:09:36Z</time>
      </trkpt>
      <trkpt lat="48.99218" lon="2.14327">
        <ele>57.1</ele>
        <time>2022-05-29T09:09:41Z</time>
      </trkpt>
      <trkpt lat="48.99216" lon="2.14337">
        <ele>57</ele>
        <time>2022-05-29T09:09:47Z</time>
      </trkpt>
      <trkpt lat="48.99214" lon="2.14349">
        <ele>56.9</ele>
        <time>2022-05-29T09:09:53Z</time>
      </trkpt>
      <trkpt lat="48.99214" lon="2.1436">
        <ele>57.2</ele>
        <time>2022-05-29T09:09:59Z</time>
      </trkpt>
      <trkpt lat="48.99214" lon="2.14374">
        <ele>57.6</ele>
        <time>2022-05-29T09:10:05Z</time>
      </trkpt>
      <trkpt lat="48.99212" lon="2.14383">
        <ele>57.6</ele>
        <time>2022-05-29T09:10:10Z</time>
      </trkpt>
      <trkpt lat="48.99209" lon="2.14393">
        <ele>57.6</ele>
        <time>2022-05-29T09:10:16Z</time>
      </trkpt>
      <trkpt lat="48.99207" lon="2.14404">
        <ele>57.3</ele>
        <time>2022-05-29T09:10:22Z</time>
      </trkpt>
      <trkpt lat="48.99204" lon="2.14417">
        <ele>57.1</ele>
        <time>2022-05-29T09:10:28Z</time>
      </trkpt>
      <trkpt lat="48.99202" lon="2.14428">
        <ele>57.5</ele>
        <time>2022-05-29T09:10:34Z</time>
      </trkpt>
      <trkpt lat="48.992" lon="2.14438">
        <ele>58.1</ele>
        <time>2022-05-29T09:10:39Z</time>
      </trkpt>
      <trkpt lat="48.99197" lon="2.14452">
        <ele>58.5</ele>
        <time>2022-05-29T09:10:45Z</time>
      </trkpt>
      <trkpt lat="48.99196" lon="2.14464">
        <ele>58.8</ele>
        <time>2022-05-29T09:10:50Z</time>
      </trkpt>
      <trkpt lat="48.99193" lon="2.14476">
        <ele>58.5</ele>
        <time>2022-05-29T09:10:56Z</time>
      </trkpt>
      <trkpt lat="48.99193" lon="2.14484">
        <ele>58.2</ele>
        <time>2022-05-29T09:11:01Z</time>
      </trkpt>
      <trkpt lat="48.99191" lon="2.14496">
        <ele>57.7</ele>
        <time>2022-05-29T09:11:06Z</time>
      </trkpt>
      <trkpt lat="48.99187" lon="2.1451">
        <ele>56.8</ele>
        <time>2022-05-29T09:11:12Z</time>
      </trkpt>
      <trkpt lat="48.99184" lon="2.14522">
        <ele>56.6</ele>
        <time>2022-05-29T09:11:17Z</time>
      </trkpt>
      <trkpt lat="48.9918" lon="2.14537">
        <ele>56.6</ele>
        <time>2022-05-29T09:11:23Z</time>
      </trkpt>
      <trkpt lat="48.99178" lon="2.14546">
        <ele>56.9</ele>
        <time>2022-05-29T09:11:28Z</time>
      </trkpt>
      <trkpt lat="48.99176" lon="2.1456">
        <ele>57.6</ele>
        <time>2022-05-29T09:11:34Z</time>
      </trkpt>
      <trkpt lat="48.99174" lon="2.14573">
        <ele>57.9</ele>
        <time>2022-05-29T09:11:40Z</time>
      </trkpt>
      <trkpt lat="48.99171" lon="2.14585">
        <ele>58.3</ele>
        <time>2022-05-29T09:11:46Z</time>
      </trkpt>
      <trkpt lat="48.99169" lon="2.14595">
        <ele>58.2</ele>
        <time>2022-05-29T09:11:51Z</time>
      </trkpt>
      <trkpt lat="48.99167" lon="2.14605">
        <ele>58</ele>
        <time>2022-05-29T09:11:56Z</time>
      </trkpt>
      <trkpt lat="48.99164" lon="2.14617">
        <ele>57.1</ele>
        <time>2022-05-29T09:12:02Z</time>
      </trkpt>
      <trkpt lat="48.9916" lon="2.14631">
        <ele>56.4</ele>
        <time>2022-05-29T09:12:08Z</time>
      </trkpt>
      <trkpt lat="48.99158" lon="2.14642">
        <ele>56.2</ele>
        <time>2022-05-29T09:12:13Z</time>
      </trkpt>
      <trkpt lat="48.99154" lon="2.14655">
        <ele>55.7</ele>
        <time>2022-05-29T09:12:19Z</time>
      </trkpt>
      <trkpt lat="48.99151" lon="2.14663">
        <ele>55.6</ele>
        <time>2022-05-29T09:12:24Z</time>
      </trkpt>
      <trkpt lat="48.99148" lon="2.14673">
        <ele>55.6</ele>
        <time>2022-05-29T09:12:30Z</time>
      </trkpt>
      <trkpt lat="48.99144" lon="2.14683">
        <ele>55.7</ele>
        <time>2022-05-29T09:12:35Z</time>
      </trkpt>
      <trkpt lat="48.9914" lon="2.14694">
        <ele>56.1</ele>
        <time>2022-05-29T09:12:40Z</time>
      </trkpt>
      <trkpt lat="48.99137" lon="2.14708">
        <ele>55.4</ele>
        <time>2022-05-29T09:12:46Z</time>
      </trkpt>
      <trkpt lat="48.99137" lon="2.1472">
        <ele>55.5</ele>
        <time>2022-05-29T09:12:51Z</time>
      </trkpt>
      <trkpt lat="48.99133" lon="2.14735">
        <ele>54.9</ele>
        <time>2022-05-29T09:12:57Z</time>
      </trkpt>
      <trkpt lat="48.99129" lon="2.14749">
        <ele>54.5</ele>
        <time>2022-05-29T09:13:03Z</time>
      </trkpt>
      <trkpt lat="48.99125" lon="2.14759">
        <ele>54.3</ele>
        <time>2022-05-29T09:13:08Z</time>
      </trkpt>
      <trkpt lat="48.9912" lon="2.14772">
        <ele>54.3</ele>
        <time>2022-05-29T09:13:14Z</time>
      </trkpt>
      <trkpt lat="48.99118" lon="2.1478">
        <ele>54.5</ele>
        <time>2022-05-29T09:13:19Z</time>
      </trkpt>
      <trkpt lat="48.99118" lon="2.1479">
        <ele>54.4</ele>
        <time>2022-05-29T09:13:25Z</time>
      </trkpt>
      <trkpt lat="48.99116" lon="2.14803">
        <ele>54.2</ele>
        <time>2022-05-29T09:13:31Z</time>
      </trkpt>
      <trkpt lat="48.99115" lon="2.14817">
        <ele>54.1</ele>
        <time>2022-05-29T09:13:36Z</time>
      </trkpt>
      <trkpt lat="48.99114" lon="2.14834">
        <ele>54.1</ele>
        <time>2022-05-29T09:13:42Z</time>
      </trkpt>
      <trkpt lat="48.99112" lon="2.14843">
        <ele>54</ele>
        <time>2022-05-29T09:13:47Z</time>
      </trkpt>
      <trkpt lat="48.99111" lon="2.14842">
        <ele>53.9</ele>
        <time>2022-05-29T09:13:52Z</time>
      </trkpt>
      <trkpt lat="48.99108" lon="2.14841">
        <ele>53.1</ele>
        <time>2022-05-29T09:13:57Z</time>
      </trkpt>
      <trkpt lat="48.99104" lon="2.14846">
        <ele>52.2</ele>
        <time>2022-05-29T09:14:03Z</time>
      </trkpt>
      <trkpt lat="48.99102" lon="2.14855">
        <ele>51.8</ele>
        <time>2022-05-29T09:14:08Z</time>
      </trkpt>
      <trkpt lat="48.99098" lon="2.14868">
        <ele>51.1</ele>
        <time>2022-05-29T09:14:14Z</time>
      </trkpt>
      <trkpt lat="48.99096" lon="2.14875">
        <ele>50.5</ele>
        <time>2022-05-29T09:14:20Z</time>
      </trkpt>
      <trkpt lat="48.99094" lon="2.14884">
        <ele>50</ele>
        <time>2022-05-29T09:14:26Z</time>
      </trkpt>
      <trkpt lat="48.99094" lon="2.14896">
        <ele>50</ele>
        <time>2022-05-29T09:14:31Z</time>
      </trkpt>
      <trkpt lat="48.99091" lon="2.14904">
        <ele>49.7</ele>
        <time>2022-05-29T09:14:36Z</time>
      </trkpt>
      <trkpt lat="48.99087" lon="2.1491">
        <ele>49.3</ele>
        <time>2022-05-29T09:14:42Z</time>
      </trkpt>
      <trkpt lat="48.99082" lon="2.14922">
        <ele>48.7</ele>
        <time>2022-05-29T09:14:48Z</time>
      </trkpt>
      <trkpt lat="48.99079" lon="2.14937">
        <ele>48.5</ele>
        <time>2022-05-29T09:14:55Z</time>
      </trkpt>
      <trkpt lat="48.99076" lon="2.14947">
        <ele>47.8</ele>
        <time>2022-05-29T09:15:00Z</time>
      </trkpt>
      <trkpt lat="48.99076" lon="2.14952">
        <ele>47.9</ele>
        <time>2022-05-29T09:15:05Z</time>
      </trkpt>
      <trkpt lat="48.99077" lon="2.14966">
        <ele>48.6</ele>
        <time>2022-05-29T09:15:11Z</time>
      </trkpt>
      <trkpt lat="48.99076" lon="2.1498">
        <ele>49.3</ele>
        <time>2022-05-29T09:15:17Z</time>
      </trkpt>
      <trkpt lat="48.99073" lon="2.14996">
        <ele>49.9</ele>
        <time>2022-05-29T09:15:23Z</time>
      </trkpt>
      <trkpt lat="48.99069" lon="2.15005">
        <ele>49.7</ele>
        <time>2022-05-29T09:15:29Z</time>
      </trkpt>
      <trkpt lat="48.99063" lon="2.15004">
        <ele>48.8</ele>
        <time>2022-05-29T09:15:34Z</time>
      </trkpt>
      <trkpt lat="48.99056" lon="2.15008">
        <ele>47.9</ele>
        <time>2022-05-29T09:15:40Z</time>
      </trkpt>
      <trkpt lat="48.99048" lon="2.15018">
        <ele>46.8</ele>
        <time>2022-05-29T09:15:46Z</time>
      </trkpt>
      <trkpt lat="48.99042" lon="2.15025">
        <ele>46.2</ele>
        <time>2022-05-29T09:15:52Z</time>
      </trkpt>
      <trkpt lat="48.99037" lon="2.15026">
        <ele>44.9</ele>
        <time>2022-05-29T09:15:58Z</time>
      </trkpt>
      <trkpt lat="48.99035" lon="2.15021">
        <ele>43.5</ele>
        <time>2022-05-29T09:16:03Z</time>
      </trkpt>
      <trkpt lat="48.99038" lon="2.15011">
        <ele>42.5</ele>
        <time>2022-05-29T09:16:09Z</time>
      </trkpt>
      <trkpt lat="48.99042" lon="2.15001">
        <ele>42.1</ele>
        <time>2022-05-29T09:16:14Z</time>
      </trkpt>
      <trkpt lat="48.99048" lon="2.14988">
        <ele>42.2</ele>
        <time>2022-05-29T09:16:20Z</time>
      </trkpt>
      <trkpt lat="48.9905" lon="2.14979">
        <ele>41.7</ele>
        <time>2022-05-29T09:16:26Z</time>
      </trkpt>
      <trkpt lat="48.99054" lon="2.14968">
        <ele>41.2</ele>
        <time>2022-05-29T09:16:32Z</time>
      </trkpt>
      <trkpt lat="48.99055" lon="2.14958">
        <ele>41.2</ele>
        <time>2022-05-29T09:16:37Z</time>
      </trkpt>
      <trkpt lat="48.99054" lon="2.14945">
        <ele>40.6</ele>
        <time>2022-05-29T09:16:43Z</time>
      </trkpt>
      <trkpt lat="48.99053" lon="2.1493">
        <ele>39.5</ele>
        <time>2022-05-29T09:16:49Z</time>
      </trkpt>
      <trkpt lat="48.99051" lon="2.14916">
        <ele>38.4</ele>
        <time>2022-05-29T09:16:55Z</time>
      </trkpt>
      <trkpt lat="48.99051" lon="2.14904">
        <ele>37.3</ele>
        <time>2022-05-29T09:17:01Z</time>
      </trkpt>
      <trkpt lat="48.9905" lon="2.14894">
        <ele>36.3</ele>
        <time>2022-05-29T09:17:06Z</time>
      </trkpt>
      <trkpt lat="48.99049" lon="2.14884">
        <ele>35.4</ele>
        <time>2022-05-29T09:17:11Z</time>
      </trkpt>
      <trkpt lat="48.9905" lon="2.14872">
        <ele>34.8</ele>
        <time>2022-05-29T09:17:17Z</time>
      </trkpt>
      <trkpt lat="48.99051" lon="2.14862">
        <ele>34.4</ele>
        <time>2022-05-29T09:17:22Z</time>
      </trkpt>
      <trkpt lat="48.99052" lon="2.14848">
        <ele>33.9</ele>
        <time>2022-05-29T09:17:28Z</time>
      </trkpt>
      <trkpt lat="48.99053" lon="2.14834">
        <ele>33.3</ele>
        <time>2022-05-29T09:17:34Z</time>
      </trkpt>
      <trkpt lat="48.99054" lon="2.14824">
        <ele>32.7</ele>
        <time>2022-05-29T09:17:39Z</time>
      </trkpt>
      <trkpt lat="48.99056" lon="2.14815">
        <ele>32</ele>
        <time>2022-05-29T09:17:44Z</time>
      </trkpt>
      <trkpt lat="48.99055" lon="2.1481">
        <ele>31.4</ele>
        <time>2022-05-29T09:17:50Z</time>
      </trkpt>
      <trkpt lat="48.99052" lon="2.14806">
        <ele>30.5</ele>
        <time>2022-05-29T09:17:55Z</time>
      </trkpt>
      <trkpt lat="48.99046" lon="2.14803">
        <ele>29.3</ele>
        <time>2022-05-29T09:18:00Z</time>
      </trkpt>
      <trkpt lat="48.99036" lon="2.14798">
        <ele>27.4</ele>
        <time>2022-05-29T09:18:06Z</time>
      </trkpt>
      <trkpt lat="48.99027" lon="2.14792">
        <ele>25.5</ele>
        <time>2022-05-29T09:18:12Z</time>
      </trkpt>
      <trkpt lat="48.99019" lon="2.14789">
        <ele>25</ele>
        <time>2022-05-29T09:18:17Z</time>
      </trkpt>
      <trkpt lat="48.99012" lon="2.14785">
        <ele>24.6</ele>
        <time>2022-05-29T09:18:22Z</time>
      </trkpt>
      <trkpt lat="48.99006" lon="2.14781">
        <ele>24.3</ele>
        <time>2022-05-29T09:18:27Z</time>
      </trkpt>
      <trkpt lat="48.98998" lon="2.14777">
        <ele>23.8</ele>
        <time>2022-05-29T09:18:33Z</time>
      </trkpt>
      <trkpt lat="48.9899" lon="2.14773">
        <ele>23.1</ele>
        <time>2022-05-29T09:18:39Z</time>
      </trkpt>
      <trkpt lat="48.9898" lon="2.14772">
        <ele>22.4</ele>
        <time>2022-05-29T09:18:45Z</time>
      </trkpt>
      <trkpt lat="48.98974" lon="2.14776">
        <ele>22.1</ele>
        <time>2022-05-29T09:18:50Z</time>
      </trkpt>
      <trkpt lat="48.98969" lon="2.14784">
        <ele>22.1</ele>
        <time>2022-05-29T09:18:55Z</time>
      </trkpt>
      <trkpt lat="48.98965" lon="2.14796">
        <ele>22.2</ele>
        <time>2022-05-29T09:19:01Z</time>
      </trkpt>
      <trkpt lat="48.98963" lon="2.14807">
        <ele>22.3</ele>
        <time>2022-05-29T09:19:06Z</time>
      </trkpt>
      <trkpt lat="48.98959" lon="2.14822">
        <ele>22.4</ele>
        <time>2022-05-29T09:19:12Z</time>
      </trkpt>
      <trkpt lat="48.98955" lon="2.14837">
        <ele>22.4</ele>
        <time>2022-05-29T09:19:18Z</time>
      </trkpt>
      <trkpt lat="48.98951" lon="2.1485">
        <ele>22.5</ele>
        <time>2022-05-29T09:19:24Z</time>
      </trkpt>
      <trkpt lat="48.98947" lon="2.14862">
        <ele>22.4</ele>
        <time>2022-05-29T09:19:30Z</time>
      </trkpt>
      <trkpt lat="48.98942" lon="2.14874">
        <ele>22.3</ele>
        <time>2022-05-29T09:19:36Z</time>
      </trkpt>
      <trkpt lat="48.98938" lon="2.14884">
        <ele>22.4</ele>
        <time>2022-05-29T09:19:41Z</time>
      </trkpt>
      <trkpt lat="48.98934" lon="2.14895">
        <ele>22.4</ele>
        <time>2022-05-29T09:19:46Z</time>
      </trkpt>
      <trkpt lat="48.9893" lon="2.14905">
        <ele>22.3</ele>
        <time>2022-05-29T09:19:51Z</time>
      </trkpt>
      <trkpt lat="48.98927" lon="2.14916">
        <ele>22.1</ele>
        <time>2022-05-29T09:19:56Z</time>
      </trkpt>
      <trkpt lat="48.98923" lon="2.14929">
        <ele>22</ele>
        <time>2022-05-29T09:20:02Z</time>
      </trkpt>
      <trkpt lat="48.9892" lon="2.14939">
        <ele>22</ele>
        <time>2022-05-29T09:20:07Z</time>
      </trkpt>
      <trkpt lat="48.98916" lon="2.14951">
        <ele>22.2</ele>
        <time>2022-05-29T09:20:13Z</time>
      </trkpt>
      <trkpt lat="48.98912" lon="2.14963">
        <ele>22.4</ele>
        <time>2022-05-29T09:20:19Z</time>
      </trkpt>
      <trkpt lat="48.98907" lon="2.14975">
        <ele>22.4</ele>
        <time>2022-05-29T09:20:25Z</time>
      </trkpt>
      <trkpt lat="48.98905" lon="2.14985">
        <ele>22.6</ele>
        <time>2022-05-29T09:20:30Z</time>
      </trkpt>
      <trkpt lat="48.98901" lon="2.14997">
        <ele>22.8</ele>
        <time>2022-05-29T09:20:36Z</time>
      </trkpt>
      <trkpt lat="48.98897" lon="2.15009">
        <ele>22.8</ele>
        <time>2022-05-29T09:20:42Z</time>
      </trkpt>
      <trkpt lat="48.98892" lon="2.15019">
        <ele>22.8</ele>
        <time>2022-05-29T09:20:48Z</time>
      </trkpt>
      <trkpt lat="48.98889" lon="2.15028">
        <ele>23</ele>
        <time>2022-05-29T09:20:53Z</time>
      </trkpt>
      <trkpt lat="48.98885" lon="2.15039">
        <ele>23.1</ele>
        <time>2022-05-29T09:20:58Z</time>
      </trkpt>
      <trkpt lat="48.9888" lon="2.15052">
        <ele>22.9</ele>
        <time>2022-05-29T09:21:04Z</time>
      </trkpt>
      <trkpt lat="48.98876" lon="2.15063">
        <ele>22.7</ele>
        <time>2022-05-29T09:21:09Z</time>
      </trkpt>
      <trkpt lat="48.98873" lon="2.15074">
        <ele>22.7</ele>
        <time>2022-05-29T09:21:15Z</time>
      </trkpt>
      <trkpt lat="48.98874" lon="2.15081">
        <ele>22.9</ele>
        <time>2022-05-29T09:21:20Z</time>
      </trkpt>
      <trkpt lat="48.98878" lon="2.15088">
        <ele>23.3</ele>
        <time>2022-05-29T09:21:26Z</time>
      </trkpt>
      <trkpt lat="48.98887" lon="2.15096">
        <ele>23.9</ele>
        <time>2022-05-29T09:21:32Z</time>
      </trkpt>
      <trkpt lat="48.98896" lon="2.15104">
        <ele>24.2</ele>
        <time>2022-05-29T09:21:37Z</time>
      </trkpt>
      <trkpt lat="48.98904" lon="2.15109">
        <ele>24.5</ele>
        <time>2022-05-29T09:21:42Z</time>
      </trkpt>
      <trkpt lat="48.9891" lon="2.15114">
        <ele>24.8</ele>
        <time>2022-05-29T09:21:48Z</time>
      </trkpt>
      <trkpt lat="48.98917" lon="2.15118">
        <ele>25</ele>
        <time>2022-05-29T09:21:53Z</time>
      </trkpt>
      <trkpt lat="48.98927" lon="2.15124">
        <ele>25.6</ele>
        <time>2022-05-29T09:21:59Z</time>
      </trkpt>
      <trkpt lat="48.98937" lon="2.15132">
        <ele>26.3</ele>
        <time>2022-05-29T09:22:05Z</time>
      </trkpt>
      <trkpt lat="48.98945" lon="2.15137">
        <ele>27</ele>
        <time>2022-05-29T09:22:11Z</time>
      </trkpt>
      <trkpt lat="48.98949" lon="2.15142">
        <ele>28.7</ele>
        <time>2022-05-29T09:22:16Z</time>
      </trkpt>
      <trkpt lat="48.98948" lon="2.1515">
        <ele>29</ele>
        <time>2022-05-29T09:22:21Z</time>
      </trkpt>
      <trkpt lat="48.98945" lon="2.15159">
        <ele>28.8</ele>
        <time>2022-05-29T09:22:27Z</time>
      </trkpt>
      <trkpt lat="48.98942" lon="2.15169">
        <ele>28.8</ele>
        <time>2022-05-29T09:22:32Z</time>
      </trkpt>
      <trkpt lat="48.98937" lon="2.1518">
        <ele>28.8</ele>
        <time>2022-05-29T09:22:37Z</time>
      </trkpt>
      <trkpt lat="48.98932" lon="2.15192">
        <ele>28.6</ele>
        <time>2022-05-29T09:22:43Z</time>
      </trkpt>
      <trkpt lat="48.98927" lon="2.15204">
        <ele>29.1</ele>
        <time>2022-05-29T09:22:48Z</time>
      </trkpt>
      <trkpt lat="48.98923" lon="2.15218">
        <ele>29.7</ele>
        <time>2022-05-29T09:22:54Z</time>
      </trkpt>
      <trkpt lat="48.9892" lon="2.15228">
        <ele>29.6</ele>
        <time>2022-05-29T09:22:59Z</time>
      </trkpt>
      <trkpt lat="48.98916" lon="2.15237">
        <ele>28.9</ele>
        <time>2022-05-29T09:23:05Z</time>
      </trkpt>
      <trkpt lat="48.98912" lon="2.15247">
        <ele>28.8</ele>
        <time>2022-05-29T09:23:10Z</time>
      </trkpt>
      <trkpt lat="48.98908" lon="2.15258">
        <ele>29.2</ele>
        <time>2022-05-29T09:23:15Z</time>
      </trkpt>
      <trkpt lat="48.98903" lon="2.15268">
        <ele>28.9</ele>
        <time>2022-05-29T09:23:21Z</time>
      </trkpt>
      <trkpt lat="48.98897" lon="2.15276">
        <ele>28</ele>
        <time>2022-05-29T09:23:27Z</time>
      </trkpt>
      <trkpt lat="48.98894" lon="2.15285">
        <ele>28</ele>
        <time>2022-05-29T09:23:32Z</time>
      </trkpt>
      <trkpt lat="48.98893" lon="2.153">
        <ele>29</ele>
        <time>2022-05-29T09:23:38Z</time>
      </trkpt>
      <trkpt lat="48.98889" lon="2.15315">
        <ele>28.7</ele>
        <time>2022-05-29T09:23:44Z</time>
      </trkpt>
      <trkpt lat="48.98885" lon="2.15325">
        <ele>28.7</ele>
        <time>2022-05-29T09:23:50Z</time>
      </trkpt>
      <trkpt lat="48.98882" lon="2.15334">
        <ele>28.5</ele>
        <time>2022-05-29T09:23:55Z</time>
      </trkpt>
      <trkpt lat="48.98876" lon="2.15344">
        <ele>28.5</ele>
        <time>2022-05-29T09:24:01Z</time>
      </trkpt>
      <trkpt lat="48.98873" lon="2.15356">
        <ele>28.8</ele>
        <time>2022-05-29T09:24:06Z</time>
      </trkpt>
      <trkpt lat="48.98868" lon="2.15368">
        <ele>28.5</ele>
        <time>2022-05-29T09:24:12Z</time>
      </trkpt>
      <trkpt lat="48.98865" lon="2.15378">
        <ele>27.8</ele>
        <time>2022-05-29T09:24:18Z</time>
      </trkpt>
      <trkpt lat="48.98859" lon="2.15386">
        <ele>26.7</ele>
        <time>2022-05-29T09:24:23Z</time>
      </trkpt>
      <trkpt lat="48.98854" lon="2.15394">
        <ele>26.5</ele>
        <time>2022-05-29T09:24:29Z</time>
      </trkpt>
      <trkpt lat="48.98852" lon="2.15402">
        <ele>26.6</ele>
        <time>2022-05-29T09:24:34Z</time>
      </trkpt>
      <trkpt lat="48.98851" lon="2.15416">
        <ele>27.2</ele>
        <time>2022-05-29T09:24:39Z</time>
      </trkpt>
      <trkpt lat="48.98849" lon="2.1543">
        <ele>28</ele>
        <time>2022-05-29T09:24:45Z</time>
      </trkpt>
      <trkpt lat="48.98848" lon="2.15438">
        <ele>28.5</ele>
        <time>2022-05-29T09:24:50Z</time>
      </trkpt>
      <trkpt lat="48.98844" lon="2.15448">
        <ele>28.4</ele>
        <time>2022-05-29T09:24:56Z</time>
      </trkpt>
      <trkpt lat="48.98841" lon="2.1546">
        <ele>28.9</ele>
        <time>2022-05-29T09:25:02Z</time>
      </trkpt>
      <trkpt lat="48.98838" lon="2.15475">
        <ele>29.5</ele>
        <time>2022-05-29T09:25:07Z</time>
      </trkpt>
      <trkpt lat="48.98834" lon="2.15485">
        <ele>29</ele>
        <time>2022-05-29T09:25:13Z</time>
      </trkpt>
      <trkpt lat="48.98828" lon="2.15492">
        <ele>28.3</ele>
        <time>2022-05-29T09:25:18Z</time>
      </trkpt>
      <trkpt lat="48.98822" lon="2.15503">
        <ele>27.7</ele>
        <time>2022-05-29T09:25:24Z</time>
      </trkpt>
      <trkpt lat="48.98817" lon="2.15512">
        <ele>26.8</ele>
        <time>2022-05-29T09:25:29Z</time>
      </trkpt>
      <trkpt lat="48.98812" lon="2.15524">
        <ele>26.3</ele>
        <time>2022-05-29T09:25:35Z</time>
      </trkpt>
      <trkpt lat="48.9881" lon="2.15536">
        <ele>27</ele>
        <time>2022-05-29T09:25:41Z</time>
      </trkpt>
      <trkpt lat="48.98809" lon="2.15549">
        <ele>28</ele>
        <time>2022-05-29T09:25:47Z</time>
      </trkpt>
      <trkpt lat="48.98805" lon="2.15559">
        <ele>28.1</ele>
        <time>2022-05-29T09:25:52Z</time>
      </trkpt>
      <trkpt lat="48.988" lon="2.15567">
        <ele>27.9</ele>
        <time>2022-05-29T09:25:57Z</time>
      </trkpt>
      <trkpt lat="48.98799" lon="2.15568">
        <ele>27.9</ele>
        <time>2022-05-29T09:26:02Z</time>
      </trkpt>
      <trkpt lat="48.98801" lon="2.15561">
        <ele>27.7</ele>
        <time>2022-05-29T09:26:08Z</time>
      </trkpt>
      <trkpt lat="48.98804" lon="2.15562">
        <ele>28.2</ele>
        <time>2022-05-29T09:26:13Z</time>
      </trkpt>
      <trkpt lat="48.98808" lon="2.15567">
        <ele>29.4</ele>
        <time>2022-05-29T09:26:19Z</time>
      </trkpt>
      <trkpt lat="48.98813" lon="2.15567">
        <ele>30.8</ele>
        <time>2022-05-29T09:26:25Z</time>
      </trkpt>
      <trkpt lat="48.98816" lon="2.15566">
        <ele>31.6</ele>
        <time>2022-05-29T09:26:30Z</time>
      </trkpt>
      <trkpt lat="48.98818" lon="2.15567">
        <ele>32.2</ele>
        <time>2022-05-29T09:26:36Z</time>
      </trkpt>
      <trkpt lat="48.9882" lon="2.15569">
        <ele>33.1</ele>
        <time>2022-05-29T09:26:42Z</time>
      </trkpt>
      <trkpt lat="48.98824" lon="2.15569">
        <ele>34.2</ele>
        <time>2022-05-29T09:26:47Z</time>
      </trkpt>
      <trkpt lat="48.98826" lon="2.15573">
        <ele>35.7</ele>
        <time>2022-05-29T09:26:52Z</time>
      </trkpt>
      <trkpt lat="48.98829" lon="2.15578">
        <ele>37.5</ele>
        <time>2022-05-29T09:26:58Z</time>
      </trkpt>
      <trkpt lat="48.98832" lon="2.15579">
        <ele>38.4</ele>
        <time>2022-05-29T09:27:04Z</time>
      </trkpt>
      <trkpt lat="48.98832" lon="2.1558">
        <ele>39.1</ele>
        <time>2022-05-29T09:27:09Z</time>
      </trkpt>
      <trkpt lat="48.98833" lon="2.15585">
        <ele>40.2</ele>
        <time>2022-05-29T09:27:15Z</time>
      </trkpt>
      <trkpt lat="48.98835" lon="2.15585">
        <ele>41.1</ele>
        <time>2022-05-29T09:27:20Z</time>
      </trkpt>
      <trkpt lat="48.98838" lon="2.15586">
        <ele>42.6</ele>
        <time>2022-05-29T09:27:26Z</time>
      </trkpt>
      <trkpt lat="48.98841" lon="2.15585">
        <ele>43.9</ele>
        <time>2022-05-29T09:27:31Z</time>
      </trkpt>
      <trkpt lat="48.98844" lon="2.15584">
        <ele>45.2</ele>
        <time>2022-05-29T09:27:37Z</time>
      </trkpt>
      <trkpt lat="48.98844" lon="2.15587">
        <ele>45.5</ele>
        <time>2022-05-29T09:27:43Z</time>
      </trkpt>
      <trkpt lat="48.98844" lon="2.1559">
        <ele>46.2</ele>
        <time>2022-05-29T09:27:49Z</time>
      </trkpt>
      <trkpt lat="48.98845" lon="2.15592">
        <ele>46.9</ele>
        <time>2022-05-29T09:27:54Z</time>
      </trkpt>
      <trkpt lat="48.98847" lon="2.15589">
        <ele>47.4</ele>
        <time>2022-05-29T09:28:00Z</time>
      </trkpt>
      <trkpt lat="48.98849" lon="2.15588">
        <ele>48.1</ele>
        <time>2022-05-29T09:28:05Z</time>
      </trkpt>
      <trkpt lat="48.98849" lon="2.15591">
        <ele>48.5</ele>
        <time>2022-05-29T09:28:10Z</time>
      </trkpt>
      <trkpt lat="48.98851" lon="2.15598">
        <ele>50.4</ele>
        <time>2022-05-29T09:28:16Z</time>
      </trkpt>
      <trkpt lat="48.98856" lon="2.156">
        <ele>52.6</ele>
        <time>2022-05-29T09:28:22Z</time>
      </trkpt>
      <trkpt lat="48.98858" lon="2.15599">
        <ele>53.4</ele>
        <time>2022-05-29T09:28:28Z</time>
      </trkpt>
      <trkpt lat="48.98858" lon="2.156">
        <ele>53.5</ele>
        <time>2022-05-29T09:28:33Z</time>
      </trkpt>
      <trkpt lat="48.98858" lon="2.15602">
        <ele>53.7</ele>
        <time>2022-05-29T09:28:38Z</time>
      </trkpt>
      <trkpt lat="48.9886" lon="2.15604">
        <ele>55</ele>
        <time>2022-05-29T09:28:43Z</time>
      </trkpt>
      <trkpt lat="48.98863" lon="2.15609">
        <ele>55.9</ele>
        <time>2022-05-29T09:28:49Z</time>
      </trkpt>
      <trkpt lat="48.98864" lon="2.15611">
        <ele>56.2</ele>
        <time>2022-05-29T09:28:55Z</time>
      </trkpt>
      <trkpt lat="48.98865" lon="2.15613">
        <ele>56.3</ele>
        <time>2022-05-29T09:29:01Z</time>
      </trkpt>
      <trkpt lat="48.98866" lon="2.15614">
        <ele>56.4</ele>
        <time>2022-05-29T09:29:06Z</time>
      </trkpt>
      <trkpt lat="48.98867" lon="2.15615">
        <ele>56.5</ele>
        <time>2022-05-29T09:29:11Z</time>
      </trkpt>
      <trkpt lat="48.98867" lon="2.15615">
        <ele>56.6</ele>
        <time>2022-05-29T09:29:17Z</time>
      </trkpt>
      <trkpt lat="48.98867" lon="2.15615">
        <ele>56.6</ele>
        <time>2022-05-29T09:29:22Z</time>
      </trkpt>
      <trkpt lat="48.98869" lon="2.15616">
        <ele>56.7</ele>
        <time>2022-05-29T09:29:27Z</time>
      </trkpt>
      <trkpt lat="48.9887" lon="2.15616">
        <ele>56.8</ele>
        <time>2022-05-29T09:29:33Z</time>
      </trkpt>
      <trkpt lat="48.9887" lon="2.15616">
        <ele>56.8</ele>
        <time>2022-05-29T09:29:38Z</time>
      </trkpt>
      <trkpt lat="48.9887" lon="2.15616">
        <ele>56.8</ele>
        <time>2022-05-29T09:29:44Z</time>
      </trkpt>
      <trkpt lat="48.98869" lon="2.15617">
        <ele>56.8</ele>
        <time>2022-05-29T09:29:50Z</time>
      </trkpt>
      <trkpt lat="48.98868" lon="2.15619">
        <ele>56.8</ele>
        <time>2022-05-29T09:29:55Z</time>
      </trkpt>
      <trkpt lat="48.98863" lon="2.15622">
        <ele>56.5</ele>
        <time>2022-05-29T09:30:00Z</time>
      </trkpt>
      <trkpt lat="48.9886" lon="2.15628">
        <ele>56.2</ele>
        <time>2022-05-29T09:30:06Z</time>
      </trkpt>
      <trkpt lat="48.98857" lon="2.15637">
        <ele>56</ele>
        <time>2022-05-29T09:30:12Z</time>
      </trkpt>
      <trkpt lat="48.98852" lon="2.15646">
        <ele>55.3</ele>
        <time>2022-05-29T09:30:18Z</time>
      </trkpt>
      <trkpt lat="48.98849" lon="2.15654">
        <ele>55.4</ele>
        <time>2022-05-29T09:30:23Z</time>
      </trkpt>
      <trkpt lat="48.98846" lon="2.15666">
        <ele>55.9</ele>
        <time>2022-05-29T09:30:29Z</time>
      </trkpt>
      <trkpt lat="48.98845" lon="2.15675">
        <ele>56.3</ele>
        <time>2022-05-29T09:30:34Z</time>
      </trkpt>
      <trkpt lat="48.98843" lon="2.15684">
        <ele>56.7</ele>
        <time>2022-05-29T09:30:40Z</time>
      </trkpt>
      <trkpt lat="48.98843" lon="2.15694">
        <ele>57.3</ele>
        <time>2022-05-29T09:30:45Z</time>
      </trkpt>
      <trkpt lat="48.98843" lon="2.15705">
        <ele>57.1</ele>
        <time>2022-05-29T09:30:51Z</time>
      </trkpt>
      <trkpt lat="48.98845" lon="2.15717">
        <ele>57</ele>
        <time>2022-05-29T09:30:57Z</time>
      </trkpt>
      <trkpt lat="48.98847" lon="2.15725">
        <ele>56.9</ele>
        <time>2022-05-29T09:31:03Z</time>
      </trkpt>
      <trkpt lat="48.98846" lon="2.15732">
        <ele>56.8</ele>
        <time>2022-05-29T09:31:08Z</time>
      </trkpt>
      <trkpt lat="48.98848" lon="2.15745">
        <ele>56.6</ele>
        <time>2022-05-29T09:31:14Z</time>
      </trkpt>
      <trkpt lat="48.98851" lon="2.15754">
        <ele>56.6</ele>
        <time>2022-05-29T09:31:19Z</time>
      </trkpt>
      <trkpt lat="48.98852" lon="2.15765">
        <ele>56.7</ele>
        <time>2022-05-29T09:31:25Z</time>
      </trkpt>
      <trkpt lat="48.98852" lon="2.15774">
        <ele>56.7</ele>
        <time>2022-05-29T09:31:31Z</time>
      </trkpt>
      <trkpt lat="48.98853" lon="2.15783">
        <ele>56.7</ele>
        <time>2022-05-29T09:31:36Z</time>
      </trkpt>
      <trkpt lat="48.98856" lon="2.15794">
        <ele>56.7</ele>
        <time>2022-05-29T09:31:42Z</time>
      </trkpt>
      <trkpt lat="48.98857" lon="2.15804">
        <ele>56.7</ele>
        <time>2022-05-29T09:31:47Z</time>
      </trkpt>
      <trkpt lat="48.98859" lon="2.15816">
        <ele>56.9</ele>
        <time>2022-05-29T09:31:53Z</time>
      </trkpt>
      <trkpt lat="48.98862" lon="2.1583">
        <ele>57</ele>
        <time>2022-05-29T09:31:59Z</time>
      </trkpt>
      <trkpt lat="48.98862" lon="2.1584">
        <ele>56.8</ele>
        <time>2022-05-29T09:32:05Z</time>
      </trkpt>
      <trkpt lat="48.98862" lon="2.15849">
        <ele>56.5</ele>
        <time>2022-05-29T09:32:11Z</time>
      </trkpt>
      <trkpt lat="48.98865" lon="2.15861">
        <ele>56.3</ele>
        <time>2022-05-29T09:32:17Z</time>
      </trkpt>
      <trkpt lat="48.98867" lon="2.15872">
        <ele>56.3</ele>
        <time>2022-05-29T09:32:22Z</time>
      </trkpt>
      <trkpt lat="48.98868" lon="2.15885">
        <ele>56.3</ele>
        <time>2022-05-29T09:32:28Z</time>
      </trkpt>
      <trkpt lat="48.98869" lon="2.15894">
        <ele>56.3</ele>
        <time>2022-05-29T09:32:33Z</time>
      </trkpt>
      <trkpt lat="48.9887" lon="2.15904">
        <ele>56.3</ele>
        <time>2022-05-29T09:32:39Z</time>
      </trkpt>
      <trkpt lat="48.98872" lon="2.15914">
        <ele>56.4</ele>
        <time>2022-05-29T09:32:44Z</time>
      </trkpt>
      <trkpt lat="48.98874" lon="2.15928">
        <ele>56</ele>
        <time>2022-05-29T09:32:50Z</time>
      </trkpt>
      <trkpt lat="48.98876" lon="2.15938">
        <ele>55.8</ele>
        <time>2022-05-29T09:32:55Z</time>
      </trkpt>
      <trkpt lat="48.98882" lon="2.15951">
        <ele>56</ele>
        <time>2022-05-29T09:33:01Z</time>
      </trkpt>
      <trkpt lat="48.98883" lon="2.15965">
        <ele>55.6</ele>
        <time>2022-05-29T09:33:07Z</time>
      </trkpt>
      <trkpt lat="48.98883" lon="2.15974">
        <ele>55.3</ele>
        <time>2022-05-29T09:33:12Z</time>
      </trkpt>
      <trkpt lat="48.98887" lon="2.15987">
        <ele>55.8</ele>
        <time>2022-05-29T09:33:18Z</time>
      </trkpt>
      <trkpt lat="48.98887" lon="2.15998">
        <ele>55.7</ele>
        <time>2022-05-29T09:33:24Z</time>
      </trkpt>
      <trkpt lat="48.98881" lon="2.16011">
        <ele>54.9</ele>
        <time>2022-05-29T09:33:30Z</time>
      </trkpt>
      <trkpt lat="48.98879" lon="2.16023">
        <ele>54.6</ele>
        <time>2022-05-29T09:33:35Z</time>
      </trkpt>
      <trkpt lat="48.98878" lon="2.16035">
        <ele>54.5</ele>
        <time>2022-05-29T09:33:41Z</time>
      </trkpt>
      <trkpt lat="48.98876" lon="2.16046">
        <ele>54.5</ele>
        <time>2022-05-29T09:33:46Z</time>
      </trkpt>
      <trkpt lat="48.98871" lon="2.16055">
        <ele>53.8</ele>
        <time>2022-05-29T09:33:52Z</time>
      </trkpt>
      <trkpt lat="48.98864" lon="2.16054">
        <ele>52.4</ele>
        <time>2022-05-29T09:33:58Z</time>
      </trkpt>
      <trkpt lat="48.9886" lon="2.16051">
        <ele>51.9</ele>
        <time>2022-05-29T09:34:04Z</time>
      </trkpt>
      <trkpt lat="48.98858" lon="2.16043">
        <ele>51.7</ele>
        <time>2022-05-29T09:34:09Z</time>
      </trkpt>
      <trkpt lat="48.98855" lon="2.16029">
        <ele>50.8</ele>
        <time>2022-05-29T09:34:15Z</time>
      </trkpt>
      <trkpt lat="48.98851" lon="2.16019">
        <ele>50</ele>
        <time>2022-05-29T09:34:20Z</time>
      </trkpt>
      <trkpt lat="48.98847" lon="2.16007">
        <ele>48.3</ele>
        <time>2022-05-29T09:34:26Z</time>
      </trkpt>
      <trkpt lat="48.98842" lon="2.15993">
        <ele>46.6</ele>
        <time>2022-05-29T09:34:32Z</time>
      </trkpt>
      <trkpt lat="48.98838" lon="2.1598">
        <ele>45.5</ele>
        <time>2022-05-29T09:34:38Z</time>
      </trkpt>
      <trkpt lat="48.98835" lon="2.15973">
        <ele>44.4</ele>
        <time>2022-05-29T09:34:43Z</time>
      </trkpt>
      <trkpt lat="48.98832" lon="2.1596">
        <ele>45.5</ele>
        <time>2022-05-29T09:34:49Z</time>
      </trkpt>
      <trkpt lat="48.98828" lon="2.15956">
        <ele>46.1</ele>
        <time>2022-05-29T09:34:54Z</time>
      </trkpt>
      <trkpt lat="48.98822" lon="2.15942">
        <ele>45.8</ele>
        <time>2022-05-29T09:35:00Z</time>
      </trkpt>
      <trkpt lat="48.98819" lon="2.15931">
        <ele>44.8</ele>
        <time>2022-05-29T09:35:06Z</time>
      </trkpt>
      <trkpt lat="48.98815" lon="2.15921">
        <ele>42.7</ele>
        <time>2022-05-29T09:35:11Z</time>
      </trkpt>
      <trkpt lat="48.98811" lon="2.15911">
        <ele>41.3</ele>
        <time>2022-05-29T09:35:17Z</time>
      </trkpt>
      <trkpt lat="48.98807" lon="2.15903">
        <ele>40.2</ele>
        <time>2022-05-29T09:35:22Z</time>
      </trkpt>
      <trkpt lat="48.98803" lon="2.15895">
        <ele>39.8</ele>
        <time>2022-05-29T09:35:28Z</time>
      </trkpt>
      <trkpt lat="48.988" lon="2.15889">
        <ele>39.8</ele>
        <time>2022-05-29T09:35:33Z</time>
      </trkpt>
      <trkpt lat="48.98797" lon="2.15888">
        <ele>39.7</ele>
        <time>2022-05-29T09:35:38Z</time>
      </trkpt>
      <trkpt lat="48.98793" lon="2.15888">
        <ele>39.5</ele>
        <time>2022-05-29T09:35:43Z</time>
      </trkpt>
      <trkpt lat="48.98792" lon="2.15893">
        <ele>40</ele>
        <time>2022-05-29T09:35:49Z</time>
      </trkpt>
      <trkpt lat="48.98792" lon="2.15894">
        <ele>40</ele>
        <time>2022-05-29T09:35:55Z</time>
      </trkpt>
      <trkpt lat="48.98788" lon="2.15894">
        <ele>40.1</ele>
        <time>2022-05-29T09:36:01Z</time>
      </trkpt>
      <trkpt lat="48.98785" lon="2.15896">
        <ele>40.5</ele>
        <time>2022-05-29T09:36:07Z</time>
      </trkpt>
      <trkpt lat="48.98785" lon="2.15902">
        <ele>41.6</ele>
        <time>2022-05-29T09:36:12Z</time>
      </trkpt>
      <trkpt lat="48.98787" lon="2.15908">
        <ele>42.4</ele>
        <time>2022-05-29T09:36:18Z</time>
      </trkpt>
      <trkpt lat="48.98788" lon="2.15914">
        <ele>43.1</ele>
        <time>2022-05-29T09:36:24Z</time>
      </trkpt>
      <trkpt lat="48.98785" lon="2.15916">
        <ele>44.1</ele>
        <time>2022-05-29T09:36:29Z</time>
      </trkpt>
      <trkpt lat="48.98782" lon="2.15919">
        <ele>45.6</ele>
        <time>2022-05-29T09:36:35Z</time>
      </trkpt>
      <trkpt lat="48.98781" lon="2.15922">
        <ele>46.7</ele>
        <time>2022-05-29T09:36:40Z</time>
      </trkpt>
      <trkpt lat="48.98781" lon="2.15923">
        <ele>47</ele>
        <time>2022-05-29T09:36:46Z</time>
      </trkpt>
      <trkpt lat="48.98777" lon="2.15922">
        <ele>47.6</ele>
        <time>2022-05-29T09:36:51Z</time>
      </trkpt>
      <trkpt lat="48.98773" lon="2.15926">
        <ele>49.5</ele>
        <time>2022-05-29T09:36:57Z</time>
      </trkpt>
      <trkpt lat="48.98768" lon="2.15929">
        <ele>50.8</ele>
        <time>2022-05-29T09:37:03Z</time>
      </trkpt>
      <trkpt lat="48.98763" lon="2.1593">
        <ele>51.7</ele>
        <time>2022-05-29T09:37:09Z</time>
      </trkpt>
      <trkpt lat="48.98756" lon="2.15926">
        <ele>52</ele>
        <time>2022-05-29T09:37:15Z</time>
      </trkpt>
      <trkpt lat="48.9875" lon="2.1592">
        <ele>52.3</ele>
        <time>2022-05-29T09:37:21Z</time>
      </trkpt>
      <trkpt lat="48.98743" lon="2.15921">
        <ele>51.4</ele>
        <time>2022-05-29T09:37:26Z</time>
      </trkpt>
      <trkpt lat="48.98737" lon="2.15925">
        <ele>50.9</ele>
        <time>2022-05-29T09:37:32Z</time>
      </trkpt>
      <trkpt lat="48.98731" lon="2.1593">
        <ele>50.6</ele>
        <time>2022-05-29T09:37:38Z</time>
      </trkpt>
      <trkpt lat="48.98729" lon="2.15935">
        <ele>51.1</ele>
        <time>2022-05-29T09:37:43Z</time>
      </trkpt>
      <trkpt lat="48.98729" lon="2.1594">
        <ele>52</ele>
        <time>2022-05-29T09:37:49Z</time>
      </trkpt>
      <trkpt lat="48.98728" lon="2.15947">
        <ele>53</ele>
        <time>2022-05-29T09:37:54Z</time>
      </trkpt>
      <trkpt lat="48.98726" lon="2.15958">
        <ele>55.1</ele>
        <time>2022-05-29T09:38:00Z</time>
      </trkpt>
      <trkpt lat="48.98725" lon="2.15968">
        <ele>57.1</ele>
        <time>2022-05-29T09:38:05Z</time>
      </trkpt>
      <trkpt lat="48.98724" lon="2.15975">
        <ele>58.1</ele>
        <time>2022-05-29T09:38:10Z</time>
      </trkpt>
      <trkpt lat="48.98722" lon="2.15983">
        <ele>58.2</ele>
        <time>2022-05-29T09:38:16Z</time>
      </trkpt>
      <trkpt lat="48.9872" lon="2.15992">
        <ele>57.6</ele>
        <time>2022-05-29T09:38:21Z</time>
      </trkpt>
      <trkpt lat="48.98717" lon="2.16003">
        <ele>56.7</ele>
        <time>2022-05-29T09:38:28Z</time>
      </trkpt>
      <trkpt lat="48.98715" lon="2.16013">
        <ele>56.2</ele>
        <time>2022-05-29T09:38:33Z</time>
      </trkpt>
      <trkpt lat="48.98711" lon="2.16025">
        <ele>55.5</ele>
        <time>2022-05-29T09:38:39Z</time>
      </trkpt>
      <trkpt lat="48.98711" lon="2.16035">
        <ele>55.6</ele>
        <time>2022-05-29T09:38:45Z</time>
      </trkpt>
      <trkpt lat="48.98709" lon="2.1604">
        <ele>55.3</ele>
        <time>2022-05-29T09:38:50Z</time>
      </trkpt>
      <trkpt lat="48.98707" lon="2.16049">
        <ele>54.8</ele>
        <time>2022-05-29T09:38:56Z</time>
      </trkpt>
      <trkpt lat="48.98707" lon="2.16059">
        <ele>55.2</ele>
        <time>2022-05-29T09:39:01Z</time>
      </trkpt>
      <trkpt lat="48.98706" lon="2.16076">
        <ele>55.9</ele>
        <time>2022-05-29T09:39:07Z</time>
      </trkpt>
      <trkpt lat="48.98705" lon="2.16089">
        <ele>56.4</ele>
        <time>2022-05-29T09:39:12Z</time>
      </trkpt>
      <trkpt lat="48.98703" lon="2.16104">
        <ele>56.8</ele>
        <time>2022-05-29T09:39:18Z</time>
      </trkpt>
      <trkpt lat="48.98701" lon="2.16115">
        <ele>57</ele>
        <time>2022-05-29T09:39:24Z</time>
      </trkpt>
      <trkpt lat="48.987" lon="2.16125">
        <ele>57.1</ele>
        <time>2022-05-29T09:39:29Z</time>
      </trkpt>
      <trkpt lat="48.98697" lon="2.16136">
        <ele>57.2</ele>
        <time>2022-05-29T09:39:34Z</time>
      </trkpt>
      <trkpt lat="48.98695" lon="2.16147">
        <ele>57.7</ele>
        <time>2022-05-29T09:39:40Z</time>
      </trkpt>
      <trkpt lat="48.98693" lon="2.16157">
        <ele>57.4</ele>
        <time>2022-05-29T09:39:46Z</time>
      </trkpt>
      <trkpt lat="48.9869" lon="2.16173">
        <ele>57.1</ele>
        <time>2022-05-29T09:39:52Z</time>
      </trkpt>
      <trkpt lat="48.98687" lon="2.16188">
        <ele>57.3</ele>
        <time>2022-05-29T09:39:58Z</time>
      </trkpt>
      <trkpt lat="48.98686" lon="2.16197">
        <ele>57.6</ele>
        <time>2022-05-29T09:40:03Z</time>
      </trkpt>
      <trkpt lat="48.98685" lon="2.16209">
        <ele>57.1</ele>
        <time>2022-05-29T09:40:09Z</time>
      </trkpt>
      <trkpt lat="48.98683" lon="2.16221">
        <ele>56.8</ele>
        <time>2022-05-29T09:40:14Z</time>
      </trkpt>
      <trkpt lat="48.9868" lon="2.16237">
        <ele>56.4</ele>
        <time>2022-05-29T09:40:20Z</time>
      </trkpt>
      <trkpt lat="48.98678" lon="2.16248">
        <ele>56.3</ele>
        <time>2022-05-29T09:40:25Z</time>
      </trkpt>
      <trkpt lat="48.98677" lon="2.1626">
        <ele>57</ele>
        <time>2022-05-29T09:40:30Z</time>
      </trkpt>
      <trkpt lat="48.98675" lon="2.16275">
        <ele>58.3</ele>
        <time>2022-05-29T09:40:36Z</time>
      </trkpt>
      <trkpt lat="48.98674" lon="2.16286">
        <ele>58.8</ele>
        <time>2022-05-29T09:40:42Z</time>
      </trkpt>
      <trkpt lat="48.98672" lon="2.16296">
        <ele>59.1</ele>
        <time>2022-05-29T09:40:48Z</time>
      </trkpt>
      <trkpt lat="48.98669" lon="2.16307">
        <ele>59.4</ele>
        <time>2022-05-29T09:40:54Z</time>
      </trkpt>
      <trkpt lat="48.98667" lon="2.16319">
        <ele>59.9</ele>
        <time>2022-05-29T09:40:59Z</time>
      </trkpt>
      <trkpt lat="48.98666" lon="2.16327">
        <ele>60</ele>
        <time>2022-05-29T09:41:04Z</time>
      </trkpt>
      <trkpt lat="48.98665" lon="2.16335">
        <ele>60.1</ele>
        <time>2022-05-29T09:41:10Z</time>
      </trkpt>
      <trkpt lat="48.9866" lon="2.16349">
        <ele>58.8</ele>
        <time>2022-05-29T09:41:15Z</time>
      </trkpt>
      <trkpt lat="48.98657" lon="2.16359">
        <ele>58</ele>
        <time>2022-05-29T09:41:21Z</time>
      </trkpt>
      <trkpt lat="48.98653" lon="2.16372">
        <ele>57.3</ele>
        <time>2022-05-29T09:41:27Z</time>
      </trkpt>
      <trkpt lat="48.98652" lon="2.16384">
        <ele>57.3</ele>
        <time>2022-05-29T09:41:32Z</time>
      </trkpt>
      <trkpt lat="48.9865" lon="2.16398">
        <ele>57.8</ele>
        <time>2022-05-29T09:41:38Z</time>
      </trkpt>
      <trkpt lat="48.9865" lon="2.16408">
        <ele>58.5</ele>
        <time>2022-05-29T09:41:43Z</time>
      </trkpt>
      <trkpt lat="48.98645" lon="2.1642">
        <ele>58.6</ele>
        <time>2022-05-29T09:41:49Z</time>
      </trkpt>
      <trkpt lat="48.98642" lon="2.16435">
        <ele>60</ele>
        <time>2022-05-29T09:41:55Z</time>
      </trkpt>
      <trkpt lat="48.9864" lon="2.16446">
        <ele>61.2</ele>
        <time>2022-05-29T09:42:00Z</time>
      </trkpt>
      <trkpt lat="48.98636" lon="2.16458">
        <ele>60.8</ele>
        <time>2022-05-29T09:42:06Z</time>
      </trkpt>
      <trkpt lat="48.98632" lon="2.16472">
        <ele>60.5</ele>
        <time>2022-05-29T09:42:12Z</time>
      </trkpt>
      <trkpt lat="48.98628" lon="2.16483">
        <ele>60.2</ele>
        <time>2022-05-29T09:42:18Z</time>
      </trkpt>
      <trkpt lat="48.98625" lon="2.16497">
        <ele>60.7</ele>
        <time>2022-05-29T09:42:24Z</time>
      </trkpt>
      <trkpt lat="48.98624" lon="2.16506">
        <ele>61.3</ele>
        <time>2022-05-29T09:42:29Z</time>
      </trkpt>
      <trkpt lat="48.98621" lon="2.16516">
        <ele>61.6</ele>
        <time>2022-05-29T09:42:34Z</time>
      </trkpt>
      <trkpt lat="48.98617" lon="2.16524">
        <ele>62</ele>
        <time>2022-05-29T09:42:40Z</time>
      </trkpt>
      <trkpt lat="48.98615" lon="2.16529">
        <ele>62.4</ele>
        <time>2022-05-29T09:42:45Z</time>
      </trkpt>
      <trkpt lat="48.98615" lon="2.16538">
        <ele>62.9</ele>
        <time>2022-05-29T09:42:50Z</time>
      </trkpt>
      <trkpt lat="48.98612" lon="2.16545">
        <ele>63.2</ele>
        <time>2022-05-29T09:42:57Z</time>
      </trkpt>
      <trkpt lat="48.98608" lon="2.16551">
        <ele>62.3</ele>
        <time>2022-05-29T09:43:03Z</time>
      </trkpt>
      <trkpt lat="48.98603" lon="2.16558">
        <ele>61.5</ele>
        <time>2022-05-29T09:43:09Z</time>
      </trkpt>
      <trkpt lat="48.98603" lon="2.16555">
        <ele>61.1</ele>
        <time>2022-05-29T09:43:14Z</time>
      </trkpt>
      <trkpt lat="48.98604" lon="2.16549">
        <ele>60.7</ele>
        <time>2022-05-29T09:43:20Z</time>
      </trkpt>
      <trkpt lat="48.98605" lon="2.16544">
        <ele>60.6</ele>
        <time>2022-05-29T09:43:26Z</time>
      </trkpt>
      <trkpt lat="48.98603" lon="2.16549">
        <ele>60.1</ele>
        <time>2022-05-29T09:43:31Z</time>
      </trkpt>
      <trkpt lat="48.98598" lon="2.16551">
        <ele>58.4</ele>
        <time>2022-05-29T09:43:37Z</time>
      </trkpt>
      <trkpt lat="48.98593" lon="2.1655">
        <ele>56.5</ele>
        <time>2022-05-29T09:43:42Z</time>
      </trkpt>
      <trkpt lat="48.98596" lon="2.16545">
        <ele>56.7</ele>
        <time>2022-05-29T09:43:48Z</time>
      </trkpt>
      <trkpt lat="48.98598" lon="2.16542">
        <ele>57.2</ele>
        <time>2022-05-29T09:43:54Z</time>
      </trkpt>
      <trkpt lat="48.98594" lon="2.16548">
        <ele>56.6</ele>
        <time>2022-05-29T09:43:59Z</time>
      </trkpt>
      <trkpt lat="48.98592" lon="2.16553">
        <ele>56.6</ele>
        <time>2022-05-29T09:44:05Z</time>
      </trkpt>
      <trkpt lat="48.98588" lon="2.16551">
        <ele>54.7</ele>
        <time>2022-05-29T09:44:10Z</time>
      </trkpt>
      <trkpt lat="48.98591" lon="2.16546">
        <ele>54.6</ele>
        <time>2022-05-29T09:44:15Z</time>
      </trkpt>
      <trkpt lat="48.98592" lon="2.16538">
        <ele>53.8</ele>
        <time>2022-05-29T09:44:21Z</time>
      </trkpt>
      <trkpt lat="48.98587" lon="2.16536">
        <ele>50.9</ele>
        <time>2022-05-29T09:44:27Z</time>
      </trkpt>
      <trkpt lat="48.98582" lon="2.16541">
        <ele>49.3</ele>
        <time>2022-05-29T09:44:33Z</time>
      </trkpt>
      <trkpt lat="48.98577" lon="2.16546">
        <ele>47.8</ele>
        <time>2022-05-29T09:44:38Z</time>
      </trkpt>
      <trkpt lat="48.98576" lon="2.1655">
        <ele>48</ele>
        <time>2022-05-29T09:44:44Z</time>
      </trkpt>
      <trkpt lat="48.98574" lon="2.16553">
        <ele>47.2</ele>
        <time>2022-05-29T09:44:50Z</time>
      </trkpt>
      <trkpt lat="48.9857" lon="2.16557">
        <ele>46.1</ele>
        <time>2022-05-29T09:44:56Z</time>
      </trkpt>
      <trkpt lat="48.98567" lon="2.16561">
        <ele>44.9</ele>
        <time>2022-05-29T09:45:02Z</time>
      </trkpt>
      <trkpt lat="48.98563" lon="2.16565">
        <ele>43.1</ele>
        <time>2022-05-29T09:45:08Z</time>
      </trkpt>
      <trkpt lat="48.98557" lon="2.16572">
        <ele>40.3</ele>
        <time>2022-05-29T09:45:14Z</time>
      </trkpt>
      <trkpt lat="48.98552" lon="2.16576">
        <ele>38.6</ele>
        <time>2022-05-29T09:45:19Z</time>
      </trkpt>
      <trkpt lat="48.98545" lon="2.16582">
        <ele>36.5</ele>
        <time>2022-05-29T09:45:25Z</time>
      </trkpt>
      <trkpt lat="48.9854" lon="2.16587">
        <ele>34.8</ele>
        <time>2022-05-29T09:45:31Z</time>
      </trkpt>
      <trkpt lat="48.98538" lon="2.16587">
        <ele>33.6</ele>
        <time>2022-05-29T09:45:36Z</time>
      </trkpt>
      <trkpt lat="48.98535" lon="2.16587">
        <ele>32.1</ele>
        <time>2022-05-29T09:45:42Z</time>
      </trkpt>
      <trkpt lat="48.9853" lon="2.16584">
        <ele>29</ele>
        <time>2022-05-29T09:45:47Z</time>
      </trkpt>
      <trkpt lat="48.98521" lon="2.16584">
        <ele>27.4</ele>
        <time>2022-05-29T09:45:53Z</time>
      </trkpt>
      <trkpt lat="48.98516" lon="2.16592">
        <ele>27.3</ele>
        <time>2022-05-29T09:45:59Z</time>
      </trkpt>
      <trkpt lat="48.98511" lon="2.16603">
        <ele>27.1</ele>
        <time>2022-05-29T09:46:05Z</time>
      </trkpt>
      <trkpt lat="48.98506" lon="2.16614">
        <ele>26.7</ele>
        <time>2022-05-29T09:46:11Z</time>
      </trkpt>
      <trkpt lat="48.98502" lon="2.16631">
        <ele>27</ele>
        <time>2022-05-29T09:46:17Z</time>
      </trkpt>
      <trkpt lat="48.98498" lon="2.16642">
        <ele>27.2</ele>
        <time>2022-05-29T09:46:22Z</time>
      </trkpt>
      <trkpt lat="48.98495" lon="2.16651">
        <ele>27.6</ele>
        <time>2022-05-29T09:46:27Z</time>
      </trkpt>
      <trkpt lat="48.98491" lon="2.16659">
        <ele>27.8</ele>
        <time>2022-05-29T09:46:33Z</time>
      </trkpt>
      <trkpt lat="48.98485" lon="2.1667">
        <ele>27.6</ele>
        <time>2022-05-29T09:46:39Z</time>
      </trkpt>
      <trkpt lat="48.9848" lon="2.16682">
        <ele>27.4</ele>
        <time>2022-05-29T09:46:45Z</time>
      </trkpt>
      <trkpt lat="48.98476" lon="2.16695">
        <ele>27</ele>
        <time>2022-05-29T09:46:51Z</time>
      </trkpt>
      <trkpt lat="48.98472" lon="2.167">
        <ele>26.7</ele>
        <time>2022-05-29T09:46:57Z</time>
      </trkpt>
      <trkpt lat="48.98468" lon="2.16707">
        <ele>27</ele>
        <time>2022-05-29T09:47:03Z</time>
      </trkpt>
      <trkpt lat="48.98464" lon="2.16719">
        <ele>27.6</ele>
        <time>2022-05-29T09:47:09Z</time>
      </trkpt>
      <trkpt lat="48.98461" lon="2.1673">
        <ele>28.3</ele>
        <time>2022-05-29T09:47:14Z</time>
      </trkpt>
      <trkpt lat="48.98458" lon="2.16742">
        <ele>28.6</ele>
        <time>2022-05-29T09:47:20Z</time>
      </trkpt>
      <trkpt lat="48.98453" lon="2.16754">
        <ele>28.6</ele>
        <time>2022-05-29T09:47:26Z</time>
      </trkpt>
      <trkpt lat="48.98449" lon="2.16764">
        <ele>28.6</ele>
        <time>2022-05-29T09:47:31Z</time>
      </trkpt>
      <trkpt lat="48.98444" lon="2.16778">
        <ele>27.9</ele>
        <time>2022-05-29T09:47:37Z</time>
      </trkpt>
      <trkpt lat="48.98439" lon="2.16792">
        <ele>29.2</ele>
        <time>2022-05-29T09:47:43Z</time>
      </trkpt>
      <trkpt lat="48.98432" lon="2.16801">
        <ele>28.9</ele>
        <time>2022-05-29T09:47:49Z</time>
      </trkpt>
      <trkpt lat="48.98424" lon="2.16811">
        <ele>28</ele>
        <time>2022-05-29T09:47:55Z</time>
      </trkpt>
      <trkpt lat="48.98419" lon="2.16821">
        <ele>27.4</ele>
        <time>2022-05-29T09:48:01Z</time>
      </trkpt>
      <trkpt lat="48.98415" lon="2.16828">
        <ele>27.2</ele>
        <time>2022-05-29T09:48:06Z</time>
      </trkpt>
      <trkpt lat="48.9841" lon="2.1684">
        <ele>27.8</ele>
        <time>2022-05-29T09:48:12Z</time>
      </trkpt>
      <trkpt lat="48.98405" lon="2.1685">
        <ele>28.3</ele>
        <time>2022-05-29T09:48:17Z</time>
      </trkpt>
      <trkpt lat="48.98398" lon="2.16863">
        <ele>28.1</ele>
        <time>2022-05-29T09:48:23Z</time>
      </trkpt>
      <trkpt lat="48.9839" lon="2.16873">
        <ele>26.7</ele>
        <time>2022-05-29T09:48:29Z</time>
      </trkpt>
      <trkpt lat="48.98383" lon="2.16881">
        <ele>26.1</ele>
        <time>2022-05-29T09:48:35Z</time>
      </trkpt>
      <trkpt lat="48.98376" lon="2.16888">
        <ele>25.6</ele>
        <time>2022-05-29T09:48:40Z</time>
      </trkpt>
      <trkpt lat="48.98368" lon="2.16893">
        <ele>25.1</ele>
        <time>2022-05-29T09:48:46Z</time>
      </trkpt>
      <trkpt lat="48.98363" lon="2.16898">
        <ele>24.7</ele>
        <time>2022-05-29T09:48:52Z</time>
      </trkpt>
      <trkpt lat="48.98358" lon="2.16908">
        <ele>24.6</ele>
        <time>2022-05-29T09:48:58Z</time>
      </trkpt>
      <trkpt lat="48.98353" lon="2.16915">
        <ele>24.7</ele>
        <time>2022-05-29T09:49:04Z</time>
      </trkpt>
      <trkpt lat="48.98347" lon="2.16923">
        <ele>25.1</ele>
        <time>2022-05-29T09:49:10Z</time>
      </trkpt>
      <trkpt lat="48.98342" lon="2.16933">
        <ele>25.6</ele>
        <time>2022-05-29T09:49:18Z</time>
      </trkpt>
      <trkpt lat="48.98339" lon="2.16941">
        <ele>25.7</ele>
        <time>2022-05-29T09:49:23Z</time>
      </trkpt>
      <trkpt lat="48.98334" lon="2.16951">
        <ele>25.6</ele>
        <time>2022-05-29T09:49:29Z</time>
      </trkpt>
      <trkpt lat="48.98329" lon="2.1696">
        <ele>25.7</ele>
        <time>2022-05-29T09:49:34Z</time>
      </trkpt>
      <trkpt lat="48.98324" lon="2.16968">
        <ele>25.6</ele>
        <time>2022-05-29T09:49:39Z</time>
      </trkpt>
      <trkpt lat="48.98319" lon="2.16979">
        <ele>25.4</ele>
        <time>2022-05-29T09:49:45Z</time>
      </trkpt>
      <trkpt lat="48.98313" lon="2.16991">
        <ele>24.9</ele>
        <time>2022-05-29T09:49:51Z</time>
      </trkpt>
      <trkpt lat="48.98309" lon="2.17002">
        <ele>25</ele>
        <time>2022-05-29T09:49:57Z</time>
      </trkpt>
      <trkpt lat="48.98306" lon="2.17012">
        <ele>26.1</ele>
        <time>2022-05-29T09:50:03Z</time>
      </trkpt>
      <trkpt lat="48.983" lon="2.17023">
        <ele>27.3</ele>
        <time>2022-05-29T09:50:09Z</time>
      </trkpt>
      <trkpt lat="48.98293" lon="2.1703">
        <ele>27</ele>
        <time>2022-05-29T09:50:14Z</time>
      </trkpt>
      <trkpt lat="48.98285" lon="2.17037">
        <ele>26.1</ele>
        <time>2022-05-29T09:50:20Z</time>
      </trkpt>
      <trkpt lat="48.98279" lon="2.17044">
        <ele>25.4</ele>
        <time>2022-05-29T09:50:26Z</time>
      </trkpt>
      <trkpt lat="48.98274" lon="2.17052">
        <ele>25.5</ele>
        <time>2022-05-29T09:50:31Z</time>
      </trkpt>
      <trkpt lat="48.98265" lon="2.17063">
        <ele>25.6</ele>
        <time>2022-05-29T09:50:37Z</time>
      </trkpt>
      <trkpt lat="48.98258" lon="2.17071">
        <ele>25.4</ele>
        <time>2022-05-29T09:50:42Z</time>
      </trkpt>
      <trkpt lat="48.98254" lon="2.17078">
        <ele>25.3</ele>
        <time>2022-05-29T09:50:47Z</time>
      </trkpt>
      <trkpt lat="48.98249" lon="2.17088">
        <ele>25.3</ele>
        <time>2022-05-29T09:50:53Z</time>
      </trkpt>
      <trkpt lat="48.98243" lon="2.17098">
        <ele>25.8</ele>
        <time>2022-05-29T09:50:58Z</time>
      </trkpt>
      <trkpt lat="48.98237" lon="2.17109">
        <ele>26</ele>
        <time>2022-05-29T09:51:04Z</time>
      </trkpt>
      <trkpt lat="48.98232" lon="2.17116">
        <ele>26.1</ele>
        <time>2022-05-29T09:51:09Z</time>
      </trkpt>
      <trkpt lat="48.98229" lon="2.17122">
        <ele>26.2</ele>
        <time>2022-05-29T09:51:15Z</time>
      </trkpt>
      <trkpt lat="48.98221" lon="2.17131">
        <ele>25.7</ele>
        <time>2022-05-29T09:51:21Z</time>
      </trkpt>
      <trkpt lat="48.98216" lon="2.17133">
        <ele>25.6</ele>
        <time>2022-05-29T09:51:26Z</time>
      </trkpt>
      <trkpt lat="48.98212" lon="2.17134">
        <ele>25.5</ele>
        <time>2022-05-29T09:51:32Z</time>
      </trkpt>
      <trkpt lat="48.98208" lon="2.17141">
        <ele>25.7</ele>
        <time>2022-05-29T09:51:37Z</time>
      </trkpt>
      <trkpt lat="48.98203" lon="2.17151">
        <ele>26</ele>
        <time>2022-05-29T09:51:43Z</time>
      </trkpt>
      <trkpt lat="48.98199" lon="2.17158">
        <ele>25.7</ele>
        <time>2022-05-29T09:51:49Z</time>
      </trkpt>
      <trkpt lat="48.98194" lon="2.17169">
        <ele>25.2</ele>
        <time>2022-05-29T09:51:55Z</time>
      </trkpt>
      <trkpt lat="48.98188" lon="2.1718">
        <ele>25.8</ele>
        <time>2022-05-29T09:52:01Z</time>
      </trkpt>
      <trkpt lat="48.98181" lon="2.17189">
        <ele>25.8</ele>
        <time>2022-05-29T09:52:07Z</time>
      </trkpt>
      <trkpt lat="48.98175" lon="2.17199">
        <ele>26.1</ele>
        <time>2022-05-29T09:52:13Z</time>
      </trkpt>
      <trkpt lat="48.98168" lon="2.1721">
        <ele>25.9</ele>
        <time>2022-05-29T09:52:19Z</time>
      </trkpt>
      <trkpt lat="48.98163" lon="2.17222">
        <ele>25.8</ele>
        <time>2022-05-29T09:52:25Z</time>
      </trkpt>
      <trkpt lat="48.9816" lon="2.17229">
        <ele>26.7</ele>
        <time>2022-05-29T09:52:30Z</time>
      </trkpt>
      <trkpt lat="48.98155" lon="2.17236">
        <ele>27</ele>
        <time>2022-05-29T09:52:35Z</time>
      </trkpt>
      <trkpt lat="48.98146" lon="2.17246">
        <ele>26.2</ele>
        <time>2022-05-29T09:52:41Z</time>
      </trkpt>
      <trkpt lat="48.9814" lon="2.17255">
        <ele>25.7</ele>
        <time>2022-05-29T09:52:47Z</time>
      </trkpt>
      <trkpt lat="48.98137" lon="2.17263">
        <ele>25.9</ele>
        <time>2022-05-29T09:52:53Z</time>
      </trkpt>
      <trkpt lat="48.98132" lon="2.17273">
        <ele>26.2</ele>
        <time>2022-05-29T09:52:58Z</time>
      </trkpt>
      <trkpt lat="48.98125" lon="2.17284">
        <ele>27.1</ele>
        <time>2022-05-29T09:53:04Z</time>
      </trkpt>
      <trkpt lat="48.98116" lon="2.17295">
        <ele>27.3</ele>
        <time>2022-05-29T09:53:10Z</time>
      </trkpt>
      <trkpt lat="48.98111" lon="2.17302">
        <ele>26.7</ele>
        <time>2022-05-29T09:53:15Z</time>
      </trkpt>
      <trkpt lat="48.98107" lon="2.17309">
        <ele>27.2</ele>
        <time>2022-05-29T09:53:20Z</time>
      </trkpt>
      <trkpt lat="48.98101" lon="2.17317">
        <ele>27.8</ele>
        <time>2022-05-29T09:53:26Z</time>
      </trkpt>
      <trkpt lat="48.98096" lon="2.17323">
        <ele>28</ele>
        <time>2022-05-29T09:53:31Z</time>
      </trkpt>
      <trkpt lat="48.98087" lon="2.17328">
        <ele>27.3</ele>
        <time>2022-05-29T09:53:36Z</time>
      </trkpt>
      <trkpt lat="48.98082" lon="2.17335">
        <ele>27</ele>
        <time>2022-05-29T09:53:42Z</time>
      </trkpt>
      <trkpt lat="48.98078" lon="2.17341">
        <ele>27.3</ele>
        <time>2022-05-29T09:53:47Z</time>
      </trkpt>
      <trkpt lat="48.98071" lon="2.17348">
        <ele>27.4</ele>
        <time>2022-05-29T09:53:53Z</time>
      </trkpt>
      <trkpt lat="48.98069" lon="2.17356">
        <ele>27.7</ele>
        <time>2022-05-29T09:53:58Z</time>
      </trkpt>
      <trkpt lat="48.98071" lon="2.17369">
        <ele>28.2</ele>
        <time>2022-05-29T09:54:04Z</time>
      </trkpt>
      <trkpt lat="48.98071" lon="2.17381">
        <ele>28.5</ele>
        <time>2022-05-29T09:54:10Z</time>
      </trkpt>
      <trkpt lat="48.98067" lon="2.17388">
        <ele>28.2</ele>
        <time>2022-05-29T09:54:16Z</time>
      </trkpt>
      <trkpt lat="48.98062" lon="2.17391">
        <ele>27.8</ele>
        <time>2022-05-29T09:54:21Z</time>
      </trkpt>
      <trkpt lat="48.98055" lon="2.17397">
        <ele>27.3</ele>
        <time>2022-05-29T09:54:27Z</time>
      </trkpt>
      <trkpt lat="48.98045" lon="2.174">
        <ele>27</ele>
        <time>2022-05-29T09:54:33Z</time>
      </trkpt>
      <trkpt lat="48.98037" lon="2.17406">
        <ele>26.9</ele>
        <time>2022-05-29T09:54:38Z</time>
      </trkpt>
      <trkpt lat="48.98032" lon="2.17411">
        <ele>27</ele>
        <time>2022-05-29T09:54:43Z</time>
      </trkpt>
      <trkpt lat="48.98029" lon="2.17415">
        <ele>27</ele>
        <time>2022-05-29T09:54:49Z</time>
      </trkpt>
      <trkpt lat="48.98034" lon="2.17419">
        <ele>27.6</ele>
        <time>2022-05-29T09:54:54Z</time>
      </trkpt>
      <trkpt lat="48.98037" lon="2.1743">
        <ele>29.5</ele>
        <time>2022-05-29T09:55:00Z</time>
      </trkpt>
      <trkpt lat="48.98034" lon="2.17437">
        <ele>30.6</ele>
        <time>2022-05-29T09:55:05Z</time>
      </trkpt>
      <trkpt lat="48.98026" lon="2.17441">
        <ele>31.3</ele>
        <time>2022-05-29T09:55:11Z</time>
      </trkpt>
      <trkpt lat="48.98018" lon="2.17443">
        <ele>31.5</ele>
        <time>2022-05-29T09:55:17Z</time>
      </trkpt>
      <trkpt lat="48.98012" lon="2.17452">
        <ele>32.5</ele>
        <time>2022-05-29T09:55:23Z</time>
      </trkpt>
      <trkpt lat="48.98009" lon="2.17456">
        <ele>33.1</ele>
        <time>2022-05-29T09:55:28Z</time>
      </trkpt>
      <trkpt lat="48.98005" lon="2.1746">
        <ele>33.9</ele>
        <time>2022-05-29T09:55:34Z</time>
      </trkpt>
      <trkpt lat="48.98004" lon="2.17462">
        <ele>34.5</ele>
        <time>2022-05-29T09:55:39Z</time>
      </trkpt>
      <trkpt lat="48.98002" lon="2.17462">
        <ele>34.7</ele>
        <time>2022-05-29T09:55:44Z</time>
      </trkpt>
      <trkpt lat="48.98001" lon="2.17464">
        <ele>35.2</ele>
        <time>2022-05-29T09:55:50Z</time>
      </trkpt>
      <trkpt lat="48.98" lon="2.1747">
        <ele>36.5</ele>
        <time>2022-05-29T09:55:55Z</time>
      </trkpt>
      <trkpt lat="48.98" lon="2.17475">
        <ele>37.1</ele>
        <time>2022-05-29T09:56:01Z</time>
      </trkpt>
      <trkpt lat="48.97995" lon="2.1748">
        <ele>37.2</ele>
        <time>2022-05-29T09:56:07Z</time>
      </trkpt>
      <trkpt lat="48.97994" lon="2.17486">
        <ele>37.8</ele>
        <time>2022-05-29T09:56:13Z</time>
      </trkpt>
      <trkpt lat="48.97992" lon="2.17489">
        <ele>38.4</ele>
        <time>2022-05-29T09:56:18Z</time>
      </trkpt>
      <trkpt lat="48.9799" lon="2.17493">
        <ele>39.4</ele>
        <time>2022-05-29T09:56:24Z</time>
      </trkpt>
      <trkpt lat="48.97988" lon="2.17497">
        <ele>40.5</ele>
        <time>2022-05-29T09:56:30Z</time>
      </trkpt>
      <trkpt lat="48.97985" lon="2.17502">
        <ele>42.2</ele>
        <time>2022-05-29T09:56:36Z</time>
      </trkpt>
      <trkpt lat="48.97981" lon="2.17509">
        <ele>44.3</ele>
        <time>2022-05-29T09:56:42Z</time>
      </trkpt>
      <trkpt lat="48.9798" lon="2.17512">
        <ele>45.5</ele>
        <time>2022-05-29T09:56:47Z</time>
      </trkpt>
      <trkpt lat="48.97976" lon="2.17518">
        <ele>48</ele>
        <time>2022-05-29T09:56:53Z</time>
      </trkpt>
      <trkpt lat="48.97974" lon="2.17523">
        <ele>50.1</ele>
        <time>2022-05-29T09:56:59Z</time>
      </trkpt>
      <trkpt lat="48.97971" lon="2.17528">
        <ele>52</ele>
        <time>2022-05-29T09:57:05Z</time>
      </trkpt>
      <trkpt lat="48.9797" lon="2.17534">
        <ele>52.4</ele>
        <time>2022-05-29T09:57:10Z</time>
      </trkpt>
      <trkpt lat="48.97967" lon="2.17537">
        <ele>52.6</ele>
        <time>2022-05-29T09:57:16Z</time>
      </trkpt>
      <trkpt lat="48.97963" lon="2.17538">
        <ele>52.7</ele>
        <time>2022-05-29T09:57:22Z</time>
      </trkpt>
      <trkpt lat="48.97961" lon="2.17545">
        <ele>54</ele>
        <time>2022-05-29T09:57:28Z</time>
      </trkpt>
      <trkpt lat="48.97958" lon="2.17551">
        <ele>55.5</ele>
        <time>2022-05-29T09:57:33Z</time>
      </trkpt>
      <trkpt lat="48.97955" lon="2.17558">
        <ele>57</ele>
        <time>2022-05-29T09:57:39Z</time>
      </trkpt>
      <trkpt lat="48.9795" lon="2.17553">
        <ele>56.7</ele>
        <time>2022-05-29T09:57:44Z</time>
      </trkpt>
      <trkpt lat="48.97945" lon="2.17557">
        <ele>58.1</ele>
        <time>2022-05-29T09:57:50Z</time>
      </trkpt>
      <trkpt lat="48.97942" lon="2.17563">
        <ele>58.1</ele>
        <time>2022-05-29T09:57:56Z</time>
      </trkpt>
      <trkpt lat="48.97942" lon="2.17564">
        <ele>58.2</ele>
        <time>2022-05-29T09:58:02Z</time>
      </trkpt>
      <trkpt lat="48.97942" lon="2.17564">
        <ele>58.3</ele>
        <time>2022-05-29T09:58:07Z</time>
      </trkpt>
      <trkpt lat="48.97941" lon="2.17566">
        <ele>58.3</ele>
        <time>2022-05-29T09:58:12Z</time>
      </trkpt>
      <trkpt lat="48.9794" lon="2.17567">
        <ele>58.3</ele>
        <time>2022-05-29T09:58:18Z</time>
      </trkpt>
      <trkpt lat="48.9794" lon="2.17567">
        <ele>58.2</ele>
        <time>2022-05-29T09:58:23Z</time>
      </trkpt>
      <trkpt lat="48.9794" lon="2.17567">
        <ele>58.1</ele>
        <time>2022-05-29T09:58:29Z</time>
      </trkpt>
      <trkpt lat="48.97939" lon="2.17566">
        <ele>58</ele>
        <time>2022-05-29T09:58:36Z</time>
      </trkpt>
      <trkpt lat="48.97939" lon="2.17566">
        <ele>57.8</ele>
        <time>2022-05-29T09:58:41Z</time>
      </trkpt>
      <trkpt lat="48.97936" lon="2.17566">
        <ele>57.1</ele>
        <time>2022-05-29T09:58:47Z</time>
      </trkpt>
      <trkpt lat="48.97932" lon="2.17569">
        <ele>56.7</ele>
        <time>2022-05-29T09:58:53Z</time>
      </trkpt>
      <trkpt lat="48.97927" lon="2.17572">
        <ele>56.2</ele>
        <time>2022-05-29T09:58:58Z</time>
      </trkpt>
      <trkpt lat="48.97926" lon="2.17572">
        <ele>56.1</ele>
        <time>2022-05-29T09:59:04Z</time>
      </trkpt>
      <trkpt lat="48.97926" lon="2.17569">
        <ele>55.4</ele>
        <time>2022-05-29T09:59:09Z</time>
      </trkpt>
      <trkpt lat="48.97923" lon="2.17564">
        <ele>53.8</ele>
        <time>2022-05-29T09:59:15Z</time>
      </trkpt>
      <trkpt lat="48.97921" lon="2.17568">
        <ele>54</ele>
        <time>2022-05-29T09:59:20Z</time>
      </trkpt>
      <trkpt lat="48.97918" lon="2.17573">
        <ele>54.6</ele>
        <time>2022-05-29T09:59:26Z</time>
      </trkpt>
      <trkpt lat="48.97912" lon="2.1758">
        <ele>54.8</ele>
        <time>2022-05-29T09:59:32Z</time>
      </trkpt>
      <trkpt lat="48.97907" lon="2.17586">
        <ele>55</ele>
        <time>2022-05-29T09:59:37Z</time>
      </trkpt>
      <trkpt lat="48.97901" lon="2.17592">
        <ele>54.9</ele>
        <time>2022-05-29T09:59:43Z</time>
      </trkpt>
      <trkpt lat="48.97896" lon="2.17596">
        <ele>55</ele>
        <time>2022-05-29T09:59:48Z</time>
      </trkpt>
      <trkpt lat="48.97891" lon="2.176">
        <ele>54.8</ele>
        <time>2022-05-29T09:59:53Z</time>
      </trkpt>
      <trkpt lat="48.97885" lon="2.17606">
        <ele>55.4</ele>
        <time>2022-05-29T09:59:58Z</time>
      </trkpt>
      <trkpt lat="48.97873" lon="2.17619">
        <ele>56.4</ele>
        <time>2022-05-29T10:00:04Z</time>
      </trkpt>
      <trkpt lat="48.97868" lon="2.17625">
        <ele>57</ele>
        <time>2022-05-29T10:00:09Z</time>
      </trkpt>
      <trkpt lat="48.97863" lon="2.17632">
        <ele>58.1</ele>
        <time>2022-05-29T10:00:15Z</time>
      </trkpt>
      <trkpt lat="48.97858" lon="2.17635">
        <ele>57.6</ele>
        <time>2022-05-29T10:00:20Z</time>
      </trkpt>
      <trkpt lat="48.9785" lon="2.17632">
        <ele>54.3</ele>
        <time>2022-05-29T10:00:25Z</time>
      </trkpt>
      <trkpt lat="48.97841" lon="2.17627">
        <ele>49.1</ele>
        <time>2022-05-29T10:00:30Z</time>
      </trkpt>
      <trkpt lat="48.97832" lon="2.17628">
        <ele>46.5</ele>
        <time>2022-05-29T10:00:36Z</time>
      </trkpt>
      <trkpt lat="48.97825" lon="2.17637">
        <ele>48</ele>
        <time>2022-05-29T10:00:42Z</time>
      </trkpt>
      <trkpt lat="48.9782" lon="2.17644">
        <ele>48.8</ele>
        <time>2022-05-29T10:00:47Z</time>
      </trkpt>
      <trkpt lat="48.97816" lon="2.1765">
        <ele>48.8</ele>
        <time>2022-05-29T10:00:52Z</time>
      </trkpt>
      <trkpt lat="48.9781" lon="2.17654">
        <ele>47.8</ele>
        <time>2022-05-29T10:00:58Z</time>
      </trkpt>
      <trkpt lat="48.97805" lon="2.17659">
        <ele>47.1</ele>
        <time>2022-05-29T10:01:03Z</time>
      </trkpt>
      <trkpt lat="48.978" lon="2.17662">
        <ele>46.8</ele>
        <time>2022-05-29T10:01:09Z</time>
      </trkpt>
      <trkpt lat="48.97796" lon="2.17669">
        <ele>47.7</ele>
        <time>2022-05-29T10:01:15Z</time>
      </trkpt>
      <trkpt lat="48.97791" lon="2.17676">
        <ele>48.2</ele>
        <time>2022-05-29T10:01:21Z</time>
      </trkpt>
      <trkpt lat="48.97785" lon="2.17679">
        <ele>47.3</ele>
        <time>2022-05-29T10:01:26Z</time>
      </trkpt>
      <trkpt lat="48.97781" lon="2.17676">
        <ele>46</ele>
        <time>2022-05-29T10:01:31Z</time>
      </trkpt>
      <trkpt lat="48.97779" lon="2.17671">
        <ele>45</ele>
        <time>2022-05-29T10:01:37Z</time>
      </trkpt>
      <trkpt lat="48.97776" lon="2.1767">
        <ele>43.9</ele>
        <time>2022-05-29T10:01:42Z</time>
      </trkpt>
      <trkpt lat="48.9777" lon="2.17672">
        <ele>42.6</ele>
        <time>2022-05-29T10:01:48Z</time>
      </trkpt>
      <trkpt lat="48.97767" lon="2.17674">
        <ele>42</ele>
        <time>2022-05-29T10:01:53Z</time>
      </trkpt>
      <trkpt lat="48.97763" lon="2.17677">
        <ele>41.6</ele>
        <time>2022-05-29T10:01:59Z</time>
      </trkpt>
      <trkpt lat="48.97759" lon="2.1768">
        <ele>41.6</ele>
        <time>2022-05-29T10:02:04Z</time>
      </trkpt>
      <trkpt lat="48.97755" lon="2.1768">
        <ele>40.4</ele>
        <time>2022-05-29T10:02:10Z</time>
      </trkpt>
      <trkpt lat="48.97752" lon="2.17678">
        <ele>39</ele>
        <time>2022-05-29T10:02:16Z</time>
      </trkpt>
      <trkpt lat="48.97748" lon="2.17677">
        <ele>38</ele>
        <time>2022-05-29T10:02:21Z</time>
      </trkpt>
      <trkpt lat="48.97741" lon="2.17668">
        <ele>34.2</ele>
        <time>2022-05-29T10:02:27Z</time>
      </trkpt>
      <trkpt lat="48.97741" lon="2.17664">
        <ele>33.2</ele>
        <time>2022-05-29T10:02:33Z</time>
      </trkpt>
      <trkpt lat="48.97741" lon="2.1766">
        <ele>32.3</ele>
        <time>2022-05-29T10:02:39Z</time>
      </trkpt>
      <trkpt lat="48.9774" lon="2.17655">
        <ele>31.1</ele>
        <time>2022-05-29T10:02:44Z</time>
      </trkpt>
      <trkpt lat="48.97738" lon="2.1765">
        <ele>29.8</ele>
        <time>2022-05-29T10:02:50Z</time>
      </trkpt>
      <trkpt lat="48.97738" lon="2.17642">
        <ele>28.1</ele>
        <time>2022-05-29T10:02:56Z</time>
      </trkpt>
      <trkpt lat="48.97738" lon="2.17637">
        <ele>27.4</ele>
        <time>2022-05-29T10:03:01Z</time>
      </trkpt>
      <trkpt lat="48.97738" lon="2.17628">
        <ele>26.8</ele>
        <time>2022-05-29T10:03:07Z</time>
      </trkpt>
      <trkpt lat="48.97735" lon="2.17616">
        <ele>25.8</ele>
        <time>2022-05-29T10:03:13Z</time>
      </trkpt>
      <trkpt lat="48.97729" lon="2.17612">
        <ele>25.3</ele>
        <time>2022-05-29T10:03:18Z</time>
      </trkpt>
      <trkpt lat="48.97724" lon="2.17616">
        <ele>25.4</ele>
        <time>2022-05-29T10:03:23Z</time>
      </trkpt>
      <trkpt lat="48.97718" lon="2.17618">
        <ele>25</ele>
        <time>2022-05-29T10:03:28Z</time>
      </trkpt>
      <trkpt lat="48.97709" lon="2.1762">
        <ele>24.4</ele>
        <time>2022-05-29T10:03:34Z</time>
      </trkpt>
      <trkpt lat="48.97701" lon="2.17622">
        <ele>23.8</ele>
        <time>2022-05-29T10:03:39Z</time>
      </trkpt>
      <trkpt lat="48.97696" lon="2.17625">
        <ele>23.6</ele>
        <time>2022-05-29T10:03:45Z</time>
      </trkpt>
      <trkpt lat="48.97687" lon="2.17628">
        <ele>23.6</ele>
        <time>2022-05-29T10:03:51Z</time>
      </trkpt>
      <trkpt lat="48.97682" lon="2.17634">
        <ele>24</ele>
        <time>2022-05-29T10:03:56Z</time>
      </trkpt>
      <trkpt lat="48.97674" lon="2.17639">
        <ele>24.3</ele>
        <time>2022-05-29T10:04:02Z</time>
      </trkpt>
      <trkpt lat="48.97666" lon="2.17646">
        <ele>24.2</ele>
        <time>2022-05-29T10:04:08Z</time>
      </trkpt>
      <trkpt lat="48.9766" lon="2.17652">
        <ele>24</ele>
        <time>2022-05-29T10:04:13Z</time>
      </trkpt>
      <trkpt lat="48.97655" lon="2.17656">
        <ele>23.9</ele>
        <time>2022-05-29T10:04:19Z</time>
      </trkpt>
      <trkpt lat="48.97647" lon="2.17658">
        <ele>23.5</ele>
        <time>2022-05-29T10:04:25Z</time>
      </trkpt>
      <trkpt lat="48.97641" lon="2.1766">
        <ele>23.5</ele>
        <time>2022-05-29T10:04:30Z</time>
      </trkpt>
      <trkpt lat="48.97633" lon="2.17661">
        <ele>23.2</ele>
        <time>2022-05-29T10:04:35Z</time>
      </trkpt>
      <trkpt lat="48.97624" lon="2.17665">
        <ele>23.3</ele>
        <time>2022-05-29T10:04:41Z</time>
      </trkpt>
      <trkpt lat="48.97615" lon="2.1767">
        <ele>23.4</ele>
        <time>2022-05-29T10:04:46Z</time>
      </trkpt>
      <trkpt lat="48.97608" lon="2.17678">
        <ele>23.6</ele>
        <time>2022-05-29T10:04:52Z</time>
      </trkpt>
      <trkpt lat="48.97602" lon="2.17686">
        <ele>24</ele>
        <time>2022-05-29T10:04:57Z</time>
      </trkpt>
      <trkpt lat="48.97595" lon="2.17686">
        <ele>23.6</ele>
        <time>2022-05-29T10:05:03Z</time>
      </trkpt>
      <trkpt lat="48.97588" lon="2.17689">
        <ele>23.6</ele>
        <time>2022-05-29T10:05:09Z</time>
      </trkpt>
      <trkpt lat="48.97579" lon="2.1769">
        <ele>23.3</ele>
        <time>2022-05-29T10:05:15Z</time>
      </trkpt>
      <trkpt lat="48.97569" lon="2.17698">
        <ele>23.2</ele>
        <time>2022-05-29T10:05:21Z</time>
      </trkpt>
      <trkpt lat="48.97564" lon="2.17705">
        <ele>23.3</ele>
        <time>2022-05-29T10:05:26Z</time>
      </trkpt>
      <trkpt lat="48.97556" lon="2.17707">
        <ele>22.9</ele>
        <time>2022-05-29T10:05:32Z</time>
      </trkpt>
      <trkpt lat="48.97552" lon="2.17712">
        <ele>23.2</ele>
        <time>2022-05-29T10:05:38Z</time>
      </trkpt>
      <trkpt lat="48.97545" lon="2.17714">
        <ele>23.3</ele>
        <time>2022-05-29T10:05:43Z</time>
      </trkpt>
      <trkpt lat="48.97538" lon="2.17717">
        <ele>23.5</ele>
        <time>2022-05-29T10:05:48Z</time>
      </trkpt>
      <trkpt lat="48.97531" lon="2.17721">
        <ele>23.8</ele>
        <time>2022-05-29T10:05:54Z</time>
      </trkpt>
      <trkpt lat="48.97523" lon="2.17721">
        <ele>23.4</ele>
        <time>2022-05-29T10:05:59Z</time>
      </trkpt>
      <trkpt lat="48.97516" lon="2.17725">
        <ele>22.9</ele>
        <time>2022-05-29T10:06:05Z</time>
      </trkpt>
      <trkpt lat="48.9751" lon="2.1773">
        <ele>22.7</ele>
        <time>2022-05-29T10:06:11Z</time>
      </trkpt>
      <trkpt lat="48.97503" lon="2.17735">
        <ele>22.6</ele>
        <time>2022-05-29T10:06:16Z</time>
      </trkpt>
      <trkpt lat="48.97495" lon="2.1774">
        <ele>22.9</ele>
        <time>2022-05-29T10:06:21Z</time>
      </trkpt>
      <trkpt lat="48.97485" lon="2.17746">
        <ele>23.4</ele>
        <time>2022-05-29T10:06:27Z</time>
      </trkpt>
      <trkpt lat="48.9748" lon="2.17749">
        <ele>23.8</ele>
        <time>2022-05-29T10:06:32Z</time>
      </trkpt>
      <trkpt lat="48.97471" lon="2.17752">
        <ele>24</ele>
        <time>2022-05-29T10:06:38Z</time>
      </trkpt>
      <trkpt lat="48.97463" lon="2.17754">
        <ele>23.5</ele>
        <time>2022-05-29T10:06:43Z</time>
      </trkpt>
      <trkpt lat="48.97455" lon="2.1776">
        <ele>23.4</ele>
        <time>2022-05-29T10:06:49Z</time>
      </trkpt>
      <trkpt lat="48.97449" lon="2.17763">
        <ele>23.2</ele>
        <time>2022-05-29T10:06:54Z</time>
      </trkpt>
      <trkpt lat="48.9744" lon="2.17768">
        <ele>23.2</ele>
        <time>2022-05-29T10:07:00Z</time>
      </trkpt>
      <trkpt lat="48.97436" lon="2.17771">
        <ele>23.4</ele>
        <time>2022-05-29T10:07:06Z</time>
      </trkpt>
      <trkpt lat="48.97427" lon="2.17778">
        <ele>24</ele>
        <time>2022-05-29T10:07:12Z</time>
      </trkpt>
      <trkpt lat="48.97417" lon="2.17785">
        <ele>24.3</ele>
        <time>2022-05-29T10:07:18Z</time>
      </trkpt>
      <trkpt lat="48.97413" lon="2.17787">
        <ele>24.3</ele>
        <time>2022-05-29T10:07:23Z</time>
      </trkpt>
      <trkpt lat="48.97406" lon="2.17792">
        <ele>24.3</ele>
        <time>2022-05-29T10:07:29Z</time>
      </trkpt>
      <trkpt lat="48.974" lon="2.17795">
        <ele>24.4</ele>
        <time>2022-05-29T10:07:34Z</time>
      </trkpt>
      <trkpt lat="48.97395" lon="2.17803">
        <ele>24.9</ele>
        <time>2022-05-29T10:07:40Z</time>
      </trkpt>
      <trkpt lat="48.97389" lon="2.17812">
        <ele>25.2</ele>
        <time>2022-05-29T10:07:45Z</time>
      </trkpt>
      <trkpt lat="48.97382" lon="2.17816">
        <ele>25.2</ele>
        <time>2022-05-29T10:07:50Z</time>
      </trkpt>
      <trkpt lat="48.97378" lon="2.17819">
        <ele>25.1</ele>
        <time>2022-05-29T10:07:56Z</time>
      </trkpt>
      <trkpt lat="48.97372" lon="2.17823">
        <ele>25</ele>
        <time>2022-05-29T10:08:02Z</time>
      </trkpt>
      <trkpt lat="48.97363" lon="2.17828">
        <ele>24.9</ele>
        <time>2022-05-29T10:08:07Z</time>
      </trkpt>
      <trkpt lat="48.97355" lon="2.17834">
        <ele>25</ele>
        <time>2022-05-29T10:08:13Z</time>
      </trkpt>
      <trkpt lat="48.97349" lon="2.17836">
        <ele>25.1</ele>
        <time>2022-05-29T10:08:19Z</time>
      </trkpt>
      <trkpt lat="48.97341" lon="2.17841">
        <ele>25.1</ele>
        <time>2022-05-29T10:08:24Z</time>
      </trkpt>
      <trkpt lat="48.97331" lon="2.17841">
        <ele>25</ele>
        <time>2022-05-29T10:08:30Z</time>
      </trkpt>
      <trkpt lat="48.97324" lon="2.17844">
        <ele>25.1</ele>
        <time>2022-05-29T10:08:36Z</time>
      </trkpt>
      <trkpt lat="48.97316" lon="2.17843">
        <ele>25.2</ele>
        <time>2022-05-29T10:08:42Z</time>
      </trkpt>
      <trkpt lat="48.97309" lon="2.17847">
        <ele>25.4</ele>
        <time>2022-05-29T10:08:47Z</time>
      </trkpt>
      <trkpt lat="48.97302" lon="2.17855">
        <ele>25.6</ele>
        <time>2022-05-29T10:08:52Z</time>
      </trkpt>
      <trkpt lat="48.97296" lon="2.17865">
        <ele>25.7</ele>
        <time>2022-05-29T10:08:58Z</time>
      </trkpt>
      <trkpt lat="48.9729" lon="2.17871">
        <ele>25.6</ele>
        <time>2022-05-29T10:09:04Z</time>
      </trkpt>
      <trkpt lat="48.97286" lon="2.17878">
        <ele>25.7</ele>
        <time>2022-05-29T10:09:09Z</time>
      </trkpt>
      <trkpt lat="48.97279" lon="2.17883">
        <ele>25.8</ele>
        <time>2022-05-29T10:09:14Z</time>
      </trkpt>
      <trkpt lat="48.97273" lon="2.17887">
        <ele>25.9</ele>
        <time>2022-05-29T10:09:20Z</time>
      </trkpt>
      <trkpt lat="48.97265" lon="2.17891">
        <ele>26</ele>
        <time>2022-05-29T10:09:26Z</time>
      </trkpt>
      <trkpt lat="48.97257" lon="2.17898">
        <ele>26.1</ele>
        <time>2022-05-29T10:09:31Z</time>
      </trkpt>
      <trkpt lat="48.97249" lon="2.17902">
        <ele>25.9</ele>
        <time>2022-05-29T10:09:37Z</time>
      </trkpt>
      <trkpt lat="48.97243" lon="2.17906">
        <ele>25.6</ele>
        <time>2022-05-29T10:09:42Z</time>
      </trkpt>
      <trkpt lat="48.97238" lon="2.17912">
        <ele>25.4</ele>
        <time>2022-05-29T10:09:47Z</time>
      </trkpt>
      <trkpt lat="48.9723" lon="2.17915">
        <ele>25.2</ele>
        <time>2022-05-29T10:09:53Z</time>
      </trkpt>
      <trkpt lat="48.97224" lon="2.1792">
        <ele>25.2</ele>
        <time>2022-05-29T10:09:59Z</time>
      </trkpt>
      <trkpt lat="48.9722" lon="2.17925">
        <ele>25.2</ele>
        <time>2022-05-29T10:10:04Z</time>
      </trkpt>
      <trkpt lat="48.97222" lon="2.17926">
        <ele>25.3</ele>
        <time>2022-05-29T10:10:10Z</time>
      </trkpt>
      <trkpt lat="48.97229" lon="2.17918">
        <ele>25.3</ele>
        <time>2022-05-29T10:10:15Z</time>
      </trkpt>
      <trkpt lat="48.97223" lon="2.17914">
        <ele>24.9</ele>
        <time>2022-05-29T10:10:21Z</time>
      </trkpt>
      <trkpt lat="48.97218" lon="2.17914">
        <ele>24.5</ele>
        <time>2022-05-29T10:10:26Z</time>
      </trkpt>
      <trkpt lat="48.97216" lon="2.17913">
        <ele>24.3</ele>
        <time>2022-05-29T10:10:32Z</time>
      </trkpt>
      <trkpt lat="48.97215" lon="2.17913">
        <ele>24.2</ele>
        <time>2022-05-29T10:10:37Z</time>
      </trkpt>
      <trkpt lat="48.97216" lon="2.17915">
        <ele>24.4</ele>
        <time>2022-05-29T10:10:43Z</time>
      </trkpt>
      <trkpt lat="48.97216" lon="2.17915">
        <ele>24.4</ele>
        <time>2022-05-29T10:10:49Z</time>
      </trkpt>
      <trkpt lat="48.97216" lon="2.17913">
        <ele>24.2</ele>
        <time>2022-05-29T10:10:55Z</time>
      </trkpt>
      <trkpt lat="48.97216" lon="2.17912">
        <ele>24.2</ele>
        <time>2022-05-29T10:11:00Z</time>
      </trkpt>
      <trkpt lat="48.97216" lon="2.17911">
        <ele>24.2</ele>
        <time>2022-05-29T10:11:06Z</time>
      </trkpt>
      <trkpt lat="48.97216" lon="2.17911">
        <ele>24.1</ele>
        <time>2022-05-29T10:11:12Z</time>
      </trkpt>
      <trkpt lat="48.97216" lon="2.17911">
        <ele>24.1</ele>
        <time>2022-05-29T10:11:18Z</time>
      </trkpt>
      <trkpt lat="48.97216" lon="2.17911">
        <ele>24.1</ele>
        <time>2022-05-29T10:11:24Z</time>
      </trkpt>
      <trkpt lat="48.97216" lon="2.17911">
        <ele>24.1</ele>
        <time>2022-05-29T10:11:30Z</time>
      </trkpt>
      <trkpt lat="48.97216" lon="2.17911">
        <ele>24.1</ele>
        <time>2022-05-29T10:11:36Z</time>
      </trkpt>
      <trkpt lat="48.97214" lon="2.17909">
        <ele>23.9</ele>
        <time>2022-05-29T10:11:42Z</time>
      </trkpt>
      <trkpt lat="48.97214" lon="2.17909">
        <ele>23.9</ele>
        <time>2022-05-29T10:11:47Z</time>
      </trkpt>
      <trkpt lat="48.97214" lon="2.17908">
        <ele>23.8</ele>
        <time>2022-05-29T10:11:53Z</time>
      </trkpt>
      <trkpt lat="48.97215" lon="2.1791">
        <ele>24.1</ele>
        <time>2022-05-29T10:11:58Z</time>
      </trkpt>
      <trkpt lat="48.97219" lon="2.17913">
        <ele>24.5</ele>
        <time>2022-05-29T10:12:03Z</time>
      </trkpt>
      <trkpt lat="48.97221" lon="2.17913">
        <ele>24.6</ele>
        <time>2022-05-29T10:12:09Z</time>
      </trkpt>
      <trkpt lat="48.97218" lon="2.17915">
        <ele>24.6</ele>
        <time>2022-05-29T10:12:14Z</time>
      </trkpt>
      <trkpt lat="48.97218" lon="2.17918">
        <ele>24.8</ele>
        <time>2022-05-29T10:12:19Z</time>
      </trkpt>
      <trkpt lat="48.97217" lon="2.1792">
        <ele>24.8</ele>
        <time>2022-05-29T10:12:25Z</time>
      </trkpt>
      <trkpt lat="48.97217" lon="2.17917">
        <ele>24.6</ele>
        <time>2022-05-29T10:12:30Z</time>
      </trkpt>
      <trkpt lat="48.97213" lon="2.17908">
        <ele>23.7</ele>
        <time>2022-05-29T10:12:36Z</time>
      </trkpt>
      <trkpt lat="48.97212" lon="2.17901">
        <ele>23.2</ele>
        <time>2022-05-29T10:12:41Z</time>
      </trkpt>
      <trkpt lat="48.97214" lon="2.17898">
        <ele>23.1</ele>
        <time>2022-05-29T10:12:47Z</time>
      </trkpt>
      <trkpt lat="48.97215" lon="2.17896">
        <ele>23</ele>
        <time>2022-05-29T10:12:52Z</time>
      </trkpt>
      <trkpt lat="48.97215" lon="2.17895">
        <ele>22.9</ele>
        <time>2022-05-29T10:12:58Z</time>
      </trkpt>
      <trkpt lat="48.97215" lon="2.17895">
        <ele>22.9</ele>
        <time>2022-05-29T10:13:04Z</time>
      </trkpt>
      <trkpt lat="48.97216" lon="2.17894">
        <ele>22.9</ele>
        <time>2022-05-29T10:13:09Z</time>
      </trkpt>
      <trkpt lat="48.97217" lon="2.17894">
        <ele>23</ele>
        <time>2022-05-29T10:13:15Z</time>
      </trkpt>
      <trkpt lat="48.97218" lon="2.17893">
        <ele>23</ele>
        <time>2022-05-29T10:13:20Z</time>
      </trkpt>
      <trkpt lat="48.9722" lon="2.17889">
        <ele>22.8</ele>
        <time>2022-05-29T10:13:26Z</time>
      </trkpt>
      <trkpt lat="48.97218" lon="2.17887">
        <ele>22.7</ele>
        <time>2022-05-29T10:13:31Z</time>
      </trkpt>
      <trkpt lat="48.97209" lon="2.17882">
        <ele>21.9</ele>
        <time>2022-05-29T10:13:37Z</time>
      </trkpt>
      <trkpt lat="48.97208" lon="2.17865">
        <ele>21.5</ele>
        <time>2022-05-29T10:13:42Z</time>
      </trkpt>
      <trkpt lat="48.97207" lon="2.17845">
        <ele>21.5</ele>
        <time>2022-05-29T10:13:48Z</time>
      </trkpt>
      <trkpt lat="48.97208" lon="2.17825">
        <ele>21.5</ele>
        <time>2022-05-29T10:13:53Z</time>
      </trkpt>
      <trkpt lat="48.97207" lon="2.17806">
        <ele>21.4</ele>
        <time>2022-05-29T10:13:58Z</time>
      </trkpt>
      <trkpt lat="48.97206" lon="2.17785">
        <ele>21.4</ele>
        <time>2022-05-29T10:14:04Z</time>
      </trkpt>
      <trkpt lat="48.97203" lon="2.17771">
        <ele>21.2</ele>
        <time>2022-05-29T10:14:09Z</time>
      </trkpt>
      <trkpt lat="48.97197" lon="2.17759">
        <ele>21</ele>
        <time>2022-05-29T10:14:15Z</time>
      </trkpt>
      <trkpt lat="48.97191" lon="2.17752">
        <ele>21</ele>
        <time>2022-05-29T10:14:21Z</time>
      </trkpt>
      <trkpt lat="48.97187" lon="2.17749">
        <ele>21.1</ele>
        <time>2022-05-29T10:14:27Z</time>
      </trkpt>
      <trkpt lat="48.97179" lon="2.17743">
        <ele>21.4</ele>
        <time>2022-05-29T10:14:33Z</time>
      </trkpt>
      <trkpt lat="48.97173" lon="2.1774">
        <ele>21.7</ele>
        <time>2022-05-29T10:14:39Z</time>
      </trkpt>
      <trkpt lat="48.97169" lon="2.17738">
        <ele>21.8</ele>
        <time>2022-05-29T10:14:44Z</time>
      </trkpt>
      <trkpt lat="48.97167" lon="2.17738">
        <ele>21.9</ele>
        <time>2022-05-29T10:14:49Z</time>
      </trkpt>
      <trkpt lat="48.97166" lon="2.17738">
        <ele>21.9</ele>
        <time>2022-05-29T10:14:54Z</time>
      </trkpt>
      <trkpt lat="48.97165" lon="2.17739">
        <ele>21.8</ele>
        <time>2022-05-29T10:15:00Z</time>
      </trkpt>
      <trkpt lat="48.97165" lon="2.1774">
        <ele>21.8</ele>
        <time>2022-05-29T10:15:05Z</time>
      </trkpt>
      <trkpt lat="48.97165" lon="2.1774">
        <ele>21.8</ele>
        <time>2022-05-29T10:15:11Z</time>
      </trkpt>
      <trkpt lat="48.97164" lon="2.1774">
        <ele>21.8</ele>
        <time>2022-05-29T10:15:16Z</time>
      </trkpt>
      <trkpt lat="48.97163" lon="2.17741">
        <ele>21.7</ele>
        <time>2022-05-29T10:15:22Z</time>
      </trkpt>
      <trkpt lat="48.9716" lon="2.1774">
        <ele>21.8</ele>
        <time>2022-05-29T10:15:28Z</time>
      </trkpt>
      <trkpt lat="48.97159" lon="2.17738">
        <ele>22</ele>
        <time>2022-05-29T10:15:33Z</time>
      </trkpt>
      <trkpt lat="48.97157" lon="2.17734">
        <ele>22.4</ele>
        <time>2022-05-29T10:15:38Z</time>
      </trkpt>
      <trkpt lat="48.97158" lon="2.17727">
        <ele>22.9</ele>
        <time>2022-05-29T10:15:43Z</time>
      </trkpt>
      <trkpt lat="48.97162" lon="2.17721">
        <ele>23.2</ele>
        <time>2022-05-29T10:15:49Z</time>
      </trkpt>
      <trkpt lat="48.97163" lon="2.17717">
        <ele>23.3</ele>
        <time>2022-05-29T10:15:54Z</time>
      </trkpt>
      <trkpt lat="48.97166" lon="2.17712">
        <ele>23.4</ele>
        <time>2022-05-29T10:16:00Z</time>
      </trkpt>
      <trkpt lat="48.97165" lon="2.17708">
        <ele>23.5</ele>
        <time>2022-05-29T10:16:05Z</time>
      </trkpt>
      <trkpt lat="48.97163" lon="2.17709">
        <ele>23.5</ele>
        <time>2022-05-29T10:16:10Z</time>
      </trkpt>
      <trkpt lat="48.97161" lon="2.17709">
        <ele>23.5</ele>
        <time>2022-05-29T10:16:16Z</time>
      </trkpt>
      <trkpt lat="48.9716" lon="2.17707">
        <ele>23.5</ele>
        <time>2022-05-29T10:16:21Z</time>
      </trkpt>
      <trkpt lat="48.97156" lon="2.1771">
        <ele>23.5</ele>
        <time>2022-05-29T10:16:26Z</time>
      </trkpt>
      <trkpt lat="48.9715" lon="2.17713">
        <ele>23.5</ele>
        <time>2022-05-29T10:16:31Z</time>
      </trkpt>
      <trkpt lat="48.97142" lon="2.17718">
        <ele>23.8</ele>
        <time>2022-05-29T10:16:37Z</time>
      </trkpt>
      <trkpt lat="48.97133" lon="2.17724">
        <ele>23.9</ele>
        <time>2022-05-29T10:16:42Z</time>
      </trkpt>
      <trkpt lat="48.97127" lon="2.17728">
        <ele>23.6</ele>
        <time>2022-05-29T10:16:47Z</time>
      </trkpt>
      <trkpt lat="48.97121" lon="2.17734">
        <ele>23.5</ele>
        <time>2022-05-29T10:16:53Z</time>
      </trkpt>
      <trkpt lat="48.97113" lon="2.1774">
        <ele>23.9</ele>
        <time>2022-05-29T10:16:59Z</time>
      </trkpt>
      <trkpt lat="48.97107" lon="2.17744">
        <ele>24</ele>
        <time>2022-05-29T10:17:04Z</time>
      </trkpt>
      <trkpt lat="48.971" lon="2.17749">
        <ele>24</ele>
        <time>2022-05-29T10:17:10Z</time>
      </trkpt>
      <trkpt lat="48.97093" lon="2.17751">
        <ele>23.9</ele>
        <time>2022-05-29T10:17:16Z</time>
      </trkpt>
      <trkpt lat="48.97087" lon="2.17755">
        <ele>23.8</ele>
        <time>2022-05-29T10:17:22Z</time>
      </trkpt>
      <trkpt lat="48.97079" lon="2.1776">
        <ele>23.7</ele>
        <time>2022-05-29T10:17:27Z</time>
      </trkpt>
      <trkpt lat="48.97069" lon="2.17764">
        <ele>23.8</ele>
        <time>2022-05-29T10:17:33Z</time>
      </trkpt>
      <trkpt lat="48.97064" lon="2.17769">
        <ele>23.8</ele>
        <time>2022-05-29T10:17:38Z</time>
      </trkpt>
      <trkpt lat="48.97057" lon="2.17774">
        <ele>23.9</ele>
        <time>2022-05-29T10:17:43Z</time>
      </trkpt>
      <trkpt lat="48.97051" lon="2.17779">
        <ele>23.9</ele>
        <time>2022-05-29T10:17:49Z</time>
      </trkpt>
      <trkpt lat="48.9704" lon="2.17784">
        <ele>23.8</ele>
        <time>2022-05-29T10:17:55Z</time>
      </trkpt>
      <trkpt lat="48.97035" lon="2.17788">
        <ele>23.8</ele>
        <time>2022-05-29T10:18:00Z</time>
      </trkpt>
      <trkpt lat="48.9703" lon="2.17793">
        <ele>23.9</ele>
        <time>2022-05-29T10:18:05Z</time>
      </trkpt>
      <trkpt lat="48.97024" lon="2.17798">
        <ele>24</ele>
        <time>2022-05-29T10:18:10Z</time>
      </trkpt>
      <trkpt lat="48.97018" lon="2.17805">
        <ele>24</ele>
        <time>2022-05-29T10:18:16Z</time>
      </trkpt>
      <trkpt lat="48.9701" lon="2.17814">
        <ele>23.5</ele>
        <time>2022-05-29T10:18:21Z</time>
      </trkpt>
      <trkpt lat="48.96999" lon="2.1782">
        <ele>23.5</ele>
        <time>2022-05-29T10:18:26Z</time>
      </trkpt>
      <trkpt lat="48.96991" lon="2.17824">
        <ele>23.6</ele>
        <time>2022-05-29T10:18:32Z</time>
      </trkpt>
      <trkpt lat="48.96985" lon="2.17828">
        <ele>23.6</ele>
        <time>2022-05-29T10:18:38Z</time>
      </trkpt>
      <trkpt lat="48.9698" lon="2.17833">
        <ele>23.7</ele>
        <time>2022-05-29T10:18:44Z</time>
      </trkpt>
      <trkpt lat="48.96975" lon="2.17838">
        <ele>23.6</ele>
        <time>2022-05-29T10:18:49Z</time>
      </trkpt>
      <trkpt lat="48.96966" lon="2.17845">
        <ele>23.2</ele>
        <time>2022-05-29T10:18:55Z</time>
      </trkpt>
      <trkpt lat="48.96956" lon="2.17851">
        <ele>23.1</ele>
        <time>2022-05-29T10:19:01Z</time>
      </trkpt>
      <trkpt lat="48.9695" lon="2.17856">
        <ele>23</ele>
        <time>2022-05-29T10:19:06Z</time>
      </trkpt>
      <trkpt lat="48.96941" lon="2.17859">
        <ele>23.1</ele>
        <time>2022-05-29T10:19:11Z</time>
      </trkpt>
      <trkpt lat="48.96933" lon="2.1786">
        <ele>23</ele>
        <time>2022-05-29T10:19:17Z</time>
      </trkpt>
      <trkpt lat="48.96928" lon="2.17862">
        <ele>23</ele>
        <time>2022-05-29T10:19:22Z</time>
      </trkpt>
      <trkpt lat="48.96922" lon="2.17867">
        <ele>22.9</ele>
        <time>2022-05-29T10:19:28Z</time>
      </trkpt>
      <trkpt lat="48.96915" lon="2.17872">
        <ele>23</ele>
        <time>2022-05-29T10:19:34Z</time>
      </trkpt>
      <trkpt lat="48.96909" lon="2.17876">
        <ele>23</ele>
        <time>2022-05-29T10:19:39Z</time>
      </trkpt>
      <trkpt lat="48.96898" lon="2.17878">
        <ele>23</ele>
        <time>2022-05-29T10:19:45Z</time>
      </trkpt>
      <trkpt lat="48.96892" lon="2.17882">
        <ele>23</ele>
        <time>2022-05-29T10:19:50Z</time>
      </trkpt>
      <trkpt lat="48.96883" lon="2.17884">
        <ele>23</ele>
        <time>2022-05-29T10:19:56Z</time>
      </trkpt>
      <trkpt lat="48.96876" lon="2.17885">
        <ele>23.1</ele>
        <time>2022-05-29T10:20:02Z</time>
      </trkpt>
      <trkpt lat="48.9687" lon="2.17888">
        <ele>23</ele>
        <time>2022-05-29T10:20:07Z</time>
      </trkpt>
      <trkpt lat="48.96861" lon="2.1789">
        <ele>23</ele>
        <time>2022-05-29T10:20:13Z</time>
      </trkpt>
      <trkpt lat="48.96854" lon="2.17894">
        <ele>23</ele>
        <time>2022-05-29T10:20:19Z</time>
      </trkpt>
      <trkpt lat="48.96847" lon="2.17902">
        <ele>23</ele>
        <time>2022-05-29T10:20:25Z</time>
      </trkpt>
      <trkpt lat="48.96839" lon="2.17908">
        <ele>23.1</ele>
        <time>2022-05-29T10:20:30Z</time>
      </trkpt>
      <trkpt lat="48.96832" lon="2.17909">
        <ele>23.3</ele>
        <time>2022-05-29T10:20:35Z</time>
      </trkpt>
      <trkpt lat="48.96824" lon="2.17911">
        <ele>23.2</ele>
        <time>2022-05-29T10:20:40Z</time>
      </trkpt>
      <trkpt lat="48.96818" lon="2.17912">
        <ele>23.2</ele>
        <time>2022-05-29T10:20:45Z</time>
      </trkpt>
      <trkpt lat="48.96813" lon="2.17912">
        <ele>23.2</ele>
        <time>2022-05-29T10:20:50Z</time>
      </trkpt>
      <trkpt lat="48.968" lon="2.17909">
        <ele>23.3</ele>
        <time>2022-05-29T10:20:56Z</time>
      </trkpt>
      <trkpt lat="48.96792" lon="2.17901">
        <ele>23.6</ele>
        <time>2022-05-29T10:21:02Z</time>
      </trkpt>
      <trkpt lat="48.96787" lon="2.17891">
        <ele>23.9</ele>
        <time>2022-05-29T10:21:07Z</time>
      </trkpt>
      <trkpt lat="48.96784" lon="2.17877">
        <ele>24</ele>
        <time>2022-05-29T10:21:13Z</time>
      </trkpt>
      <trkpt lat="48.9678" lon="2.17872">
        <ele>24</ele>
        <time>2022-05-29T10:21:18Z</time>
      </trkpt>
      <trkpt lat="48.96774" lon="2.17865">
        <ele>24</ele>
        <time>2022-05-29T10:21:24Z</time>
      </trkpt>
      <trkpt lat="48.96766" lon="2.17858">
        <ele>24</ele>
        <time>2022-05-29T10:21:29Z</time>
      </trkpt>
      <trkpt lat="48.96757" lon="2.17851">
        <ele>24</ele>
        <time>2022-05-29T10:21:34Z</time>
      </trkpt>
      <trkpt lat="48.96749" lon="2.17846">
        <ele>24</ele>
        <time>2022-05-29T10:21:40Z</time>
      </trkpt>
      <trkpt lat="48.96742" lon="2.17843">
        <ele>24.1</ele>
        <time>2022-05-29T10:21:45Z</time>
      </trkpt>
      <trkpt lat="48.96736" lon="2.17841">
        <ele>24.1</ele>
        <time>2022-05-29T10:21:51Z</time>
      </trkpt>
      <trkpt lat="48.9673" lon="2.17838">
        <ele>24.1</ele>
        <time>2022-05-29T10:21:56Z</time>
      </trkpt>
      <trkpt lat="48.96723" lon="2.17832">
        <ele>23.9</ele>
        <time>2022-05-29T10:22:02Z</time>
      </trkpt>
      <trkpt lat="48.96716" lon="2.1783">
        <ele>23.9</ele>
        <time>2022-05-29T10:22:07Z</time>
      </trkpt>
      <trkpt lat="48.96707" lon="2.17827">
        <ele>23.9</ele>
        <time>2022-05-29T10:22:13Z</time>
      </trkpt>
      <trkpt lat="48.96697" lon="2.17826">
        <ele>24</ele>
        <time>2022-05-29T10:22:19Z</time>
      </trkpt>
      <trkpt lat="48.96692" lon="2.17831">
        <ele>23.9</ele>
        <time>2022-05-29T10:22:24Z</time>
      </trkpt>
      <trkpt lat="48.96686" lon="2.17838">
        <ele>23.9</ele>
        <time>2022-05-29T10:22:30Z</time>
      </trkpt>
      <trkpt lat="48.96681" lon="2.17844">
        <ele>23.9</ele>
        <time>2022-05-29T10:22:35Z</time>
      </trkpt>
      <trkpt lat="48.96677" lon="2.17839">
        <ele>23.6</ele>
        <time>2022-05-29T10:22:40Z</time>
      </trkpt>
      <trkpt lat="48.96676" lon="2.17827">
        <ele>23.3</ele>
        <time>2022-05-29T10:22:45Z</time>
      </trkpt>
      <trkpt lat="48.96678" lon="2.17814">
        <ele>23.4</ele>
        <time>2022-05-29T10:22:50Z</time>
      </trkpt>
      <trkpt lat="48.96681" lon="2.17804">
        <ele>23.5</ele>
        <time>2022-05-29T10:22:55Z</time>
      </trkpt>
      <trkpt lat="48.96684" lon="2.17792">
        <ele>23.6</ele>
        <time>2022-05-29T10:23:01Z</time>
      </trkpt>
      <trkpt lat="48.96686" lon="2.17779">
        <ele>23.7</ele>
        <time>2022-05-29T10:23:07Z</time>
      </trkpt>
      <trkpt lat="48.96688" lon="2.17769">
        <ele>23.5</ele>
        <time>2022-05-29T10:23:12Z</time>
      </trkpt>
      <trkpt lat="48.96689" lon="2.17759">
        <ele>23.2</ele>
        <time>2022-05-29T10:23:18Z</time>
      </trkpt>
      <trkpt lat="48.96692" lon="2.17749">
        <ele>23</ele>
        <time>2022-05-29T10:23:24Z</time>
      </trkpt>
      <trkpt lat="48.96694" lon="2.17737">
        <ele>23</ele>
        <time>2022-05-29T10:23:29Z</time>
      </trkpt>
      <trkpt lat="48.96695" lon="2.17725">
        <ele>23</ele>
        <time>2022-05-29T10:23:34Z</time>
      </trkpt>
      <trkpt lat="48.96698" lon="2.17711">
        <ele>23.5</ele>
        <time>2022-05-29T10:23:40Z</time>
      </trkpt>
      <trkpt lat="48.96701" lon="2.17698">
        <ele>23.9</ele>
        <time>2022-05-29T10:23:46Z</time>
      </trkpt>
      <trkpt lat="48.96702" lon="2.17686">
        <ele>24</ele>
        <time>2022-05-29T10:23:52Z</time>
      </trkpt>
      <trkpt lat="48.96704" lon="2.17676">
        <ele>24</ele>
        <time>2022-05-29T10:23:57Z</time>
      </trkpt>
      <trkpt lat="48.96706" lon="2.1766">
        <ele>24</ele>
        <time>2022-05-29T10:24:03Z</time>
      </trkpt>
      <trkpt lat="48.96708" lon="2.1765">
        <ele>24</ele>
        <time>2022-05-29T10:24:08Z</time>
      </trkpt>
      <trkpt lat="48.96709" lon="2.17641">
        <ele>24</ele>
        <time>2022-05-29T10:24:13Z</time>
      </trkpt>
      <trkpt lat="48.96712" lon="2.17628">
        <ele>23.8</ele>
        <time>2022-05-29T10:24:19Z</time>
      </trkpt>
      <trkpt lat="48.96715" lon="2.17615">
        <ele>23.4</ele>
        <time>2022-05-29T10:24:24Z</time>
      </trkpt>
      <trkpt lat="48.96718" lon="2.17602">
        <ele>23.2</ele>
        <time>2022-05-29T10:24:30Z</time>
      </trkpt>
      <trkpt lat="48.96721" lon="2.17591">
        <ele>23.1</ele>
        <time>2022-05-29T10:24:36Z</time>
      </trkpt>
      <trkpt lat="48.96721" lon="2.1758">
        <ele>23</ele>
        <time>2022-05-29T10:24:42Z</time>
      </trkpt>
      <trkpt lat="48.9672" lon="2.1757">
        <ele>23</ele>
        <time>2022-05-29T10:24:47Z</time>
      </trkpt>
      <trkpt lat="48.96717" lon="2.17566">
        <ele>23.1</ele>
        <time>2022-05-29T10:24:53Z</time>
      </trkpt>
      <trkpt lat="48.96716" lon="2.17566">
        <ele>23.1</ele>
        <time>2022-05-29T10:24:58Z</time>
      </trkpt>
      <trkpt lat="48.96712" lon="2.17557">
        <ele>23</ele>
        <time>2022-05-29T10:25:03Z</time>
      </trkpt>
      <trkpt lat="48.96708" lon="2.17545">
        <ele>23.2</ele>
        <time>2022-05-29T10:25:09Z</time>
      </trkpt>
      <trkpt lat="48.96701" lon="2.17539">
        <ele>23.1</ele>
        <time>2022-05-29T10:25:15Z</time>
      </trkpt>
      <trkpt lat="48.96693" lon="2.17534">
        <ele>23</ele>
        <time>2022-05-29T10:25:21Z</time>
      </trkpt>
      <trkpt lat="48.96683" lon="2.1753">
        <ele>23</ele>
        <time>2022-05-29T10:25:27Z</time>
      </trkpt>
      <trkpt lat="48.96677" lon="2.17528">
        <ele>23</ele>
        <time>2022-05-29T10:25:32Z</time>
      </trkpt>
      <trkpt lat="48.96669" lon="2.17528">
        <ele>23</ele>
        <time>2022-05-29T10:25:38Z</time>
      </trkpt>
      <trkpt lat="48.96661" lon="2.1753">
        <ele>23</ele>
        <time>2022-05-29T10:25:43Z</time>
      </trkpt>
      <trkpt lat="48.96651" lon="2.17528">
        <ele>23</ele>
        <time>2022-05-29T10:25:49Z</time>
      </trkpt>
      <trkpt lat="48.96645" lon="2.17526">
        <ele>23</ele>
        <time>2022-05-29T10:25:54Z</time>
      </trkpt>
      <trkpt lat="48.96638" lon="2.17526">
        <ele>23</ele>
        <time>2022-05-29T10:25:59Z</time>
      </trkpt>
      <trkpt lat="48.96629" lon="2.17525">
        <ele>23</ele>
        <time>2022-05-29T10:26:05Z</time>
      </trkpt>
      <trkpt lat="48.96623" lon="2.17525">
        <ele>23</ele>
        <time>2022-05-29T10:26:10Z</time>
      </trkpt>
      <trkpt lat="48.96614" lon="2.17528">
        <ele>23</ele>
        <time>2022-05-29T10:26:16Z</time>
      </trkpt>
      <trkpt lat="48.96609" lon="2.17529">
        <ele>23</ele>
        <time>2022-05-29T10:26:21Z</time>
      </trkpt>
      <trkpt lat="48.96601" lon="2.17526">
        <ele>23</ele>
        <time>2022-05-29T10:26:27Z</time>
      </trkpt>
      <trkpt lat="48.96596" lon="2.17526">
        <ele>23</ele>
        <time>2022-05-29T10:26:32Z</time>
      </trkpt>
      <trkpt lat="48.96589" lon="2.17525">
        <ele>23.1</ele>
        <time>2022-05-29T10:26:38Z</time>
      </trkpt>
      <trkpt lat="48.96581" lon="2.17523">
        <ele>23.2</ele>
        <time>2022-05-29T10:26:43Z</time>
      </trkpt>
      <trkpt lat="48.96575" lon="2.17522">
        <ele>23.2</ele>
        <time>2022-05-29T10:26:49Z</time>
      </trkpt>
      <trkpt lat="48.96566" lon="2.17521">
        <ele>23.2</ele>
        <time>2022-05-29T10:26:55Z</time>
      </trkpt>
      <trkpt lat="48.96558" lon="2.17518">
        <ele>23.4</ele>
        <time>2022-05-29T10:27:01Z</time>
      </trkpt>
      <trkpt lat="48.96551" lon="2.17517">
        <ele>23.4</ele>
        <time>2022-05-29T10:27:06Z</time>
      </trkpt>
      <trkpt lat="48.96542" lon="2.17519">
        <ele>23.3</ele>
        <time>2022-05-29T10:27:12Z</time>
      </trkpt>
      <trkpt lat="48.96536" lon="2.17518">
        <ele>23.4</ele>
        <time>2022-05-29T10:27:17Z</time>
      </trkpt>
      <trkpt lat="48.96529" lon="2.17515">
        <ele>23.4</ele>
        <time>2022-05-29T10:27:22Z</time>
      </trkpt>
      <trkpt lat="48.9652" lon="2.17515">
        <ele>23.5</ele>
        <time>2022-05-29T10:27:28Z</time>
      </trkpt>
      <trkpt lat="48.96513" lon="2.17516">
        <ele>23.4</ele>
        <time>2022-05-29T10:27:33Z</time>
      </trkpt>
      <trkpt lat="48.96506" lon="2.17516">
        <ele>23.4</ele>
        <time>2022-05-29T10:27:38Z</time>
      </trkpt>
      <trkpt lat="48.965" lon="2.17517">
        <ele>23.4</ele>
        <time>2022-05-29T10:27:43Z</time>
      </trkpt>
      <trkpt lat="48.96492" lon="2.17513">
        <ele>23.4</ele>
        <time>2022-05-29T10:27:49Z</time>
      </trkpt>
      <trkpt lat="48.96484" lon="2.1751">
        <ele>23.3</ele>
        <time>2022-05-29T10:27:55Z</time>
      </trkpt>
      <trkpt lat="48.96479" lon="2.17506">
        <ele>23.2</ele>
        <time>2022-05-29T10:28:01Z</time>
      </trkpt>
      <trkpt lat="48.96473" lon="2.17504">
        <ele>23</ele>
        <time>2022-05-29T10:28:06Z</time>
      </trkpt>
      <trkpt lat="48.96467" lon="2.17501">
        <ele>23</ele>
        <time>2022-05-29T10:28:12Z</time>
      </trkpt>
      <trkpt lat="48.9646" lon="2.17496">
        <ele>23.2</ele>
        <time>2022-05-29T10:28:17Z</time>
      </trkpt>
      <trkpt lat="48.96453" lon="2.1749">
        <ele>23.5</ele>
        <time>2022-05-29T10:28:23Z</time>
      </trkpt>
      <trkpt lat="48.96446" lon="2.17484">
        <ele>23.6</ele>
        <time>2022-05-29T10:28:29Z</time>
      </trkpt>
      <trkpt lat="48.96438" lon="2.1748">
        <ele>23.5</ele>
        <time>2022-05-29T10:28:34Z</time>
      </trkpt>
      <trkpt lat="48.96431" lon="2.17472">
        <ele>23.5</ele>
        <time>2022-05-29T10:28:40Z</time>
      </trkpt>
      <trkpt lat="48.96425" lon="2.17463">
        <ele>23.6</ele>
        <time>2022-05-29T10:28:46Z</time>
      </trkpt>
      <trkpt lat="48.96419" lon="2.17452">
        <ele>23.8</ele>
        <time>2022-05-29T10:28:52Z</time>
      </trkpt>
      <trkpt lat="48.96415" lon="2.17446">
        <ele>24</ele>
        <time>2022-05-29T10:28:57Z</time>
      </trkpt>
      <trkpt lat="48.96411" lon="2.17439">
        <ele>24</ele>
        <time>2022-05-29T10:29:04Z</time>
      </trkpt>
      <trkpt lat="48.96407" lon="2.17433">
        <ele>24.2</ele>
        <time>2022-05-29T10:29:09Z</time>
      </trkpt>
      <trkpt lat="48.96406" lon="2.17431">
        <ele>24.2</ele>
        <time>2022-05-29T10:29:15Z</time>
      </trkpt>
      <trkpt lat="48.96407" lon="2.17432">
        <ele>24.2</ele>
        <time>2022-05-29T10:29:21Z</time>
      </trkpt>
      <trkpt lat="48.96407" lon="2.17433">
        <ele>24.1</ele>
        <time>2022-05-29T10:29:27Z</time>
      </trkpt>
      <trkpt lat="48.96408" lon="2.17432">
        <ele>24.1</ele>
        <time>2022-05-29T10:29:32Z</time>
      </trkpt>
      <trkpt lat="48.96408" lon="2.17431">
        <ele>24.2</ele>
        <time>2022-05-29T10:29:37Z</time>
      </trkpt>
      <trkpt lat="48.96405" lon="2.1742">
        <ele>24.4</ele>
        <time>2022-05-29T10:29:44Z</time>
      </trkpt>
      <trkpt lat="48.96396" lon="2.1741">
        <ele>24.6</ele>
        <time>2022-05-29T10:29:50Z</time>
      </trkpt>
      <trkpt lat="48.9639" lon="2.17401">
        <ele>24.4</ele>
        <time>2022-05-29T10:29:56Z</time>
      </trkpt>
      <trkpt lat="48.96384" lon="2.17392">
        <ele>24.4</ele>
        <time>2022-05-29T10:30:02Z</time>
      </trkpt>
      <trkpt lat="48.96382" lon="2.17378">
        <ele>24.4</ele>
        <time>2022-05-29T10:30:08Z</time>
      </trkpt>
      <trkpt lat="48.96385" lon="2.17364">
        <ele>24.2</ele>
        <time>2022-05-29T10:30:13Z</time>
      </trkpt>
      <trkpt lat="48.96386" lon="2.17353">
        <ele>24.1</ele>
        <time>2022-05-29T10:30:18Z</time>
      </trkpt>
      <trkpt lat="48.96389" lon="2.17343">
        <ele>24</ele>
        <time>2022-05-29T10:30:23Z</time>
      </trkpt>
      <trkpt lat="48.96389" lon="2.1733">
        <ele>24.1</ele>
        <time>2022-05-29T10:30:29Z</time>
      </trkpt>
      <trkpt lat="48.9639" lon="2.1732">
        <ele>24.5</ele>
        <time>2022-05-29T10:30:34Z</time>
      </trkpt>
      <trkpt lat="48.96391" lon="2.17308">
        <ele>24.9</ele>
        <time>2022-05-29T10:30:39Z</time>
      </trkpt>
      <trkpt lat="48.96392" lon="2.17294">
        <ele>25</ele>
        <time>2022-05-29T10:30:45Z</time>
      </trkpt>
      <trkpt lat="48.96393" lon="2.17281">
        <ele>25</ele>
        <time>2022-05-29T10:30:50Z</time>
      </trkpt>
      <trkpt lat="48.96395" lon="2.17269">
        <ele>25</ele>
        <time>2022-05-29T10:30:56Z</time>
      </trkpt>
      <trkpt lat="48.96397" lon="2.17255">
        <ele>25</ele>
        <time>2022-05-29T10:31:02Z</time>
      </trkpt>
      <trkpt lat="48.96397" lon="2.17245">
        <ele>25.1</ele>
        <time>2022-05-29T10:31:07Z</time>
      </trkpt>
      <trkpt lat="48.96399" lon="2.17231">
        <ele>25.2</ele>
        <time>2022-05-29T10:31:13Z</time>
      </trkpt>
      <trkpt lat="48.96398" lon="2.1722">
        <ele>25.3</ele>
        <time>2022-05-29T10:31:19Z</time>
      </trkpt>
      <trkpt lat="48.96396" lon="2.1721">
        <ele>25.3</ele>
        <time>2022-05-29T10:31:24Z</time>
      </trkpt>
      <trkpt lat="48.96398" lon="2.17196">
        <ele>25.3</ele>
        <time>2022-05-29T10:31:30Z</time>
      </trkpt>
      <trkpt lat="48.96399" lon="2.17186">
        <ele>25.5</ele>
        <time>2022-05-29T10:31:35Z</time>
      </trkpt>
      <trkpt lat="48.96399" lon="2.17175">
        <ele>25.8</ele>
        <time>2022-05-29T10:31:41Z</time>
      </trkpt>
      <trkpt lat="48.96401" lon="2.17165">
        <ele>26</ele>
        <time>2022-05-29T10:31:47Z</time>
      </trkpt>
      <trkpt lat="48.96403" lon="2.17154">
        <ele>26</ele>
        <time>2022-05-29T10:31:52Z</time>
      </trkpt>
      <trkpt lat="48.96405" lon="2.17142">
        <ele>26</ele>
        <time>2022-05-29T10:31:57Z</time>
      </trkpt>
      <trkpt lat="48.96405" lon="2.17129">
        <ele>26</ele>
        <time>2022-05-29T10:32:03Z</time>
      </trkpt>
      <trkpt lat="48.96405" lon="2.17118">
        <ele>26</ele>
        <time>2022-05-29T10:32:08Z</time>
      </trkpt>
      <trkpt lat="48.96406" lon="2.17106">
        <ele>26</ele>
        <time>2022-05-29T10:32:13Z</time>
      </trkpt>
      <trkpt lat="48.96409" lon="2.17092">
        <ele>26</ele>
        <time>2022-05-29T10:32:19Z</time>
      </trkpt>
      <trkpt lat="48.96409" lon="2.17081">
        <ele>26.1</ele>
        <time>2022-05-29T10:32:24Z</time>
      </trkpt>
      <trkpt lat="48.96411" lon="2.17067">
        <ele>26.6</ele>
        <time>2022-05-29T10:32:30Z</time>
      </trkpt>
      <trkpt lat="48.96413" lon="2.17059">
        <ele>26.9</ele>
        <time>2022-05-29T10:32:35Z</time>
      </trkpt>
      <trkpt lat="48.96414" lon="2.17047">
        <ele>27</ele>
        <time>2022-05-29T10:32:41Z</time>
      </trkpt>
      <trkpt lat="48.96413" lon="2.17036">
        <ele>27</ele>
        <time>2022-05-29T10:32:46Z</time>
      </trkpt>
      <trkpt lat="48.96413" lon="2.17019">
        <ele>27</ele>
        <time>2022-05-29T10:32:52Z</time>
      </trkpt>
      <trkpt lat="48.96415" lon="2.17006">
        <ele>27</ele>
        <time>2022-05-29T10:32:57Z</time>
      </trkpt>
      <trkpt lat="48.96416" lon="2.16992">
        <ele>27.3</ele>
        <time>2022-05-29T10:33:03Z</time>
      </trkpt>
      <trkpt lat="48.96417" lon="2.16981">
        <ele>27.7</ele>
        <time>2022-05-29T10:33:09Z</time>
      </trkpt>
      <trkpt lat="48.96417" lon="2.1697">
        <ele>28</ele>
        <time>2022-05-29T10:33:14Z</time>
      </trkpt>
      <trkpt lat="48.96418" lon="2.16959">
        <ele>27.9</ele>
        <time>2022-05-29T10:33:19Z</time>
      </trkpt>
      <trkpt lat="48.96418" lon="2.1695">
        <ele>28</ele>
        <time>2022-05-29T10:33:24Z</time>
      </trkpt>
      <trkpt lat="48.9642" lon="2.16936">
        <ele>27.9</ele>
        <time>2022-05-29T10:33:30Z</time>
      </trkpt>
      <trkpt lat="48.96422" lon="2.16921">
        <ele>28</ele>
        <time>2022-05-29T10:33:35Z</time>
      </trkpt>
      <trkpt lat="48.9642" lon="2.1691">
        <ele>28</ele>
        <time>2022-05-29T10:33:40Z</time>
      </trkpt>
      <trkpt lat="48.9642" lon="2.169">
        <ele>28</ele>
        <time>2022-05-29T10:33:46Z</time>
      </trkpt>
      <trkpt lat="48.96419" lon="2.1689">
        <ele>28</ele>
        <time>2022-05-29T10:33:51Z</time>
      </trkpt>
      <trkpt lat="48.9642" lon="2.16875">
        <ele>28</ele>
        <time>2022-05-29T10:33:57Z</time>
      </trkpt>
      <trkpt lat="48.96422" lon="2.16863">
        <ele>28</ele>
        <time>2022-05-29T10:34:02Z</time>
      </trkpt>
      <trkpt lat="48.96422" lon="2.16848">
        <ele>28</ele>
        <time>2022-05-29T10:34:08Z</time>
      </trkpt>
      <trkpt lat="48.96422" lon="2.16837">
        <ele>28</ele>
        <time>2022-05-29T10:34:13Z</time>
      </trkpt>
      <trkpt lat="48.96423" lon="2.16825">
        <ele>28</ele>
        <time>2022-05-29T10:34:19Z</time>
      </trkpt>
      <trkpt lat="48.96423" lon="2.16813">
        <ele>28</ele>
        <time>2022-05-29T10:34:25Z</time>
      </trkpt>
      <trkpt lat="48.96422" lon="2.16798">
        <ele>28.2</ele>
        <time>2022-05-29T10:34:30Z</time>
      </trkpt>
      <trkpt lat="48.96423" lon="2.16782">
        <ele>28.7</ele>
        <time>2022-05-29T10:34:36Z</time>
      </trkpt>
      <trkpt lat="48.96423" lon="2.16769">
        <ele>28.8</ele>
        <time>2022-05-29T10:34:41Z</time>
      </trkpt>
      <trkpt lat="48.96423" lon="2.16755">
        <ele>29</ele>
        <time>2022-05-29T10:34:47Z</time>
      </trkpt>
      <trkpt lat="48.96418" lon="2.16746">
        <ele>29</ele>
        <time>2022-05-29T10:34:53Z</time>
      </trkpt>
      <trkpt lat="48.96411" lon="2.16739">
        <ele>29</ele>
        <time>2022-05-29T10:34:59Z</time>
      </trkpt>
      <trkpt lat="48.96405" lon="2.16732">
        <ele>29</ele>
        <time>2022-05-29T10:35:04Z</time>
      </trkpt>
      <trkpt lat="48.96398" lon="2.1672">
        <ele>29</ele>
        <time>2022-05-29T10:35:10Z</time>
      </trkpt>
      <trkpt lat="48.96392" lon="2.1671">
        <ele>29</ele>
        <time>2022-05-29T10:35:15Z</time>
      </trkpt>
      <trkpt lat="48.96386" lon="2.16699">
        <ele>29</ele>
        <time>2022-05-29T10:35:21Z</time>
      </trkpt>
      <trkpt lat="48.96383" lon="2.16689">
        <ele>29</ele>
        <time>2022-05-29T10:35:26Z</time>
      </trkpt>
      <trkpt lat="48.96381" lon="2.16678">
        <ele>29</ele>
        <time>2022-05-29T10:35:32Z</time>
      </trkpt>
      <trkpt lat="48.96378" lon="2.16668">
        <ele>29</ele>
        <time>2022-05-29T10:35:37Z</time>
      </trkpt>
      <trkpt lat="48.96376" lon="2.16657">
        <ele>29.4</ele>
        <time>2022-05-29T10:35:42Z</time>
      </trkpt>
      <trkpt lat="48.96375" lon="2.16643">
        <ele>29.8</ele>
        <time>2022-05-29T10:35:48Z</time>
      </trkpt>
      <trkpt lat="48.96372" lon="2.16632">
        <ele>30</ele>
        <time>2022-05-29T10:35:53Z</time>
      </trkpt>
      <trkpt lat="48.9637" lon="2.16621">
        <ele>30</ele>
        <time>2022-05-29T10:35:58Z</time>
      </trkpt>
      <trkpt lat="48.96368" lon="2.16607">
        <ele>30</ele>
        <time>2022-05-29T10:36:04Z</time>
      </trkpt>
      <trkpt lat="48.96363" lon="2.16597">
        <ele>30</ele>
        <time>2022-05-29T10:36:09Z</time>
      </trkpt>
      <trkpt lat="48.96358" lon="2.1659">
        <ele>30</ele>
        <time>2022-05-29T10:36:14Z</time>
      </trkpt>
      <trkpt lat="48.96351" lon="2.16584">
        <ele>30</ele>
        <time>2022-05-29T10:36:20Z</time>
      </trkpt>
      <trkpt lat="48.9635" lon="2.16573">
        <ele>30</ele>
        <time>2022-05-29T10:36:25Z</time>
      </trkpt>
      <trkpt lat="48.96349" lon="2.16561">
        <ele>30</ele>
        <time>2022-05-29T10:36:30Z</time>
      </trkpt>
      <trkpt lat="48.96346" lon="2.16551">
        <ele>30</ele>
        <time>2022-05-29T10:36:35Z</time>
      </trkpt>
      <trkpt lat="48.96341" lon="2.1654">
        <ele>30</ele>
        <time>2022-05-29T10:36:41Z</time>
      </trkpt>
      <trkpt lat="48.96338" lon="2.16527">
        <ele>30</ele>
        <time>2022-05-29T10:36:47Z</time>
      </trkpt>
      <trkpt lat="48.96337" lon="2.16516">
        <ele>30.4</ele>
        <time>2022-05-29T10:36:52Z</time>
      </trkpt>
      <trkpt lat="48.96334" lon="2.16506">
        <ele>30.8</ele>
        <time>2022-05-29T10:36:58Z</time>
      </trkpt>
      <trkpt lat="48.96333" lon="2.16496">
        <ele>31</ele>
        <time>2022-05-29T10:37:03Z</time>
      </trkpt>
      <trkpt lat="48.96331" lon="2.16485">
        <ele>31</ele>
        <time>2022-05-29T10:37:08Z</time>
      </trkpt>
      <trkpt lat="48.96325" lon="2.16467">
        <ele>31</ele>
        <time>2022-05-29T10:37:14Z</time>
      </trkpt>
      <trkpt lat="48.96321" lon="2.16454">
        <ele>31</ele>
        <time>2022-05-29T10:37:20Z</time>
      </trkpt>
      <trkpt lat="48.96318" lon="2.16444">
        <ele>31</ele>
        <time>2022-05-29T10:37:26Z</time>
      </trkpt>
      <trkpt lat="48.96313" lon="2.16437">
        <ele>31</ele>
        <time>2022-05-29T10:37:31Z</time>
      </trkpt>
      <trkpt lat="48.9631" lon="2.16426">
        <ele>31</ele>
        <time>2022-05-29T10:37:36Z</time>
      </trkpt>
      <trkpt lat="48.96308" lon="2.16412">
        <ele>31</ele>
        <time>2022-05-29T10:37:42Z</time>
      </trkpt>
      <trkpt lat="48.96305" lon="2.16401">
        <ele>31</ele>
        <time>2022-05-29T10:37:48Z</time>
      </trkpt>
      <trkpt lat="48.96302" lon="2.16391">
        <ele>31</ele>
        <time>2022-05-29T10:37:53Z</time>
      </trkpt>
      <trkpt lat="48.963" lon="2.16378">
        <ele>31</ele>
        <time>2022-05-29T10:37:59Z</time>
      </trkpt>
      <trkpt lat="48.96297" lon="2.1637">
        <ele>31</ele>
        <time>2022-05-29T10:38:05Z</time>
      </trkpt>
      <trkpt lat="48.96296" lon="2.16362">
        <ele>31</ele>
        <time>2022-05-29T10:38:10Z</time>
      </trkpt>
      <trkpt lat="48.96292" lon="2.16349">
        <ele>31</ele>
        <time>2022-05-29T10:38:15Z</time>
      </trkpt>
      <trkpt lat="48.96288" lon="2.16338">
        <ele>31</ele>
        <time>2022-05-29T10:38:20Z</time>
      </trkpt>
      <trkpt lat="48.96284" lon="2.16327">
        <ele>31.2</ele>
        <time>2022-05-29T10:38:26Z</time>
      </trkpt>
      <trkpt lat="48.96283" lon="2.16313">
        <ele>31.6</ele>
        <time>2022-05-29T10:38:31Z</time>
      </trkpt>
      <trkpt lat="48.9628" lon="2.16303">
        <ele>31.9</ele>
        <time>2022-05-29T10:38:36Z</time>
      </trkpt>
      <trkpt lat="48.96275" lon="2.16292">
        <ele>32</ele>
        <time>2022-05-29T10:38:42Z</time>
      </trkpt>
      <trkpt lat="48.96271" lon="2.16279">
        <ele>31.8</ele>
        <time>2022-05-29T10:38:48Z</time>
      </trkpt>
      <trkpt lat="48.9627" lon="2.16268">
        <ele>31.8</ele>
        <time>2022-05-29T10:38:53Z</time>
      </trkpt>
      <trkpt lat="48.96268" lon="2.16254">
        <ele>31.9</ele>
        <time>2022-05-29T10:38:59Z</time>
      </trkpt>
      <trkpt lat="48.96262" lon="2.16242">
        <ele>31.9</ele>
        <time>2022-05-29T10:39:04Z</time>
      </trkpt>
      <trkpt lat="48.96255" lon="2.16233">
        <ele>31.9</ele>
        <time>2022-05-29T10:39:10Z</time>
      </trkpt>
      <trkpt lat="48.96253" lon="2.16226">
        <ele>31.9</ele>
        <time>2022-05-29T10:39:15Z</time>
      </trkpt>
      <trkpt lat="48.96251" lon="2.16214">
        <ele>32</ele>
        <time>2022-05-29T10:39:21Z</time>
      </trkpt>
      <trkpt lat="48.9625" lon="2.16204">
        <ele>32</ele>
        <time>2022-05-29T10:39:26Z</time>
      </trkpt>
      <trkpt lat="48.96247" lon="2.16193">
        <ele>32</ele>
        <time>2022-05-29T10:39:32Z</time>
      </trkpt>
      <trkpt lat="48.9624" lon="2.16182">
        <ele>32</ele>
        <time>2022-05-29T10:39:38Z</time>
      </trkpt>
      <trkpt lat="48.96236" lon="2.16171">
        <ele>32</ele>
        <time>2022-05-29T10:39:44Z</time>
      </trkpt>
      <trkpt lat="48.96236" lon="2.16158">
        <ele>32</ele>
        <time>2022-05-29T10:39:49Z</time>
      </trkpt>
      <trkpt lat="48.96232" lon="2.16147">
        <ele>32</ele>
        <time>2022-05-29T10:39:55Z</time>
      </trkpt>
      <trkpt lat="48.96231" lon="2.16136">
        <ele>32</ele>
        <time>2022-05-29T10:40:00Z</time>
      </trkpt>
      <trkpt lat="48.96228" lon="2.16125">
        <ele>32</ele>
        <time>2022-05-29T10:40:06Z</time>
      </trkpt>
      <trkpt lat="48.96224" lon="2.16114">
        <ele>32</ele>
        <time>2022-05-29T10:40:12Z</time>
      </trkpt>
      <trkpt lat="48.96219" lon="2.16102">
        <ele>32</ele>
        <time>2022-05-29T10:40:17Z</time>
      </trkpt>
      <trkpt lat="48.96215" lon="2.16089">
        <ele>32</ele>
        <time>2022-05-29T10:40:23Z</time>
      </trkpt>
      <trkpt lat="48.9621" lon="2.16076">
        <ele>32</ele>
        <time>2022-05-29T10:40:29Z</time>
      </trkpt>
      <trkpt lat="48.96209" lon="2.16067">
        <ele>32</ele>
        <time>2022-05-29T10:40:34Z</time>
      </trkpt>
      <trkpt lat="48.96206" lon="2.16055">
        <ele>32</ele>
        <time>2022-05-29T10:40:39Z</time>
      </trkpt>
      <trkpt lat="48.96204" lon="2.16043">
        <ele>32.3</ele>
        <time>2022-05-29T10:40:45Z</time>
      </trkpt>
      <trkpt lat="48.96199" lon="2.16031">
        <ele>32.7</ele>
        <time>2022-05-29T10:40:51Z</time>
      </trkpt>
      <trkpt lat="48.96198" lon="2.16018">
        <ele>32.6</ele>
        <time>2022-05-29T10:40:56Z</time>
      </trkpt>
      <trkpt lat="48.96198" lon="2.16002">
        <ele>32.2</ele>
        <time>2022-05-29T10:41:02Z</time>
      </trkpt>
      <trkpt lat="48.96193" lon="2.15991">
        <ele>32.4</ele>
        <time>2022-05-29T10:41:08Z</time>
      </trkpt>
      <trkpt lat="48.96188" lon="2.15975">
        <ele>32.9</ele>
        <time>2022-05-29T10:41:14Z</time>
      </trkpt>
      <trkpt lat="48.96184" lon="2.15963">
        <ele>33</ele>
        <time>2022-05-29T10:41:20Z</time>
      </trkpt>
      <trkpt lat="48.96182" lon="2.15955">
        <ele>33</ele>
        <time>2022-05-29T10:41:25Z</time>
      </trkpt>
      <trkpt lat="48.96177" lon="2.15947">
        <ele>33</ele>
        <time>2022-05-29T10:41:30Z</time>
      </trkpt>
      <trkpt lat="48.9617" lon="2.15934">
        <ele>33</ele>
        <time>2022-05-29T10:41:36Z</time>
      </trkpt>
      <trkpt lat="48.96169" lon="2.15905">
        <ele>33</ele>
        <time>2022-05-29T10:41:44Z</time>
      </trkpt>
      <trkpt lat="48.96168" lon="2.15886">
        <ele>33</ele>
        <time>2022-05-29T10:41:50Z</time>
      </trkpt>
      <trkpt lat="48.96164" lon="2.15873">
        <ele>33</ele>
        <time>2022-05-29T10:41:56Z</time>
      </trkpt>
      <trkpt lat="48.96163" lon="2.15861">
        <ele>33</ele>
        <time>2022-05-29T10:42:01Z</time>
      </trkpt>
      <trkpt lat="48.96162" lon="2.15851">
        <ele>33</ele>
        <time>2022-05-29T10:42:06Z</time>
      </trkpt>
      <trkpt lat="48.96159" lon="2.15842">
        <ele>33</ele>
        <time>2022-05-29T10:42:11Z</time>
      </trkpt>
      <trkpt lat="48.96152" lon="2.1583">
        <ele>33</ele>
        <time>2022-05-29T10:42:17Z</time>
      </trkpt>
      <trkpt lat="48.96148" lon="2.15823">
        <ele>33</ele>
        <time>2022-05-29T10:42:23Z</time>
      </trkpt>
      <trkpt lat="48.96145" lon="2.15815">
        <ele>33</ele>
        <time>2022-05-29T10:42:29Z</time>
      </trkpt>
      <trkpt lat="48.96144" lon="2.15804">
        <ele>33</ele>
        <time>2022-05-29T10:42:34Z</time>
      </trkpt>
      <trkpt lat="48.96143" lon="2.15791">
        <ele>33</ele>
        <time>2022-05-29T10:42:39Z</time>
      </trkpt>
      <trkpt lat="48.96142" lon="2.15774">
        <ele>33</ele>
        <time>2022-05-29T10:42:44Z</time>
      </trkpt>
      <trkpt lat="48.96138" lon="2.15761">
        <ele>33</ele>
        <time>2022-05-29T10:42:50Z</time>
      </trkpt>
      <trkpt lat="48.96132" lon="2.15751">
        <ele>33</ele>
        <time>2022-05-29T10:42:56Z</time>
      </trkpt>
      <trkpt lat="48.96127" lon="2.15739">
        <ele>33</ele>
        <time>2022-05-29T10:43:02Z</time>
      </trkpt>
      <trkpt lat="48.96125" lon="2.15726">
        <ele>33</ele>
        <time>2022-05-29T10:43:08Z</time>
      </trkpt>
      <trkpt lat="48.96123" lon="2.15712">
        <ele>33.2</ele>
        <time>2022-05-29T10:43:14Z</time>
      </trkpt>
      <trkpt lat="48.96121" lon="2.15702">
        <ele>33.3</ele>
        <time>2022-05-29T10:43:20Z</time>
      </trkpt>
      <trkpt lat="48.96117" lon="2.15691">
        <ele>33.2</ele>
        <time>2022-05-29T10:43:26Z</time>
      </trkpt>
      <trkpt lat="48.96111" lon="2.15681">
        <ele>33</ele>
        <time>2022-05-29T10:43:31Z</time>
      </trkpt>
      <trkpt lat="48.96108" lon="2.15669">
        <ele>33</ele>
        <time>2022-05-29T10:43:37Z</time>
      </trkpt>
      <trkpt lat="48.96104" lon="2.1566">
        <ele>33</ele>
        <time>2022-05-29T10:43:42Z</time>
      </trkpt>
      <trkpt lat="48.96099" lon="2.15647">
        <ele>33</ele>
        <time>2022-05-29T10:43:48Z</time>
      </trkpt>
      <trkpt lat="48.96093" lon="2.15637">
        <ele>33</ele>
        <time>2022-05-29T10:43:54Z</time>
      </trkpt>
      <trkpt lat="48.96093" lon="2.15626">
        <ele>33</ele>
        <time>2022-05-29T10:44:00Z</time>
      </trkpt>
      <trkpt lat="48.96091" lon="2.15617">
        <ele>33</ele>
        <time>2022-05-29T10:44:05Z</time>
      </trkpt>
      <trkpt lat="48.96092" lon="2.15612">
        <ele>33</ele>
        <time>2022-05-29T10:44:10Z</time>
      </trkpt>
      <trkpt lat="48.96091" lon="2.15611">
        <ele>33</ele>
        <time>2022-05-29T10:44:16Z</time>
      </trkpt>
      <trkpt lat="48.96091" lon="2.15611">
        <ele>33</ele>
        <time>2022-05-29T10:44:22Z</time>
      </trkpt>
      <trkpt lat="48.96093" lon="2.15608">
        <ele>33</ele>
        <time>2022-05-29T10:44:27Z</time>
      </trkpt>
      <trkpt lat="48.96091" lon="2.156">
        <ele>33.1</ele>
        <time>2022-05-29T10:44:32Z</time>
      </trkpt>
      <trkpt lat="48.96086" lon="2.15589">
        <ele>33.1</ele>
        <time>2022-05-29T10:44:38Z</time>
      </trkpt>
      <trkpt lat="48.96081" lon="2.15576">
        <ele>33</ele>
        <time>2022-05-29T10:44:43Z</time>
      </trkpt>
      <trkpt lat="48.96079" lon="2.15563">
        <ele>33.1</ele>
        <time>2022-05-29T10:44:49Z</time>
      </trkpt>
      <trkpt lat="48.96076" lon="2.15555">
        <ele>33.3</ele>
        <time>2022-05-29T10:44:54Z</time>
      </trkpt>
      <trkpt lat="48.96073" lon="2.15544">
        <ele>33.6</ele>
        <time>2022-05-29T10:45:00Z</time>
      </trkpt>
      <trkpt lat="48.96069" lon="2.15528">
        <ele>34</ele>
        <time>2022-05-29T10:45:06Z</time>
      </trkpt>
      <trkpt lat="48.96067" lon="2.15516">
        <ele>34</ele>
        <time>2022-05-29T10:45:11Z</time>
      </trkpt>
      <trkpt lat="48.96065" lon="2.15505">
        <ele>34</ele>
        <time>2022-05-29T10:45:17Z</time>
      </trkpt>
      <trkpt lat="48.96059" lon="2.15496">
        <ele>34</ele>
        <time>2022-05-29T10:45:23Z</time>
      </trkpt>
      <trkpt lat="48.96054" lon="2.15484">
        <ele>34</ele>
        <time>2022-05-29T10:45:29Z</time>
      </trkpt>
      <trkpt lat="48.9605" lon="2.15475">
        <ele>34</ele>
        <time>2022-05-29T10:45:34Z</time>
      </trkpt>
      <trkpt lat="48.96045" lon="2.15469">
        <ele>34</ele>
        <time>2022-05-29T10:45:40Z</time>
      </trkpt>
      <trkpt lat="48.96038" lon="2.15475">
        <ele>34</ele>
        <time>2022-05-29T10:45:45Z</time>
      </trkpt>
      <trkpt lat="48.96036" lon="2.15488">
        <ele>34</ele>
        <time>2022-05-29T10:45:51Z</time>
      </trkpt>
      <trkpt lat="48.96036" lon="2.15504">
        <ele>34</ele>
        <time>2022-05-29T10:45:57Z</time>
      </trkpt>
      <trkpt lat="48.96034" lon="2.15515">
        <ele>34</ele>
        <time>2022-05-29T10:46:02Z</time>
      </trkpt>
      <trkpt lat="48.96032" lon="2.15528">
        <ele>34</ele>
        <time>2022-05-29T10:46:08Z</time>
      </trkpt>
      <trkpt lat="48.96031" lon="2.1554">
        <ele>34</ele>
        <time>2022-05-29T10:46:13Z</time>
      </trkpt>
      <trkpt lat="48.9603" lon="2.15553">
        <ele>34</ele>
        <time>2022-05-29T10:46:19Z</time>
      </trkpt>
      <trkpt lat="48.9603" lon="2.15566">
        <ele>34</ele>
        <time>2022-05-29T10:46:25Z</time>
      </trkpt>
      <trkpt lat="48.96028" lon="2.15576">
        <ele>34</ele>
        <time>2022-05-29T10:46:30Z</time>
      </trkpt>
      <trkpt lat="48.96026" lon="2.15587">
        <ele>34</ele>
        <time>2022-05-29T10:46:35Z</time>
      </trkpt>
      <trkpt lat="48.96025" lon="2.15602">
        <ele>34</ele>
        <time>2022-05-29T10:46:41Z</time>
      </trkpt>
      <trkpt lat="48.96027" lon="2.15615">
        <ele>34</ele>
        <time>2022-05-29T10:46:46Z</time>
      </trkpt>
      <trkpt lat="48.96027" lon="2.15629">
        <ele>34</ele>
        <time>2022-05-29T10:46:52Z</time>
      </trkpt>
      <trkpt lat="48.96026" lon="2.15646">
        <ele>33.8</ele>
        <time>2022-05-29T10:46:58Z</time>
      </trkpt>
      <trkpt lat="48.96026" lon="2.15659">
        <ele>33.3</ele>
        <time>2022-05-29T10:47:04Z</time>
      </trkpt>
      <trkpt lat="48.96025" lon="2.15672">
        <ele>33.1</ele>
        <time>2022-05-29T10:47:09Z</time>
      </trkpt>
      <trkpt lat="48.9602" lon="2.15686">
        <ele>33.1</ele>
        <time>2022-05-29T10:47:15Z</time>
      </trkpt>
      <trkpt lat="48.96018" lon="2.15697">
        <ele>33</ele>
        <time>2022-05-29T10:47:21Z</time>
      </trkpt>
      <trkpt lat="48.96016" lon="2.15709">
        <ele>33</ele>
        <time>2022-05-29T10:47:27Z</time>
      </trkpt>
      <trkpt lat="48.96014" lon="2.15719">
        <ele>33</ele>
        <time>2022-05-29T10:47:32Z</time>
      </trkpt>
      <trkpt lat="48.9601" lon="2.15731">
        <ele>33</ele>
        <time>2022-05-29T10:47:38Z</time>
      </trkpt>
      <trkpt lat="48.96009" lon="2.15748">
        <ele>33</ele>
        <time>2022-05-29T10:47:44Z</time>
      </trkpt>
      <trkpt lat="48.9601" lon="2.15761">
        <ele>33</ele>
        <time>2022-05-29T10:47:49Z</time>
      </trkpt>
      <trkpt lat="48.96009" lon="2.15773">
        <ele>33</ele>
        <time>2022-05-29T10:47:54Z</time>
      </trkpt>
      <trkpt lat="48.96007" lon="2.15784">
        <ele>33</ele>
        <time>2022-05-29T10:47:59Z</time>
      </trkpt>
      <trkpt lat="48.96005" lon="2.15796">
        <ele>33</ele>
        <time>2022-05-29T10:48:04Z</time>
      </trkpt>
      <trkpt lat="48.96004" lon="2.15808">
        <ele>33</ele>
        <time>2022-05-29T10:48:10Z</time>
      </trkpt>
      <trkpt lat="48.96004" lon="2.15819">
        <ele>33</ele>
        <time>2022-05-29T10:48:16Z</time>
      </trkpt>
      <trkpt lat="48.96002" lon="2.15834">
        <ele>33</ele>
        <time>2022-05-29T10:48:22Z</time>
      </trkpt>
      <trkpt lat="48.96002" lon="2.15847">
        <ele>33</ele>
        <time>2022-05-29T10:48:27Z</time>
      </trkpt>
      <trkpt lat="48.96003" lon="2.15867">
        <ele>33</ele>
        <time>2022-05-29T10:48:35Z</time>
      </trkpt>
      <trkpt lat="48.96002" lon="2.1588">
        <ele>33</ele>
        <time>2022-05-29T10:48:41Z</time>
      </trkpt>
      <trkpt lat="48.95999" lon="2.15892">
        <ele>33</ele>
        <time>2022-05-29T10:48:46Z</time>
      </trkpt>
      <trkpt lat="48.95997" lon="2.15903">
        <ele>33</ele>
        <time>2022-05-29T10:48:52Z</time>
      </trkpt>
      <trkpt lat="48.95995" lon="2.15916">
        <ele>33</ele>
        <time>2022-05-29T10:48:58Z</time>
      </trkpt>
      <trkpt lat="48.95995" lon="2.15925">
        <ele>33</ele>
        <time>2022-05-29T10:49:03Z</time>
      </trkpt>
      <trkpt lat="48.95994" lon="2.15936">
        <ele>33</ele>
        <time>2022-05-29T10:49:09Z</time>
      </trkpt>
      <trkpt lat="48.95993" lon="2.15947">
        <ele>33</ele>
        <time>2022-05-29T10:49:14Z</time>
      </trkpt>
      <trkpt lat="48.9599" lon="2.15965">
        <ele>33</ele>
        <time>2022-05-29T10:49:20Z</time>
      </trkpt>
      <trkpt lat="48.95988" lon="2.15979">
        <ele>33</ele>
        <time>2022-05-29T10:49:26Z</time>
      </trkpt>
      <trkpt lat="48.95987" lon="2.15983">
        <ele>33</ele>
        <time>2022-05-29T10:49:31Z</time>
      </trkpt>
      <trkpt lat="48.95978" lon="2.15991">
        <ele>33</ele>
        <time>2022-05-29T10:49:37Z</time>
      </trkpt>
      <trkpt lat="48.95972" lon="2.1599">
        <ele>33</ele>
        <time>2022-05-29T10:49:42Z</time>
      </trkpt>
      <trkpt lat="48.95963" lon="2.15988">
        <ele>33</ele>
        <time>2022-05-29T10:49:48Z</time>
      </trkpt>
      <trkpt lat="48.95954" lon="2.15988">
        <ele>33</ele>
        <time>2022-05-29T10:49:54Z</time>
      </trkpt>
      <trkpt lat="48.95946" lon="2.15988">
        <ele>33</ele>
        <time>2022-05-29T10:49:59Z</time>
      </trkpt>
      <trkpt lat="48.95933" lon="2.15982">
        <ele>33</ele>
        <time>2022-05-29T10:50:05Z</time>
      </trkpt>
      <trkpt lat="48.95924" lon="2.15979">
        <ele>33</ele>
        <time>2022-05-29T10:50:11Z</time>
      </trkpt>
      <trkpt lat="48.95918" lon="2.15978">
        <ele>33</ele>
        <time>2022-05-29T10:50:16Z</time>
      </trkpt>
      <trkpt lat="48.95912" lon="2.15979">
        <ele>33</ele>
        <time>2022-05-29T10:50:21Z</time>
      </trkpt>
      <trkpt lat="48.95904" lon="2.15977">
        <ele>33</ele>
        <time>2022-05-29T10:50:27Z</time>
      </trkpt>
      <trkpt lat="48.95895" lon="2.15979">
        <ele>33</ele>
        <time>2022-05-29T10:50:33Z</time>
      </trkpt>
      <trkpt lat="48.95887" lon="2.15978">
        <ele>33</ele>
        <time>2022-05-29T10:50:38Z</time>
      </trkpt>
      <trkpt lat="48.95877" lon="2.15985">
        <ele>33</ele>
        <time>2022-05-29T10:50:44Z</time>
      </trkpt>
      <trkpt lat="48.95867" lon="2.15989">
        <ele>33</ele>
        <time>2022-05-29T10:50:49Z</time>
      </trkpt>
      <trkpt lat="48.95857" lon="2.15985">
        <ele>33</ele>
        <time>2022-05-29T10:50:55Z</time>
      </trkpt>
      <trkpt lat="48.95849" lon="2.1598">
        <ele>33</ele>
        <time>2022-05-29T10:51:01Z</time>
      </trkpt>
      <trkpt lat="48.95841" lon="2.15974">
        <ele>33</ele>
        <time>2022-05-29T10:51:06Z</time>
      </trkpt>
      <trkpt lat="48.95835" lon="2.15966">
        <ele>33</ele>
        <time>2022-05-29T10:51:11Z</time>
      </trkpt>
      <trkpt lat="48.95833" lon="2.15957">
        <ele>33</ele>
        <time>2022-05-29T10:51:17Z</time>
      </trkpt>
      <trkpt lat="48.95826" lon="2.15955">
        <ele>33</ele>
        <time>2022-05-29T10:51:22Z</time>
      </trkpt>
      <trkpt lat="48.95816" lon="2.15952">
        <ele>33</ele>
        <time>2022-05-29T10:51:28Z</time>
      </trkpt>
      <trkpt lat="48.95807" lon="2.1595">
        <ele>33</ele>
        <time>2022-05-29T10:51:33Z</time>
      </trkpt>
      <trkpt lat="48.95803" lon="2.15946">
        <ele>33</ele>
        <time>2022-05-29T10:51:38Z</time>
      </trkpt>
      <trkpt lat="48.95797" lon="2.15937">
        <ele>33</ele>
        <time>2022-05-29T10:51:44Z</time>
      </trkpt>
      <trkpt lat="48.95792" lon="2.15929">
        <ele>33</ele>
        <time>2022-05-29T10:51:50Z</time>
      </trkpt>
      <trkpt lat="48.95789" lon="2.15924">
        <ele>33</ele>
        <time>2022-05-29T10:51:56Z</time>
      </trkpt>
      <trkpt lat="48.95782" lon="2.1592">
        <ele>33</ele>
        <time>2022-05-29T10:52:01Z</time>
      </trkpt>
      <trkpt lat="48.95774" lon="2.15918">
        <ele>33</ele>
        <time>2022-05-29T10:52:07Z</time>
      </trkpt>
      <trkpt lat="48.95763" lon="2.15916">
        <ele>33</ele>
        <time>2022-05-29T10:52:13Z</time>
      </trkpt>
      <trkpt lat="48.95755" lon="2.15915">
        <ele>33</ele>
        <time>2022-05-29T10:52:19Z</time>
      </trkpt>
      <trkpt lat="48.95753" lon="2.15916">
        <ele>33</ele>
        <time>2022-05-29T10:52:25Z</time>
      </trkpt>
      <trkpt lat="48.95754" lon="2.15918">
        <ele>33</ele>
        <time>2022-05-29T10:52:31Z</time>
      </trkpt>
      <trkpt lat="48.95753" lon="2.15919">
        <ele>33</ele>
        <time>2022-05-29T10:52:36Z</time>
      </trkpt>
      <trkpt lat="48.95755" lon="2.15918">
        <ele>33</ele>
        <time>2022-05-29T10:52:42Z</time>
      </trkpt>
      <trkpt lat="48.95754" lon="2.15912">
        <ele>33</ele>
        <time>2022-05-29T10:52:48Z</time>
      </trkpt>
      <trkpt lat="48.95748" lon="2.159">
        <ele>33</ele>
        <time>2022-05-29T10:52:54Z</time>
      </trkpt>
      <trkpt lat="48.95742" lon="2.15893">
        <ele>33</ele>
        <time>2022-05-29T10:52:59Z</time>
      </trkpt>
      <trkpt lat="48.95737" lon="2.15886">
        <ele>33.1</ele>
        <time>2022-05-29T10:53:05Z</time>
      </trkpt>
      <trkpt lat="48.95732" lon="2.15878">
        <ele>33.1</ele>
        <time>2022-05-29T10:53:11Z</time>
      </trkpt>
      <trkpt lat="48.95729" lon="2.15873">
        <ele>33.1</ele>
        <time>2022-05-29T10:53:16Z</time>
      </trkpt>
      <trkpt lat="48.95724" lon="2.15864">
        <ele>33</ele>
        <time>2022-05-29T10:53:22Z</time>
      </trkpt>
      <trkpt lat="48.95716" lon="2.15854">
        <ele>33.2</ele>
        <time>2022-05-29T10:53:28Z</time>
      </trkpt>
      <trkpt lat="48.95713" lon="2.15847">
        <ele>33.3</ele>
        <time>2022-05-29T10:53:33Z</time>
      </trkpt>
      <trkpt lat="48.95709" lon="2.1584">
        <ele>33.5</ele>
        <time>2022-05-29T10:53:38Z</time>
      </trkpt>
      <trkpt lat="48.95704" lon="2.15831">
        <ele>33.7</ele>
        <time>2022-05-29T10:53:44Z</time>
      </trkpt>
      <trkpt lat="48.95699" lon="2.15816">
        <ele>33.9</ele>
        <time>2022-05-29T10:53:50Z</time>
      </trkpt>
      <trkpt lat="48.95693" lon="2.15805">
        <ele>34</ele>
        <time>2022-05-29T10:53:55Z</time>
      </trkpt>
      <trkpt lat="48.95686" lon="2.15794">
        <ele>34</ele>
        <time>2022-05-29T10:54:01Z</time>
      </trkpt>
      <trkpt lat="48.95681" lon="2.15783">
        <ele>34</ele>
        <time>2022-05-29T10:54:06Z</time>
      </trkpt>
      <trkpt lat="48.95676" lon="2.15771">
        <ele>34</ele>
        <time>2022-05-29T10:54:12Z</time>
      </trkpt>
      <trkpt lat="48.95673" lon="2.15757">
        <ele>34</ele>
        <time>2022-05-29T10:54:18Z</time>
      </trkpt>
      <trkpt lat="48.95671" lon="2.15746">
        <ele>34</ele>
        <time>2022-05-29T10:54:23Z</time>
      </trkpt>
      <trkpt lat="48.95667" lon="2.15737">
        <ele>34</ele>
        <time>2022-05-29T10:54:28Z</time>
      </trkpt>
      <trkpt lat="48.95662" lon="2.15725">
        <ele>34</ele>
        <time>2022-05-29T10:54:34Z</time>
      </trkpt>
      <trkpt lat="48.95657" lon="2.15714">
        <ele>34</ele>
        <time>2022-05-29T10:54:40Z</time>
      </trkpt>
      <trkpt lat="48.95653" lon="2.15706">
        <ele>34</ele>
        <time>2022-05-29T10:54:45Z</time>
      </trkpt>
      <trkpt lat="48.95649" lon="2.15697">
        <ele>34</ele>
        <time>2022-05-29T10:54:51Z</time>
      </trkpt>
      <trkpt lat="48.95646" lon="2.15686">
        <ele>34</ele>
        <time>2022-05-29T10:54:56Z</time>
      </trkpt>
      <trkpt lat="48.95643" lon="2.15676">
        <ele>34</ele>
        <time>2022-05-29T10:55:02Z</time>
      </trkpt>
      <trkpt lat="48.95639" lon="2.15664">
        <ele>34</ele>
        <time>2022-05-29T10:55:08Z</time>
      </trkpt>
      <trkpt lat="48.95638" lon="2.15649">
        <ele>34</ele>
        <time>2022-05-29T10:55:14Z</time>
      </trkpt>
      <trkpt lat="48.95636" lon="2.1564">
        <ele>34</ele>
        <time>2022-05-29T10:55:19Z</time>
      </trkpt>
      <trkpt lat="48.95634" lon="2.15628">
        <ele>34.1</ele>
        <time>2022-05-29T10:55:25Z</time>
      </trkpt>
      <trkpt lat="48.95634" lon="2.15615">
        <ele>34.2</ele>
        <time>2022-05-29T10:55:30Z</time>
      </trkpt>
      <trkpt lat="48.95632" lon="2.15599">
        <ele>34.3</ele>
        <time>2022-05-29T10:55:36Z</time>
      </trkpt>
      <trkpt lat="48.9563" lon="2.15589">
        <ele>34.3</ele>
        <time>2022-05-29T10:55:42Z</time>
      </trkpt>
      <trkpt lat="48.95627" lon="2.15579">
        <ele>34.4</ele>
        <time>2022-05-29T10:55:48Z</time>
      </trkpt>
      <trkpt lat="48.95627" lon="2.15566">
        <ele>34.4</ele>
        <time>2022-05-29T10:55:54Z</time>
      </trkpt>
      <trkpt lat="48.95627" lon="2.15553">
        <ele>34.4</ele>
        <time>2022-05-29T10:55:59Z</time>
      </trkpt>
      <trkpt lat="48.95625" lon="2.15539">
        <ele>34.5</ele>
        <time>2022-05-29T10:56:05Z</time>
      </trkpt>
      <trkpt lat="48.95623" lon="2.15526">
        <ele>34.5</ele>
        <time>2022-05-29T10:56:11Z</time>
      </trkpt>
      <trkpt lat="48.95621" lon="2.15513">
        <ele>34.3</ele>
        <time>2022-05-29T10:56:17Z</time>
      </trkpt>
      <trkpt lat="48.95618" lon="2.15503">
        <ele>34.1</ele>
        <time>2022-05-29T10:56:23Z</time>
      </trkpt>
      <trkpt lat="48.95617" lon="2.15493">
        <ele>34</ele>
        <time>2022-05-29T10:56:28Z</time>
      </trkpt>
      <trkpt lat="48.95617" lon="2.15476">
        <ele>34</ele>
        <time>2022-05-29T10:56:34Z</time>
      </trkpt>
      <trkpt lat="48.95617" lon="2.15465">
        <ele>34</ele>
        <time>2022-05-29T10:56:39Z</time>
      </trkpt>
      <trkpt lat="48.95616" lon="2.15451">
        <ele>34</ele>
        <time>2022-05-29T10:56:45Z</time>
      </trkpt>
      <trkpt lat="48.95616" lon="2.1544">
        <ele>34</ele>
        <time>2022-05-29T10:56:50Z</time>
      </trkpt>
      <trkpt lat="48.95618" lon="2.15427">
        <ele>34</ele>
        <time>2022-05-29T10:56:56Z</time>
      </trkpt>
      <trkpt lat="48.95619" lon="2.15415">
        <ele>34</ele>
        <time>2022-05-29T10:57:02Z</time>
      </trkpt>
      <trkpt lat="48.95619" lon="2.154">
        <ele>34</ele>
        <time>2022-05-29T10:57:08Z</time>
      </trkpt>
      <trkpt lat="48.95619" lon="2.15386">
        <ele>34</ele>
        <time>2022-05-29T10:57:14Z</time>
      </trkpt>
      <trkpt lat="48.9562" lon="2.15375">
        <ele>34</ele>
        <time>2022-05-29T10:57:19Z</time>
      </trkpt>
      <trkpt lat="48.95619" lon="2.15364">
        <ele>34</ele>
        <time>2022-05-29T10:57:24Z</time>
      </trkpt>
      <trkpt lat="48.9562" lon="2.15351">
        <ele>34.2</ele>
        <time>2022-05-29T10:57:30Z</time>
      </trkpt>
      <trkpt lat="48.95624" lon="2.15341">
        <ele>34.4</ele>
        <time>2022-05-29T10:57:36Z</time>
      </trkpt>
      <trkpt lat="48.95625" lon="2.15328">
        <ele>34.6</ele>
        <time>2022-05-29T10:57:42Z</time>
      </trkpt>
      <trkpt lat="48.95625" lon="2.15317">
        <ele>34.8</ele>
        <time>2022-05-29T10:57:47Z</time>
      </trkpt>
      <trkpt lat="48.95624" lon="2.15305">
        <ele>35</ele>
        <time>2022-05-29T10:57:52Z</time>
      </trkpt>
      <trkpt lat="48.95625" lon="2.15291">
        <ele>34.7</ele>
        <time>2022-05-29T10:57:58Z</time>
      </trkpt>
      <trkpt lat="48.95627" lon="2.15276">
        <ele>34.6</ele>
        <time>2022-05-29T10:58:04Z</time>
      </trkpt>
      <trkpt lat="48.95628" lon="2.15266">
        <ele>34.8</ele>
        <time>2022-05-29T10:58:10Z</time>
      </trkpt>
      <trkpt lat="48.95629" lon="2.15256">
        <ele>34.9</ele>
        <time>2022-05-29T10:58:16Z</time>
      </trkpt>
      <trkpt lat="48.95631" lon="2.15244">
        <ele>35</ele>
        <time>2022-05-29T10:58:21Z</time>
      </trkpt>
      <trkpt lat="48.95631" lon="2.15232">
        <ele>35</ele>
        <time>2022-05-29T10:58:26Z</time>
      </trkpt>
      <trkpt lat="48.95635" lon="2.15216">
        <ele>35</ele>
        <time>2022-05-29T10:58:32Z</time>
      </trkpt>
      <trkpt lat="48.95631" lon="2.15207">
        <ele>35</ele>
        <time>2022-05-29T10:58:37Z</time>
      </trkpt>
      <trkpt lat="48.95626" lon="2.152">
        <ele>35</ele>
        <time>2022-05-29T10:58:43Z</time>
      </trkpt>
      <trkpt lat="48.95625" lon="2.15194">
        <ele>35</ele>
        <time>2022-05-29T10:58:48Z</time>
      </trkpt>
      <trkpt lat="48.95623" lon="2.15187">
        <ele>35</ele>
        <time>2022-05-29T10:58:53Z</time>
      </trkpt>
      <trkpt lat="48.9562" lon="2.15179">
        <ele>35</ele>
        <time>2022-05-29T10:58:58Z</time>
      </trkpt>
      <trkpt lat="48.95614" lon="2.15167">
        <ele>35</ele>
        <time>2022-05-29T10:59:04Z</time>
      </trkpt>
      <trkpt lat="48.95608" lon="2.15155">
        <ele>35.5</ele>
        <time>2022-05-29T10:59:10Z</time>
      </trkpt>
      <trkpt lat="48.95604" lon="2.15145">
        <ele>35.8</ele>
        <time>2022-05-29T10:59:15Z</time>
      </trkpt>
      <trkpt lat="48.95598" lon="2.15134">
        <ele>36</ele>
        <time>2022-05-29T10:59:21Z</time>
      </trkpt>
      <trkpt lat="48.95593" lon="2.15122">
        <ele>36</ele>
        <time>2022-05-29T10:59:27Z</time>
      </trkpt>
      <trkpt lat="48.95589" lon="2.15109">
        <ele>36</ele>
        <time>2022-05-29T10:59:33Z</time>
      </trkpt>
      <trkpt lat="48.95584" lon="2.151">
        <ele>36</ele>
        <time>2022-05-29T10:59:38Z</time>
      </trkpt>
      <trkpt lat="48.9558" lon="2.1509">
        <ele>36</ele>
        <time>2022-05-29T10:59:43Z</time>
      </trkpt>
      <trkpt lat="48.95576" lon="2.15082">
        <ele>36</ele>
        <time>2022-05-29T10:59:48Z</time>
      </trkpt>
      <trkpt lat="48.95571" lon="2.15071">
        <ele>36.3</ele>
        <time>2022-05-29T10:59:54Z</time>
      </trkpt>
      <trkpt lat="48.95567" lon="2.15063">
        <ele>36.3</ele>
        <time>2022-05-29T10:59:59Z</time>
      </trkpt>
      <trkpt lat="48.95563" lon="2.15054">
        <ele>36.3</ele>
        <time>2022-05-29T11:00:04Z</time>
      </trkpt>
      <trkpt lat="48.95558" lon="2.15043">
        <ele>36.5</ele>
        <time>2022-05-29T11:00:10Z</time>
      </trkpt>
      <trkpt lat="48.95553" lon="2.1503">
        <ele>36.9</ele>
        <time>2022-05-29T11:00:15Z</time>
      </trkpt>
      <trkpt lat="48.95548" lon="2.1502">
        <ele>37</ele>
        <time>2022-05-29T11:00:21Z</time>
      </trkpt>
      <trkpt lat="48.95544" lon="2.15011">
        <ele>37</ele>
        <time>2022-05-29T11:00:27Z</time>
      </trkpt>
      <trkpt lat="48.9554" lon="2.15">
        <ele>37</ele>
        <time>2022-05-29T11:00:33Z</time>
      </trkpt>
      <trkpt lat="48.95536" lon="2.1499">
        <ele>37.2</ele>
        <time>2022-05-29T11:00:39Z</time>
      </trkpt>
      <trkpt lat="48.95533" lon="2.14981">
        <ele>37.6</ele>
        <time>2022-05-29T11:00:44Z</time>
      </trkpt>
      <trkpt lat="48.95527" lon="2.14971">
        <ele>38</ele>
        <time>2022-05-29T11:00:49Z</time>
      </trkpt>
      <trkpt lat="48.95521" lon="2.14962">
        <ele>38.1</ele>
        <time>2022-05-29T11:00:54Z</time>
      </trkpt>
      <trkpt lat="48.95515" lon="2.1495">
        <ele>38.3</ele>
        <time>2022-05-29T11:01:00Z</time>
      </trkpt>
      <trkpt lat="48.95513" lon="2.14944">
        <ele>38.5</ele>
        <time>2022-05-29T11:01:05Z</time>
      </trkpt>
      <trkpt lat="48.95508" lon="2.14933">
        <ele>38.2</ele>
        <time>2022-05-29T11:01:11Z</time>
      </trkpt>
      <trkpt lat="48.95504" lon="2.14923">
        <ele>38</ele>
        <time>2022-05-29T11:01:16Z</time>
      </trkpt>
      <trkpt lat="48.955" lon="2.14914">
        <ele>38</ele>
        <time>2022-05-29T11:01:21Z</time>
      </trkpt>
      <trkpt lat="48.95495" lon="2.14907">
        <ele>38.2</ele>
        <time>2022-05-29T11:01:27Z</time>
      </trkpt>
      <trkpt lat="48.95491" lon="2.149">
        <ele>38.3</ele>
        <time>2022-05-29T11:01:32Z</time>
      </trkpt>
      <trkpt lat="48.95487" lon="2.1489">
        <ele>38.5</ele>
        <time>2022-05-29T11:01:37Z</time>
      </trkpt>
      <trkpt lat="48.9548" lon="2.14877">
        <ele>38.8</ele>
        <time>2022-05-29T11:01:43Z</time>
      </trkpt>
      <trkpt lat="48.95473" lon="2.14865">
        <ele>39</ele>
        <time>2022-05-29T11:01:48Z</time>
      </trkpt>
      <trkpt lat="48.95465" lon="2.14852">
        <ele>39</ele>
        <time>2022-05-29T11:01:54Z</time>
      </trkpt>
      <trkpt lat="48.95459" lon="2.14841">
        <ele>39</ele>
        <time>2022-05-29T11:01:59Z</time>
      </trkpt>
      <trkpt lat="48.95455" lon="2.14832">
        <ele>39</ele>
        <time>2022-05-29T11:02:04Z</time>
      </trkpt>
      <trkpt lat="48.95452" lon="2.14825">
        <ele>39.3</ele>
        <time>2022-05-29T11:02:09Z</time>
      </trkpt>
      <trkpt lat="48.95449" lon="2.14814">
        <ele>39.7</ele>
        <time>2022-05-29T11:02:15Z</time>
      </trkpt>
      <trkpt lat="48.95444" lon="2.14803">
        <ele>40</ele>
        <time>2022-05-29T11:02:20Z</time>
      </trkpt>
      <trkpt lat="48.95439" lon="2.14792">
        <ele>40</ele>
        <time>2022-05-29T11:02:25Z</time>
      </trkpt>
      <trkpt lat="48.95433" lon="2.14779">
        <ele>40</ele>
        <time>2022-05-29T11:02:31Z</time>
      </trkpt>
      <trkpt lat="48.95429" lon="2.14772">
        <ele>40</ele>
        <time>2022-05-29T11:02:36Z</time>
      </trkpt>
      <trkpt lat="48.95425" lon="2.14764">
        <ele>40</ele>
        <time>2022-05-29T11:02:41Z</time>
      </trkpt>
      <trkpt lat="48.95421" lon="2.14758">
        <ele>40</ele>
        <time>2022-05-29T11:02:46Z</time>
      </trkpt>
      <trkpt lat="48.95413" lon="2.14744">
        <ele>40.2</ele>
        <time>2022-05-29T11:02:54Z</time>
      </trkpt>
      <trkpt lat="48.95406" lon="2.14732">
        <ele>40.6</ele>
        <time>2022-05-29T11:03:00Z</time>
      </trkpt>
      <trkpt lat="48.95401" lon="2.14722">
        <ele>41</ele>
        <time>2022-05-29T11:03:05Z</time>
      </trkpt>
      <trkpt lat="48.95394" lon="2.1471">
        <ele>41</ele>
        <time>2022-05-29T11:03:11Z</time>
      </trkpt>
      <trkpt lat="48.95389" lon="2.147">
        <ele>41</ele>
        <time>2022-05-29T11:03:16Z</time>
      </trkpt>
      <trkpt lat="48.95386" lon="2.14689">
        <ele>41</ele>
        <time>2022-05-29T11:03:22Z</time>
      </trkpt>
      <trkpt lat="48.95382" lon="2.14678">
        <ele>41</ele>
        <time>2022-05-29T11:03:28Z</time>
      </trkpt>
      <trkpt lat="48.95379" lon="2.14667">
        <ele>41</ele>
        <time>2022-05-29T11:03:34Z</time>
      </trkpt>
      <trkpt lat="48.95374" lon="2.14659">
        <ele>41</ele>
        <time>2022-05-29T11:03:39Z</time>
      </trkpt>
      <trkpt lat="48.95371" lon="2.14652">
        <ele>41</ele>
        <time>2022-05-29T11:03:44Z</time>
      </trkpt>
      <trkpt lat="48.95367" lon="2.14642">
        <ele>41</ele>
        <time>2022-05-29T11:03:50Z</time>
      </trkpt>
      <trkpt lat="48.95357" lon="2.14632">
        <ele>41</ele>
        <time>2022-05-29T11:03:56Z</time>
      </trkpt>
      <trkpt lat="48.95349" lon="2.14632">
        <ele>41</ele>
        <time>2022-05-29T11:04:02Z</time>
      </trkpt>
      <trkpt lat="48.9534" lon="2.14635">
        <ele>41</ele>
        <time>2022-05-29T11:04:07Z</time>
      </trkpt>
      <trkpt lat="48.95333" lon="2.14642">
        <ele>41</ele>
        <time>2022-05-29T11:04:12Z</time>
      </trkpt>
      <trkpt lat="48.95325" lon="2.1465">
        <ele>41</ele>
        <time>2022-05-29T11:04:18Z</time>
      </trkpt>
      <trkpt lat="48.95317" lon="2.14657">
        <ele>41</ele>
        <time>2022-05-29T11:04:24Z</time>
      </trkpt>
      <trkpt lat="48.95309" lon="2.14663">
        <ele>41</ele>
        <time>2022-05-29T11:04:30Z</time>
      </trkpt>
      <trkpt lat="48.95303" lon="2.14666">
        <ele>41</ele>
        <time>2022-05-29T11:04:35Z</time>
      </trkpt>
      <trkpt lat="48.95297" lon="2.14668">
        <ele>41</ele>
        <time>2022-05-29T11:04:40Z</time>
      </trkpt>
      <trkpt lat="48.9529" lon="2.1467">
        <ele>41</ele>
        <time>2022-05-29T11:04:46Z</time>
      </trkpt>
      <trkpt lat="48.95282" lon="2.14671">
        <ele>41</ele>
        <time>2022-05-29T11:04:51Z</time>
      </trkpt>
      <trkpt lat="48.95273" lon="2.14671">
        <ele>41</ele>
        <time>2022-05-29T11:04:56Z</time>
      </trkpt>
      <trkpt lat="48.95264" lon="2.14671">
        <ele>41</ele>
        <time>2022-05-29T11:05:01Z</time>
      </trkpt>
      <trkpt lat="48.95253" lon="2.1467">
        <ele>41</ele>
        <time>2022-05-29T11:05:07Z</time>
      </trkpt>
      <trkpt lat="48.95244" lon="2.14668">
        <ele>41</ele>
        <time>2022-05-29T11:05:12Z</time>
      </trkpt>
      <trkpt lat="48.95235" lon="2.14667">
        <ele>41</ele>
        <time>2022-05-29T11:05:17Z</time>
      </trkpt>
      <trkpt lat="48.95229" lon="2.14662">
        <ele>41</ele>
        <time>2022-05-29T11:05:22Z</time>
      </trkpt>
      <trkpt lat="48.95223" lon="2.14656">
        <ele>41</ele>
        <time>2022-05-29T11:05:27Z</time>
      </trkpt>
      <trkpt lat="48.95218" lon="2.14652">
        <ele>41</ele>
        <time>2022-05-29T11:05:32Z</time>
      </trkpt>
      <trkpt lat="48.95211" lon="2.14647">
        <ele>41</ele>
        <time>2022-05-29T11:05:38Z</time>
      </trkpt>
      <trkpt lat="48.95204" lon="2.14641">
        <ele>41</ele>
        <time>2022-05-29T11:05:43Z</time>
      </trkpt>
      <trkpt lat="48.95193" lon="2.14635">
        <ele>41</ele>
        <time>2022-05-29T11:05:49Z</time>
      </trkpt>
      <trkpt lat="48.95185" lon="2.14628">
        <ele>40.9</ele>
        <time>2022-05-29T11:05:54Z</time>
      </trkpt>
      <trkpt lat="48.95179" lon="2.14621">
        <ele>40.6</ele>
        <time>2022-05-29T11:05:59Z</time>
      </trkpt>
      <trkpt lat="48.95171" lon="2.14614">
        <ele>40.3</ele>
        <time>2022-05-29T11:06:05Z</time>
      </trkpt>
      <trkpt lat="48.95165" lon="2.14609">
        <ele>40</ele>
        <time>2022-05-29T11:06:10Z</time>
      </trkpt>
      <trkpt lat="48.95159" lon="2.14601">
        <ele>39.7</ele>
        <time>2022-05-29T11:06:16Z</time>
      </trkpt>
      <trkpt lat="48.95154" lon="2.14593">
        <ele>39.6</ele>
        <time>2022-05-29T11:06:22Z</time>
      </trkpt>
      <trkpt lat="48.95152" lon="2.14583">
        <ele>39.5</ele>
        <time>2022-05-29T11:06:27Z</time>
      </trkpt>
      <trkpt lat="48.9515" lon="2.1457">
        <ele>39.5</ele>
        <time>2022-05-29T11:06:32Z</time>
      </trkpt>
      <trkpt lat="48.95148" lon="2.14555">
        <ele>39.7</ele>
        <time>2022-05-29T11:06:38Z</time>
      </trkpt>
      <trkpt lat="48.9515" lon="2.14543">
        <ele>39.6</ele>
        <time>2022-05-29T11:06:44Z</time>
      </trkpt>
      <trkpt lat="48.95154" lon="2.14533">
        <ele>39.5</ele>
        <time>2022-05-29T11:06:50Z</time>
      </trkpt>
      <trkpt lat="48.95163" lon="2.14523">
        <ele>39.3</ele>
        <time>2022-05-29T11:06:56Z</time>
      </trkpt>
      <trkpt lat="48.95169" lon="2.14516">
        <ele>39.5</ele>
        <time>2022-05-29T11:07:01Z</time>
      </trkpt>
      <trkpt lat="48.95175" lon="2.14506">
        <ele>39.8</ele>
        <time>2022-05-29T11:07:06Z</time>
      </trkpt>
      <trkpt lat="48.95182" lon="2.14495">
        <ele>40</ele>
        <time>2022-05-29T11:07:12Z</time>
      </trkpt>
      <trkpt lat="48.95187" lon="2.14483">
        <ele>40</ele>
        <time>2022-05-29T11:07:18Z</time>
      </trkpt>
      <trkpt lat="48.95191" lon="2.14473">
        <ele>40</ele>
        <time>2022-05-29T11:07:24Z</time>
      </trkpt>
      <trkpt lat="48.95197" lon="2.14466">
        <ele>40</ele>
        <time>2022-05-29T11:07:30Z</time>
      </trkpt>
      <trkpt lat="48.95201" lon="2.14459">
        <ele>40</ele>
        <time>2022-05-29T11:07:35Z</time>
      </trkpt>
      <trkpt lat="48.95205" lon="2.1445">
        <ele>40</ele>
        <time>2022-05-29T11:07:40Z</time>
      </trkpt>
      <trkpt lat="48.9521" lon="2.1444">
        <ele>40</ele>
        <time>2022-05-29T11:07:46Z</time>
      </trkpt>
      <trkpt lat="48.95215" lon="2.14431">
        <ele>40</ele>
        <time>2022-05-29T11:07:51Z</time>
      </trkpt>
      <trkpt lat="48.95222" lon="2.14418">
        <ele>40</ele>
        <time>2022-05-29T11:07:57Z</time>
      </trkpt>
      <trkpt lat="48.95227" lon="2.14406">
        <ele>40</ele>
        <time>2022-05-29T11:08:02Z</time>
      </trkpt>
      <trkpt lat="48.95236" lon="2.14392">
        <ele>40</ele>
        <time>2022-05-29T11:08:08Z</time>
      </trkpt>
      <trkpt lat="48.95244" lon="2.14379">
        <ele>40</ele>
        <time>2022-05-29T11:08:14Z</time>
      </trkpt>
      <trkpt lat="48.95248" lon="2.1437">
        <ele>40</ele>
        <time>2022-05-29T11:08:20Z</time>
      </trkpt>
      <trkpt lat="48.95245" lon="2.14366">
        <ele>40</ele>
        <time>2022-05-29T11:08:26Z</time>
      </trkpt>
      <trkpt lat="48.95238" lon="2.14358">
        <ele>40.1</ele>
        <time>2022-05-29T11:08:32Z</time>
      </trkpt>
      <trkpt lat="48.95229" lon="2.14352">
        <ele>40.1</ele>
        <time>2022-05-29T11:08:38Z</time>
      </trkpt>
      <trkpt lat="48.95221" lon="2.14346">
        <ele>40</ele>
        <time>2022-05-29T11:08:44Z</time>
      </trkpt>
      <trkpt lat="48.95213" lon="2.14338">
        <ele>40</ele>
        <time>2022-05-29T11:08:49Z</time>
      </trkpt>
      <trkpt lat="48.95207" lon="2.1433">
        <ele>40</ele>
        <time>2022-05-29T11:08:54Z</time>
      </trkpt>
      <trkpt lat="48.952" lon="2.14322">
        <ele>40</ele>
        <time>2022-05-29T11:09:00Z</time>
      </trkpt>
      <trkpt lat="48.95193" lon="2.14313">
        <ele>40</ele>
        <time>2022-05-29T11:09:06Z</time>
      </trkpt>
      <trkpt lat="48.95187" lon="2.14304">
        <ele>40</ele>
        <time>2022-05-29T11:09:11Z</time>
      </trkpt>
      <trkpt lat="48.95183" lon="2.14297">
        <ele>40</ele>
        <time>2022-05-29T11:09:16Z</time>
      </trkpt>
      <trkpt lat="48.95177" lon="2.1429">
        <ele>40</ele>
        <time>2022-05-29T11:09:22Z</time>
      </trkpt>
      <trkpt lat="48.95172" lon="2.14284">
        <ele>40</ele>
        <time>2022-05-29T11:09:27Z</time>
      </trkpt>
      <trkpt lat="48.95167" lon="2.14279">
        <ele>40</ele>
        <time>2022-05-29T11:09:32Z</time>
      </trkpt>
      <trkpt lat="48.95162" lon="2.14272">
        <ele>39.8</ele>
        <time>2022-05-29T11:09:37Z</time>
      </trkpt>
      <trkpt lat="48.95154" lon="2.14262">
        <ele>39.5</ele>
        <time>2022-05-29T11:09:43Z</time>
      </trkpt>
      <trkpt lat="48.95146" lon="2.14252">
        <ele>39.2</ele>
        <time>2022-05-29T11:09:48Z</time>
      </trkpt>
      <trkpt lat="48.95141" lon="2.14239">
        <ele>39.4</ele>
        <time>2022-05-29T11:09:53Z</time>
      </trkpt>
      <trkpt lat="48.9514" lon="2.14228">
        <ele>39.8</ele>
        <time>2022-05-29T11:09:59Z</time>
      </trkpt>
      <trkpt lat="48.95143" lon="2.14218">
        <ele>40</ele>
        <time>2022-05-29T11:10:05Z</time>
      </trkpt>
      <trkpt lat="48.95147" lon="2.14207">
        <ele>40</ele>
        <time>2022-05-29T11:10:10Z</time>
      </trkpt>
      <trkpt lat="48.95152" lon="2.14197">
        <ele>40</ele>
        <time>2022-05-29T11:10:15Z</time>
      </trkpt>
      <trkpt lat="48.95157" lon="2.14186">
        <ele>40</ele>
        <time>2022-05-29T11:10:20Z</time>
      </trkpt>
      <trkpt lat="48.9516" lon="2.14175">
        <ele>40</ele>
        <time>2022-05-29T11:10:26Z</time>
      </trkpt>
      <trkpt lat="48.95163" lon="2.14164">
        <ele>39.9</ele>
        <time>2022-05-29T11:10:31Z</time>
      </trkpt>
      <trkpt lat="48.95168" lon="2.14153">
        <ele>39.5</ele>
        <time>2022-05-29T11:10:37Z</time>
      </trkpt>
      <trkpt lat="48.95172" lon="2.14145">
        <ele>39.4</ele>
        <time>2022-05-29T11:10:42Z</time>
      </trkpt>
      <trkpt lat="48.95177" lon="2.14136">
        <ele>39.4</ele>
        <time>2022-05-29T11:10:48Z</time>
      </trkpt>
      <trkpt lat="48.95183" lon="2.14128">
        <ele>39.8</ele>
        <time>2022-05-29T11:10:53Z</time>
      </trkpt>
      <trkpt lat="48.95189" lon="2.1412">
        <ele>39.9</ele>
        <time>2022-05-29T11:10:58Z</time>
      </trkpt>
      <trkpt lat="48.95196" lon="2.14112">
        <ele>40</ele>
        <time>2022-05-29T11:11:04Z</time>
      </trkpt>
      <trkpt lat="48.95202" lon="2.14104">
        <ele>40</ele>
        <time>2022-05-29T11:11:10Z</time>
      </trkpt>
      <trkpt lat="48.95207" lon="2.14094">
        <ele>40</ele>
        <time>2022-05-29T11:11:16Z</time>
      </trkpt>
      <trkpt lat="48.95213" lon="2.14084">
        <ele>40</ele>
        <time>2022-05-29T11:11:22Z</time>
      </trkpt>
      <trkpt lat="48.95218" lon="2.14074">
        <ele>40</ele>
        <time>2022-05-29T11:11:27Z</time>
      </trkpt>
      <trkpt lat="48.95225" lon="2.14063">
        <ele>40</ele>
        <time>2022-05-29T11:11:32Z</time>
      </trkpt>
      <trkpt lat="48.95232" lon="2.14052">
        <ele>40.1</ele>
        <time>2022-05-29T11:11:38Z</time>
      </trkpt>
      <trkpt lat="48.95236" lon="2.14042">
        <ele>40.2</ele>
        <time>2022-05-29T11:11:43Z</time>
      </trkpt>
      <trkpt lat="48.95242" lon="2.14029">
        <ele>40.3</ele>
        <time>2022-05-29T11:11:49Z</time>
      </trkpt>
      <trkpt lat="48.95248" lon="2.14017">
        <ele>40.4</ele>
        <time>2022-05-29T11:11:55Z</time>
      </trkpt>
      <trkpt lat="48.95253" lon="2.14007">
        <ele>40.8</ele>
        <time>2022-05-29T11:12:01Z</time>
      </trkpt>
      <trkpt lat="48.95259" lon="2.13997">
        <ele>41</ele>
        <time>2022-05-29T11:12:07Z</time>
      </trkpt>
      <trkpt lat="48.95263" lon="2.13987">
        <ele>41</ele>
        <time>2022-05-29T11:12:12Z</time>
      </trkpt>
      <trkpt lat="48.95267" lon="2.13978">
        <ele>41</ele>
        <time>2022-05-29T11:12:17Z</time>
      </trkpt>
      <trkpt lat="48.95271" lon="2.13967">
        <ele>41</ele>
        <time>2022-05-29T11:12:23Z</time>
      </trkpt>
      <trkpt lat="48.95271" lon="2.13955">
        <ele>41</ele>
        <time>2022-05-29T11:12:29Z</time>
      </trkpt>
      <trkpt lat="48.95269" lon="2.13945">
        <ele>41</ele>
        <time>2022-05-29T11:12:34Z</time>
      </trkpt>
      <trkpt lat="48.95265" lon="2.13935">
        <ele>41</ele>
        <time>2022-05-29T11:12:40Z</time>
      </trkpt>
      <trkpt lat="48.9526" lon="2.13925">
        <ele>41</ele>
        <time>2022-05-29T11:12:46Z</time>
      </trkpt>
      <trkpt lat="48.95255" lon="2.13919">
        <ele>41</ele>
        <time>2022-05-29T11:12:51Z</time>
      </trkpt>
      <trkpt lat="48.95249" lon="2.13914">
        <ele>41</ele>
        <time>2022-05-29T11:12:56Z</time>
      </trkpt>
      <trkpt lat="48.95241" lon="2.13909">
        <ele>41</ele>
        <time>2022-05-29T11:13:02Z</time>
      </trkpt>
      <trkpt lat="48.95235" lon="2.13904">
        <ele>41</ele>
        <time>2022-05-29T11:13:07Z</time>
      </trkpt>
      <trkpt lat="48.95229" lon="2.13899">
        <ele>41</ele>
        <time>2022-05-29T11:13:12Z</time>
      </trkpt>
      <trkpt lat="48.95223" lon="2.13893">
        <ele>41</ele>
        <time>2022-05-29T11:13:17Z</time>
      </trkpt>
      <trkpt lat="48.95216" lon="2.13889">
        <ele>41</ele>
        <time>2022-05-29T11:13:23Z</time>
      </trkpt>
      <trkpt lat="48.95208" lon="2.13889">
        <ele>41</ele>
        <time>2022-05-29T11:13:29Z</time>
      </trkpt>
      <trkpt lat="48.95199" lon="2.13891">
        <ele>41</ele>
        <time>2022-05-29T11:13:35Z</time>
      </trkpt>
      <trkpt lat="48.95193" lon="2.13888">
        <ele>41</ele>
        <time>2022-05-29T11:13:40Z</time>
      </trkpt>
      <trkpt lat="48.95187" lon="2.13882">
        <ele>41</ele>
        <time>2022-05-29T11:13:45Z</time>
      </trkpt>
      <trkpt lat="48.9518" lon="2.13875">
        <ele>41</ele>
        <time>2022-05-29T11:13:50Z</time>
      </trkpt>
      <trkpt lat="48.95172" lon="2.13866">
        <ele>41</ele>
        <time>2022-05-29T11:13:56Z</time>
      </trkpt>
      <trkpt lat="48.95164" lon="2.13859">
        <ele>41.1</ele>
        <time>2022-05-29T11:14:02Z</time>
      </trkpt>
      <trkpt lat="48.95158" lon="2.13852">
        <ele>41.3</ele>
        <time>2022-05-29T11:14:08Z</time>
      </trkpt>
      <trkpt lat="48.95152" lon="2.13844">
        <ele>41.6</ele>
        <time>2022-05-29T11:14:13Z</time>
      </trkpt>
      <trkpt lat="48.95142" lon="2.13836">
        <ele>41.9</ele>
        <time>2022-05-29T11:14:19Z</time>
      </trkpt>
      <trkpt lat="48.95137" lon="2.13829">
        <ele>42</ele>
        <time>2022-05-29T11:14:24Z</time>
      </trkpt>
      <trkpt lat="48.9513" lon="2.13821">
        <ele>42</ele>
        <time>2022-05-29T11:14:29Z</time>
      </trkpt>
      <trkpt lat="48.95124" lon="2.13813">
        <ele>42</ele>
        <time>2022-05-29T11:14:34Z</time>
      </trkpt>
      <trkpt lat="48.95115" lon="2.13805">
        <ele>42</ele>
        <time>2022-05-29T11:14:40Z</time>
      </trkpt>
      <trkpt lat="48.95108" lon="2.13799">
        <ele>42.2</ele>
        <time>2022-05-29T11:14:46Z</time>
      </trkpt>
      <trkpt lat="48.95104" lon="2.13793">
        <ele>42.3</ele>
        <time>2022-05-29T11:14:51Z</time>
      </trkpt>
      <trkpt lat="48.95095" lon="2.13786">
        <ele>42.3</ele>
        <time>2022-05-29T11:14:57Z</time>
      </trkpt>
      <trkpt lat="48.95088" lon="2.13779">
        <ele>42.2</ele>
        <time>2022-05-29T11:15:03Z</time>
      </trkpt>
      <trkpt lat="48.95082" lon="2.1377">
        <ele>42.3</ele>
        <time>2022-05-29T11:15:09Z</time>
      </trkpt>
      <trkpt lat="48.95076" lon="2.13762">
        <ele>42.3</ele>
        <time>2022-05-29T11:15:14Z</time>
      </trkpt>
      <trkpt lat="48.95069" lon="2.13758">
        <ele>42</ele>
        <time>2022-05-29T11:15:20Z</time>
      </trkpt>
      <trkpt lat="48.95069" lon="2.13753">
        <ele>42</ele>
        <time>2022-05-29T11:15:25Z</time>
      </trkpt>
      <trkpt lat="48.95073" lon="2.13744">
        <ele>42.1</ele>
        <time>2022-05-29T11:15:31Z</time>
      </trkpt>
      <trkpt lat="48.95075" lon="2.13738">
        <ele>42.1</ele>
        <time>2022-05-29T11:15:36Z</time>
      </trkpt>
      <trkpt lat="48.95078" lon="2.1373">
        <ele>42.3</ele>
        <time>2022-05-29T11:15:42Z</time>
      </trkpt>
      <trkpt lat="48.95082" lon="2.13721">
        <ele>42.7</ele>
        <time>2022-05-29T11:15:47Z</time>
      </trkpt>
      <trkpt lat="48.9509" lon="2.13709">
        <ele>41.6</ele>
        <time>2022-05-29T11:15:53Z</time>
      </trkpt>
      <trkpt lat="48.95097" lon="2.13696">
        <ele>41.5</ele>
        <time>2022-05-29T11:15:59Z</time>
      </trkpt>
      <trkpt lat="48.95103" lon="2.13685">
        <ele>42</ele>
        <time>2022-05-29T11:16:05Z</time>
      </trkpt>
      <trkpt lat="48.95102" lon="2.13677">
        <ele>41.6</ele>
        <time>2022-05-29T11:16:10Z</time>
      </trkpt>
      <trkpt lat="48.95099" lon="2.13668">
        <ele>40.7</ele>
        <time>2022-05-29T11:16:16Z</time>
      </trkpt>
      <trkpt lat="48.95093" lon="2.13659">
        <ele>40.7</ele>
        <time>2022-05-29T11:16:22Z</time>
      </trkpt>
      <trkpt lat="48.95088" lon="2.13652">
        <ele>41.4</ele>
        <time>2022-05-29T11:16:27Z</time>
      </trkpt>
      <trkpt lat="48.95086" lon="2.13644">
        <ele>42.7</ele>
        <time>2022-05-29T11:16:32Z</time>
      </trkpt>
      <trkpt lat="48.95087" lon="2.13635">
        <ele>43.3</ele>
        <time>2022-05-29T11:16:38Z</time>
      </trkpt>
      <trkpt lat="48.95092" lon="2.13625">
        <ele>42.8</ele>
        <time>2022-05-29T11:16:44Z</time>
      </trkpt>
      <trkpt lat="48.95098" lon="2.13615">
        <ele>42.3</ele>
        <time>2022-05-29T11:16:50Z</time>
      </trkpt>
      <trkpt lat="48.95104" lon="2.13606">
        <ele>42.2</ele>
        <time>2022-05-29T11:16:55Z</time>
      </trkpt>
      <trkpt lat="48.95112" lon="2.13597">
        <ele>42.5</ele>
        <time>2022-05-29T11:17:00Z</time>
      </trkpt>
      <trkpt lat="48.95117" lon="2.1359">
        <ele>42.3</ele>
        <time>2022-05-29T11:17:05Z</time>
      </trkpt>
      <trkpt lat="48.95124" lon="2.13584">
        <ele>41.7</ele>
        <time>2022-05-29T11:17:11Z</time>
      </trkpt>
      <trkpt lat="48.95129" lon="2.13577">
        <ele>41.5</ele>
        <time>2022-05-29T11:17:17Z</time>
      </trkpt>
      <trkpt lat="48.95133" lon="2.13567">
        <ele>42.4</ele>
        <time>2022-05-29T11:17:23Z</time>
      </trkpt>
      <trkpt lat="48.95138" lon="2.13561">
        <ele>43.1</ele>
        <time>2022-05-29T11:17:28Z</time>
      </trkpt>
      <trkpt lat="48.95142" lon="2.13551">
        <ele>43.5</ele>
        <time>2022-05-29T11:17:34Z</time>
      </trkpt>
      <trkpt lat="48.95148" lon="2.1354">
        <ele>42.9</ele>
        <time>2022-05-29T11:17:39Z</time>
      </trkpt>
      <trkpt lat="48.95154" lon="2.1353">
        <ele>42.8</ele>
        <time>2022-05-29T11:17:44Z</time>
      </trkpt>
      <trkpt lat="48.95161" lon="2.1352">
        <ele>42.8</ele>
        <time>2022-05-29T11:17:50Z</time>
      </trkpt>
      <trkpt lat="48.95168" lon="2.1351">
        <ele>43.1</ele>
        <time>2022-05-29T11:17:56Z</time>
      </trkpt>
      <trkpt lat="48.95172" lon="2.13502">
        <ele>43.1</ele>
        <time>2022-05-29T11:18:01Z</time>
      </trkpt>
      <trkpt lat="48.95177" lon="2.13494">
        <ele>43</ele>
        <time>2022-05-29T11:18:07Z</time>
      </trkpt>
      <trkpt lat="48.95181" lon="2.13488">
        <ele>43.3</ele>
        <time>2022-05-29T11:18:12Z</time>
      </trkpt>
      <trkpt lat="48.95186" lon="2.13479">
        <ele>44</ele>
        <time>2022-05-29T11:18:18Z</time>
      </trkpt>
      <trkpt lat="48.95193" lon="2.1347">
        <ele>45</ele>
        <time>2022-05-29T11:18:24Z</time>
      </trkpt>
      <trkpt lat="48.95202" lon="2.13457">
        <ele>43.8</ele>
        <time>2022-05-29T11:18:29Z</time>
      </trkpt>
      <trkpt lat="48.95208" lon="2.13448">
        <ele>43</ele>
        <time>2022-05-29T11:18:34Z</time>
      </trkpt>
      <trkpt lat="48.95215" lon="2.13437">
        <ele>42.9</ele>
        <time>2022-05-29T11:18:40Z</time>
      </trkpt>
      <trkpt lat="48.9522" lon="2.1343">
        <ele>43.2</ele>
        <time>2022-05-29T11:18:45Z</time>
      </trkpt>
      <trkpt lat="48.95224" lon="2.13423">
        <ele>43.8</ele>
        <time>2022-05-29T11:18:51Z</time>
      </trkpt>
      <trkpt lat="48.95229" lon="2.13416">
        <ele>43.9</ele>
        <time>2022-05-29T11:18:56Z</time>
      </trkpt>
      <trkpt lat="48.95237" lon="2.13407">
        <ele>43.1</ele>
        <time>2022-05-29T11:19:02Z</time>
      </trkpt>
      <trkpt lat="48.95242" lon="2.13399">
        <ele>43.2</ele>
        <time>2022-05-29T11:19:07Z</time>
      </trkpt>
      <trkpt lat="48.9525" lon="2.13389">
        <ele>44</ele>
        <time>2022-05-29T11:19:13Z</time>
      </trkpt>
      <trkpt lat="48.95256" lon="2.13382">
        <ele>43.7</ele>
        <time>2022-05-29T11:19:18Z</time>
      </trkpt>
      <trkpt lat="48.95262" lon="2.13376">
        <ele>43.2</ele>
        <time>2022-05-29T11:19:23Z</time>
      </trkpt>
      <trkpt lat="48.95268" lon="2.1337">
        <ele>42.8</ele>
        <time>2022-05-29T11:19:29Z</time>
      </trkpt>
      <trkpt lat="48.95271" lon="2.13366">
        <ele>42.6</ele>
        <time>2022-05-29T11:19:35Z</time>
      </trkpt>
      <trkpt lat="48.95271" lon="2.13366">
        <ele>42.6</ele>
        <time>2022-05-29T11:19:40Z</time>
      </trkpt>
      <trkpt lat="48.95271" lon="2.13366">
        <ele>42.5</ele>
        <time>2022-05-29T11:19:45Z</time>
      </trkpt>
      <trkpt lat="48.95271" lon="2.13367">
        <ele>42.5</ele>
        <time>2022-05-29T11:19:51Z</time>
      </trkpt>
      <trkpt lat="48.95271" lon="2.13366">
        <ele>42.6</ele>
        <time>2022-05-29T11:19:57Z</time>
      </trkpt>
      <trkpt lat="48.95271" lon="2.13366">
        <ele>42.7</ele>
        <time>2022-05-29T11:20:02Z</time>
      </trkpt>
      <trkpt lat="48.9527" lon="2.13367">
        <ele>42.7</ele>
        <time>2022-05-29T11:20:08Z</time>
      </trkpt>
      <trkpt lat="48.95268" lon="2.13364">
        <ele>43.2</ele>
        <time>2022-05-29T11:20:13Z</time>
      </trkpt>
      <trkpt lat="48.95266" lon="2.13359">
        <ele>43.9</ele>
        <time>2022-05-29T11:20:19Z</time>
      </trkpt>
      <trkpt lat="48.95263" lon="2.13356">
        <ele>44.6</ele>
        <time>2022-05-29T11:20:24Z</time>
      </trkpt>
      <trkpt lat="48.9526" lon="2.1335">
        <ele>45.1</ele>
        <time>2022-05-29T11:20:30Z</time>
      </trkpt>
      <trkpt lat="48.95258" lon="2.13338">
        <ele>45.8</ele>
        <time>2022-05-29T11:20:36Z</time>
      </trkpt>
      <trkpt lat="48.95253" lon="2.13332">
        <ele>46</ele>
        <time>2022-05-29T11:20:42Z</time>
      </trkpt>
      <trkpt lat="48.95249" lon="2.13321">
        <ele>46</ele>
        <time>2022-05-29T11:20:47Z</time>
      </trkpt>
      <trkpt lat="48.95245" lon="2.13311">
        <ele>46</ele>
        <time>2022-05-29T11:20:52Z</time>
      </trkpt>
      <trkpt lat="48.95239" lon="2.13306">
        <ele>46</ele>
        <time>2022-05-29T11:20:57Z</time>
      </trkpt>
      <trkpt lat="48.95234" lon="2.13305">
        <ele>46</ele>
        <time>2022-05-29T11:21:03Z</time>
      </trkpt>
      <trkpt lat="48.95232" lon="2.13304">
        <ele>46</ele>
        <time>2022-05-29T11:21:08Z</time>
      </trkpt>
      <trkpt lat="48.95232" lon="2.13304">
        <ele>46</ele>
        <time>2022-05-29T11:21:14Z</time>
      </trkpt>
      <trkpt lat="48.95232" lon="2.13305">
        <ele>46</ele>
        <time>2022-05-29T11:21:20Z</time>
      </trkpt>
      <trkpt lat="48.9523" lon="2.13304">
        <ele>46</ele>
        <time>2022-05-29T11:21:25Z</time>
      </trkpt>
      <trkpt lat="48.95229" lon="2.13301">
        <ele>46</ele>
        <time>2022-05-29T11:21:31Z</time>
      </trkpt>
      <trkpt lat="48.95229" lon="2.13299">
        <ele>46</ele>
        <time>2022-05-29T11:21:36Z</time>
      </trkpt>
      <trkpt lat="48.95228" lon="2.13298">
        <ele>46</ele>
        <time>2022-05-29T11:21:42Z</time>
      </trkpt>
      <trkpt lat="48.95228" lon="2.13298">
        <ele>46</ele>
        <time>2022-05-29T11:21:47Z</time>
      </trkpt>
      <trkpt lat="48.95227" lon="2.13297">
        <ele>46</ele>
        <time>2022-05-29T11:21:53Z</time>
      </trkpt>
      <trkpt lat="48.95227" lon="2.13296">
        <ele>46</ele>
        <time>2022-05-29T11:21:58Z</time>
      </trkpt>
      <trkpt lat="48.95227" lon="2.13295">
        <ele>46</ele>
        <time>2022-05-29T11:22:04Z</time>
      </trkpt>
      <trkpt lat="48.95227" lon="2.13295">
        <ele>46</ele>
        <time>2022-05-29T11:22:10Z</time>
      </trkpt>
      <trkpt lat="48.95226" lon="2.13297">
        <ele>46</ele>
        <time>2022-05-29T11:22:15Z</time>
      </trkpt>
      <trkpt lat="48.95222" lon="2.13303">
        <ele>46</ele>
        <time>2022-05-29T11:22:21Z</time>
      </trkpt>
      <trkpt lat="48.95219" lon="2.13303">
        <ele>46</ele>
        <time>2022-05-29T11:22:27Z</time>
      </trkpt>
      <trkpt lat="48.95218" lon="2.13303">
        <ele>46</ele>
        <time>2022-05-29T11:22:32Z</time>
      </trkpt>
      <trkpt lat="48.95216" lon="2.13301">
        <ele>46</ele>
        <time>2022-05-29T11:22:38Z</time>
      </trkpt>
      <trkpt lat="48.95213" lon="2.13298">
        <ele>46</ele>
        <time>2022-05-29T11:22:44Z</time>
      </trkpt>
      <trkpt lat="48.95211" lon="2.13295">
        <ele>46</ele>
        <time>2022-05-29T11:22:50Z</time>
      </trkpt>
      <trkpt lat="48.95207" lon="2.13291">
        <ele>46</ele>
        <time>2022-05-29T11:22:56Z</time>
      </trkpt>
      <trkpt lat="48.95204" lon="2.13287">
        <ele>46</ele>
        <time>2022-05-29T11:23:02Z</time>
      </trkpt>
      <trkpt lat="48.952" lon="2.13283">
        <ele>46</ele>
        <time>2022-05-29T11:23:08Z</time>
      </trkpt>
      <trkpt lat="48.95197" lon="2.13281">
        <ele>46</ele>
        <time>2022-05-29T11:23:13Z</time>
      </trkpt>
      <trkpt lat="48.95196" lon="2.13281">
        <ele>46</ele>
        <time>2022-05-29T11:23:18Z</time>
      </trkpt>
      <trkpt lat="48.95194" lon="2.1328">
        <ele>46</ele>
        <time>2022-05-29T11:23:23Z</time>
      </trkpt>
      <trkpt lat="48.9519" lon="2.13277">
        <ele>46</ele>
        <time>2022-05-29T11:23:29Z</time>
      </trkpt>
      <trkpt lat="48.95186" lon="2.13274">
        <ele>46.1</ele>
        <time>2022-05-29T11:23:34Z</time>
      </trkpt>
      <trkpt lat="48.95182" lon="2.13271">
        <ele>46.3</ele>
        <time>2022-05-29T11:23:39Z</time>
      </trkpt>
      <trkpt lat="48.9518" lon="2.13268">
        <ele>46.3</ele>
        <time>2022-05-29T11:23:44Z</time>
      </trkpt>
      <trkpt lat="48.95176" lon="2.13265">
        <ele>46.5</ele>
        <time>2022-05-29T11:23:50Z</time>
      </trkpt>
      <trkpt lat="48.95173" lon="2.13262">
        <ele>46.6</ele>
        <time>2022-05-29T11:23:55Z</time>
      </trkpt>
      <trkpt lat="48.95168" lon="2.13259">
        <ele>46.7</ele>
        <time>2022-05-29T11:24:01Z</time>
      </trkpt>
      <trkpt lat="48.95163" lon="2.13257">
        <ele>46.7</ele>
        <time>2022-05-29T11:24:06Z</time>
      </trkpt>
      <trkpt lat="48.95158" lon="2.13255">
        <ele>46.8</ele>
        <time>2022-05-29T11:24:12Z</time>
      </trkpt>
      <trkpt lat="48.95155" lon="2.13251">
        <ele>47</ele>
        <time>2022-05-29T11:24:17Z</time>
      </trkpt>
      <trkpt lat="48.9515" lon="2.13247">
        <ele>47</ele>
        <time>2022-05-29T11:24:23Z</time>
      </trkpt>
      <trkpt lat="48.95147" lon="2.13245">
        <ele>47</ele>
        <time>2022-05-29T11:24:28Z</time>
      </trkpt>
      <trkpt lat="48.95138" lon="2.13242">
        <ele>47</ele>
        <time>2022-05-29T11:24:34Z</time>
      </trkpt>
      <trkpt lat="48.95133" lon="2.13238">
        <ele>47</ele>
        <time>2022-05-29T11:24:39Z</time>
      </trkpt>
      <trkpt lat="48.95127" lon="2.13232">
        <ele>47</ele>
        <time>2022-05-29T11:24:45Z</time>
      </trkpt>
      <trkpt lat="48.95123" lon="2.13226">
        <ele>47</ele>
        <time>2022-05-29T11:24:50Z</time>
      </trkpt>
      <trkpt lat="48.95122" lon="2.1322">
        <ele>47</ele>
        <time>2022-05-29T11:24:56Z</time>
      </trkpt>
      <trkpt lat="48.9512" lon="2.13217">
        <ele>47</ele>
        <time>2022-05-29T11:25:02Z</time>
      </trkpt>
      <trkpt lat="48.95116" lon="2.13211">
        <ele>47</ele>
        <time>2022-05-29T11:25:08Z</time>
      </trkpt>
      <trkpt lat="48.95113" lon="2.13203">
        <ele>47</ele>
        <time>2022-05-29T11:25:13Z</time>
      </trkpt>
      <trkpt lat="48.9511" lon="2.13198">
        <ele>47</ele>
        <time>2022-05-29T11:25:18Z</time>
      </trkpt>
      <trkpt lat="48.95105" lon="2.13197">
        <ele>47</ele>
        <time>2022-05-29T11:25:24Z</time>
      </trkpt>
      <trkpt lat="48.95099" lon="2.13199">
        <ele>47</ele>
        <time>2022-05-29T11:25:29Z</time>
      </trkpt>
      <trkpt lat="48.95094" lon="2.13198">
        <ele>47</ele>
        <time>2022-05-29T11:25:35Z</time>
      </trkpt>
      <trkpt lat="48.95087" lon="2.13196">
        <ele>47</ele>
        <time>2022-05-29T11:25:41Z</time>
      </trkpt>
      <trkpt lat="48.95078" lon="2.13194">
        <ele>47</ele>
        <time>2022-05-29T11:25:47Z</time>
      </trkpt>
      <trkpt lat="48.95074" lon="2.1319">
        <ele>47.1</ele>
        <time>2022-05-29T11:25:52Z</time>
      </trkpt>
      <trkpt lat="48.95068" lon="2.13183">
        <ele>47.2</ele>
        <time>2022-05-29T11:25:58Z</time>
      </trkpt>
      <trkpt lat="48.95063" lon="2.13174">
        <ele>47.6</ele>
        <time>2022-05-29T11:26:04Z</time>
      </trkpt>
      <trkpt lat="48.95061" lon="2.13164">
        <ele>47.8</ele>
        <time>2022-05-29T11:26:09Z</time>
      </trkpt>
      <trkpt lat="48.95061" lon="2.13157">
        <ele>47.9</ele>
        <time>2022-05-29T11:26:15Z</time>
      </trkpt>
      <trkpt lat="48.95064" lon="2.13146">
        <ele>47.9</ele>
        <time>2022-05-29T11:26:21Z</time>
      </trkpt>
      <trkpt lat="48.95064" lon="2.13138">
        <ele>48</ele>
        <time>2022-05-29T11:26:26Z</time>
      </trkpt>
      <trkpt lat="48.95063" lon="2.13133">
        <ele>48</ele>
        <time>2022-05-29T11:26:32Z</time>
      </trkpt>
      <trkpt lat="48.95061" lon="2.1313">
        <ele>48</ele>
        <time>2022-05-29T11:26:37Z</time>
      </trkpt>
      <trkpt lat="48.95058" lon="2.13128">
        <ele>48</ele>
        <time>2022-05-29T11:26:43Z</time>
      </trkpt>
      <trkpt lat="48.95057" lon="2.13128">
        <ele>48</ele>
        <time>2022-05-29T11:26:48Z</time>
      </trkpt>
      <trkpt lat="48.95056" lon="2.13128">
        <ele>48</ele>
        <time>2022-05-29T11:26:54Z</time>
      </trkpt>
      <trkpt lat="48.95055" lon="2.13129">
        <ele>48</ele>
        <time>2022-05-29T11:26:59Z</time>
      </trkpt>
      <trkpt lat="48.95055" lon="2.13129">
        <ele>48</ele>
        <time>2022-05-29T11:27:05Z</time>
      </trkpt>
      <trkpt lat="48.95051" lon="2.13129">
        <ele>48.1</ele>
        <time>2022-05-29T11:27:11Z</time>
      </trkpt>
      <trkpt lat="48.95043" lon="2.13125">
        <ele>48.2</ele>
        <time>2022-05-29T11:27:17Z</time>
      </trkpt>
      <trkpt lat="48.95036" lon="2.13122">
        <ele>48.3</ele>
        <time>2022-05-29T11:27:23Z</time>
      </trkpt>
      <trkpt lat="48.95027" lon="2.13121">
        <ele>48.3</ele>
        <time>2022-05-29T11:27:29Z</time>
      </trkpt>
      <trkpt lat="48.9502" lon="2.13118">
        <ele>48.2</ele>
        <time>2022-05-29T11:27:35Z</time>
      </trkpt>
      <trkpt lat="48.95011" lon="2.13115">
        <ele>48.1</ele>
        <time>2022-05-29T11:27:41Z</time>
      </trkpt>
      <trkpt lat="48.95003" lon="2.13112">
        <ele>48</ele>
        <time>2022-05-29T11:27:47Z</time>
      </trkpt>
      <trkpt lat="48.94998" lon="2.13109">
        <ele>48.2</ele>
        <time>2022-05-29T11:27:52Z</time>
      </trkpt>
      <trkpt lat="48.94989" lon="2.13105">
        <ele>48.5</ele>
        <time>2022-05-29T11:27:58Z</time>
      </trkpt>
      <trkpt lat="48.94983" lon="2.13103">
        <ele>48.7</ele>
        <time>2022-05-29T11:28:03Z</time>
      </trkpt>
      <trkpt lat="48.94977" lon="2.13099">
        <ele>48.9</ele>
        <time>2022-05-29T11:28:09Z</time>
      </trkpt>
      <trkpt lat="48.94968" lon="2.13094">
        <ele>49</ele>
        <time>2022-05-29T11:28:15Z</time>
      </trkpt>
      <trkpt lat="48.94963" lon="2.13091">
        <ele>49</ele>
        <time>2022-05-29T11:28:20Z</time>
      </trkpt>
      <trkpt lat="48.94957" lon="2.13087">
        <ele>49</ele>
        <time>2022-05-29T11:28:25Z</time>
      </trkpt>
      <trkpt lat="48.94951" lon="2.13083">
        <ele>49</ele>
        <time>2022-05-29T11:28:31Z</time>
      </trkpt>
      <trkpt lat="48.94945" lon="2.13079">
        <ele>49.2</ele>
        <time>2022-05-29T11:28:36Z</time>
      </trkpt>
      <trkpt lat="48.94938" lon="2.13074">
        <ele>49.6</ele>
        <time>2022-05-29T11:28:42Z</time>
      </trkpt>
      <trkpt lat="48.9493" lon="2.13069">
        <ele>50</ele>
        <time>2022-05-29T11:28:48Z</time>
      </trkpt>
      <trkpt lat="48.94922" lon="2.13064">
        <ele>50.5</ele>
        <time>2022-05-29T11:28:53Z</time>
      </trkpt>
      <trkpt lat="48.94916" lon="2.13062">
        <ele>50.8</ele>
        <time>2022-05-29T11:28:58Z</time>
      </trkpt>
      <trkpt lat="48.94908" lon="2.13061">
        <ele>50.8</ele>
        <time>2022-05-29T11:29:04Z</time>
      </trkpt>
      <trkpt lat="48.949" lon="2.13058">
        <ele>50.9</ele>
        <time>2022-05-29T11:29:09Z</time>
      </trkpt>
      <trkpt lat="48.94892" lon="2.13055">
        <ele>51</ele>
        <time>2022-05-29T11:29:14Z</time>
      </trkpt>
      <trkpt lat="48.94884" lon="2.13053">
        <ele>51</ele>
        <time>2022-05-29T11:29:19Z</time>
      </trkpt>
      <trkpt lat="48.94875" lon="2.13049">
        <ele>51.1</ele>
        <time>2022-05-29T11:29:25Z</time>
      </trkpt>
      <trkpt lat="48.94868" lon="2.13045">
        <ele>51.3</ele>
        <time>2022-05-29T11:29:31Z</time>
      </trkpt>
      <trkpt lat="48.94863" lon="2.13042">
        <ele>51.5</ele>
        <time>2022-05-29T11:29:36Z</time>
      </trkpt>
      <trkpt lat="48.94854" lon="2.13038">
        <ele>51.6</ele>
        <time>2022-05-29T11:29:42Z</time>
      </trkpt>
      <trkpt lat="48.94847" lon="2.13035">
        <ele>51.7</ele>
        <time>2022-05-29T11:29:47Z</time>
      </trkpt>
      <trkpt lat="48.9484" lon="2.1303">
        <ele>51.9</ele>
        <time>2022-05-29T11:29:53Z</time>
      </trkpt>
      <trkpt lat="48.94833" lon="2.13026">
        <ele>52</ele>
        <time>2022-05-29T11:29:58Z</time>
      </trkpt>
      <trkpt lat="48.94823" lon="2.13024">
        <ele>52</ele>
        <time>2022-05-29T11:30:04Z</time>
      </trkpt>
      <trkpt lat="48.94816" lon="2.13021">
        <ele>52</ele>
        <time>2022-05-29T11:30:09Z</time>
      </trkpt>
      <trkpt lat="48.94807" lon="2.13015">
        <ele>52</ele>
        <time>2022-05-29T11:30:15Z</time>
      </trkpt>
      <trkpt lat="48.948" lon="2.13014">
        <ele>52.2</ele>
        <time>2022-05-29T11:30:20Z</time>
      </trkpt>
      <trkpt lat="48.94794" lon="2.13011">
        <ele>52.4</ele>
        <time>2022-05-29T11:30:25Z</time>
      </trkpt>
      <trkpt lat="48.9479" lon="2.13007">
        <ele>52.5</ele>
        <time>2022-05-29T11:30:31Z</time>
      </trkpt>
      <trkpt lat="48.94791" lon="2.12998">
        <ele>52.5</ele>
        <time>2022-05-29T11:30:36Z</time>
      </trkpt>
      <trkpt lat="48.94792" lon="2.12988">
        <ele>52.7</ele>
        <time>2022-05-29T11:30:42Z</time>
      </trkpt>
      <trkpt lat="48.94792" lon="2.12981">
        <ele>52.8</ele>
        <time>2022-05-29T11:30:47Z</time>
      </trkpt>
      <trkpt lat="48.9479" lon="2.12971">
        <ele>53</ele>
        <time>2022-05-29T11:30:53Z</time>
      </trkpt>
      <trkpt lat="48.94787" lon="2.12964">
        <ele>53</ele>
        <time>2022-05-29T11:30:58Z</time>
      </trkpt>
      <trkpt lat="48.94783" lon="2.12959">
        <ele>53</ele>
        <time>2022-05-29T11:31:04Z</time>
      </trkpt>
      <trkpt lat="48.94779" lon="2.12959">
        <ele>53</ele>
        <time>2022-05-29T11:31:10Z</time>
      </trkpt>
      <trkpt lat="48.94776" lon="2.1296">
        <ele>53</ele>
        <time>2022-05-29T11:31:15Z</time>
      </trkpt>
      <trkpt lat="48.94774" lon="2.12962">
        <ele>53.1</ele>
        <time>2022-05-29T11:31:20Z</time>
      </trkpt>
      <trkpt lat="48.94772" lon="2.12965">
        <ele>53.1</ele>
        <time>2022-05-29T11:31:26Z</time>
      </trkpt>
      <trkpt lat="48.94771" lon="2.12968">
        <ele>53</ele>
        <time>2022-05-29T11:31:32Z</time>
      </trkpt>
      <trkpt lat="48.94771" lon="2.12965">
        <ele>53.1</ele>
        <time>2022-05-29T11:31:38Z</time>
      </trkpt>
      <trkpt lat="48.9477" lon="2.12963">
        <ele>53.1</ele>
        <time>2022-05-29T11:31:43Z</time>
      </trkpt>
      <trkpt lat="48.94768" lon="2.12962">
        <ele>53.1</ele>
        <time>2022-05-29T11:31:48Z</time>
      </trkpt>
      <trkpt lat="48.94765" lon="2.12964">
        <ele>53.1</ele>
        <time>2022-05-29T11:31:54Z</time>
      </trkpt>
      <trkpt lat="48.94761" lon="2.12969">
        <ele>53.1</ele>
        <time>2022-05-29T11:31:59Z</time>
      </trkpt>
      <trkpt lat="48.94757" lon="2.12975">
        <ele>52.9</ele>
        <time>2022-05-29T11:32:04Z</time>
      </trkpt>
      <trkpt lat="48.94752" lon="2.12984">
        <ele>52.6</ele>
        <time>2022-05-29T11:32:10Z</time>
      </trkpt>
      <trkpt lat="48.94746" lon="2.12995">
        <ele>52.3</ele>
        <time>2022-05-29T11:32:16Z</time>
      </trkpt>
      <trkpt lat="48.94742" lon="2.13001">
        <ele>52.3</ele>
        <time>2022-05-29T11:32:21Z</time>
      </trkpt>
      <trkpt lat="48.9474" lon="2.13005">
        <ele>52.3</ele>
        <time>2022-05-29T11:32:27Z</time>
      </trkpt>
      <trkpt lat="48.9474" lon="2.13005">
        <ele>52.4</ele>
        <time>2022-05-29T11:32:34Z</time>
      </trkpt>
      <trkpt lat="48.9474" lon="2.13005">
        <ele>52.4</ele>
        <time>2022-05-29T11:32:39Z</time>
      </trkpt>
      <trkpt lat="48.94741" lon="2.13007">
        <ele>52.3</ele>
        <time>2022-05-29T11:32:45Z</time>
      </trkpt>
      <trkpt lat="48.94742" lon="2.13011">
        <ele>52.3</ele>
        <time>2022-05-29T11:32:51Z</time>
      </trkpt>
      <trkpt lat="48.94742" lon="2.13012">
        <ele>52.3</ele>
        <time>2022-05-29T11:32:56Z</time>
      </trkpt>
      <trkpt lat="48.94744" lon="2.13014">
        <ele>52.2</ele>
        <time>2022-05-29T11:33:01Z</time>
      </trkpt>
      <trkpt lat="48.94745" lon="2.13017">
        <ele>52.2</ele>
        <time>2022-05-29T11:33:06Z</time>
      </trkpt>
      <trkpt lat="48.94746" lon="2.1302">
        <ele>52.2</ele>
        <time>2022-05-29T11:33:12Z</time>
      </trkpt>
      <trkpt lat="48.94745" lon="2.13016">
        <ele>52.2</ele>
        <time>2022-05-29T11:33:17Z</time>
      </trkpt>
      <trkpt lat="48.94741" lon="2.13005">
        <ele>52.3</ele>
        <time>2022-05-29T11:33:22Z</time>
      </trkpt>
      <trkpt lat="48.94739" lon="2.13">
        <ele>52.4</ele>
        <time>2022-05-29T11:33:28Z</time>
      </trkpt>
      <trkpt lat="48.9474" lon="2.13001">
        <ele>52.4</ele>
        <time>2022-05-29T11:33:34Z</time>
      </trkpt>
      <trkpt lat="48.9474" lon="2.13">
        <ele>52.3</ele>
        <time>2022-05-29T11:33:39Z</time>
      </trkpt>
      <trkpt lat="48.94741" lon="2.12999">
        <ele>52.4</ele>
        <time>2022-05-29T11:33:44Z</time>
      </trkpt>
      <trkpt lat="48.94742" lon="2.12997">
        <ele>52.4</ele>
        <time>2022-05-29T11:33:49Z</time>
      </trkpt>
      <trkpt lat="48.94744" lon="2.12997">
        <ele>52.3</ele>
        <time>2022-05-29T11:33:54Z</time>
      </trkpt>
      <trkpt lat="48.94747" lon="2.12999">
        <ele>52.2</ele>
        <time>2022-05-29T11:34:00Z</time>
      </trkpt>
      <trkpt lat="48.94747" lon="2.13">
        <ele>52.1</ele>
        <time>2022-05-29T11:34:06Z</time>
      </trkpt>
      <trkpt lat="48.94747" lon="2.13001">
        <ele>52.1</ele>
        <time>2022-05-29T11:34:11Z</time>
      </trkpt>
      <trkpt lat="48.94747" lon="2.13003">
        <ele>52.1</ele>
        <time>2022-05-29T11:34:16Z</time>
      </trkpt>
      <trkpt lat="48.94747" lon="2.13003">
        <ele>52.1</ele>
        <time>2022-05-29T11:34:22Z</time>
      </trkpt>
      <trkpt lat="48.94747" lon="2.13003">
        <ele>52.1</ele>
        <time>2022-05-29T11:34:28Z</time>
      </trkpt>
      <trkpt lat="48.94747" lon="2.13001">
        <ele>52.1</ele>
        <time>2022-05-29T11:34:34Z</time>
      </trkpt>
      <trkpt lat="48.94747" lon="2.12999">
        <ele>52.1</ele>
        <time>2022-05-29T11:34:39Z</time>
      </trkpt>
      <trkpt lat="48.94747" lon="2.12998">
        <ele>52.2</ele>
        <time>2022-05-29T11:34:44Z</time>
      </trkpt>
      <trkpt lat="48.94747" lon="2.12998">
        <ele>52.2</ele>
        <time>2022-05-29T11:34:50Z</time>
      </trkpt>
      <trkpt lat="48.94748" lon="2.12998">
        <ele>52.1</ele>
        <time>2022-05-29T11:34:56Z</time>
      </trkpt>
      <trkpt lat="48.94748" lon="2.12999">
        <ele>52.1</ele>
        <time>2022-05-29T11:35:01Z</time>
      </trkpt>
      <trkpt lat="48.94747" lon="2.13002">
        <ele>52.1</ele>
        <time>2022-05-29T11:35:07Z</time>
      </trkpt>
      <trkpt lat="48.94747" lon="2.13002">
        <ele>52.1</ele>
        <time>2022-05-29T11:35:13Z</time>
      </trkpt>
      <trkpt lat="48.94747" lon="2.13001">
        <ele>52.1</ele>
        <time>2022-05-29T11:35:18Z</time>
      </trkpt>
      <trkpt lat="48.94748" lon="2.12998">
        <ele>52.1</ele>
        <time>2022-05-29T11:35:24Z</time>
      </trkpt>
      <trkpt lat="48.94748" lon="2.12997">
        <ele>52.2</ele>
        <time>2022-05-29T11:35:30Z</time>
      </trkpt>
      <trkpt lat="48.94747" lon="2.12998">
        <ele>52.2</ele>
        <time>2022-05-29T11:35:35Z</time>
      </trkpt>
      <trkpt lat="48.94747" lon="2.12999">
        <ele>52.1</ele>
        <time>2022-05-29T11:35:41Z</time>
      </trkpt>
      <trkpt lat="48.94747" lon="2.13">
        <ele>52.1</ele>
        <time>2022-05-29T11:35:46Z</time>
      </trkpt>
      <trkpt lat="48.94747" lon="2.13">
        <ele>52.1</ele>
        <time>2022-05-29T11:35:51Z</time>
      </trkpt>
      <trkpt lat="48.94747" lon="2.13">
        <ele>52.1</ele>
        <time>2022-05-29T11:35:57Z</time>
      </trkpt>
      <trkpt lat="48.94747" lon="2.13">
        <ele>52.1</ele>
        <time>2022-05-29T11:36:02Z</time>
      </trkpt>
      <trkpt lat="48.94747" lon="2.13">
        <ele>52.1</ele>
        <time>2022-05-29T11:36:08Z</time>
      </trkpt>
      <trkpt lat="48.94747" lon="2.13001">
        <ele>52.1</ele>
        <time>2022-05-29T11:36:14Z</time>
      </trkpt>
      <trkpt lat="48.94748" lon="2.13001">
        <ele>52.1</ele>
        <time>2022-05-29T11:36:20Z</time>
      </trkpt>
      <trkpt lat="48.94749" lon="2.13002">
        <ele>52.1</ele>
        <time>2022-05-29T11:36:26Z</time>
      </trkpt>
      <trkpt lat="48.94749" lon="2.13002">
        <ele>52</ele>
        <time>2022-05-29T11:36:32Z</time>
      </trkpt>
      <trkpt lat="48.94749" lon="2.13002">
        <ele>52</ele>
        <time>2022-05-29T11:36:37Z</time>
      </trkpt>
      <trkpt lat="48.94749" lon="2.13001">
        <ele>52</ele>
        <time>2022-05-29T11:36:43Z</time>
      </trkpt>
      <trkpt lat="48.94749" lon="2.13">
        <ele>52</ele>
        <time>2022-05-29T11:36:48Z</time>
      </trkpt>
      <trkpt lat="48.94749" lon="2.12999">
        <ele>52.1</ele>
        <time>2022-05-29T11:36:54Z</time>
      </trkpt>
      <trkpt lat="48.94749" lon="2.12999">
        <ele>52.1</ele>
        <time>2022-05-29T11:36:59Z</time>
      </trkpt>
      <trkpt lat="48.94749" lon="2.12998">
        <ele>52.1</ele>
        <time>2022-05-29T11:37:04Z</time>
      </trkpt>
      <trkpt lat="48.94748" lon="2.12997">
        <ele>52.2</ele>
        <time>2022-05-29T11:37:10Z</time>
      </trkpt>
      <trkpt lat="48.94747" lon="2.12997">
        <ele>52.2</ele>
        <time>2022-05-29T11:37:16Z</time>
      </trkpt>
      <trkpt lat="48.94746" lon="2.12997">
        <ele>52.2</ele>
        <time>2022-05-29T11:37:22Z</time>
      </trkpt>
      <trkpt lat="48.94746" lon="2.12997">
        <ele>52.2</ele>
        <time>2022-05-29T11:37:27Z</time>
      </trkpt>
      <trkpt lat="48.94745" lon="2.12997">
        <ele>52.3</ele>
        <time>2022-05-29T11:37:33Z</time>
      </trkpt>
      <trkpt lat="48.94745" lon="2.12997">
        <ele>52.3</ele>
        <time>2022-05-29T11:37:38Z</time>
      </trkpt>
      <trkpt lat="48.94745" lon="2.12997">
        <ele>52.3</ele>
        <time>2022-05-29T11:37:43Z</time>
      </trkpt>
      <trkpt lat="48.94744" lon="2.12998">
        <ele>52.3</ele>
        <time>2022-05-29T11:37:48Z</time>
      </trkpt>
      <trkpt lat="48.94744" lon="2.12998">
        <ele>52.3</ele>
        <time>2022-05-29T11:37:54Z</time>
      </trkpt>
      <trkpt lat="48.94743" lon="2.12998">
        <ele>52.3</ele>
        <time>2022-05-29T11:38:00Z</time>
      </trkpt>
      <trkpt lat="48.94743" lon="2.12998">
        <ele>52.3</ele>
        <time>2022-05-29T11:38:06Z</time>
      </trkpt>
      <trkpt lat="48.94743" lon="2.12998">
        <ele>52.3</ele>
        <time>2022-05-29T11:38:12Z</time>
      </trkpt>
      <trkpt lat="48.94743" lon="2.12999">
        <ele>52.3</ele>
        <time>2022-05-29T11:38:18Z</time>
      </trkpt>
      <trkpt lat="48.94743" lon="2.12999">
        <ele>52.3</ele>
        <time>2022-05-29T11:38:23Z</time>
      </trkpt>
      <trkpt lat="48.94743" lon="2.12999">
        <ele>52.3</ele>
        <time>2022-05-29T11:38:28Z</time>
      </trkpt>
      <trkpt lat="48.94743" lon="2.13">
        <ele>52.3</ele>
        <time>2022-05-29T11:38:34Z</time>
      </trkpt>
      <trkpt lat="48.94743" lon="2.13">
        <ele>52.3</ele>
        <time>2022-05-29T11:38:40Z</time>
      </trkpt>
      <trkpt lat="48.94743" lon="2.13001">
        <ele>52.3</ele>
        <time>2022-05-29T11:38:45Z</time>
      </trkpt>
      <trkpt lat="48.94742" lon="2.13001">
        <ele>52.3</ele>
        <time>2022-05-29T11:38:51Z</time>
      </trkpt>
      <trkpt lat="48.94742" lon="2.13">
        <ele>52.3</ele>
        <time>2022-05-29T11:38:57Z</time>
      </trkpt>
      <trkpt lat="48.94742" lon="2.13">
        <ele>52.3</ele>
        <time>2022-05-29T11:39:03Z</time>
      </trkpt>
      <trkpt lat="48.94742" lon="2.13">
        <ele>52.3</ele>
        <time>2022-05-29T11:39:09Z</time>
      </trkpt>
      <trkpt lat="48.94742" lon="2.13">
        <ele>52.3</ele>
        <time>2022-05-29T11:39:14Z</time>
      </trkpt>
      <trkpt lat="48.94742" lon="2.12999">
        <ele>52.3</ele>
        <time>2022-05-29T11:39:20Z</time>
      </trkpt>
      <trkpt lat="48.94742" lon="2.12999">
        <ele>52.3</ele>
        <time>2022-05-29T11:39:26Z</time>
      </trkpt>
      <trkpt lat="48.94742" lon="2.12999">
        <ele>52.3</ele>
        <time>2022-05-29T11:39:31Z</time>
      </trkpt>
      <trkpt lat="48.94742" lon="2.12998">
        <ele>52.3</ele>
        <time>2022-05-29T11:39:37Z</time>
      </trkpt>
      <trkpt lat="48.94741" lon="2.12998">
        <ele>52.3</ele>
        <time>2022-05-29T11:39:42Z</time>
      </trkpt>
      <trkpt lat="48.94742" lon="2.12999">
        <ele>52.3</ele>
        <time>2022-05-29T11:39:48Z</time>
      </trkpt>
      <trkpt lat="48.94742" lon="2.12999">
        <ele>52.3</ele>
        <time>2022-05-29T11:39:53Z</time>
      </trkpt>
      <trkpt lat="48.94743" lon="2.13">
        <ele>52.3</ele>
        <time>2022-05-29T11:39:58Z</time>
      </trkpt>
      <trkpt lat="48.94743" lon="2.13">
        <ele>52.3</ele>
        <time>2022-05-29T11:40:04Z</time>
      </trkpt>
      <trkpt lat="48.94742" lon="2.12999">
        <ele>52.3</ele>
        <time>2022-05-29T11:40:10Z</time>
      </trkpt>
      <trkpt lat="48.94742" lon="2.12999">
        <ele>52.3</ele>
        <time>2022-05-29T11:40:16Z</time>
      </trkpt>
      <trkpt lat="48.94742" lon="2.12998">
        <ele>52.3</ele>
        <time>2022-05-29T11:40:21Z</time>
      </trkpt>
      <trkpt lat="48.94741" lon="2.12998">
        <ele>52.4</ele>
        <time>2022-05-29T11:40:27Z</time>
      </trkpt>
      <trkpt lat="48.94741" lon="2.12998">
        <ele>52.4</ele>
        <time>2022-05-29T11:40:33Z</time>
      </trkpt>
      <trkpt lat="48.94741" lon="2.12998">
        <ele>52.4</ele>
        <time>2022-05-29T11:40:39Z</time>
      </trkpt>
      <trkpt lat="48.94741" lon="2.12998">
        <ele>52.4</ele>
        <time>2022-05-29T11:40:44Z</time>
      </trkpt>
      <trkpt lat="48.94741" lon="2.12998">
        <ele>52.4</ele>
        <time>2022-05-29T11:40:50Z</time>
      </trkpt>
      <trkpt lat="48.94741" lon="2.12998">
        <ele>52.4</ele>
        <time>2022-05-29T11:40:55Z</time>
      </trkpt>
      <trkpt lat="48.94742" lon="2.12998">
        <ele>52.3</ele>
        <time>2022-05-29T11:41:00Z</time>
      </trkpt>
      <trkpt lat="48.94742" lon="2.12998">
        <ele>52.3</ele>
        <time>2022-05-29T11:41:06Z</time>
      </trkpt>
      <trkpt lat="48.94742" lon="2.12998">
        <ele>52.3</ele>
        <time>2022-05-29T11:41:11Z</time>
      </trkpt>
      <trkpt lat="48.94742" lon="2.12998">
        <ele>52.3</ele>
        <time>2022-05-29T11:41:17Z</time>
      </trkpt>
      <trkpt lat="48.94743" lon="2.12998">
        <ele>52.3</ele>
        <time>2022-05-29T11:41:22Z</time>
      </trkpt>
      <trkpt lat="48.94743" lon="2.12998">
        <ele>52.3</ele>
        <time>2022-05-29T11:41:28Z</time>
      </trkpt>
      <trkpt lat="48.94743" lon="2.12999">
        <ele>52.3</ele>
        <time>2022-05-29T11:41:33Z</time>
      </trkpt>
      <trkpt lat="48.94743" lon="2.12999">
        <ele>52.3</ele>
        <time>2022-05-29T11:41:39Z</time>
      </trkpt>
      <trkpt lat="48.94743" lon="2.12999">
        <ele>52.3</ele>
        <time>2022-05-29T11:41:44Z</time>
      </trkpt>
      <trkpt lat="48.94743" lon="2.13">
        <ele>52.2</ele>
        <time>2022-05-29T11:41:50Z</time>
      </trkpt>
      <trkpt lat="48.94743" lon="2.13">
        <ele>52.2</ele>
        <time>2022-05-29T11:41:55Z</time>
      </trkpt>
      <trkpt lat="48.94743" lon="2.13">
        <ele>52.3</ele>
        <time>2022-05-29T11:42:01Z</time>
      </trkpt>
      <trkpt lat="48.94743" lon="2.12999">
        <ele>52.3</ele>
        <time>2022-05-29T11:42:07Z</time>
      </trkpt>
      <trkpt lat="48.94743" lon="2.12999">
        <ele>52.3</ele>
        <time>2022-05-29T11:42:12Z</time>
      </trkpt>
      <trkpt lat="48.94743" lon="2.12999">
        <ele>52.3</ele>
        <time>2022-05-29T11:42:17Z</time>
      </trkpt>
      <trkpt lat="48.94743" lon="2.12999">
        <ele>52.3</ele>
        <time>2022-05-29T11:42:23Z</time>
      </trkpt>
      <trkpt lat="48.94743" lon="2.12999">
        <ele>52.3</ele>
        <time>2022-05-29T11:42:29Z</time>
      </trkpt>
      <trkpt lat="48.94743" lon="2.12999">
        <ele>52.3</ele>
        <time>2022-05-29T11:42:34Z</time>
      </trkpt>
      <trkpt lat="48.94744" lon="2.12999">
        <ele>52.2</ele>
        <time>2022-05-29T11:42:40Z</time>
      </trkpt>
      <trkpt lat="48.94744" lon="2.12999">
        <ele>52.2</ele>
        <time>2022-05-29T11:42:45Z</time>
      </trkpt>
      <trkpt lat="48.94744" lon="2.12999">
        <ele>52.2</ele>
        <time>2022-05-29T11:42:51Z</time>
      </trkpt>
      <trkpt lat="48.94744" lon="2.12999">
        <ele>52.2</ele>
        <time>2022-05-29T11:42:56Z</time>
      </trkpt>
      <trkpt lat="48.94744" lon="2.12999">
        <ele>52.2</ele>
        <time>2022-05-29T11:43:01Z</time>
      </trkpt>
      <trkpt lat="48.94745" lon="2.12999">
        <ele>52.2</ele>
        <time>2022-05-29T11:43:07Z</time>
      </trkpt>
      <trkpt lat="48.94745" lon="2.12999">
        <ele>52.2</ele>
        <time>2022-05-29T11:43:13Z</time>
      </trkpt>
      <trkpt lat="48.94745" lon="2.12998">
        <ele>52.2</ele>
        <time>2022-05-29T11:43:18Z</time>
      </trkpt>
      <trkpt lat="48.94745" lon="2.12998">
        <ele>52.2</ele>
        <time>2022-05-29T11:43:24Z</time>
      </trkpt>
      <trkpt lat="48.94745" lon="2.12997">
        <ele>52.2</ele>
        <time>2022-05-29T11:43:30Z</time>
      </trkpt>
      <trkpt lat="48.94745" lon="2.12997">
        <ele>52.3</ele>
        <time>2022-05-29T11:43:35Z</time>
      </trkpt>
      <trkpt lat="48.94745" lon="2.12997">
        <ele>52.3</ele>
        <time>2022-05-29T11:43:41Z</time>
      </trkpt>
      <trkpt lat="48.94745" lon="2.12996">
        <ele>52.3</ele>
        <time>2022-05-29T11:43:46Z</time>
      </trkpt>
      <trkpt lat="48.94745" lon="2.12996">
        <ele>52.3</ele>
        <time>2022-05-29T11:43:52Z</time>
      </trkpt>
      <trkpt lat="48.94746" lon="2.12996">
        <ele>52.3</ele>
        <time>2022-05-29T11:43:57Z</time>
      </trkpt>
      <trkpt lat="48.94746" lon="2.12995">
        <ele>52.3</ele>
        <time>2022-05-29T11:44:02Z</time>
      </trkpt>
      <trkpt lat="48.94746" lon="2.12995">
        <ele>52.3</ele>
        <time>2022-05-29T11:44:08Z</time>
      </trkpt>
      <trkpt lat="48.94746" lon="2.12996">
        <ele>52.3</ele>
        <time>2022-05-29T11:44:13Z</time>
      </trkpt>
      <trkpt lat="48.94747" lon="2.12996">
        <ele>52.2</ele>
        <time>2022-05-29T11:44:18Z</time>
      </trkpt>
      <trkpt lat="48.94747" lon="2.12997">
        <ele>52.2</ele>
        <time>2022-05-29T11:44:24Z</time>
      </trkpt>
      <trkpt lat="48.94747" lon="2.12997">
        <ele>52.2</ele>
        <time>2022-05-29T11:44:30Z</time>
      </trkpt>
      <trkpt lat="48.94747" lon="2.12997">
        <ele>52.2</ele>
        <time>2022-05-29T11:44:36Z</time>
      </trkpt>
      <trkpt lat="48.94748" lon="2.12997">
        <ele>52.2</ele>
        <time>2022-05-29T11:44:41Z</time>
      </trkpt>
      <trkpt lat="48.94748" lon="2.12998">
        <ele>52.2</ele>
        <time>2022-05-29T11:44:47Z</time>
      </trkpt>
      <trkpt lat="48.94748" lon="2.12998">
        <ele>52.1</ele>
        <time>2022-05-29T11:44:53Z</time>
      </trkpt>
      <trkpt lat="48.94747" lon="2.12999">
        <ele>52.1</ele>
        <time>2022-05-29T11:44:59Z</time>
      </trkpt>
      <trkpt lat="48.94747" lon="2.12999">
        <ele>52.1</ele>
        <time>2022-05-29T11:45:04Z</time>
      </trkpt>
      <trkpt lat="48.94748" lon="2.12999">
        <ele>52.1</ele>
        <time>2022-05-29T11:45:09Z</time>
      </trkpt>
      <trkpt lat="48.94748" lon="2.12999">
        <ele>52.1</ele>
        <time>2022-05-29T11:45:15Z</time>
      </trkpt>
      <trkpt lat="48.94748" lon="2.12999">
        <ele>52.1</ele>
        <time>2022-05-29T11:45:20Z</time>
      </trkpt>
      <trkpt lat="48.9475" lon="2.12999">
        <ele>52</ele>
        <time>2022-05-29T11:45:26Z</time>
      </trkpt>
      <trkpt lat="48.9475" lon="2.13">
        <ele>52</ele>
        <time>2022-05-29T11:45:32Z</time>
      </trkpt>
      <trkpt lat="48.94751" lon="2.13">
        <ele>52</ele>
        <time>2022-05-29T11:45:38Z</time>
      </trkpt>
      <trkpt lat="48.94751" lon="2.12999">
        <ele>52</ele>
        <time>2022-05-29T11:45:43Z</time>
      </trkpt>
      <trkpt lat="48.94751" lon="2.12999">
        <ele>52.1</ele>
        <time>2022-05-29T11:45:49Z</time>
      </trkpt>
      <trkpt lat="48.9475" lon="2.12998">
        <ele>52.1</ele>
        <time>2022-05-29T11:45:54Z</time>
      </trkpt>
      <trkpt lat="48.9475" lon="2.12998">
        <ele>52.1</ele>
        <time>2022-05-29T11:45:59Z</time>
      </trkpt>
      <trkpt lat="48.9475" lon="2.12998">
        <ele>52.1</ele>
        <time>2022-05-29T11:46:05Z</time>
      </trkpt>
      <trkpt lat="48.9475" lon="2.12998">
        <ele>52.1</ele>
        <time>2022-05-29T11:46:10Z</time>
      </trkpt>
      <trkpt lat="48.9475" lon="2.12997">
        <ele>52.1</ele>
        <time>2022-05-29T11:46:16Z</time>
      </trkpt>
      <trkpt lat="48.9475" lon="2.12997">
        <ele>52.1</ele>
        <time>2022-05-29T11:46:21Z</time>
      </trkpt>
      <trkpt lat="48.9475" lon="2.12997">
        <ele>52.1</ele>
        <time>2022-05-29T11:46:27Z</time>
      </trkpt>
      <trkpt lat="48.94749" lon="2.12996">
        <ele>52.2</ele>
        <time>2022-05-29T11:46:32Z</time>
      </trkpt>
      <trkpt lat="48.94749" lon="2.12996">
        <ele>52.2</ele>
        <time>2022-05-29T11:46:38Z</time>
      </trkpt>
      <trkpt lat="48.94749" lon="2.12997">
        <ele>52.1</ele>
        <time>2022-05-29T11:46:44Z</time>
      </trkpt>
      <trkpt lat="48.9475" lon="2.12999">
        <ele>52</ele>
        <time>2022-05-29T11:46:50Z</time>
      </trkpt>
      <trkpt lat="48.94751" lon="2.13001">
        <ele>52</ele>
        <time>2022-05-29T11:46:55Z</time>
      </trkpt>
      <trkpt lat="48.94751" lon="2.13001">
        <ele>52</ele>
        <time>2022-05-29T11:47:01Z</time>
      </trkpt>
      <trkpt lat="48.94751" lon="2.13001">
        <ele>52</ele>
        <time>2022-05-29T11:47:07Z</time>
      </trkpt>
      <trkpt lat="48.94751" lon="2.13001">
        <ele>52</ele>
        <time>2022-05-29T11:47:13Z</time>
      </trkpt>
      <trkpt lat="48.94751" lon="2.13">
        <ele>52.1</ele>
        <time>2022-05-29T11:47:19Z</time>
      </trkpt>
      <trkpt lat="48.94752" lon="2.12999">
        <ele>52.1</ele>
        <time>2022-05-29T11:47:24Z</time>
      </trkpt>
      <trkpt lat="48.94751" lon="2.12998">
        <ele>52.1</ele>
        <time>2022-05-29T11:47:30Z</time>
      </trkpt>
      <trkpt lat="48.94751" lon="2.12998">
        <ele>52.1</ele>
        <time>2022-05-29T11:47:35Z</time>
      </trkpt>
      <trkpt lat="48.94751" lon="2.12997">
        <ele>52.1</ele>
        <time>2022-05-29T11:47:41Z</time>
      </trkpt>
      <trkpt lat="48.94751" lon="2.12997">
        <ele>52.2</ele>
        <time>2022-05-29T11:47:46Z</time>
      </trkpt>
      <trkpt lat="48.94752" lon="2.12997">
        <ele>52.2</ele>
        <time>2022-05-29T11:47:52Z</time>
      </trkpt>
      <trkpt lat="48.94752" lon="2.12997">
        <ele>52.2</ele>
        <time>2022-05-29T11:47:57Z</time>
      </trkpt>
      <trkpt lat="48.94752" lon="2.12997">
        <ele>52.2</ele>
        <time>2022-05-29T11:48:03Z</time>
      </trkpt>
      <trkpt lat="48.94752" lon="2.12997">
        <ele>52.2</ele>
        <time>2022-05-29T11:48:09Z</time>
      </trkpt>
      <trkpt lat="48.94752" lon="2.12997">
        <ele>52.2</ele>
        <time>2022-05-29T11:48:15Z</time>
      </trkpt>
      <trkpt lat="48.94752" lon="2.12998">
        <ele>52.1</ele>
        <time>2022-05-29T11:48:21Z</time>
      </trkpt>
      <trkpt lat="48.94752" lon="2.12998">
        <ele>52.1</ele>
        <time>2022-05-29T11:48:27Z</time>
      </trkpt>
      <trkpt lat="48.94752" lon="2.12999">
        <ele>52.1</ele>
        <time>2022-05-29T11:48:32Z</time>
      </trkpt>
      <trkpt lat="48.94752" lon="2.12998">
        <ele>52.1</ele>
        <time>2022-05-29T11:48:38Z</time>
      </trkpt>
      <trkpt lat="48.94752" lon="2.12998">
        <ele>52.1</ele>
        <time>2022-05-29T11:48:43Z</time>
      </trkpt>
      <trkpt lat="48.94752" lon="2.12998">
        <ele>52.1</ele>
        <time>2022-05-29T11:48:49Z</time>
      </trkpt>
      <trkpt lat="48.94752" lon="2.12998">
        <ele>52.1</ele>
        <time>2022-05-29T11:48:54Z</time>
      </trkpt>
      <trkpt lat="48.94752" lon="2.12998">
        <ele>52.1</ele>
        <time>2022-05-29T11:49:00Z</time>
      </trkpt>
      <trkpt lat="48.94752" lon="2.12997">
        <ele>52.2</ele>
        <time>2022-05-29T11:49:05Z</time>
      </trkpt>
      <trkpt lat="48.94752" lon="2.12997">
        <ele>52.2</ele>
        <time>2022-05-29T11:49:11Z</time>
      </trkpt>
      <trkpt lat="48.94752" lon="2.12997">
        <ele>52.2</ele>
        <time>2022-05-29T11:49:16Z</time>
      </trkpt>
      <trkpt lat="48.94752" lon="2.12997">
        <ele>52.2</ele>
        <time>2022-05-29T11:49:22Z</time>
      </trkpt>
      <trkpt lat="48.94752" lon="2.12997">
        <ele>52.2</ele>
        <time>2022-05-29T11:49:27Z</time>
      </trkpt>
      <trkpt lat="48.94752" lon="2.12997">
        <ele>52.2</ele>
        <time>2022-05-29T11:49:33Z</time>
      </trkpt>
      <trkpt lat="48.94752" lon="2.12997">
        <ele>52.2</ele>
        <time>2022-05-29T11:49:39Z</time>
      </trkpt>
      <trkpt lat="48.94752" lon="2.12997">
        <ele>52.2</ele>
        <time>2022-05-29T11:49:44Z</time>
      </trkpt>
      <trkpt lat="48.94752" lon="2.12997">
        <ele>52.2</ele>
        <time>2022-05-29T11:49:49Z</time>
      </trkpt>
      <trkpt lat="48.94752" lon="2.12998">
        <ele>52.2</ele>
        <time>2022-05-29T11:49:55Z</time>
      </trkpt>
      <trkpt lat="48.94752" lon="2.12998">
        <ele>52.2</ele>
        <time>2022-05-29T11:50:00Z</time>
      </trkpt>
      <trkpt lat="48.94752" lon="2.12998">
        <ele>52.2</ele>
        <time>2022-05-29T11:50:06Z</time>
      </trkpt>
      <trkpt lat="48.94752" lon="2.12998">
        <ele>52.1</ele>
        <time>2022-05-29T11:50:11Z</time>
      </trkpt>
      <trkpt lat="48.94752" lon="2.12998">
        <ele>52.1</ele>
        <time>2022-05-29T11:50:17Z</time>
      </trkpt>
      <trkpt lat="48.94752" lon="2.12998">
        <ele>52.1</ele>
        <time>2022-05-29T11:50:22Z</time>
      </trkpt>
      <trkpt lat="48.94752" lon="2.12999">
        <ele>52.1</ele>
        <time>2022-05-29T11:50:28Z</time>
      </trkpt>
      <trkpt lat="48.94752" lon="2.12999">
        <ele>52.1</ele>
        <time>2022-05-29T11:50:34Z</time>
      </trkpt>
      <trkpt lat="48.94752" lon="2.12999">
        <ele>52.1</ele>
        <time>2022-05-29T11:50:39Z</time>
      </trkpt>
      <trkpt lat="48.94752" lon="2.12999">
        <ele>52.1</ele>
        <time>2022-05-29T11:50:44Z</time>
      </trkpt>
      <trkpt lat="48.94752" lon="2.13">
        <ele>52.1</ele>
        <time>2022-05-29T11:50:49Z</time>
      </trkpt>
      <trkpt lat="48.94752" lon="2.13">
        <ele>52.1</ele>
        <time>2022-05-29T11:50:55Z</time>
      </trkpt>
      <trkpt lat="48.94752" lon="2.12999">
        <ele>52.1</ele>
        <time>2022-05-29T11:51:01Z</time>
      </trkpt>
      <trkpt lat="48.94752" lon="2.12999">
        <ele>52.1</ele>
        <time>2022-05-29T11:51:06Z</time>
      </trkpt>
      <trkpt lat="48.94752" lon="2.12998">
        <ele>52.1</ele>
        <time>2022-05-29T11:51:12Z</time>
      </trkpt>
      <trkpt lat="48.94751" lon="2.12998">
        <ele>52.1</ele>
        <time>2022-05-29T11:51:17Z</time>
      </trkpt>
      <trkpt lat="48.94751" lon="2.12998">
        <ele>52.1</ele>
        <time>2022-05-29T11:51:22Z</time>
      </trkpt>
      <trkpt lat="48.9475" lon="2.12998">
        <ele>52.1</ele>
        <time>2022-05-29T11:51:28Z</time>
      </trkpt>
      <trkpt lat="48.9475" lon="2.12998">
        <ele>52.1</ele>
        <time>2022-05-29T11:51:33Z</time>
      </trkpt>
      <trkpt lat="48.9475" lon="2.12999">
        <ele>52.1</ele>
        <time>2022-05-29T11:51:39Z</time>
      </trkpt>
      <trkpt lat="48.94749" lon="2.12999">
        <ele>52.1</ele>
        <time>2022-05-29T11:51:44Z</time>
      </trkpt>
      <trkpt lat="48.94749" lon="2.12999">
        <ele>52.1</ele>
        <time>2022-05-29T11:51:50Z</time>
      </trkpt>
      <trkpt lat="48.94749" lon="2.12999">
        <ele>52.1</ele>
        <time>2022-05-29T11:51:56Z</time>
      </trkpt>
      <trkpt lat="48.94749" lon="2.12999">
        <ele>52.1</ele>
        <time>2022-05-29T11:52:02Z</time>
      </trkpt>
      <trkpt lat="48.94749" lon="2.12999">
        <ele>52.1</ele>
        <time>2022-05-29T11:52:07Z</time>
      </trkpt>
      <trkpt lat="48.94749" lon="2.12999">
        <ele>52.1</ele>
        <time>2022-05-29T11:52:13Z</time>
      </trkpt>
      <trkpt lat="48.94749" lon="2.12999">
        <ele>52.1</ele>
        <time>2022-05-29T11:52:18Z</time>
      </trkpt>
      <trkpt lat="48.94749" lon="2.12999">
        <ele>52.1</ele>
        <time>2022-05-29T11:52:24Z</time>
      </trkpt>
      <trkpt lat="48.94749" lon="2.12999">
        <ele>52.1</ele>
        <time>2022-05-29T11:52:30Z</time>
      </trkpt>
      <trkpt lat="48.9475" lon="2.13">
        <ele>52</ele>
        <time>2022-05-29T11:52:35Z</time>
      </trkpt>
      <trkpt lat="48.9475" lon="2.13">
        <ele>52</ele>
        <time>2022-05-29T11:52:41Z</time>
      </trkpt>
      <trkpt lat="48.9475" lon="2.13001">
        <ele>52</ele>
        <time>2022-05-29T11:52:46Z</time>
      </trkpt>
      <trkpt lat="48.94749" lon="2.13002">
        <ele>52</ele>
        <time>2022-05-29T11:52:51Z</time>
      </trkpt>
      <trkpt lat="48.94749" lon="2.13002">
        <ele>52</ele>
        <time>2022-05-29T11:52:56Z</time>
      </trkpt>
      <trkpt lat="48.94749" lon="2.13002">
        <ele>52</ele>
        <time>2022-05-29T11:53:02Z</time>
      </trkpt>
      <trkpt lat="48.94749" lon="2.13002">
        <ele>52</ele>
        <time>2022-05-29T11:53:08Z</time>
      </trkpt>
      <trkpt lat="48.94748" lon="2.13002">
        <ele>52.1</ele>
        <time>2022-05-29T11:53:14Z</time>
      </trkpt>
      <trkpt lat="48.94748" lon="2.13001">
        <ele>52.1</ele>
        <time>2022-05-29T11:53:20Z</time>
      </trkpt>
      <trkpt lat="48.94748" lon="2.13001">
        <ele>52.1</ele>
        <time>2022-05-29T11:53:26Z</time>
      </trkpt>
      <trkpt lat="48.94748" lon="2.13001">
        <ele>52.1</ele>
        <time>2022-05-29T11:53:32Z</time>
      </trkpt>
      <trkpt lat="48.94747" lon="2.13001">
        <ele>52.1</ele>
        <time>2022-05-29T11:53:37Z</time>
      </trkpt>
      <trkpt lat="48.94747" lon="2.13001">
        <ele>52.1</ele>
        <time>2022-05-29T11:53:43Z</time>
      </trkpt>
      <trkpt lat="48.94747" lon="2.13001">
        <ele>52.1</ele>
        <time>2022-05-29T11:53:49Z</time>
      </trkpt>
      <trkpt lat="48.94747" lon="2.13001">
        <ele>52.1</ele>
        <time>2022-05-29T11:53:55Z</time>
      </trkpt>
      <trkpt lat="48.94746" lon="2.13001">
        <ele>52.1</ele>
        <time>2022-05-29T11:54:01Z</time>
      </trkpt>
      <trkpt lat="48.94746" lon="2.13001">
        <ele>52.1</ele>
        <time>2022-05-29T11:54:06Z</time>
      </trkpt>
      <trkpt lat="48.94746" lon="2.13001">
        <ele>52.1</ele>
        <time>2022-05-29T11:54:12Z</time>
      </trkpt>
      <trkpt lat="48.94746" lon="2.13001">
        <ele>52.1</ele>
        <time>2022-05-29T11:54:17Z</time>
      </trkpt>
      <trkpt lat="48.94746" lon="2.13">
        <ele>52.1</ele>
        <time>2022-05-29T11:54:23Z</time>
      </trkpt>
      <trkpt lat="48.94746" lon="2.13">
        <ele>52.1</ele>
        <time>2022-05-29T11:54:28Z</time>
      </trkpt>
      <trkpt lat="48.94746" lon="2.13">
        <ele>52.1</ele>
        <time>2022-05-29T11:54:34Z</time>
      </trkpt>
      <trkpt lat="48.94746" lon="2.13">
        <ele>52.1</ele>
        <time>2022-05-29T11:54:39Z</time>
      </trkpt>
      <trkpt lat="48.94746" lon="2.13">
        <ele>52.1</ele>
        <time>2022-05-29T11:54:45Z</time>
      </trkpt>
      <trkpt lat="48.94746" lon="2.13">
        <ele>52.1</ele>
        <time>2022-05-29T11:54:50Z</time>
      </trkpt>
      <trkpt lat="48.94746" lon="2.13">
        <ele>52.1</ele>
        <time>2022-05-29T11:54:56Z</time>
      </trkpt>
      <trkpt lat="48.94746" lon="2.13">
        <ele>52.1</ele>
        <time>2022-05-29T11:55:01Z</time>
      </trkpt>
      <trkpt lat="48.94746" lon="2.13">
        <ele>52.1</ele>
        <time>2022-05-29T11:55:07Z</time>
      </trkpt>
      <trkpt lat="48.94746" lon="2.13">
        <ele>52.1</ele>
        <time>2022-05-29T11:55:12Z</time>
      </trkpt>
      <trkpt lat="48.94746" lon="2.13">
        <ele>52.1</ele>
        <time>2022-05-29T11:55:18Z</time>
      </trkpt>
      <trkpt lat="48.94746" lon="2.13001">
        <ele>52.1</ele>
        <time>2022-05-29T11:55:24Z</time>
      </trkpt>
      <trkpt lat="48.94746" lon="2.13001">
        <ele>52.1</ele>
        <time>2022-05-29T11:55:29Z</time>
      </trkpt>
      <trkpt lat="48.94746" lon="2.13001">
        <ele>52.1</ele>
        <time>2022-05-29T11:55:35Z</time>
      </trkpt>
      <trkpt lat="48.94746" lon="2.13001">
        <ele>52.1</ele>
        <time>2022-05-29T11:55:40Z</time>
      </trkpt>
      <trkpt lat="48.94746" lon="2.13001">
        <ele>52.1</ele>
        <time>2022-05-29T11:55:45Z</time>
      </trkpt>
      <trkpt lat="48.94746" lon="2.13001">
        <ele>52.1</ele>
        <time>2022-05-29T11:55:51Z</time>
      </trkpt>
      <trkpt lat="48.94746" lon="2.13002">
        <ele>52.1</ele>
        <time>2022-05-29T11:55:56Z</time>
      </trkpt>
      <trkpt lat="48.94746" lon="2.13002">
        <ele>52.1</ele>
        <time>2022-05-29T11:56:01Z</time>
      </trkpt>
      <trkpt lat="48.94746" lon="2.13002">
        <ele>52.1</ele>
        <time>2022-05-29T11:56:07Z</time>
      </trkpt>
      <trkpt lat="48.94746" lon="2.13003">
        <ele>52.2</ele>
        <time>2022-05-29T11:56:13Z</time>
      </trkpt>
      <trkpt lat="48.94746" lon="2.13003">
        <ele>52.2</ele>
        <time>2022-05-29T11:56:19Z</time>
      </trkpt>
      <trkpt lat="48.94746" lon="2.13003">
        <ele>52.2</ele>
        <time>2022-05-29T11:56:24Z</time>
      </trkpt>
      <trkpt lat="48.94746" lon="2.13003">
        <ele>52.1</ele>
        <time>2022-05-29T11:56:30Z</time>
      </trkpt>
      <trkpt lat="48.94746" lon="2.13002">
        <ele>52.1</ele>
        <time>2022-05-29T11:56:36Z</time>
      </trkpt>
      <trkpt lat="48.94746" lon="2.13002">
        <ele>52.1</ele>
        <time>2022-05-29T11:56:41Z</time>
      </trkpt>
      <trkpt lat="48.94746" lon="2.13002">
        <ele>52.1</ele>
        <time>2022-05-29T11:56:47Z</time>
      </trkpt>
      <trkpt lat="48.94747" lon="2.13002">
        <ele>52.1</ele>
        <time>2022-05-29T11:56:53Z</time>
      </trkpt>
      <trkpt lat="48.94747" lon="2.13002">
        <ele>52.1</ele>
        <time>2022-05-29T11:56:59Z</time>
      </trkpt>
      <trkpt lat="48.94747" lon="2.13001">
        <ele>52.1</ele>
        <time>2022-05-29T11:57:05Z</time>
      </trkpt>
      <trkpt lat="48.94747" lon="2.13001">
        <ele>52.1</ele>
        <time>2022-05-29T11:57:11Z</time>
      </trkpt>
      <trkpt lat="48.94747" lon="2.13001">
        <ele>52.1</ele>
        <time>2022-05-29T11:57:16Z</time>
      </trkpt>
      <trkpt lat="48.94747" lon="2.13001">
        <ele>52.1</ele>
        <time>2022-05-29T11:57:22Z</time>
      </trkpt>
      <trkpt lat="48.94747" lon="2.13001">
        <ele>52.1</ele>
        <time>2022-05-29T11:57:28Z</time>
      </trkpt>
      <trkpt lat="48.94747" lon="2.13001">
        <ele>52.1</ele>
        <time>2022-05-29T11:57:33Z</time>
      </trkpt>
      <trkpt lat="48.94747" lon="2.13001">
        <ele>52.1</ele>
        <time>2022-05-29T11:57:39Z</time>
      </trkpt>
      <trkpt lat="48.94747" lon="2.13">
        <ele>52.1</ele>
        <time>2022-05-29T11:57:44Z</time>
      </trkpt>
      <trkpt lat="48.94747" lon="2.13">
        <ele>52.1</ele>
        <time>2022-05-29T11:57:50Z</time>
      </trkpt>
      <trkpt lat="48.94747" lon="2.13">
        <ele>52.1</ele>
        <time>2022-05-29T11:57:56Z</time>
      </trkpt>
      <trkpt lat="48.94747" lon="2.13">
        <ele>52.1</ele>
        <time>2022-05-29T11:58:01Z</time>
      </trkpt>
      <trkpt lat="48.94747" lon="2.12999">
        <ele>52.1</ele>
        <time>2022-05-29T11:58:07Z</time>
      </trkpt>
      <trkpt lat="48.94747" lon="2.12999">
        <ele>52.2</ele>
        <time>2022-05-29T11:58:12Z</time>
      </trkpt>
      <trkpt lat="48.94748" lon="2.12999">
        <ele>52.1</ele>
        <time>2022-05-29T11:58:18Z</time>
      </trkpt>
      <trkpt lat="48.94748" lon="2.12999">
        <ele>52.1</ele>
        <time>2022-05-29T11:58:24Z</time>
      </trkpt>
      <trkpt lat="48.94749" lon="2.12999">
        <ele>52.1</ele>
        <time>2022-05-29T11:58:30Z</time>
      </trkpt>
      <trkpt lat="48.94749" lon="2.12999">
        <ele>52.1</ele>
        <time>2022-05-29T11:58:36Z</time>
      </trkpt>
      <trkpt lat="48.94749" lon="2.12999">
        <ele>52.1</ele>
        <time>2022-05-29T11:58:42Z</time>
      </trkpt>
      <trkpt lat="48.94749" lon="2.13">
        <ele>52.1</ele>
        <time>2022-05-29T11:58:47Z</time>
      </trkpt>
      <trkpt lat="48.94749" lon="2.13">
        <ele>52</ele>
        <time>2022-05-29T11:58:53Z</time>
      </trkpt>
      <trkpt lat="48.94749" lon="2.13001">
        <ele>52</ele>
        <time>2022-05-29T11:58:58Z</time>
      </trkpt>
      <trkpt lat="48.94749" lon="2.13001">
        <ele>52.1</ele>
        <time>2022-05-29T11:59:04Z</time>
      </trkpt>
      <trkpt lat="48.94749" lon="2.13002">
        <ele>52.1</ele>
        <time>2022-05-29T11:59:09Z</time>
      </trkpt>
      <trkpt lat="48.94749" lon="2.13002">
        <ele>52.1</ele>
        <time>2022-05-29T11:59:15Z</time>
      </trkpt>
      <trkpt lat="48.94748" lon="2.13002">
        <ele>52.1</ele>
        <time>2022-05-29T11:59:21Z</time>
      </trkpt>
      <trkpt lat="48.94748" lon="2.13001">
        <ele>52.1</ele>
        <time>2022-05-29T11:59:27Z</time>
      </trkpt>
      <trkpt lat="48.94748" lon="2.13001">
        <ele>52.1</ele>
        <time>2022-05-29T11:59:32Z</time>
      </trkpt>
      <trkpt lat="48.94748" lon="2.13001">
        <ele>52.1</ele>
        <time>2022-05-29T11:59:38Z</time>
      </trkpt>
      <trkpt lat="48.94747" lon="2.13001">
        <ele>52.1</ele>
        <time>2022-05-29T11:59:44Z</time>
      </trkpt>
      <trkpt lat="48.94747" lon="2.13">
        <ele>52.1</ele>
        <time>2022-05-29T11:59:49Z</time>
      </trkpt>
      <trkpt lat="48.94747" lon="2.13">
        <ele>52.1</ele>
        <time>2022-05-29T11:59:55Z</time>
      </trkpt>
      <trkpt lat="48.94747" lon="2.13">
        <ele>52.1</ele>
        <time>2022-05-29T12:00:01Z</time>
      </trkpt>
      <trkpt lat="48.94748" lon="2.13001">
        <ele>52.1</ele>
        <time>2022-05-29T12:00:07Z</time>
      </trkpt>
      <trkpt lat="48.94748" lon="2.13001">
        <ele>52.1</ele>
        <time>2022-05-29T12:00:13Z</time>
      </trkpt>
      <trkpt lat="48.94748" lon="2.13001">
        <ele>52.1</ele>
        <time>2022-05-29T12:00:19Z</time>
      </trkpt>
      <trkpt lat="48.94748" lon="2.13001">
        <ele>52.1</ele>
        <time>2022-05-29T12:00:24Z</time>
      </trkpt>
      <trkpt lat="48.94748" lon="2.13002">
        <ele>52.1</ele>
        <time>2022-05-29T12:00:30Z</time>
      </trkpt>
      <trkpt lat="48.94748" lon="2.13002">
        <ele>52.1</ele>
        <time>2022-05-29T12:00:35Z</time>
      </trkpt>
      <trkpt lat="48.94748" lon="2.13002">
        <ele>52.1</ele>
        <time>2022-05-29T12:00:41Z</time>
      </trkpt>
      <trkpt lat="48.94748" lon="2.13002">
        <ele>52.1</ele>
        <time>2022-05-29T12:00:46Z</time>
      </trkpt>
      <trkpt lat="48.94748" lon="2.13001">
        <ele>52.1</ele>
        <time>2022-05-29T12:00:52Z</time>
      </trkpt>
      <trkpt lat="48.94747" lon="2.13001">
        <ele>52.1</ele>
        <time>2022-05-29T12:00:57Z</time>
      </trkpt>
      <trkpt lat="48.94747" lon="2.13001">
        <ele>52.1</ele>
        <time>2022-05-29T12:01:03Z</time>
      </trkpt>
      <trkpt lat="48.94747" lon="2.13001">
        <ele>52.1</ele>
        <time>2022-05-29T12:01:08Z</time>
      </trkpt>
      <trkpt lat="48.94747" lon="2.13">
        <ele>52.1</ele>
        <time>2022-05-29T12:01:14Z</time>
      </trkpt>
      <trkpt lat="48.94747" lon="2.13">
        <ele>52.1</ele>
        <time>2022-05-29T12:01:19Z</time>
      </trkpt>
      <trkpt lat="48.94747" lon="2.13">
        <ele>52.1</ele>
        <time>2022-05-29T12:01:25Z</time>
      </trkpt>
      <trkpt lat="48.94746" lon="2.13">
        <ele>52.1</ele>
        <time>2022-05-29T12:01:30Z</time>
      </trkpt>
      <trkpt lat="48.94746" lon="2.13">
        <ele>52.1</ele>
        <time>2022-05-29T12:01:36Z</time>
      </trkpt>
      <trkpt lat="48.94746" lon="2.13">
        <ele>52.1</ele>
        <time>2022-05-29T12:01:41Z</time>
      </trkpt>
      <trkpt lat="48.94746" lon="2.13">
        <ele>52.2</ele>
        <time>2022-05-29T12:01:47Z</time>
      </trkpt>
      <trkpt lat="48.94746" lon="2.12999">
        <ele>52.2</ele>
        <time>2022-05-29T12:01:52Z</time>
      </trkpt>
      <trkpt lat="48.94746" lon="2.12999">
        <ele>52.2</ele>
        <time>2022-05-29T12:01:58Z</time>
      </trkpt>
      <trkpt lat="48.94746" lon="2.12999">
        <ele>52.2</ele>
        <time>2022-05-29T12:02:03Z</time>
      </trkpt>
      <trkpt lat="48.94745" lon="2.12999">
        <ele>52.2</ele>
        <time>2022-05-29T12:02:09Z</time>
      </trkpt>
      <trkpt lat="48.94745" lon="2.12999">
        <ele>52.2</ele>
        <time>2022-05-29T12:02:14Z</time>
      </trkpt>
      <trkpt lat="48.94744" lon="2.12998">
        <ele>52.3</ele>
        <time>2022-05-29T12:02:20Z</time>
      </trkpt>
      <trkpt lat="48.94744" lon="2.12998">
        <ele>52.3</ele>
        <time>2022-05-29T12:02:25Z</time>
      </trkpt>
      <trkpt lat="48.94747" lon="2.12997">
        <ele>52.2</ele>
        <time>2022-05-29T12:02:31Z</time>
      </trkpt>
      <trkpt lat="48.94747" lon="2.12998">
        <ele>52.2</ele>
        <time>2022-05-29T12:02:37Z</time>
      </trkpt>
      <trkpt lat="48.94746" lon="2.12998">
        <ele>52.2</ele>
        <time>2022-05-29T12:02:42Z</time>
      </trkpt>
      <trkpt lat="48.94748" lon="2.12997">
        <ele>52.2</ele>
        <time>2022-05-29T12:02:48Z</time>
      </trkpt>
      <trkpt lat="48.9475" lon="2.12995">
        <ele>52.2</ele>
        <time>2022-05-29T12:02:53Z</time>
      </trkpt>
      <trkpt lat="48.94754" lon="2.12989">
        <ele>52.5</ele>
        <time>2022-05-29T12:02:59Z</time>
      </trkpt>
      <trkpt lat="48.94758" lon="2.12981">
        <ele>52.8</ele>
        <time>2022-05-29T12:03:07Z</time>
      </trkpt>
      <trkpt lat="48.94761" lon="2.12977">
        <ele>52.9</ele>
        <time>2022-05-29T12:03:13Z</time>
      </trkpt>
      <trkpt lat="48.94763" lon="2.12971">
        <ele>53</ele>
        <time>2022-05-29T12:03:18Z</time>
      </trkpt>
      <trkpt lat="48.94766" lon="2.12962">
        <ele>53.1</ele>
        <time>2022-05-29T12:03:23Z</time>
      </trkpt>
      <trkpt lat="48.94769" lon="2.1295">
        <ele>53.3</ele>
        <time>2022-05-29T12:03:29Z</time>
      </trkpt>
      <trkpt lat="48.9477" lon="2.1294">
        <ele>53.5</ele>
        <time>2022-05-29T12:03:34Z</time>
      </trkpt>
      <trkpt lat="48.9477" lon="2.12929">
        <ele>53.8</ele>
        <time>2022-05-29T12:03:40Z</time>
      </trkpt>
      <trkpt lat="48.94771" lon="2.12916">
        <ele>54.2</ele>
        <time>2022-05-29T12:03:45Z</time>
      </trkpt>
      <trkpt lat="48.94771" lon="2.12907">
        <ele>54.5</ele>
        <time>2022-05-29T12:03:50Z</time>
      </trkpt>
      <trkpt lat="48.94771" lon="2.12896">
        <ele>54.8</ele>
        <time>2022-05-29T12:03:56Z</time>
      </trkpt>
      <trkpt lat="48.94771" lon="2.12884">
        <ele>55.2</ele>
        <time>2022-05-29T12:04:02Z</time>
      </trkpt>
      <trkpt lat="48.94771" lon="2.1287">
        <ele>55.7</ele>
        <time>2022-05-29T12:04:08Z</time>
      </trkpt>
      <trkpt lat="48.94772" lon="2.12859">
        <ele>56</ele>
        <time>2022-05-29T12:04:14Z</time>
      </trkpt>
      <trkpt lat="48.94773" lon="2.12848">
        <ele>56</ele>
        <time>2022-05-29T12:04:19Z</time>
      </trkpt>
      <trkpt lat="48.94774" lon="2.12837">
        <ele>56</ele>
        <time>2022-05-29T12:04:24Z</time>
      </trkpt>
      <trkpt lat="48.94775" lon="2.12823">
        <ele>56</ele>
        <time>2022-05-29T12:04:30Z</time>
      </trkpt>
      <trkpt lat="48.94776" lon="2.12812">
        <ele>56</ele>
        <time>2022-05-29T12:04:36Z</time>
      </trkpt>
      <trkpt lat="48.94776" lon="2.12802">
        <ele>56.2</ele>
        <time>2022-05-29T12:04:41Z</time>
      </trkpt>
      <trkpt lat="48.94776" lon="2.12788">
        <ele>56.7</ele>
        <time>2022-05-29T12:04:47Z</time>
      </trkpt>
      <trkpt lat="48.94775" lon="2.12775">
        <ele>57.1</ele>
        <time>2022-05-29T12:04:53Z</time>
      </trkpt>
      <trkpt lat="48.94776" lon="2.12763">
        <ele>57.1</ele>
        <time>2022-05-29T12:04:59Z</time>
      </trkpt>
      <trkpt lat="48.94776" lon="2.12752">
        <ele>57</ele>
        <time>2022-05-29T12:05:04Z</time>
      </trkpt>
      <trkpt lat="48.94777" lon="2.12738">
        <ele>57.5</ele>
        <time>2022-05-29T12:05:10Z</time>
      </trkpt>
      <trkpt lat="48.94777" lon="2.12727">
        <ele>57.8</ele>
        <time>2022-05-29T12:05:15Z</time>
      </trkpt>
      <trkpt lat="48.94778" lon="2.12714">
        <ele>58</ele>
        <time>2022-05-29T12:05:20Z</time>
      </trkpt>
      <trkpt lat="48.94779" lon="2.12698">
        <ele>58</ele>
        <time>2022-05-29T12:05:26Z</time>
      </trkpt>
      <trkpt lat="48.94779" lon="2.12685">
        <ele>58.3</ele>
        <time>2022-05-29T12:05:32Z</time>
      </trkpt>
      <trkpt lat="48.94782" lon="2.12672">
        <ele>58.7</ele>
        <time>2022-05-29T12:05:38Z</time>
      </trkpt>
      <trkpt lat="48.94786" lon="2.12667">
        <ele>58.7</ele>
        <time>2022-05-29T12:05:44Z</time>
      </trkpt>
      <trkpt lat="48.94794" lon="2.12672">
        <ele>58.3</ele>
        <time>2022-05-29T12:05:50Z</time>
      </trkpt>
      <trkpt lat="48.94803" lon="2.12678">
        <ele>58.1</ele>
        <time>2022-05-29T12:05:55Z</time>
      </trkpt>
      <trkpt lat="48.9481" lon="2.12682">
        <ele>58</ele>
        <time>2022-05-29T12:06:01Z</time>
      </trkpt>
      <trkpt lat="48.94818" lon="2.12688">
        <ele>58</ele>
        <time>2022-05-29T12:06:06Z</time>
      </trkpt>
      <trkpt lat="48.94826" lon="2.12696">
        <ele>58</ele>
        <time>2022-05-29T12:06:12Z</time>
      </trkpt>
      <trkpt lat="48.94835" lon="2.12705">
        <ele>57.6</ele>
        <time>2022-05-29T12:06:18Z</time>
      </trkpt>
      <trkpt lat="48.94843" lon="2.12713">
        <ele>57.3</ele>
        <time>2022-05-29T12:06:23Z</time>
      </trkpt>
      <trkpt lat="48.94852" lon="2.12723">
        <ele>57</ele>
        <time>2022-05-29T12:06:29Z</time>
      </trkpt>
      <trkpt lat="48.94858" lon="2.1273">
        <ele>56.8</ele>
        <time>2022-05-29T12:06:34Z</time>
      </trkpt>
      <trkpt lat="48.94867" lon="2.12736">
        <ele>56.5</ele>
        <time>2022-05-29T12:06:40Z</time>
      </trkpt>
      <trkpt lat="48.94876" lon="2.12742">
        <ele>56.3</ele>
        <time>2022-05-29T12:06:45Z</time>
      </trkpt>
      <trkpt lat="48.94886" lon="2.12748">
        <ele>56.1</ele>
        <time>2022-05-29T12:06:51Z</time>
      </trkpt>
      <trkpt lat="48.94892" lon="2.12751">
        <ele>55.8</ele>
        <time>2022-05-29T12:06:56Z</time>
      </trkpt>
      <trkpt lat="48.94898" lon="2.12756">
        <ele>55.5</ele>
        <time>2022-05-29T12:07:01Z</time>
      </trkpt>
      <trkpt lat="48.94905" lon="2.12763">
        <ele>54.9</ele>
        <time>2022-05-29T12:07:07Z</time>
      </trkpt>
      <trkpt lat="48.94912" lon="2.12769">
        <ele>54.5</ele>
        <time>2022-05-29T12:07:12Z</time>
      </trkpt>
      <trkpt lat="48.94919" lon="2.12774">
        <ele>54.1</ele>
        <time>2022-05-29T12:07:17Z</time>
      </trkpt>
      <trkpt lat="48.94927" lon="2.12782">
        <ele>53.9</ele>
        <time>2022-05-29T12:07:23Z</time>
      </trkpt>
      <trkpt lat="48.94933" lon="2.12788">
        <ele>53.8</ele>
        <time>2022-05-29T12:07:28Z</time>
      </trkpt>
      <trkpt lat="48.94941" lon="2.12793">
        <ele>53.5</ele>
        <time>2022-05-29T12:07:33Z</time>
      </trkpt>
      <trkpt lat="48.9495" lon="2.12799">
        <ele>53</ele>
        <time>2022-05-29T12:07:39Z</time>
      </trkpt>
      <trkpt lat="48.94957" lon="2.12805">
        <ele>52.6</ele>
        <time>2022-05-29T12:07:44Z</time>
      </trkpt>
      <trkpt lat="48.94963" lon="2.12812">
        <ele>52.3</ele>
        <time>2022-05-29T12:07:49Z</time>
      </trkpt>
      <trkpt lat="48.9497" lon="2.1282">
        <ele>52.1</ele>
        <time>2022-05-29T12:07:55Z</time>
      </trkpt>
      <trkpt lat="48.94975" lon="2.12826">
        <ele>51.9</ele>
        <time>2022-05-29T12:08:01Z</time>
      </trkpt>
      <trkpt lat="48.94977" lon="2.12829">
        <ele>51.8</ele>
        <time>2022-05-29T12:08:06Z</time>
      </trkpt>
      <trkpt lat="48.9498" lon="2.1283">
        <ele>51.8</ele>
        <time>2022-05-29T12:08:12Z</time>
      </trkpt>
      <trkpt lat="48.9498" lon="2.12831">
        <ele>51.7</ele>
        <time>2022-05-29T12:08:18Z</time>
      </trkpt>
      <trkpt lat="48.9498" lon="2.12831">
        <ele>51.7</ele>
        <time>2022-05-29T12:08:23Z</time>
      </trkpt>
      <trkpt lat="48.9498" lon="2.12832">
        <ele>51.7</ele>
        <time>2022-05-29T12:08:28Z</time>
      </trkpt>
      <trkpt lat="48.94982" lon="2.12834">
        <ele>51.7</ele>
        <time>2022-05-29T12:08:34Z</time>
      </trkpt>
      <trkpt lat="48.94987" lon="2.12838">
        <ele>51.5</ele>
        <time>2022-05-29T12:08:40Z</time>
      </trkpt>
      <trkpt lat="48.94993" lon="2.12842">
        <ele>51.3</ele>
        <time>2022-05-29T12:08:45Z</time>
      </trkpt>
      <trkpt lat="48.95" lon="2.12846">
        <ele>51</ele>
        <time>2022-05-29T12:08:51Z</time>
      </trkpt>
      <trkpt lat="48.95008" lon="2.1285">
        <ele>51</ele>
        <time>2022-05-29T12:08:57Z</time>
      </trkpt>
      <trkpt lat="48.95016" lon="2.12853">
        <ele>51</ele>
        <time>2022-05-29T12:09:02Z</time>
      </trkpt>
      <trkpt lat="48.95025" lon="2.12859">
        <ele>51</ele>
        <time>2022-05-29T12:09:08Z</time>
      </trkpt>
      <trkpt lat="48.95032" lon="2.12864">
        <ele>50.9</ele>
        <time>2022-05-29T12:09:13Z</time>
      </trkpt>
      <trkpt lat="48.9504" lon="2.12869">
        <ele>50.7</ele>
        <time>2022-05-29T12:09:19Z</time>
      </trkpt>
      <trkpt lat="48.95047" lon="2.12876">
        <ele>50.5</ele>
        <time>2022-05-29T12:09:25Z</time>
      </trkpt>
      <trkpt lat="48.95054" lon="2.12884">
        <ele>50.2</ele>
        <time>2022-05-29T12:09:31Z</time>
      </trkpt>
      <trkpt lat="48.95061" lon="2.12887">
        <ele>50</ele>
        <time>2022-05-29T12:09:37Z</time>
      </trkpt>
      <trkpt lat="48.95067" lon="2.1289">
        <ele>50</ele>
        <time>2022-05-29T12:09:42Z</time>
      </trkpt>
      <trkpt lat="48.95074" lon="2.12895">
        <ele>49.9</ele>
        <time>2022-05-29T12:09:48Z</time>
      </trkpt>
      <trkpt lat="48.95081" lon="2.12899">
        <ele>49.7</ele>
        <time>2022-05-29T12:09:53Z</time>
      </trkpt>
      <trkpt lat="48.95091" lon="2.12905">
        <ele>49.4</ele>
        <time>2022-05-29T12:09:59Z</time>
      </trkpt>
      <trkpt lat="48.95097" lon="2.12914">
        <ele>49.1</ele>
        <time>2022-05-29T12:10:04Z</time>
      </trkpt>
      <trkpt lat="48.95102" lon="2.12922">
        <ele>49.1</ele>
        <time>2022-05-29T12:10:10Z</time>
      </trkpt>
      <trkpt lat="48.95108" lon="2.12926">
        <ele>49.3</ele>
        <time>2022-05-29T12:10:16Z</time>
      </trkpt>
      <trkpt lat="48.95115" lon="2.1293">
        <ele>49.4</ele>
        <time>2022-05-29T12:10:21Z</time>
      </trkpt>
      <trkpt lat="48.95122" lon="2.12936">
        <ele>49.4</ele>
        <time>2022-05-29T12:10:26Z</time>
      </trkpt>
      <trkpt lat="48.9513" lon="2.12942">
        <ele>49.3</ele>
        <time>2022-05-29T12:10:31Z</time>
      </trkpt>
      <trkpt lat="48.95138" lon="2.12953">
        <ele>49</ele>
        <time>2022-05-29T12:10:37Z</time>
      </trkpt>
      <trkpt lat="48.95145" lon="2.12965">
        <ele>49</ele>
        <time>2022-05-29T12:10:43Z</time>
      </trkpt>
      <trkpt lat="48.95154" lon="2.12971">
        <ele>49</ele>
        <time>2022-05-29T12:10:49Z</time>
      </trkpt>
      <trkpt lat="48.95157" lon="2.12974">
        <ele>49</ele>
        <time>2022-05-29T12:10:54Z</time>
      </trkpt>
      <trkpt lat="48.95161" lon="2.12978">
        <ele>49</ele>
        <time>2022-05-29T12:11:00Z</time>
      </trkpt>
      <trkpt lat="48.95168" lon="2.1298">
        <ele>49</ele>
        <time>2022-05-29T12:11:06Z</time>
      </trkpt>
      <trkpt lat="48.95175" lon="2.12984">
        <ele>49</ele>
        <time>2022-05-29T12:11:11Z</time>
      </trkpt>
      <trkpt lat="48.9518" lon="2.12984">
        <ele>49</ele>
        <time>2022-05-29T12:11:16Z</time>
      </trkpt>
      <trkpt lat="48.95186" lon="2.1299">
        <ele>49</ele>
        <time>2022-05-29T12:11:21Z</time>
      </trkpt>
      <trkpt lat="48.95195" lon="2.12998">
        <ele>49</ele>
        <time>2022-05-29T12:11:27Z</time>
      </trkpt>
      <trkpt lat="48.952" lon="2.13002">
        <ele>49</ele>
        <time>2022-05-29T12:11:32Z</time>
      </trkpt>
      <trkpt lat="48.95206" lon="2.13007">
        <ele>49</ele>
        <time>2022-05-29T12:11:38Z</time>
      </trkpt>
      <trkpt lat="48.95212" lon="2.13014">
        <ele>49</ele>
        <time>2022-05-29T12:11:43Z</time>
      </trkpt>
      <trkpt lat="48.9522" lon="2.13022">
        <ele>49</ele>
        <time>2022-05-29T12:11:49Z</time>
      </trkpt>
      <trkpt lat="48.95227" lon="2.13027">
        <ele>48.8</ele>
        <time>2022-05-29T12:11:54Z</time>
      </trkpt>
      <trkpt lat="48.95231" lon="2.13033">
        <ele>48.7</ele>
        <time>2022-05-29T12:12:00Z</time>
      </trkpt>
      <trkpt lat="48.95238" lon="2.13037">
        <ele>48.4</ele>
        <time>2022-05-29T12:12:06Z</time>
      </trkpt>
      <trkpt lat="48.95247" lon="2.13041">
        <ele>48.1</ele>
        <time>2022-05-29T12:12:12Z</time>
      </trkpt>
      <trkpt lat="48.95254" lon="2.13046">
        <ele>48</ele>
        <time>2022-05-29T12:12:17Z</time>
      </trkpt>
      <trkpt lat="48.95263" lon="2.13049">
        <ele>48</ele>
        <time>2022-05-29T12:12:22Z</time>
      </trkpt>
      <trkpt lat="48.95271" lon="2.13055">
        <ele>48</ele>
        <time>2022-05-29T12:12:28Z</time>
      </trkpt>
      <trkpt lat="48.95276" lon="2.13062">
        <ele>48</ele>
        <time>2022-05-29T12:12:33Z</time>
      </trkpt>
      <trkpt lat="48.95283" lon="2.1307">
        <ele>48</ele>
        <time>2022-05-29T12:12:39Z</time>
      </trkpt>
      <trkpt lat="48.95289" lon="2.13075">
        <ele>48</ele>
        <time>2022-05-29T12:12:44Z</time>
      </trkpt>
      <trkpt lat="48.95296" lon="2.13079">
        <ele>48</ele>
        <time>2022-05-29T12:12:49Z</time>
      </trkpt>
      <trkpt lat="48.95304" lon="2.13087">
        <ele>48</ele>
        <time>2022-05-29T12:12:55Z</time>
      </trkpt>
      <trkpt lat="48.95311" lon="2.13093">
        <ele>48</ele>
        <time>2022-05-29T12:13:00Z</time>
      </trkpt>
      <trkpt lat="48.95321" lon="2.13099">
        <ele>48</ele>
        <time>2022-05-29T12:13:06Z</time>
      </trkpt>
      <trkpt lat="48.95327" lon="2.13107">
        <ele>48</ele>
        <time>2022-05-29T12:13:11Z</time>
      </trkpt>
      <trkpt lat="48.95333" lon="2.13112">
        <ele>48</ele>
        <time>2022-05-29T12:13:17Z</time>
      </trkpt>
      <trkpt lat="48.95336" lon="2.13116">
        <ele>47.8</ele>
        <time>2022-05-29T12:13:22Z</time>
      </trkpt>
      <trkpt lat="48.95343" lon="2.13121">
        <ele>47.6</ele>
        <time>2022-05-29T12:13:27Z</time>
      </trkpt>
      <trkpt lat="48.95354" lon="2.13119">
        <ele>47.7</ele>
        <time>2022-05-29T12:13:33Z</time>
      </trkpt>
      <trkpt lat="48.9536" lon="2.13121">
        <ele>47.7</ele>
        <time>2022-05-29T12:13:39Z</time>
      </trkpt>
      <trkpt lat="48.95367" lon="2.13128">
        <ele>47.4</ele>
        <time>2022-05-29T12:13:44Z</time>
      </trkpt>
      <trkpt lat="48.95375" lon="2.13135">
        <ele>47.5</ele>
        <time>2022-05-29T12:13:50Z</time>
      </trkpt>
      <trkpt lat="48.95382" lon="2.13139">
        <ele>47.8</ele>
        <time>2022-05-29T12:13:55Z</time>
      </trkpt>
      <trkpt lat="48.95391" lon="2.13145">
        <ele>47.7</ele>
        <time>2022-05-29T12:14:01Z</time>
      </trkpt>
      <trkpt lat="48.95398" lon="2.13152">
        <ele>46.1</ele>
        <time>2022-05-29T12:14:06Z</time>
      </trkpt>
      <trkpt lat="48.95405" lon="2.13155">
        <ele>44.6</ele>
        <time>2022-05-29T12:14:12Z</time>
      </trkpt>
      <trkpt lat="48.95413" lon="2.13157">
        <ele>42.9</ele>
        <time>2022-05-29T12:14:18Z</time>
      </trkpt>
      <trkpt lat="48.95419" lon="2.13163">
        <ele>41.8</ele>
        <time>2022-05-29T12:14:23Z</time>
      </trkpt>
      <trkpt lat="48.95426" lon="2.13169">
        <ele>43.4</ele>
        <time>2022-05-29T12:14:29Z</time>
      </trkpt>
      <trkpt lat="48.95432" lon="2.13172">
        <ele>44.9</ele>
        <time>2022-05-29T12:14:34Z</time>
      </trkpt>
      <trkpt lat="48.95439" lon="2.13179">
        <ele>46.5</ele>
        <time>2022-05-29T12:14:40Z</time>
      </trkpt>
      <trkpt lat="48.95446" lon="2.13183">
        <ele>47.4</ele>
        <time>2022-05-29T12:14:46Z</time>
      </trkpt>
      <trkpt lat="48.95452" lon="2.13175">
        <ele>47.8</ele>
        <time>2022-05-29T12:14:52Z</time>
      </trkpt>
      <trkpt lat="48.9546" lon="2.13167">
        <ele>48.5</ele>
        <time>2022-05-29T12:14:58Z</time>
      </trkpt>
      <trkpt lat="48.95465" lon="2.1316">
        <ele>48.3</ele>
        <time>2022-05-29T12:15:04Z</time>
      </trkpt>
      <trkpt lat="48.95468" lon="2.13154">
        <ele>48.4</ele>
        <time>2022-05-29T12:15:09Z</time>
      </trkpt>
      <trkpt lat="48.95472" lon="2.13147">
        <ele>48.9</ele>
        <time>2022-05-29T12:15:15Z</time>
      </trkpt>
      <trkpt lat="48.95476" lon="2.13138">
        <ele>48.7</ele>
        <time>2022-05-29T12:15:20Z</time>
      </trkpt>
      <trkpt lat="48.95481" lon="2.13132">
        <ele>48.1</ele>
        <time>2022-05-29T12:15:26Z</time>
      </trkpt>
      <trkpt lat="48.95489" lon="2.13122">
        <ele>48.2</ele>
        <time>2022-05-29T12:15:32Z</time>
      </trkpt>
      <trkpt lat="48.95494" lon="2.13118">
        <ele>48.7</ele>
        <time>2022-05-29T12:15:37Z</time>
      </trkpt>
      <trkpt lat="48.95499" lon="2.13116">
        <ele>49.3</ele>
        <time>2022-05-29T12:15:42Z</time>
      </trkpt>
      <trkpt lat="48.95503" lon="2.13113">
        <ele>49.3</ele>
        <time>2022-05-29T12:15:48Z</time>
      </trkpt>
      <trkpt lat="48.95511" lon="2.13104">
        <ele>48.3</ele>
        <time>2022-05-29T12:15:53Z</time>
      </trkpt>
      <trkpt lat="48.95517" lon="2.13094">
        <ele>47.8</ele>
        <time>2022-05-29T12:15:59Z</time>
      </trkpt>
      <trkpt lat="48.95523" lon="2.13087">
        <ele>47.8</ele>
        <time>2022-05-29T12:16:04Z</time>
      </trkpt>
      <trkpt lat="48.95527" lon="2.13079">
        <ele>48.1</ele>
        <time>2022-05-29T12:16:10Z</time>
      </trkpt>
      <trkpt lat="48.95531" lon="2.13069">
        <ele>48.2</ele>
        <time>2022-05-29T12:16:15Z</time>
      </trkpt>
      <trkpt lat="48.95535" lon="2.13057">
        <ele>48.2</ele>
        <time>2022-05-29T12:16:21Z</time>
      </trkpt>
      <trkpt lat="48.95537" lon="2.1305">
        <ele>47.9</ele>
        <time>2022-05-29T12:16:26Z</time>
      </trkpt>
      <trkpt lat="48.95544" lon="2.13043">
        <ele>47.7</ele>
        <time>2022-05-29T12:16:32Z</time>
      </trkpt>
      <trkpt lat="48.9555" lon="2.13034">
        <ele>48.1</ele>
        <time>2022-05-29T12:16:37Z</time>
      </trkpt>
      <trkpt lat="48.95554" lon="2.13026">
        <ele>48.9</ele>
        <time>2022-05-29T12:16:42Z</time>
      </trkpt>
      <trkpt lat="48.95559" lon="2.13013">
        <ele>48.6</ele>
        <time>2022-05-29T12:16:48Z</time>
      </trkpt>
      <trkpt lat="48.95562" lon="2.13">
        <ele>48.5</ele>
        <time>2022-05-29T12:16:54Z</time>
      </trkpt>
      <trkpt lat="48.95565" lon="2.12992">
        <ele>47.8</ele>
        <time>2022-05-29T12:16:59Z</time>
      </trkpt>
      <trkpt lat="48.95566" lon="2.12985">
        <ele>47.3</ele>
        <time>2022-05-29T12:17:04Z</time>
      </trkpt>
      <trkpt lat="48.95572" lon="2.1297">
        <ele>47.3</ele>
        <time>2022-05-29T12:17:10Z</time>
      </trkpt>
      <trkpt lat="48.9558" lon="2.12962">
        <ele>48.4</ele>
        <time>2022-05-29T12:17:15Z</time>
      </trkpt>
      <trkpt lat="48.95585" lon="2.12956">
        <ele>48.8</ele>
        <time>2022-05-29T12:17:20Z</time>
      </trkpt>
      <trkpt lat="48.9559" lon="2.12946">
        <ele>48.5</ele>
        <time>2022-05-29T12:17:26Z</time>
      </trkpt>
      <trkpt lat="48.95595" lon="2.12939">
        <ele>47.8</ele>
        <time>2022-05-29T12:17:32Z</time>
      </trkpt>
      <trkpt lat="48.956" lon="2.12935">
        <ele>47.5</ele>
        <time>2022-05-29T12:17:38Z</time>
      </trkpt>
      <trkpt lat="48.95607" lon="2.12926">
        <ele>47.9</ele>
        <time>2022-05-29T12:17:44Z</time>
      </trkpt>
      <trkpt lat="48.95612" lon="2.12917">
        <ele>48.9</ele>
        <time>2022-05-29T12:17:50Z</time>
      </trkpt>
      <trkpt lat="48.95617" lon="2.12907">
        <ele>48.3</ele>
        <time>2022-05-29T12:17:56Z</time>
      </trkpt>
      <trkpt lat="48.95621" lon="2.12897">
        <ele>48.2</ele>
        <time>2022-05-29T12:18:02Z</time>
      </trkpt>
      <trkpt lat="48.95626" lon="2.12888">
        <ele>48.5</ele>
        <time>2022-05-29T12:18:08Z</time>
      </trkpt>
      <trkpt lat="48.9563" lon="2.12876">
        <ele>48.6</ele>
        <time>2022-05-29T12:18:14Z</time>
      </trkpt>
      <trkpt lat="48.95635" lon="2.12867">
        <ele>49.6</ele>
        <time>2022-05-29T12:18:20Z</time>
      </trkpt>
      <trkpt lat="48.95641" lon="2.1286">
        <ele>50.5</ele>
        <time>2022-05-29T12:18:26Z</time>
      </trkpt>
      <trkpt lat="48.95647" lon="2.12854">
        <ele>49.1</ele>
        <time>2022-05-29T12:18:31Z</time>
      </trkpt>
      <trkpt lat="48.95651" lon="2.12849">
        <ele>48.3</ele>
        <time>2022-05-29T12:18:36Z</time>
      </trkpt>
      <trkpt lat="48.95656" lon="2.1284">
        <ele>47.5</ele>
        <time>2022-05-29T12:18:42Z</time>
      </trkpt>
      <trkpt lat="48.95661" lon="2.12833">
        <ele>47.2</ele>
        <time>2022-05-29T12:18:47Z</time>
      </trkpt>
      <trkpt lat="48.95667" lon="2.12824">
        <ele>47.3</ele>
        <time>2022-05-29T12:18:53Z</time>
      </trkpt>
      <trkpt lat="48.95671" lon="2.12814">
        <ele>47.2</ele>
        <time>2022-05-29T12:18:59Z</time>
      </trkpt>
      <trkpt lat="48.95676" lon="2.12804">
        <ele>46.6</ele>
        <time>2022-05-29T12:19:05Z</time>
      </trkpt>
      <trkpt lat="48.95678" lon="2.12794">
        <ele>45.9</ele>
        <time>2022-05-29T12:19:10Z</time>
      </trkpt>
      <trkpt lat="48.9568" lon="2.12777">
        <ele>45</ele>
        <time>2022-05-29T12:19:16Z</time>
      </trkpt>
      <trkpt lat="48.95681" lon="2.1277">
        <ele>44.4</ele>
        <time>2022-05-29T12:19:21Z</time>
      </trkpt>
      <trkpt lat="48.95684" lon="2.12762">
        <ele>43.9</ele>
        <time>2022-05-29T12:19:26Z</time>
      </trkpt>
      <trkpt lat="48.95688" lon="2.12758">
        <ele>43.8</ele>
        <time>2022-05-29T12:19:32Z</time>
      </trkpt>
      <trkpt lat="48.95692" lon="2.12755">
        <ele>43.9</ele>
        <time>2022-05-29T12:19:37Z</time>
      </trkpt>
      <trkpt lat="48.95696" lon="2.12752">
        <ele>43.9</ele>
        <time>2022-05-29T12:19:42Z</time>
      </trkpt>
      <trkpt lat="48.95701" lon="2.12745">
        <ele>43.6</ele>
        <time>2022-05-29T12:19:47Z</time>
      </trkpt>
      <trkpt lat="48.95706" lon="2.12739">
        <ele>43.3</ele>
        <time>2022-05-29T12:19:52Z</time>
      </trkpt>
      <trkpt lat="48.95714" lon="2.12744">
        <ele>42.7</ele>
        <time>2022-05-29T12:19:58Z</time>
      </trkpt>
      <trkpt lat="48.95715" lon="2.12756">
        <ele>42.4</ele>
        <time>2022-05-29T12:20:03Z</time>
      </trkpt>
      <trkpt lat="48.95717" lon="2.12765">
        <ele>41.9</ele>
        <time>2022-05-29T12:20:08Z</time>
      </trkpt>
      <trkpt lat="48.95721" lon="2.12771">
        <ele>41.4</ele>
        <time>2022-05-29T12:20:14Z</time>
      </trkpt>
      <trkpt lat="48.95726" lon="2.12773">
        <ele>41.1</ele>
        <time>2022-05-29T12:20:19Z</time>
      </trkpt>
      <trkpt lat="48.95735" lon="2.12776">
        <ele>41</ele>
        <time>2022-05-29T12:20:25Z</time>
      </trkpt>
      <trkpt lat="48.95745" lon="2.12781">
        <ele>40.9</ele>
        <time>2022-05-29T12:20:31Z</time>
      </trkpt>
      <trkpt lat="48.95759" lon="2.12784">
        <ele>40.8</ele>
        <time>2022-05-29T12:20:37Z</time>
      </trkpt>
      <trkpt lat="48.95768" lon="2.12785">
        <ele>40.8</ele>
        <time>2022-05-29T12:20:43Z</time>
      </trkpt>
      <trkpt lat="48.95775" lon="2.12784">
        <ele>40.8</ele>
        <time>2022-05-29T12:20:48Z</time>
      </trkpt>
      <trkpt lat="48.95781" lon="2.12783">
        <ele>40.7</ele>
        <time>2022-05-29T12:20:53Z</time>
      </trkpt>
      <trkpt lat="48.95791" lon="2.12783">
        <ele>40.4</ele>
        <time>2022-05-29T12:20:59Z</time>
      </trkpt>
      <trkpt lat="48.958" lon="2.12784">
        <ele>40.2</ele>
        <time>2022-05-29T12:21:05Z</time>
      </trkpt>
      <trkpt lat="48.95808" lon="2.12784">
        <ele>40</ele>
        <time>2022-05-29T12:21:11Z</time>
      </trkpt>
      <trkpt lat="48.95815" lon="2.12784">
        <ele>40</ele>
        <time>2022-05-29T12:21:16Z</time>
      </trkpt>
      <trkpt lat="48.95824" lon="2.12783">
        <ele>40</ele>
        <time>2022-05-29T12:21:22Z</time>
      </trkpt>
      <trkpt lat="48.95833" lon="2.12784">
        <ele>40</ele>
        <time>2022-05-29T12:21:28Z</time>
      </trkpt>
      <trkpt lat="48.95841" lon="2.12783">
        <ele>40</ele>
        <time>2022-05-29T12:21:34Z</time>
      </trkpt>
      <trkpt lat="48.95849" lon="2.12785">
        <ele>40</ele>
        <time>2022-05-29T12:21:40Z</time>
      </trkpt>
      <trkpt lat="48.95858" lon="2.12784">
        <ele>40</ele>
        <time>2022-05-29T12:21:45Z</time>
      </trkpt>
      <trkpt lat="48.95866" lon="2.12785">
        <ele>40</ele>
        <time>2022-05-29T12:21:50Z</time>
      </trkpt>
      <trkpt lat="48.95876" lon="2.12788">
        <ele>40</ele>
        <time>2022-05-29T12:21:56Z</time>
      </trkpt>
      <trkpt lat="48.95883" lon="2.12788">
        <ele>40</ele>
        <time>2022-05-29T12:22:01Z</time>
      </trkpt>
      <trkpt lat="48.9589" lon="2.12787">
        <ele>40</ele>
        <time>2022-05-29T12:22:06Z</time>
      </trkpt>
      <trkpt lat="48.95897" lon="2.12786">
        <ele>39.7</ele>
        <time>2022-05-29T12:22:12Z</time>
      </trkpt>
      <trkpt lat="48.95904" lon="2.12786">
        <ele>39.5</ele>
        <time>2022-05-29T12:22:18Z</time>
      </trkpt>
      <trkpt lat="48.9591" lon="2.12786">
        <ele>39.2</ele>
        <time>2022-05-29T12:22:23Z</time>
      </trkpt>
      <trkpt lat="48.95919" lon="2.12784">
        <ele>39</ele>
        <time>2022-05-29T12:22:28Z</time>
      </trkpt>
      <trkpt lat="48.95929" lon="2.12783">
        <ele>39</ele>
        <time>2022-05-29T12:22:34Z</time>
      </trkpt>
      <trkpt lat="48.95939" lon="2.12785">
        <ele>39</ele>
        <time>2022-05-29T12:22:39Z</time>
      </trkpt>
      <trkpt lat="48.95947" lon="2.12784">
        <ele>39</ele>
        <time>2022-05-29T12:22:45Z</time>
      </trkpt>
      <trkpt lat="48.95954" lon="2.12784">
        <ele>39</ele>
        <time>2022-05-29T12:22:50Z</time>
      </trkpt>
      <trkpt lat="48.95961" lon="2.12784">
        <ele>39</ele>
        <time>2022-05-29T12:22:56Z</time>
      </trkpt>
      <trkpt lat="48.95969" lon="2.12784">
        <ele>39</ele>
        <time>2022-05-29T12:23:02Z</time>
      </trkpt>
      <trkpt lat="48.95981" lon="2.12783">
        <ele>38.9</ele>
        <time>2022-05-29T12:23:08Z</time>
      </trkpt>
      <trkpt lat="48.95989" lon="2.12784">
        <ele>38.9</ele>
        <time>2022-05-29T12:23:13Z</time>
      </trkpt>
      <trkpt lat="48.95998" lon="2.12785">
        <ele>38.8</ele>
        <time>2022-05-29T12:23:19Z</time>
      </trkpt>
      <trkpt lat="48.96004" lon="2.12786">
        <ele>38.6</ele>
        <time>2022-05-29T12:23:25Z</time>
      </trkpt>
      <trkpt lat="48.96012" lon="2.12786">
        <ele>38.4</ele>
        <time>2022-05-29T12:23:30Z</time>
      </trkpt>
      <trkpt lat="48.96019" lon="2.12787">
        <ele>38.2</ele>
        <time>2022-05-29T12:23:35Z</time>
      </trkpt>
      <trkpt lat="48.96028" lon="2.1279">
        <ele>38</ele>
        <time>2022-05-29T12:23:40Z</time>
      </trkpt>
      <trkpt lat="48.96035" lon="2.1279">
        <ele>38</ele>
        <time>2022-05-29T12:23:45Z</time>
      </trkpt>
      <trkpt lat="48.96042" lon="2.12788">
        <ele>38</ele>
        <time>2022-05-29T12:23:50Z</time>
      </trkpt>
      <trkpt lat="48.96049" lon="2.12785">
        <ele>38</ele>
        <time>2022-05-29T12:23:56Z</time>
      </trkpt>
      <trkpt lat="48.96057" lon="2.12785">
        <ele>38</ele>
        <time>2022-05-29T12:24:02Z</time>
      </trkpt>
      <trkpt lat="48.96067" lon="2.12787">
        <ele>38</ele>
        <time>2022-05-29T12:24:07Z</time>
      </trkpt>
      <trkpt lat="48.96078" lon="2.12788">
        <ele>38</ele>
        <time>2022-05-29T12:24:13Z</time>
      </trkpt>
      <trkpt lat="48.96087" lon="2.1279">
        <ele>38.1</ele>
        <time>2022-05-29T12:24:19Z</time>
      </trkpt>
      <trkpt lat="48.96095" lon="2.12791">
        <ele>38.2</ele>
        <time>2022-05-29T12:24:25Z</time>
      </trkpt>
      <trkpt lat="48.96102" lon="2.1279">
        <ele>38.4</ele>
        <time>2022-05-29T12:24:31Z</time>
      </trkpt>
      <trkpt lat="48.96109" lon="2.12794">
        <ele>38.4</ele>
        <time>2022-05-29T12:24:37Z</time>
      </trkpt>
      <trkpt lat="48.96112" lon="2.128">
        <ele>38.2</ele>
        <time>2022-05-29T12:24:42Z</time>
      </trkpt>
      <trkpt lat="48.96121" lon="2.12804">
        <ele>38.4</ele>
        <time>2022-05-29T12:24:48Z</time>
      </trkpt>
      <trkpt lat="48.96127" lon="2.12808">
        <ele>38.6</ele>
        <time>2022-05-29T12:24:53Z</time>
      </trkpt>
      <trkpt lat="48.96124" lon="2.12817">
        <ele>38.5</ele>
        <time>2022-05-29T12:24:59Z</time>
      </trkpt>
      <trkpt lat="48.96119" lon="2.12829">
        <ele>38.3</ele>
        <time>2022-05-29T12:25:05Z</time>
      </trkpt>
      <trkpt lat="48.96116" lon="2.12839">
        <ele>38.2</ele>
        <time>2022-05-29T12:25:10Z</time>
      </trkpt>
      <trkpt lat="48.96112" lon="2.12846">
        <ele>38</ele>
        <time>2022-05-29T12:25:15Z</time>
      </trkpt>
      <trkpt lat="48.96108" lon="2.12852">
        <ele>38</ele>
        <time>2022-05-29T12:25:21Z</time>
      </trkpt>
      <trkpt lat="48.96105" lon="2.12864">
        <ele>38</ele>
        <time>2022-05-29T12:25:26Z</time>
      </trkpt>
      <trkpt lat="48.96104" lon="2.12874">
        <ele>38</ele>
        <time>2022-05-29T12:25:31Z</time>
      </trkpt>
      <trkpt lat="48.96103" lon="2.12884">
        <ele>38</ele>
        <time>2022-05-29T12:25:37Z</time>
      </trkpt>
      <trkpt lat="48.96102" lon="2.1289">
        <ele>38</ele>
        <time>2022-05-29T12:25:42Z</time>
      </trkpt>
      <trkpt lat="48.96099" lon="2.12898">
        <ele>38</ele>
        <time>2022-05-29T12:25:47Z</time>
      </trkpt>
      <trkpt lat="48.96093" lon="2.12909">
        <ele>38</ele>
        <time>2022-05-29T12:25:53Z</time>
      </trkpt>
      <trkpt lat="48.96088" lon="2.12918">
        <ele>38</ele>
        <time>2022-05-29T12:25:59Z</time>
      </trkpt>
      <trkpt lat="48.96083" lon="2.12932">
        <ele>38</ele>
        <time>2022-05-29T12:26:05Z</time>
      </trkpt>
      <trkpt lat="48.96079" lon="2.12943">
        <ele>38</ele>
        <time>2022-05-29T12:26:11Z</time>
      </trkpt>
      <trkpt lat="48.96077" lon="2.12954">
        <ele>38</ele>
        <time>2022-05-29T12:26:16Z</time>
      </trkpt>
      <trkpt lat="48.96071" lon="2.12965">
        <ele>38</ele>
        <time>2022-05-29T12:26:22Z</time>
      </trkpt>
      <trkpt lat="48.96065" lon="2.12978">
        <ele>38</ele>
        <time>2022-05-29T12:26:28Z</time>
      </trkpt>
      <trkpt lat="48.9606" lon="2.12984">
        <ele>38</ele>
        <time>2022-05-29T12:26:33Z</time>
      </trkpt>
      <trkpt lat="48.96057" lon="2.12993">
        <ele>38</ele>
        <time>2022-05-29T12:26:39Z</time>
      </trkpt>
      <trkpt lat="48.96052" lon="2.13005">
        <ele>38</ele>
        <time>2022-05-29T12:26:45Z</time>
      </trkpt>
      <trkpt lat="48.96046" lon="2.13017">
        <ele>38</ele>
        <time>2022-05-29T12:26:51Z</time>
      </trkpt>
      <trkpt lat="48.9604" lon="2.13025">
        <ele>38</ele>
        <time>2022-05-29T12:26:56Z</time>
      </trkpt>
      <trkpt lat="48.96031" lon="2.13039">
        <ele>38</ele>
        <time>2022-05-29T12:27:02Z</time>
      </trkpt>
      <trkpt lat="48.96027" lon="2.13046">
        <ele>38</ele>
        <time>2022-05-29T12:27:07Z</time>
      </trkpt>
      <trkpt lat="48.96024" lon="2.13056">
        <ele>38.1</ele>
        <time>2022-05-29T12:27:12Z</time>
      </trkpt>
      <trkpt lat="48.96019" lon="2.13065">
        <ele>38.2</ele>
        <time>2022-05-29T12:27:17Z</time>
      </trkpt>
      <trkpt lat="48.96016" lon="2.13077">
        <ele>38.1</ele>
        <time>2022-05-29T12:27:23Z</time>
      </trkpt>
      <trkpt lat="48.96013" lon="2.13089">
        <ele>38</ele>
        <time>2022-05-29T12:27:28Z</time>
      </trkpt>
      <trkpt lat="48.9601" lon="2.13095">
        <ele>38</ele>
        <time>2022-05-29T12:27:34Z</time>
      </trkpt>
      <trkpt lat="48.96003" lon="2.13104">
        <ele>38</ele>
        <time>2022-05-29T12:27:39Z</time>
      </trkpt>
      <trkpt lat="48.95997" lon="2.13112">
        <ele>38.1</ele>
        <time>2022-05-29T12:27:45Z</time>
      </trkpt>
      <trkpt lat="48.95994" lon="2.13123">
        <ele>38.2</ele>
        <time>2022-05-29T12:27:51Z</time>
      </trkpt>
      <trkpt lat="48.95992" lon="2.13137">
        <ele>38.3</ele>
        <time>2022-05-29T12:27:56Z</time>
      </trkpt>
      <trkpt lat="48.95985" lon="2.13153">
        <ele>38.3</ele>
        <time>2022-05-29T12:28:02Z</time>
      </trkpt>
      <trkpt lat="48.95978" lon="2.13161">
        <ele>38.2</ele>
        <time>2022-05-29T12:28:07Z</time>
      </trkpt>
      <trkpt lat="48.95975" lon="2.13162">
        <ele>38.2</ele>
        <time>2022-05-29T12:28:13Z</time>
      </trkpt>
      <trkpt lat="48.95973" lon="2.13168">
        <ele>38</ele>
        <time>2022-05-29T12:28:18Z</time>
      </trkpt>
      <trkpt lat="48.95974" lon="2.13175">
        <ele>38.3</ele>
        <time>2022-05-29T12:28:24Z</time>
      </trkpt>
      <trkpt lat="48.95978" lon="2.13182">
        <ele>38.4</ele>
        <time>2022-05-29T12:28:30Z</time>
      </trkpt>
      <trkpt lat="48.95983" lon="2.13188">
        <ele>38.5</ele>
        <time>2022-05-29T12:28:35Z</time>
      </trkpt>
      <trkpt lat="48.95988" lon="2.13192">
        <ele>38.4</ele>
        <time>2022-05-29T12:28:40Z</time>
      </trkpt>
      <trkpt lat="48.95995" lon="2.132">
        <ele>38.1</ele>
        <time>2022-05-29T12:28:46Z</time>
      </trkpt>
      <trkpt lat="48.96003" lon="2.13207">
        <ele>38</ele>
        <time>2022-05-29T12:28:52Z</time>
      </trkpt>
      <trkpt lat="48.96011" lon="2.13216">
        <ele>38</ele>
        <time>2022-05-29T12:28:58Z</time>
      </trkpt>
      <trkpt lat="48.96017" lon="2.13223">
        <ele>38</ele>
        <time>2022-05-29T12:29:04Z</time>
      </trkpt>
      <trkpt lat="48.96021" lon="2.13229">
        <ele>38</ele>
        <time>2022-05-29T12:29:09Z</time>
      </trkpt>
      <trkpt lat="48.96027" lon="2.13236">
        <ele>38</ele>
        <time>2022-05-29T12:29:14Z</time>
      </trkpt>
      <trkpt lat="48.96033" lon="2.1324">
        <ele>38</ele>
        <time>2022-05-29T12:29:20Z</time>
      </trkpt>
      <trkpt lat="48.96039" lon="2.13246">
        <ele>38</ele>
        <time>2022-05-29T12:29:25Z</time>
      </trkpt>
      <trkpt lat="48.96045" lon="2.13253">
        <ele>38</ele>
        <time>2022-05-29T12:29:31Z</time>
      </trkpt>
      <trkpt lat="48.96051" lon="2.13257">
        <ele>38</ele>
        <time>2022-05-29T12:29:36Z</time>
      </trkpt>
      <trkpt lat="48.96058" lon="2.13264">
        <ele>38</ele>
        <time>2022-05-29T12:29:41Z</time>
      </trkpt>
      <trkpt lat="48.96065" lon="2.13275">
        <ele>38</ele>
        <time>2022-05-29T12:29:47Z</time>
      </trkpt>
      <trkpt lat="48.9607" lon="2.13281">
        <ele>38</ele>
        <time>2022-05-29T12:29:53Z</time>
      </trkpt>
      <trkpt lat="48.96077" lon="2.13287">
        <ele>38</ele>
        <time>2022-05-29T12:29:59Z</time>
      </trkpt>
      <trkpt lat="48.96083" lon="2.13293">
        <ele>38</ele>
        <time>2022-05-29T12:30:04Z</time>
      </trkpt>
      <trkpt lat="48.96089" lon="2.13298">
        <ele>38</ele>
        <time>2022-05-29T12:30:10Z</time>
      </trkpt>
      <trkpt lat="48.96094" lon="2.13305">
        <ele>38</ele>
        <time>2022-05-29T12:30:16Z</time>
      </trkpt>
      <trkpt lat="48.96103" lon="2.13316">
        <ele>38</ele>
        <time>2022-05-29T12:30:22Z</time>
      </trkpt>
      <trkpt lat="48.96109" lon="2.13323">
        <ele>38</ele>
        <time>2022-05-29T12:30:27Z</time>
      </trkpt>
      <trkpt lat="48.96114" lon="2.13331">
        <ele>37.9</ele>
        <time>2022-05-29T12:30:32Z</time>
      </trkpt>
      <trkpt lat="48.9612" lon="2.13338">
        <ele>37.7</ele>
        <time>2022-05-29T12:30:38Z</time>
      </trkpt>
      <trkpt lat="48.96126" lon="2.13343">
        <ele>37.7</ele>
        <time>2022-05-29T12:30:43Z</time>
      </trkpt>
      <trkpt lat="48.96134" lon="2.13353">
        <ele>37.8</ele>
        <time>2022-05-29T12:30:49Z</time>
      </trkpt>
      <trkpt lat="48.96142" lon="2.13358">
        <ele>37.9</ele>
        <time>2022-05-29T12:30:55Z</time>
      </trkpt>
      <trkpt lat="48.96149" lon="2.13367">
        <ele>37.9</ele>
        <time>2022-05-29T12:31:01Z</time>
      </trkpt>
      <trkpt lat="48.96153" lon="2.13374">
        <ele>37.8</ele>
        <time>2022-05-29T12:31:06Z</time>
      </trkpt>
      <trkpt lat="48.96158" lon="2.1338">
        <ele>37.5</ele>
        <time>2022-05-29T12:31:11Z</time>
      </trkpt>
      <trkpt lat="48.96163" lon="2.13385">
        <ele>37.3</ele>
        <time>2022-05-29T12:31:16Z</time>
      </trkpt>
      <trkpt lat="48.96171" lon="2.13393">
        <ele>37.2</ele>
        <time>2022-05-29T12:31:22Z</time>
      </trkpt>
      <trkpt lat="48.96178" lon="2.13399">
        <ele>37.4</ele>
        <time>2022-05-29T12:31:28Z</time>
      </trkpt>
      <trkpt lat="48.96185" lon="2.13405">
        <ele>37.4</ele>
        <time>2022-05-29T12:31:33Z</time>
      </trkpt>
      <trkpt lat="48.96191" lon="2.13412">
        <ele>37.2</ele>
        <time>2022-05-29T12:31:38Z</time>
      </trkpt>
      <trkpt lat="48.96196" lon="2.13419">
        <ele>37.1</ele>
        <time>2022-05-29T12:31:44Z</time>
      </trkpt>
      <trkpt lat="48.96201" lon="2.13423">
        <ele>37.2</ele>
        <time>2022-05-29T12:31:50Z</time>
      </trkpt>
      <trkpt lat="48.96207" lon="2.13429">
        <ele>37.4</ele>
        <time>2022-05-29T12:31:55Z</time>
      </trkpt>
      <trkpt lat="48.96213" lon="2.13436">
        <ele>37.7</ele>
        <time>2022-05-29T12:32:01Z</time>
      </trkpt>
      <trkpt lat="48.96219" lon="2.13441">
        <ele>37.9</ele>
        <time>2022-05-29T12:32:06Z</time>
      </trkpt>
      <trkpt lat="48.96227" lon="2.13448">
        <ele>37.9</ele>
        <time>2022-05-29T12:32:12Z</time>
      </trkpt>
      <trkpt lat="48.96234" lon="2.13451">
        <ele>37.7</ele>
        <time>2022-05-29T12:32:17Z</time>
      </trkpt>
      <trkpt lat="48.96243" lon="2.13458">
        <ele>37.6</ele>
        <time>2022-05-29T12:32:22Z</time>
      </trkpt>
      <trkpt lat="48.96247" lon="2.13466">
        <ele>37.8</ele>
        <time>2022-05-29T12:32:28Z</time>
      </trkpt>
      <trkpt lat="48.96253" lon="2.13477">
        <ele>38.1</ele>
        <time>2022-05-29T12:32:34Z</time>
      </trkpt>
      <trkpt lat="48.96259" lon="2.13486">
        <ele>38.2</ele>
        <time>2022-05-29T12:32:40Z</time>
      </trkpt>
      <trkpt lat="48.96264" lon="2.13492">
        <ele>38.2</ele>
        <time>2022-05-29T12:32:45Z</time>
      </trkpt>
      <trkpt lat="48.9627" lon="2.13492">
        <ele>38</ele>
        <time>2022-05-29T12:32:51Z</time>
      </trkpt>
      <trkpt lat="48.96275" lon="2.13496">
        <ele>38</ele>
        <time>2022-05-29T12:32:56Z</time>
      </trkpt>
      <trkpt lat="48.96283" lon="2.13503">
        <ele>37.8</ele>
        <time>2022-05-29T12:33:02Z</time>
      </trkpt>
      <trkpt lat="48.96294" lon="2.13507">
        <ele>37.6</ele>
        <time>2022-05-29T12:33:08Z</time>
      </trkpt>
      <trkpt lat="48.96301" lon="2.13512">
        <ele>37.5</ele>
        <time>2022-05-29T12:33:13Z</time>
      </trkpt>
      <trkpt lat="48.96308" lon="2.13522">
        <ele>37.8</ele>
        <time>2022-05-29T12:33:19Z</time>
      </trkpt>
      <trkpt lat="48.96313" lon="2.13535">
        <ele>38</ele>
        <time>2022-05-29T12:33:25Z</time>
      </trkpt>
      <trkpt lat="48.96316" lon="2.13544">
        <ele>38</ele>
        <time>2022-05-29T12:33:30Z</time>
      </trkpt>
      <trkpt lat="48.96323" lon="2.13554">
        <ele>38</ele>
        <time>2022-05-29T12:33:36Z</time>
      </trkpt>
      <trkpt lat="48.96328" lon="2.13562">
        <ele>38</ele>
        <time>2022-05-29T12:33:41Z</time>
      </trkpt>
      <trkpt lat="48.96336" lon="2.13573">
        <ele>38</ele>
        <time>2022-05-29T12:33:47Z</time>
      </trkpt>
      <trkpt lat="48.96341" lon="2.13579">
        <ele>38</ele>
        <time>2022-05-29T12:33:52Z</time>
      </trkpt>
      <trkpt lat="48.96346" lon="2.13586">
        <ele>38</ele>
        <time>2022-05-29T12:33:58Z</time>
      </trkpt>
      <trkpt lat="48.96353" lon="2.13592">
        <ele>38.1</ele>
        <time>2022-05-29T12:34:03Z</time>
      </trkpt>
      <trkpt lat="48.96361" lon="2.13601">
        <ele>38</ele>
        <time>2022-05-29T12:34:09Z</time>
      </trkpt>
      <trkpt lat="48.96365" lon="2.13611">
        <ele>38</ele>
        <time>2022-05-29T12:34:15Z</time>
      </trkpt>
      <trkpt lat="48.96373" lon="2.13618">
        <ele>38</ele>
        <time>2022-05-29T12:34:21Z</time>
      </trkpt>
      <trkpt lat="48.96378" lon="2.13622">
        <ele>38</ele>
        <time>2022-05-29T12:34:27Z</time>
      </trkpt>
      <trkpt lat="48.96387" lon="2.13631">
        <ele>38</ele>
        <time>2022-05-29T12:34:33Z</time>
      </trkpt>
      <trkpt lat="48.96395" lon="2.13643">
        <ele>38</ele>
        <time>2022-05-29T12:34:39Z</time>
      </trkpt>
      <trkpt lat="48.964" lon="2.13652">
        <ele>38</ele>
        <time>2022-05-29T12:34:45Z</time>
      </trkpt>
      <trkpt lat="48.96406" lon="2.13656">
        <ele>38</ele>
        <time>2022-05-29T12:34:50Z</time>
      </trkpt>
      <trkpt lat="48.96412" lon="2.13663">
        <ele>38</ele>
        <time>2022-05-29T12:34:56Z</time>
      </trkpt>
      <trkpt lat="48.96417" lon="2.13669">
        <ele>38</ele>
        <time>2022-05-29T12:35:02Z</time>
      </trkpt>
      <trkpt lat="48.96426" lon="2.13678">
        <ele>38</ele>
        <time>2022-05-29T12:35:08Z</time>
      </trkpt>
      <trkpt lat="48.96431" lon="2.1369">
        <ele>38</ele>
        <time>2022-05-29T12:35:13Z</time>
      </trkpt>
      <trkpt lat="48.96438" lon="2.13701">
        <ele>38</ele>
        <time>2022-05-29T12:35:19Z</time>
      </trkpt>
      <trkpt lat="48.96444" lon="2.13708">
        <ele>38</ele>
        <time>2022-05-29T12:35:24Z</time>
      </trkpt>
      <trkpt lat="48.96451" lon="2.13715">
        <ele>37.8</ele>
        <time>2022-05-29T12:35:30Z</time>
      </trkpt>
      <trkpt lat="48.96457" lon="2.13726">
        <ele>37.6</ele>
        <time>2022-05-29T12:35:36Z</time>
      </trkpt>
      <trkpt lat="48.96464" lon="2.13738">
        <ele>37.7</ele>
        <time>2022-05-29T12:35:42Z</time>
      </trkpt>
      <trkpt lat="48.9647" lon="2.13749">
        <ele>38</ele>
        <time>2022-05-29T12:35:48Z</time>
      </trkpt>
      <trkpt lat="48.96479" lon="2.13752">
        <ele>37.7</ele>
        <time>2022-05-29T12:35:54Z</time>
      </trkpt>
      <trkpt lat="48.96483" lon="2.13753">
        <ele>37.5</ele>
        <time>2022-05-29T12:36:00Z</time>
      </trkpt>
      <trkpt lat="48.96486" lon="2.13762">
        <ele>37.3</ele>
        <time>2022-05-29T12:36:06Z</time>
      </trkpt>
      <trkpt lat="48.96494" lon="2.13771">
        <ele>37.1</ele>
        <time>2022-05-29T12:36:11Z</time>
      </trkpt>
      <trkpt lat="48.96506" lon="2.13785">
        <ele>37</ele>
        <time>2022-05-29T12:36:17Z</time>
      </trkpt>
      <trkpt lat="48.96513" lon="2.13791">
        <ele>37</ele>
        <time>2022-05-29T12:36:22Z</time>
      </trkpt>
      <trkpt lat="48.96515" lon="2.13797">
        <ele>37</ele>
        <time>2022-05-29T12:36:27Z</time>
      </trkpt>
      <trkpt lat="48.96525" lon="2.13801">
        <ele>37</ele>
        <time>2022-05-29T12:36:33Z</time>
      </trkpt>
      <trkpt lat="48.96531" lon="2.13809">
        <ele>37</ele>
        <time>2022-05-29T12:36:38Z</time>
      </trkpt>
      <trkpt lat="48.96536" lon="2.13817">
        <ele>37</ele>
        <time>2022-05-29T12:36:44Z</time>
      </trkpt>
      <trkpt lat="48.96542" lon="2.13825">
        <ele>37</ele>
        <time>2022-05-29T12:36:50Z</time>
      </trkpt>
      <trkpt lat="48.96548" lon="2.13833">
        <ele>37</ele>
        <time>2022-05-29T12:36:56Z</time>
      </trkpt>
      <trkpt lat="48.96555" lon="2.13842">
        <ele>37</ele>
        <time>2022-05-29T12:37:02Z</time>
      </trkpt>
      <trkpt lat="48.96564" lon="2.13853">
        <ele>37</ele>
        <time>2022-05-29T12:37:08Z</time>
      </trkpt>
      <trkpt lat="48.9657" lon="2.13863">
        <ele>37</ele>
        <time>2022-05-29T12:37:14Z</time>
      </trkpt>
      <trkpt lat="48.96577" lon="2.13871">
        <ele>37</ele>
        <time>2022-05-29T12:37:20Z</time>
      </trkpt>
      <trkpt lat="48.96582" lon="2.13877">
        <ele>37</ele>
        <time>2022-05-29T12:37:25Z</time>
      </trkpt>
      <trkpt lat="48.96586" lon="2.1388">
        <ele>37</ele>
        <time>2022-05-29T12:37:31Z</time>
      </trkpt>
      <trkpt lat="48.96589" lon="2.13887">
        <ele>37</ele>
        <time>2022-05-29T12:37:36Z</time>
      </trkpt>
      <trkpt lat="48.96596" lon="2.13893">
        <ele>37</ele>
        <time>2022-05-29T12:37:42Z</time>
      </trkpt>
      <trkpt lat="48.966" lon="2.13897">
        <ele>37</ele>
        <time>2022-05-29T12:37:48Z</time>
      </trkpt>
      <trkpt lat="48.96602" lon="2.139">
        <ele>37</ele>
        <time>2022-05-29T12:37:54Z</time>
      </trkpt>
      <trkpt lat="48.96602" lon="2.139">
        <ele>37</ele>
        <time>2022-05-29T12:38:00Z</time>
      </trkpt>
      <trkpt lat="48.96602" lon="2.13901">
        <ele>37</ele>
        <time>2022-05-29T12:38:05Z</time>
      </trkpt>
      <trkpt lat="48.96602" lon="2.139">
        <ele>37</ele>
        <time>2022-05-29T12:38:11Z</time>
      </trkpt>
      <trkpt lat="48.96603" lon="2.139">
        <ele>37</ele>
        <time>2022-05-29T12:38:16Z</time>
      </trkpt>
      <trkpt lat="48.96603" lon="2.139">
        <ele>37</ele>
        <time>2022-05-29T12:38:22Z</time>
      </trkpt>
      <trkpt lat="48.96603" lon="2.13901">
        <ele>37</ele>
        <time>2022-05-29T12:38:28Z</time>
      </trkpt>
      <trkpt lat="48.96603" lon="2.13902">
        <ele>37</ele>
        <time>2022-05-29T12:38:33Z</time>
      </trkpt>
      <trkpt lat="48.96607" lon="2.13905">
        <ele>37</ele>
        <time>2022-05-29T12:38:38Z</time>
      </trkpt>
      <trkpt lat="48.96614" lon="2.13914">
        <ele>37</ele>
        <time>2022-05-29T12:38:43Z</time>
      </trkpt>
      <trkpt lat="48.9662" lon="2.1392">
        <ele>37</ele>
        <time>2022-05-29T12:38:48Z</time>
      </trkpt>
      <trkpt lat="48.96626" lon="2.13927">
        <ele>37</ele>
        <time>2022-05-29T12:38:54Z</time>
      </trkpt>
      <trkpt lat="48.96632" lon="2.13936">
        <ele>37</ele>
        <time>2022-05-29T12:39:00Z</time>
      </trkpt>
      <trkpt lat="48.96637" lon="2.13942">
        <ele>37</ele>
        <time>2022-05-29T12:39:05Z</time>
      </trkpt>
      <trkpt lat="48.96645" lon="2.13949">
        <ele>37</ele>
        <time>2022-05-29T12:39:11Z</time>
      </trkpt>
      <trkpt lat="48.96653" lon="2.13958">
        <ele>37</ele>
        <time>2022-05-29T12:39:17Z</time>
      </trkpt>
      <trkpt lat="48.9666" lon="2.13965">
        <ele>37</ele>
        <time>2022-05-29T12:39:23Z</time>
      </trkpt>
      <trkpt lat="48.96667" lon="2.13974">
        <ele>37</ele>
        <time>2022-05-29T12:39:29Z</time>
      </trkpt>
      <trkpt lat="48.96674" lon="2.13981">
        <ele>37</ele>
        <time>2022-05-29T12:39:34Z</time>
      </trkpt>
      <trkpt lat="48.96681" lon="2.13987">
        <ele>37</ele>
        <time>2022-05-29T12:39:39Z</time>
      </trkpt>
      <trkpt lat="48.96689" lon="2.13995">
        <ele>37</ele>
        <time>2022-05-29T12:39:45Z</time>
      </trkpt>
      <trkpt lat="48.96695" lon="2.14008">
        <ele>37</ele>
        <time>2022-05-29T12:39:51Z</time>
      </trkpt>
      <trkpt lat="48.96701" lon="2.14016">
        <ele>37</ele>
        <time>2022-05-29T12:39:57Z</time>
      </trkpt>
      <trkpt lat="48.96707" lon="2.14024">
        <ele>37</ele>
        <time>2022-05-29T12:40:03Z</time>
      </trkpt>
      <trkpt lat="48.96714" lon="2.14031">
        <ele>37</ele>
        <time>2022-05-29T12:40:09Z</time>
      </trkpt>
      <trkpt lat="48.9672" lon="2.14044">
        <ele>37</ele>
        <time>2022-05-29T12:40:15Z</time>
      </trkpt>
      <trkpt lat="48.96726" lon="2.14052">
        <ele>37</ele>
        <time>2022-05-29T12:40:20Z</time>
      </trkpt>
      <trkpt lat="48.96732" lon="2.14062">
        <ele>37</ele>
        <time>2022-05-29T12:40:26Z</time>
      </trkpt>
      <trkpt lat="48.96736" lon="2.14069">
        <ele>37</ele>
        <time>2022-05-29T12:40:32Z</time>
      </trkpt>
      <trkpt lat="48.96745" lon="2.14076">
        <ele>37</ele>
        <time>2022-05-29T12:40:38Z</time>
      </trkpt>
      <trkpt lat="48.96752" lon="2.1408">
        <ele>36.9</ele>
        <time>2022-05-29T12:40:43Z</time>
      </trkpt>
      <trkpt lat="48.96756" lon="2.14088">
        <ele>36.8</ele>
        <time>2022-05-29T12:40:48Z</time>
      </trkpt>
      <trkpt lat="48.96764" lon="2.14098">
        <ele>36.8</ele>
        <time>2022-05-29T12:40:54Z</time>
      </trkpt>
      <trkpt lat="48.96769" lon="2.14106">
        <ele>36.9</ele>
        <time>2022-05-29T12:40:59Z</time>
      </trkpt>
      <trkpt lat="48.96774" lon="2.14114">
        <ele>36.9</ele>
        <time>2022-05-29T12:41:05Z</time>
      </trkpt>
      <trkpt lat="48.96781" lon="2.14122">
        <ele>36.6</ele>
        <time>2022-05-29T12:41:10Z</time>
      </trkpt>
      <trkpt lat="48.96786" lon="2.14127">
        <ele>36.3</ele>
        <time>2022-05-29T12:41:15Z</time>
      </trkpt>
      <trkpt lat="48.96794" lon="2.14133">
        <ele>36.1</ele>
        <time>2022-05-29T12:41:21Z</time>
      </trkpt>
      <trkpt lat="48.96799" lon="2.14138">
        <ele>36</ele>
        <time>2022-05-29T12:41:26Z</time>
      </trkpt>
      <trkpt lat="48.96808" lon="2.14147">
        <ele>36</ele>
        <time>2022-05-29T12:41:32Z</time>
      </trkpt>
      <trkpt lat="48.96819" lon="2.14148">
        <ele>36</ele>
        <time>2022-05-29T12:41:37Z</time>
      </trkpt>
      <trkpt lat="48.96826" lon="2.14153">
        <ele>36</ele>
        <time>2022-05-29T12:41:43Z</time>
      </trkpt>
      <trkpt lat="48.96832" lon="2.14164">
        <ele>36</ele>
        <time>2022-05-29T12:41:49Z</time>
      </trkpt>
      <trkpt lat="48.96837" lon="2.14175">
        <ele>36</ele>
        <time>2022-05-29T12:41:54Z</time>
      </trkpt>
      <trkpt lat="48.96842" lon="2.14185">
        <ele>36</ele>
        <time>2022-05-29T12:41:59Z</time>
      </trkpt>
      <trkpt lat="48.96849" lon="2.14194">
        <ele>36</ele>
        <time>2022-05-29T12:42:05Z</time>
      </trkpt>
      <trkpt lat="48.96855" lon="2.14199">
        <ele>36</ele>
        <time>2022-05-29T12:42:10Z</time>
      </trkpt>
      <trkpt lat="48.96859" lon="2.14212">
        <ele>36</ele>
        <time>2022-05-29T12:42:16Z</time>
      </trkpt>
      <trkpt lat="48.96863" lon="2.14222">
        <ele>36</ele>
        <time>2022-05-29T12:42:21Z</time>
      </trkpt>
      <trkpt lat="48.9687" lon="2.14233">
        <ele>35.9</ele>
        <time>2022-05-29T12:42:27Z</time>
      </trkpt>
      <trkpt lat="48.9688" lon="2.14236">
        <ele>35.7</ele>
        <time>2022-05-29T12:42:32Z</time>
      </trkpt>
      <trkpt lat="48.96889" lon="2.1424">
        <ele>35.4</ele>
        <time>2022-05-29T12:42:38Z</time>
      </trkpt>
      <trkpt lat="48.96893" lon="2.14252">
        <ele>35.2</ele>
        <time>2022-05-29T12:42:43Z</time>
      </trkpt>
      <trkpt lat="48.96899" lon="2.1426">
        <ele>35.2</ele>
        <time>2022-05-29T12:42:49Z</time>
      </trkpt>
      <trkpt lat="48.96907" lon="2.14266">
        <ele>35.3</ele>
        <time>2022-05-29T12:42:54Z</time>
      </trkpt>
      <trkpt lat="48.96914" lon="2.14274">
        <ele>35.1</ele>
        <time>2022-05-29T12:42:59Z</time>
      </trkpt>
      <trkpt lat="48.96919" lon="2.14284">
        <ele>35</ele>
        <time>2022-05-29T12:43:05Z</time>
      </trkpt>
      <trkpt lat="48.96924" lon="2.14297">
        <ele>35</ele>
        <time>2022-05-29T12:43:11Z</time>
      </trkpt>
      <trkpt lat="48.96932" lon="2.14305">
        <ele>35</ele>
        <time>2022-05-29T12:43:17Z</time>
      </trkpt>
      <trkpt lat="48.9694" lon="2.14304">
        <ele>35</ele>
        <time>2022-05-29T12:43:22Z</time>
      </trkpt>
      <trkpt lat="48.96947" lon="2.14301">
        <ele>35</ele>
        <time>2022-05-29T12:43:28Z</time>
      </trkpt>
      <trkpt lat="48.96947" lon="2.14303">
        <ele>35</ele>
        <time>2022-05-29T12:43:34Z</time>
      </trkpt>
      <trkpt lat="48.9695" lon="2.14308">
        <ele>35</ele>
        <time>2022-05-29T12:43:40Z</time>
      </trkpt>
      <trkpt lat="48.96955" lon="2.14315">
        <ele>35</ele>
        <time>2022-05-29T12:43:53Z</time>
      </trkpt>
      <trkpt lat="48.96939" lon="2.14319">
        <ele>35</ele>
        <time>2022-05-29T12:44:29Z</time>
      </trkpt>
      <trkpt lat="48.96948" lon="2.14315">
        <ele>35</ele>
        <time>2022-05-29T12:44:34Z</time>
      </trkpt>
      <trkpt lat="48.96952" lon="2.1431">
        <ele>35</ele>
        <time>2022-05-29T12:44:39Z</time>
      </trkpt>
      <trkpt lat="48.96952" lon="2.14309">
        <ele>35</ele>
        <time>2022-05-29T12:44:45Z</time>
      </trkpt>
      <trkpt lat="48.96953" lon="2.14308">
        <ele>35</ele>
        <time>2022-05-29T12:44:51Z</time>
      </trkpt>
      <trkpt lat="48.96953" lon="2.14308">
        <ele>35</ele>
        <time>2022-05-29T12:44:56Z</time>
      </trkpt>
      <trkpt lat="48.96952" lon="2.14303">
        <ele>35</ele>
        <time>2022-05-29T12:45:02Z</time>
      </trkpt>
      <trkpt lat="48.96953" lon="2.143">
        <ele>35</ele>
        <time>2022-05-29T12:45:08Z</time>
      </trkpt>
      <trkpt lat="48.96953" lon="2.14299">
        <ele>35</ele>
        <time>2022-05-29T12:45:14Z</time>
      </trkpt>
      <trkpt lat="48.96953" lon="2.14299">
        <ele>35</ele>
        <time>2022-05-29T12:45:19Z</time>
      </trkpt>
      <trkpt lat="48.96953" lon="2.143">
        <ele>35</ele>
        <time>2022-05-29T12:45:24Z</time>
      </trkpt>
      <trkpt lat="48.96952" lon="2.143">
        <ele>35</ele>
        <time>2022-05-29T12:45:30Z</time>
      </trkpt>
      <trkpt lat="48.96951" lon="2.14299">
        <ele>35</ele>
        <time>2022-05-29T12:45:36Z</time>
      </trkpt>
      <trkpt lat="48.96951" lon="2.14296">
        <ele>35</ele>
        <time>2022-05-29T12:45:42Z</time>
      </trkpt>
      <trkpt lat="48.96951" lon="2.14295">
        <ele>35</ele>
        <time>2022-05-29T12:45:48Z</time>
      </trkpt>
      <trkpt lat="48.96952" lon="2.14293">
        <ele>35</ele>
        <time>2022-05-29T12:45:54Z</time>
      </trkpt>
      <trkpt lat="48.96951" lon="2.14293">
        <ele>35</ele>
        <time>2022-05-29T12:45:59Z</time>
      </trkpt>
      <trkpt lat="48.9695" lon="2.14294">
        <ele>35</ele>
        <time>2022-05-29T12:46:05Z</time>
      </trkpt>
      <trkpt lat="48.96949" lon="2.14294">
        <ele>35</ele>
        <time>2022-05-29T12:46:10Z</time>
      </trkpt>
      <trkpt lat="48.96948" lon="2.14294">
        <ele>35</ele>
        <time>2022-05-29T12:46:15Z</time>
      </trkpt>
      <trkpt lat="48.96948" lon="2.14295">
        <ele>35</ele>
        <time>2022-05-29T12:46:21Z</time>
      </trkpt>
      <trkpt lat="48.96948" lon="2.14294">
        <ele>35</ele>
        <time>2022-05-29T12:46:27Z</time>
      </trkpt>
      <trkpt lat="48.96948" lon="2.14294">
        <ele>35</ele>
        <time>2022-05-29T12:46:33Z</time>
      </trkpt>
      <trkpt lat="48.96947" lon="2.14294">
        <ele>35</ele>
        <time>2022-05-29T12:46:39Z</time>
      </trkpt>
      <trkpt lat="48.96947" lon="2.14294">
        <ele>35</ele>
        <time>2022-05-29T12:46:44Z</time>
      </trkpt>
      <trkpt lat="48.96947" lon="2.14294">
        <ele>35</ele>
        <time>2022-05-29T12:46:49Z</time>
      </trkpt>
      <trkpt lat="48.96947" lon="2.14293">
        <ele>35</ele>
        <time>2022-05-29T12:46:56Z</time>
      </trkpt>
      <trkpt lat="48.96946" lon="2.14293">
        <ele>35</ele>
        <time>2022-05-29T12:47:01Z</time>
      </trkpt>
      <trkpt lat="48.96946" lon="2.14294">
        <ele>35</ele>
        <time>2022-05-29T12:47:07Z</time>
      </trkpt>
      <trkpt lat="48.96946" lon="2.14294">
        <ele>35</ele>
        <time>2022-05-29T12:47:13Z</time>
      </trkpt>
      <trkpt lat="48.96947" lon="2.14294">
        <ele>35</ele>
        <time>2022-05-29T12:47:18Z</time>
      </trkpt>
      <trkpt lat="48.9695" lon="2.14293">
        <ele>35</ele>
        <time>2022-05-29T12:47:23Z</time>
      </trkpt>
      <trkpt lat="48.96953" lon="2.14291">
        <ele>35</ele>
        <time>2022-05-29T12:47:29Z</time>
      </trkpt>
      <trkpt lat="48.96959" lon="2.14279">
        <ele>35</ele>
        <time>2022-05-29T12:47:35Z</time>
      </trkpt>
      <trkpt lat="48.96963" lon="2.14271">
        <ele>35.1</ele>
        <time>2022-05-29T12:47:40Z</time>
      </trkpt>
      <trkpt lat="48.96969" lon="2.1426">
        <ele>35.1</ele>
        <time>2022-05-29T12:47:46Z</time>
      </trkpt>
      <trkpt lat="48.96975" lon="2.14253">
        <ele>35</ele>
        <time>2022-05-29T12:47:51Z</time>
      </trkpt>
      <trkpt lat="48.96979" lon="2.14245">
        <ele>35</ele>
        <time>2022-05-29T12:47:57Z</time>
      </trkpt>
      <trkpt lat="48.96983" lon="2.14239">
        <ele>35</ele>
        <time>2022-05-29T12:48:02Z</time>
      </trkpt>
      <trkpt lat="48.96988" lon="2.14231">
        <ele>35</ele>
        <time>2022-05-29T12:48:08Z</time>
      </trkpt>
      <trkpt lat="48.96994" lon="2.14221">
        <ele>35</ele>
        <time>2022-05-29T12:48:14Z</time>
      </trkpt>
      <trkpt lat="48.96999" lon="2.14213">
        <ele>35</ele>
        <time>2022-05-29T12:48:19Z</time>
      </trkpt>
      <trkpt lat="48.97001" lon="2.14205">
        <ele>35</ele>
        <time>2022-05-29T12:48:24Z</time>
      </trkpt>
      <trkpt lat="48.97005" lon="2.14197">
        <ele>35</ele>
        <time>2022-05-29T12:48:30Z</time>
      </trkpt>
      <trkpt lat="48.97012" lon="2.14187">
        <ele>35</ele>
        <time>2022-05-29T12:48:36Z</time>
      </trkpt>
      <trkpt lat="48.97016" lon="2.14175">
        <ele>35</ele>
        <time>2022-05-29T12:48:41Z</time>
      </trkpt>
      <trkpt lat="48.97019" lon="2.14167">
        <ele>35</ele>
        <time>2022-05-29T12:48:46Z</time>
      </trkpt>
      <trkpt lat="48.97024" lon="2.14154">
        <ele>35</ele>
        <time>2022-05-29T12:48:52Z</time>
      </trkpt>
      <trkpt lat="48.97028" lon="2.14143">
        <ele>35</ele>
        <time>2022-05-29T12:48:58Z</time>
      </trkpt>
      <trkpt lat="48.97033" lon="2.14135">
        <ele>35</ele>
        <time>2022-05-29T12:49:03Z</time>
      </trkpt>
      <trkpt lat="48.97037" lon="2.14123">
        <ele>35</ele>
        <time>2022-05-29T12:49:09Z</time>
      </trkpt>
      <trkpt lat="48.97041" lon="2.14115">
        <ele>35</ele>
        <time>2022-05-29T12:49:14Z</time>
      </trkpt>
      <trkpt lat="48.97047" lon="2.14107">
        <ele>35</ele>
        <time>2022-05-29T12:49:19Z</time>
      </trkpt>
      <trkpt lat="48.97053" lon="2.14098">
        <ele>35</ele>
        <time>2022-05-29T12:49:25Z</time>
      </trkpt>
      <trkpt lat="48.97058" lon="2.14089">
        <ele>35</ele>
        <time>2022-05-29T12:49:31Z</time>
      </trkpt>
      <trkpt lat="48.97063" lon="2.1408">
        <ele>35</ele>
        <time>2022-05-29T12:49:37Z</time>
      </trkpt>
      <trkpt lat="48.97068" lon="2.14068">
        <ele>35</ele>
        <time>2022-05-29T12:49:43Z</time>
      </trkpt>
      <trkpt lat="48.97073" lon="2.14055">
        <ele>35</ele>
        <time>2022-05-29T12:49:49Z</time>
      </trkpt>
      <trkpt lat="48.97076" lon="2.14048">
        <ele>35</ele>
        <time>2022-05-29T12:49:54Z</time>
      </trkpt>
      <trkpt lat="48.97081" lon="2.14037">
        <ele>35</ele>
        <time>2022-05-29T12:50:00Z</time>
      </trkpt>
      <trkpt lat="48.97085" lon="2.14027">
        <ele>35</ele>
        <time>2022-05-29T12:50:05Z</time>
      </trkpt>
      <trkpt lat="48.9709" lon="2.14012">
        <ele>35</ele>
        <time>2022-05-29T12:50:12Z</time>
      </trkpt>
      <trkpt lat="48.97095" lon="2.14001">
        <ele>35</ele>
        <time>2022-05-29T12:50:18Z</time>
      </trkpt>
      <trkpt lat="48.97091" lon="2.13991">
        <ele>35</ele>
        <time>2022-05-29T12:50:24Z</time>
      </trkpt>
      <trkpt lat="48.97083" lon="2.13981">
        <ele>35</ele>
        <time>2022-05-29T12:50:29Z</time>
      </trkpt>
      <trkpt lat="48.97076" lon="2.13975">
        <ele>35</ele>
        <time>2022-05-29T12:50:34Z</time>
      </trkpt>
      <trkpt lat="48.97068" lon="2.13969">
        <ele>35</ele>
        <time>2022-05-29T12:50:40Z</time>
      </trkpt>
      <trkpt lat="48.97062" lon="2.13966">
        <ele>35</ele>
        <time>2022-05-29T12:50:45Z</time>
      </trkpt>
      <trkpt lat="48.97056" lon="2.1396">
        <ele>35</ele>
        <time>2022-05-29T12:50:50Z</time>
      </trkpt>
      <trkpt lat="48.9705" lon="2.13954">
        <ele>35</ele>
        <time>2022-05-29T12:50:56Z</time>
      </trkpt>
      <trkpt lat="48.97045" lon="2.13948">
        <ele>35</ele>
        <time>2022-05-29T12:51:02Z</time>
      </trkpt>
      <trkpt lat="48.9704" lon="2.13942">
        <ele>35</ele>
        <time>2022-05-29T12:51:07Z</time>
      </trkpt>
      <trkpt lat="48.97035" lon="2.13932">
        <ele>35</ele>
        <time>2022-05-29T12:51:12Z</time>
      </trkpt>
      <trkpt lat="48.97027" lon="2.13922">
        <ele>35</ele>
        <time>2022-05-29T12:51:18Z</time>
      </trkpt>
      <trkpt lat="48.97019" lon="2.13914">
        <ele>35</ele>
        <time>2022-05-29T12:51:23Z</time>
      </trkpt>
      <trkpt lat="48.97011" lon="2.13909">
        <ele>35</ele>
        <time>2022-05-29T12:51:28Z</time>
      </trkpt>
      <trkpt lat="48.97007" lon="2.13901">
        <ele>35</ele>
        <time>2022-05-29T12:51:33Z</time>
      </trkpt>
      <trkpt lat="48.97002" lon="2.13896">
        <ele>35</ele>
        <time>2022-05-29T12:51:38Z</time>
      </trkpt>
      <trkpt lat="48.96998" lon="2.13889">
        <ele>35.1</ele>
        <time>2022-05-29T12:51:44Z</time>
      </trkpt>
      <trkpt lat="48.96991" lon="2.13879">
        <ele>35.3</ele>
        <time>2022-05-29T12:51:50Z</time>
      </trkpt>
      <trkpt lat="48.9698" lon="2.13868">
        <ele>35.7</ele>
        <time>2022-05-29T12:51:56Z</time>
      </trkpt>
      <trkpt lat="48.96971" lon="2.13862">
        <ele>36</ele>
        <time>2022-05-29T12:52:02Z</time>
      </trkpt>
      <trkpt lat="48.96967" lon="2.13856">
        <ele>36</ele>
        <time>2022-05-29T12:52:07Z</time>
      </trkpt>
      <trkpt lat="48.96963" lon="2.1385">
        <ele>36</ele>
        <time>2022-05-29T12:52:12Z</time>
      </trkpt>
      <trkpt lat="48.96954" lon="2.1384">
        <ele>36</ele>
        <time>2022-05-29T12:52:18Z</time>
      </trkpt>
      <trkpt lat="48.96947" lon="2.13835">
        <ele>36</ele>
        <time>2022-05-29T12:52:24Z</time>
      </trkpt>
      <trkpt lat="48.96941" lon="2.13831">
        <ele>36</ele>
        <time>2022-05-29T12:52:30Z</time>
      </trkpt>
      <trkpt lat="48.96936" lon="2.13824">
        <ele>36</ele>
        <time>2022-05-29T12:52:35Z</time>
      </trkpt>
      <trkpt lat="48.96929" lon="2.13814">
        <ele>36</ele>
        <time>2022-05-29T12:52:40Z</time>
      </trkpt>
      <trkpt lat="48.96924" lon="2.13805">
        <ele>36</ele>
        <time>2022-05-29T12:52:45Z</time>
      </trkpt>
      <trkpt lat="48.96918" lon="2.13797">
        <ele>36</ele>
        <time>2022-05-29T12:52:51Z</time>
      </trkpt>
      <trkpt lat="48.96915" lon="2.13788">
        <ele>36</ele>
        <time>2022-05-29T12:52:57Z</time>
      </trkpt>
      <trkpt lat="48.96919" lon="2.13777">
        <ele>36</ele>
        <time>2022-05-29T12:53:03Z</time>
      </trkpt>
      <trkpt lat="48.96925" lon="2.13765">
        <ele>36</ele>
        <time>2022-05-29T12:53:09Z</time>
      </trkpt>
      <trkpt lat="48.96929" lon="2.13757">
        <ele>36</ele>
        <time>2022-05-29T12:53:14Z</time>
      </trkpt>
      <trkpt lat="48.96933" lon="2.13746">
        <ele>36</ele>
        <time>2022-05-29T12:53:20Z</time>
      </trkpt>
      <trkpt lat="48.96937" lon="2.13735">
        <ele>36</ele>
        <time>2022-05-29T12:53:26Z</time>
      </trkpt>
      <trkpt lat="48.96943" lon="2.13726">
        <ele>36</ele>
        <time>2022-05-29T12:53:31Z</time>
      </trkpt>
      <trkpt lat="48.96948" lon="2.13716">
        <ele>36</ele>
        <time>2022-05-29T12:53:37Z</time>
      </trkpt>
      <trkpt lat="48.96953" lon="2.13704">
        <ele>36</ele>
        <time>2022-05-29T12:53:43Z</time>
      </trkpt>
      <trkpt lat="48.96957" lon="2.13697">
        <ele>36</ele>
        <time>2022-05-29T12:53:48Z</time>
      </trkpt>
      <trkpt lat="48.96963" lon="2.13686">
        <ele>36</ele>
        <time>2022-05-29T12:53:54Z</time>
      </trkpt>
      <trkpt lat="48.96968" lon="2.13677">
        <ele>36</ele>
        <time>2022-05-29T12:54:00Z</time>
      </trkpt>
      <trkpt lat="48.96972" lon="2.13665">
        <ele>36</ele>
        <time>2022-05-29T12:54:05Z</time>
      </trkpt>
      <trkpt lat="48.96976" lon="2.13656">
        <ele>36</ele>
        <time>2022-05-29T12:54:10Z</time>
      </trkpt>
      <trkpt lat="48.96979" lon="2.13649">
        <ele>36</ele>
        <time>2022-05-29T12:54:15Z</time>
      </trkpt>
      <trkpt lat="48.96984" lon="2.13637">
        <ele>36</ele>
        <time>2022-05-29T12:54:21Z</time>
      </trkpt>
      <trkpt lat="48.96988" lon="2.13627">
        <ele>36</ele>
        <time>2022-05-29T12:54:27Z</time>
      </trkpt>
      <trkpt lat="48.96992" lon="2.1362">
        <ele>36</ele>
        <time>2022-05-29T12:54:33Z</time>
      </trkpt>
      <trkpt lat="48.96998" lon="2.13609">
        <ele>36</ele>
        <time>2022-05-29T12:54:39Z</time>
      </trkpt>
      <trkpt lat="48.97003" lon="2.13599">
        <ele>36</ele>
        <time>2022-05-29T12:54:45Z</time>
      </trkpt>
      <trkpt lat="48.97006" lon="2.13592">
        <ele>36</ele>
        <time>2022-05-29T12:54:50Z</time>
      </trkpt>
      <trkpt lat="48.97011" lon="2.13581">
        <ele>36</ele>
        <time>2022-05-29T12:54:56Z</time>
      </trkpt>
      <trkpt lat="48.97014" lon="2.13571">
        <ele>36</ele>
        <time>2022-05-29T12:55:02Z</time>
      </trkpt>
      <trkpt lat="48.97018" lon="2.13562">
        <ele>36</ele>
        <time>2022-05-29T12:55:07Z</time>
      </trkpt>
      <trkpt lat="48.97023" lon="2.1355">
        <ele>36</ele>
        <time>2022-05-29T12:55:13Z</time>
      </trkpt>
      <trkpt lat="48.97027" lon="2.13542">
        <ele>36</ele>
        <time>2022-05-29T12:55:18Z</time>
      </trkpt>
      <trkpt lat="48.97034" lon="2.13532">
        <ele>36</ele>
        <time>2022-05-29T12:55:24Z</time>
      </trkpt>
      <trkpt lat="48.97038" lon="2.13523">
        <ele>36</ele>
        <time>2022-05-29T12:55:29Z</time>
      </trkpt>
      <trkpt lat="48.9704" lon="2.13517">
        <ele>36</ele>
        <time>2022-05-29T12:55:34Z</time>
      </trkpt>
      <trkpt lat="48.97044" lon="2.1351">
        <ele>36</ele>
        <time>2022-05-29T12:55:40Z</time>
      </trkpt>
      <trkpt lat="48.97048" lon="2.13501">
        <ele>36</ele>
        <time>2022-05-29T12:55:45Z</time>
      </trkpt>
      <trkpt lat="48.97052" lon="2.13487">
        <ele>36</ele>
        <time>2022-05-29T12:55:51Z</time>
      </trkpt>
      <trkpt lat="48.97058" lon="2.13475">
        <ele>35.9</ele>
        <time>2022-05-29T12:55:57Z</time>
      </trkpt>
      <trkpt lat="48.97062" lon="2.13465">
        <ele>35.8</ele>
        <time>2022-05-29T12:56:02Z</time>
      </trkpt>
      <trkpt lat="48.97065" lon="2.13458">
        <ele>35.7</ele>
        <time>2022-05-29T12:56:07Z</time>
      </trkpt>
      <trkpt lat="48.9707" lon="2.13449">
        <ele>35.5</ele>
        <time>2022-05-29T12:56:13Z</time>
      </trkpt>
      <trkpt lat="48.97073" lon="2.13438">
        <ele>35.4</ele>
        <time>2022-05-29T12:56:19Z</time>
      </trkpt>
      <trkpt lat="48.97077" lon="2.13428">
        <ele>35.2</ele>
        <time>2022-05-29T12:56:25Z</time>
      </trkpt>
      <trkpt lat="48.97083" lon="2.13416">
        <ele>35</ele>
        <time>2022-05-29T12:56:31Z</time>
      </trkpt>
      <trkpt lat="48.97087" lon="2.13406">
        <ele>35</ele>
        <time>2022-05-29T12:56:36Z</time>
      </trkpt>
      <trkpt lat="48.97092" lon="2.13408">
        <ele>35</ele>
        <time>2022-05-29T12:56:42Z</time>
      </trkpt>
      <trkpt lat="48.97097" lon="2.1342">
        <ele>35</ele>
        <time>2022-05-29T12:56:48Z</time>
      </trkpt>
      <trkpt lat="48.97101" lon="2.1343">
        <ele>35</ele>
        <time>2022-05-29T12:56:54Z</time>
      </trkpt>
      <trkpt lat="48.97107" lon="2.13445">
        <ele>35</ele>
        <time>2022-05-29T12:57:00Z</time>
      </trkpt>
      <trkpt lat="48.97111" lon="2.13456">
        <ele>35</ele>
        <time>2022-05-29T12:57:06Z</time>
      </trkpt>
      <trkpt lat="48.97115" lon="2.13464">
        <ele>35</ele>
        <time>2022-05-29T12:57:12Z</time>
      </trkpt>
      <trkpt lat="48.97117" lon="2.13475">
        <ele>35</ele>
        <time>2022-05-29T12:57:17Z</time>
      </trkpt>
      <trkpt lat="48.97122" lon="2.13487">
        <ele>35</ele>
        <time>2022-05-29T12:57:23Z</time>
      </trkpt>
      <trkpt lat="48.97126" lon="2.13491">
        <ele>35</ele>
        <time>2022-05-29T12:57:28Z</time>
      </trkpt>
      <trkpt lat="48.97131" lon="2.13501">
        <ele>35</ele>
        <time>2022-05-29T12:57:34Z</time>
      </trkpt>
      <trkpt lat="48.97136" lon="2.13513">
        <ele>35</ele>
        <time>2022-05-29T12:57:39Z</time>
      </trkpt>
      <trkpt lat="48.97142" lon="2.13525">
        <ele>35</ele>
        <time>2022-05-29T12:57:45Z</time>
      </trkpt>
      <trkpt lat="48.97147" lon="2.13534">
        <ele>35</ele>
        <time>2022-05-29T12:57:51Z</time>
      </trkpt>
      <trkpt lat="48.97149" lon="2.13541">
        <ele>35</ele>
        <time>2022-05-29T12:57:56Z</time>
      </trkpt>
      <trkpt lat="48.97152" lon="2.13554">
        <ele>35</ele>
        <time>2022-05-29T12:58:02Z</time>
      </trkpt>
      <trkpt lat="48.97157" lon="2.13566">
        <ele>35</ele>
        <time>2022-05-29T12:58:07Z</time>
      </trkpt>
      <trkpt lat="48.97158" lon="2.13578">
        <ele>35</ele>
        <time>2022-05-29T12:58:12Z</time>
      </trkpt>
      <trkpt lat="48.97159" lon="2.13587">
        <ele>35</ele>
        <time>2022-05-29T12:58:17Z</time>
      </trkpt>
      <trkpt lat="48.97164" lon="2.13596">
        <ele>35</ele>
        <time>2022-05-29T12:58:22Z</time>
      </trkpt>
      <trkpt lat="48.97171" lon="2.13606">
        <ele>35</ele>
        <time>2022-05-29T12:58:28Z</time>
      </trkpt>
      <trkpt lat="48.97175" lon="2.13617">
        <ele>35</ele>
        <time>2022-05-29T12:58:34Z</time>
      </trkpt>
      <trkpt lat="48.9718" lon="2.13626">
        <ele>35</ele>
        <time>2022-05-29T12:58:40Z</time>
      </trkpt>
      <trkpt lat="48.97185" lon="2.13635">
        <ele>35</ele>
        <time>2022-05-29T12:58:46Z</time>
      </trkpt>
      <trkpt lat="48.97192" lon="2.13646">
        <ele>35</ele>
        <time>2022-05-29T12:58:52Z</time>
      </trkpt>
      <trkpt lat="48.97198" lon="2.13654">
        <ele>35</ele>
        <time>2022-05-29T12:58:57Z</time>
      </trkpt>
      <trkpt lat="48.97203" lon="2.13663">
        <ele>35</ele>
        <time>2022-05-29T12:59:02Z</time>
      </trkpt>
      <trkpt lat="48.97207" lon="2.13677">
        <ele>35</ele>
        <time>2022-05-29T12:59:08Z</time>
      </trkpt>
      <trkpt lat="48.97211" lon="2.13689">
        <ele>35</ele>
        <time>2022-05-29T12:59:14Z</time>
      </trkpt>
      <trkpt lat="48.97215" lon="2.13701">
        <ele>35</ele>
        <time>2022-05-29T12:59:19Z</time>
      </trkpt>
      <trkpt lat="48.9722" lon="2.13714">
        <ele>35</ele>
        <time>2022-05-29T12:59:25Z</time>
      </trkpt>
      <trkpt lat="48.97224" lon="2.13723">
        <ele>35</ele>
        <time>2022-05-29T12:59:30Z</time>
      </trkpt>
      <trkpt lat="48.97228" lon="2.13732">
        <ele>35</ele>
        <time>2022-05-29T12:59:35Z</time>
      </trkpt>
      <trkpt lat="48.97235" lon="2.13738">
        <ele>35</ele>
        <time>2022-05-29T12:59:41Z</time>
      </trkpt>
      <trkpt lat="48.97241" lon="2.13728">
        <ele>35</ele>
        <time>2022-05-29T12:59:46Z</time>
      </trkpt>
      <trkpt lat="48.97246" lon="2.13716">
        <ele>35</ele>
        <time>2022-05-29T12:59:51Z</time>
      </trkpt>
      <trkpt lat="48.97251" lon="2.13706">
        <ele>35</ele>
        <time>2022-05-29T12:59:56Z</time>
      </trkpt>
      <trkpt lat="48.97256" lon="2.13695">
        <ele>35</ele>
        <time>2022-05-29T13:00:02Z</time>
      </trkpt>
      <trkpt lat="48.97261" lon="2.13684">
        <ele>35</ele>
        <time>2022-05-29T13:00:08Z</time>
      </trkpt>
      <trkpt lat="48.97265" lon="2.13677">
        <ele>35</ele>
        <time>2022-05-29T13:00:13Z</time>
      </trkpt>
      <trkpt lat="48.9727" lon="2.13669">
        <ele>35</ele>
        <time>2022-05-29T13:00:18Z</time>
      </trkpt>
      <trkpt lat="48.97274" lon="2.13662">
        <ele>35</ele>
        <time>2022-05-29T13:00:23Z</time>
      </trkpt>
      <trkpt lat="48.97278" lon="2.13652">
        <ele>35</ele>
        <time>2022-05-29T13:00:29Z</time>
      </trkpt>
      <trkpt lat="48.9728" lon="2.13641">
        <ele>35</ele>
        <time>2022-05-29T13:00:34Z</time>
      </trkpt>
      <trkpt lat="48.97284" lon="2.13631">
        <ele>35</ele>
        <time>2022-05-29T13:00:40Z</time>
      </trkpt>
      <trkpt lat="48.97289" lon="2.13623">
        <ele>35</ele>
        <time>2022-05-29T13:00:45Z</time>
      </trkpt>
      <trkpt lat="48.97296" lon="2.1361">
        <ele>35</ele>
        <time>2022-05-29T13:00:51Z</time>
      </trkpt>
      <trkpt lat="48.97302" lon="2.13597">
        <ele>35</ele>
        <time>2022-05-29T13:00:57Z</time>
      </trkpt>
      <trkpt lat="48.97307" lon="2.13585">
        <ele>35</ele>
        <time>2022-05-29T13:01:03Z</time>
      </trkpt>
      <trkpt lat="48.9731" lon="2.13575">
        <ele>35</ele>
        <time>2022-05-29T13:01:08Z</time>
      </trkpt>
      <trkpt lat="48.97314" lon="2.13564">
        <ele>35</ele>
        <time>2022-05-29T13:01:13Z</time>
      </trkpt>
      <trkpt lat="48.97317" lon="2.13551">
        <ele>35</ele>
        <time>2022-05-29T13:01:19Z</time>
      </trkpt>
      <trkpt lat="48.97322" lon="2.13541">
        <ele>35</ele>
        <time>2022-05-29T13:01:25Z</time>
      </trkpt>
      <trkpt lat="48.97329" lon="2.13534">
        <ele>35</ele>
        <time>2022-05-29T13:01:30Z</time>
      </trkpt>
      <trkpt lat="48.97335" lon="2.13525">
        <ele>35</ele>
        <time>2022-05-29T13:01:36Z</time>
      </trkpt>
      <trkpt lat="48.97342" lon="2.13514">
        <ele>35</ele>
        <time>2022-05-29T13:01:42Z</time>
      </trkpt>
      <trkpt lat="48.97347" lon="2.13504">
        <ele>35</ele>
        <time>2022-05-29T13:01:47Z</time>
      </trkpt>
      <trkpt lat="48.9735" lon="2.13492">
        <ele>35</ele>
        <time>2022-05-29T13:01:53Z</time>
      </trkpt>
      <trkpt lat="48.97356" lon="2.13485">
        <ele>35</ele>
        <time>2022-05-29T13:01:58Z</time>
      </trkpt>
      <trkpt lat="48.97361" lon="2.13475">
        <ele>35</ele>
        <time>2022-05-29T13:02:04Z</time>
      </trkpt>
      <trkpt lat="48.97367" lon="2.13468">
        <ele>34.7</ele>
        <time>2022-05-29T13:02:09Z</time>
      </trkpt>
      <trkpt lat="48.97375" lon="2.13474">
        <ele>34.5</ele>
        <time>2022-05-29T13:02:15Z</time>
      </trkpt>
      <trkpt lat="48.97381" lon="2.13483">
        <ele>34.3</ele>
        <time>2022-05-29T13:02:20Z</time>
      </trkpt>
      <trkpt lat="48.97388" lon="2.13494">
        <ele>34</ele>
        <time>2022-05-29T13:02:26Z</time>
      </trkpt>
      <trkpt lat="48.97395" lon="2.13504">
        <ele>34</ele>
        <time>2022-05-29T13:02:32Z</time>
      </trkpt>
      <trkpt lat="48.974" lon="2.13512">
        <ele>34</ele>
        <time>2022-05-29T13:02:38Z</time>
      </trkpt>
      <trkpt lat="48.97405" lon="2.1352">
        <ele>34</ele>
        <time>2022-05-29T13:02:43Z</time>
      </trkpt>
      <trkpt lat="48.9741" lon="2.13528">
        <ele>34</ele>
        <time>2022-05-29T13:02:49Z</time>
      </trkpt>
      <trkpt lat="48.97418" lon="2.13536">
        <ele>34</ele>
        <time>2022-05-29T13:02:55Z</time>
      </trkpt>
      <trkpt lat="48.97424" lon="2.13543">
        <ele>34</ele>
        <time>2022-05-29T13:03:01Z</time>
      </trkpt>
      <trkpt lat="48.9743" lon="2.13552">
        <ele>34</ele>
        <time>2022-05-29T13:03:07Z</time>
      </trkpt>
      <trkpt lat="48.97438" lon="2.13563">
        <ele>34</ele>
        <time>2022-05-29T13:03:13Z</time>
      </trkpt>
      <trkpt lat="48.97445" lon="2.13571">
        <ele>34</ele>
        <time>2022-05-29T13:03:19Z</time>
      </trkpt>
      <trkpt lat="48.97449" lon="2.13578">
        <ele>34</ele>
        <time>2022-05-29T13:03:24Z</time>
      </trkpt>
      <trkpt lat="48.97456" lon="2.13586">
        <ele>34</ele>
        <time>2022-05-29T13:03:30Z</time>
      </trkpt>
      <trkpt lat="48.97462" lon="2.13595">
        <ele>34</ele>
        <time>2022-05-29T13:03:36Z</time>
      </trkpt>
      <trkpt lat="48.97466" lon="2.13604">
        <ele>34</ele>
        <time>2022-05-29T13:03:41Z</time>
      </trkpt>
      <trkpt lat="48.9747" lon="2.13613">
        <ele>34</ele>
        <time>2022-05-29T13:03:47Z</time>
      </trkpt>
      <trkpt lat="48.97476" lon="2.1362">
        <ele>33.9</ele>
        <time>2022-05-29T13:03:52Z</time>
      </trkpt>
      <trkpt lat="48.97482" lon="2.13629">
        <ele>33.6</ele>
        <time>2022-05-29T13:03:57Z</time>
      </trkpt>
      <trkpt lat="48.97488" lon="2.13639">
        <ele>33.4</ele>
        <time>2022-05-29T13:04:03Z</time>
      </trkpt>
      <trkpt lat="48.97494" lon="2.13647">
        <ele>33.2</ele>
        <time>2022-05-29T13:04:08Z</time>
      </trkpt>
      <trkpt lat="48.97499" lon="2.13652">
        <ele>33</ele>
        <time>2022-05-29T13:04:13Z</time>
      </trkpt>
      <trkpt lat="48.97505" lon="2.1366">
        <ele>33</ele>
        <time>2022-05-29T13:04:19Z</time>
      </trkpt>
      <trkpt lat="48.9751" lon="2.13668">
        <ele>33</ele>
        <time>2022-05-29T13:04:24Z</time>
      </trkpt>
      <trkpt lat="48.97516" lon="2.13676">
        <ele>33.1</ele>
        <time>2022-05-29T13:04:30Z</time>
      </trkpt>
      <trkpt lat="48.97521" lon="2.13687">
        <ele>33.2</ele>
        <time>2022-05-29T13:04:35Z</time>
      </trkpt>
      <trkpt lat="48.97527" lon="2.13695">
        <ele>33</ele>
        <time>2022-05-29T13:04:40Z</time>
      </trkpt>
      <trkpt lat="48.97532" lon="2.13703">
        <ele>33</ele>
        <time>2022-05-29T13:04:45Z</time>
      </trkpt>
      <trkpt lat="48.97538" lon="2.13712">
        <ele>33</ele>
        <time>2022-05-29T13:04:51Z</time>
      </trkpt>
      <trkpt lat="48.97543" lon="2.13717">
        <ele>33</ele>
        <time>2022-05-29T13:04:56Z</time>
      </trkpt>
      <trkpt lat="48.97551" lon="2.13723">
        <ele>33</ele>
        <time>2022-05-29T13:05:02Z</time>
      </trkpt>
      <trkpt lat="48.97557" lon="2.13733">
        <ele>33</ele>
        <time>2022-05-29T13:05:08Z</time>
      </trkpt>
      <trkpt lat="48.97564" lon="2.13743">
        <ele>33</ele>
        <time>2022-05-29T13:05:13Z</time>
      </trkpt>
      <trkpt lat="48.9757" lon="2.13751">
        <ele>33</ele>
        <time>2022-05-29T13:05:19Z</time>
      </trkpt>
      <trkpt lat="48.97576" lon="2.1376">
        <ele>33</ele>
        <time>2022-05-29T13:05:24Z</time>
      </trkpt>
      <trkpt lat="48.97582" lon="2.13772">
        <ele>33</ele>
        <time>2022-05-29T13:05:30Z</time>
      </trkpt>
      <trkpt lat="48.97586" lon="2.13781">
        <ele>33</ele>
        <time>2022-05-29T13:05:35Z</time>
      </trkpt>
      <trkpt lat="48.97592" lon="2.13788">
        <ele>33</ele>
        <time>2022-05-29T13:05:41Z</time>
      </trkpt>
      <trkpt lat="48.976" lon="2.13796">
        <ele>33</ele>
        <time>2022-05-29T13:05:47Z</time>
      </trkpt>
      <trkpt lat="48.97606" lon="2.13803">
        <ele>33</ele>
        <time>2022-05-29T13:05:52Z</time>
      </trkpt>
      <trkpt lat="48.97613" lon="2.13807">
        <ele>33</ele>
        <time>2022-05-29T13:05:57Z</time>
      </trkpt>
      <trkpt lat="48.97618" lon="2.13805">
        <ele>33</ele>
        <time>2022-05-29T13:06:03Z</time>
      </trkpt>
      <trkpt lat="48.97622" lon="2.13795">
        <ele>33</ele>
        <time>2022-05-29T13:06:08Z</time>
      </trkpt>
      <trkpt lat="48.97627" lon="2.13785">
        <ele>33</ele>
        <time>2022-05-29T13:06:13Z</time>
      </trkpt>
      <trkpt lat="48.97636" lon="2.13772">
        <ele>33</ele>
        <time>2022-05-29T13:06:19Z</time>
      </trkpt>
      <trkpt lat="48.97643" lon="2.13764">
        <ele>33</ele>
        <time>2022-05-29T13:06:24Z</time>
      </trkpt>
      <trkpt lat="48.97649" lon="2.13754">
        <ele>33</ele>
        <time>2022-05-29T13:06:30Z</time>
      </trkpt>
      <trkpt lat="48.97653" lon="2.13742">
        <ele>33</ele>
        <time>2022-05-29T13:06:36Z</time>
      </trkpt>
      <trkpt lat="48.97655" lon="2.13732">
        <ele>33</ele>
        <time>2022-05-29T13:06:42Z</time>
      </trkpt>
      <trkpt lat="48.97658" lon="2.13724">
        <ele>33</ele>
        <time>2022-05-29T13:06:47Z</time>
      </trkpt>
      <trkpt lat="48.97662" lon="2.13716">
        <ele>33</ele>
        <time>2022-05-29T13:06:52Z</time>
      </trkpt>
      <trkpt lat="48.9767" lon="2.13703">
        <ele>33</ele>
        <time>2022-05-29T13:06:58Z</time>
      </trkpt>
      <trkpt lat="48.97672" lon="2.13695">
        <ele>33</ele>
        <time>2022-05-29T13:07:03Z</time>
      </trkpt>
      <trkpt lat="48.97676" lon="2.13685">
        <ele>33</ele>
        <time>2022-05-29T13:07:09Z</time>
      </trkpt>
      <trkpt lat="48.97682" lon="2.13674">
        <ele>33</ele>
        <time>2022-05-29T13:07:14Z</time>
      </trkpt>
      <trkpt lat="48.97687" lon="2.13664">
        <ele>33</ele>
        <time>2022-05-29T13:07:19Z</time>
      </trkpt>
      <trkpt lat="48.97693" lon="2.13654">
        <ele>33</ele>
        <time>2022-05-29T13:07:25Z</time>
      </trkpt>
      <trkpt lat="48.97698" lon="2.13645">
        <ele>33</ele>
        <time>2022-05-29T13:07:30Z</time>
      </trkpt>
      <trkpt lat="48.97702" lon="2.13636">
        <ele>33</ele>
        <time>2022-05-29T13:07:36Z</time>
      </trkpt>
      <trkpt lat="48.97707" lon="2.13629">
        <ele>33</ele>
        <time>2022-05-29T13:07:41Z</time>
      </trkpt>
      <trkpt lat="48.97711" lon="2.13623">
        <ele>33</ele>
        <time>2022-05-29T13:07:46Z</time>
      </trkpt>
      <trkpt lat="48.97715" lon="2.13614">
        <ele>33</ele>
        <time>2022-05-29T13:07:52Z</time>
      </trkpt>
      <trkpt lat="48.97719" lon="2.13601">
        <ele>33</ele>
        <time>2022-05-29T13:07:58Z</time>
      </trkpt>
      <trkpt lat="48.97723" lon="2.1359">
        <ele>33</ele>
        <time>2022-05-29T13:08:04Z</time>
      </trkpt>
      <trkpt lat="48.97729" lon="2.13575">
        <ele>33</ele>
        <time>2022-05-29T13:08:10Z</time>
      </trkpt>
      <trkpt lat="48.97736" lon="2.13563">
        <ele>33</ele>
        <time>2022-05-29T13:08:15Z</time>
      </trkpt>
      <trkpt lat="48.97741" lon="2.13554">
        <ele>33</ele>
        <time>2022-05-29T13:08:20Z</time>
      </trkpt>
      <trkpt lat="48.97744" lon="2.13545">
        <ele>33</ele>
        <time>2022-05-29T13:08:25Z</time>
      </trkpt>
      <trkpt lat="48.9775" lon="2.13533">
        <ele>33</ele>
        <time>2022-05-29T13:08:31Z</time>
      </trkpt>
      <trkpt lat="48.97757" lon="2.13524">
        <ele>33</ele>
        <time>2022-05-29T13:08:37Z</time>
      </trkpt>
      <trkpt lat="48.97758" lon="2.13515">
        <ele>33</ele>
        <time>2022-05-29T13:08:42Z</time>
      </trkpt>
      <trkpt lat="48.97763" lon="2.13504">
        <ele>33</ele>
        <time>2022-05-29T13:08:48Z</time>
      </trkpt>
      <trkpt lat="48.97767" lon="2.13493">
        <ele>33</ele>
        <time>2022-05-29T13:08:54Z</time>
      </trkpt>
      <trkpt lat="48.97772" lon="2.13481">
        <ele>33</ele>
        <time>2022-05-29T13:09:00Z</time>
      </trkpt>
      <trkpt lat="48.97777" lon="2.13471">
        <ele>33</ele>
        <time>2022-05-29T13:09:05Z</time>
      </trkpt>
      <trkpt lat="48.9778" lon="2.13463">
        <ele>33</ele>
        <time>2022-05-29T13:09:10Z</time>
      </trkpt>
      <trkpt lat="48.97787" lon="2.13452">
        <ele>32.8</ele>
        <time>2022-05-29T13:09:16Z</time>
      </trkpt>
      <trkpt lat="48.97792" lon="2.13443">
        <ele>32.5</ele>
        <time>2022-05-29T13:09:21Z</time>
      </trkpt>
      <trkpt lat="48.97798" lon="2.13434">
        <ele>32.3</ele>
        <time>2022-05-29T13:09:26Z</time>
      </trkpt>
      <trkpt lat="48.97802" lon="2.13426">
        <ele>32.1</ele>
        <time>2022-05-29T13:09:31Z</time>
      </trkpt>
      <trkpt lat="48.97802" lon="2.13412">
        <ele>32.3</ele>
        <time>2022-05-29T13:09:37Z</time>
      </trkpt>
      <trkpt lat="48.97799" lon="2.134">
        <ele>32.7</ele>
        <time>2022-05-29T13:09:43Z</time>
      </trkpt>
      <trkpt lat="48.97794" lon="2.13395">
        <ele>32.9</ele>
        <time>2022-05-29T13:09:48Z</time>
      </trkpt>
      <trkpt lat="48.97786" lon="2.13389">
        <ele>33</ele>
        <time>2022-05-29T13:09:53Z</time>
      </trkpt>
      <trkpt lat="48.97779" lon="2.13383">
        <ele>33</ele>
        <time>2022-05-29T13:09:58Z</time>
      </trkpt>
      <trkpt lat="48.97771" lon="2.13376">
        <ele>33</ele>
        <time>2022-05-29T13:10:04Z</time>
      </trkpt>
      <trkpt lat="48.97765" lon="2.13369">
        <ele>33</ele>
        <time>2022-05-29T13:10:09Z</time>
      </trkpt>
      <trkpt lat="48.97758" lon="2.13361">
        <ele>33</ele>
        <time>2022-05-29T13:10:14Z</time>
      </trkpt>
      <trkpt lat="48.97749" lon="2.1335">
        <ele>33</ele>
        <time>2022-05-29T13:10:20Z</time>
      </trkpt>
      <trkpt lat="48.97744" lon="2.13344">
        <ele>33</ele>
        <time>2022-05-29T13:10:25Z</time>
      </trkpt>
      <trkpt lat="48.97739" lon="2.13339">
        <ele>33</ele>
        <time>2022-05-29T13:10:30Z</time>
      </trkpt>
      <trkpt lat="48.97733" lon="2.13332">
        <ele>33</ele>
        <time>2022-05-29T13:10:36Z</time>
      </trkpt>
      <trkpt lat="48.97725" lon="2.13325">
        <ele>33</ele>
        <time>2022-05-29T13:10:41Z</time>
      </trkpt>
      <trkpt lat="48.97722" lon="2.13322">
        <ele>33</ele>
        <time>2022-05-29T13:10:46Z</time>
      </trkpt>
      <trkpt lat="48.97718" lon="2.13314">
        <ele>33</ele>
        <time>2022-05-29T13:10:52Z</time>
      </trkpt>
      <trkpt lat="48.97711" lon="2.13305">
        <ele>33</ele>
        <time>2022-05-29T13:10:58Z</time>
      </trkpt>
      <trkpt lat="48.97703" lon="2.133">
        <ele>33</ele>
        <time>2022-05-29T13:11:04Z</time>
      </trkpt>
      <trkpt lat="48.97696" lon="2.13294">
        <ele>33</ele>
        <time>2022-05-29T13:11:09Z</time>
      </trkpt>
      <trkpt lat="48.97689" lon="2.13287">
        <ele>33</ele>
        <time>2022-05-29T13:11:15Z</time>
      </trkpt>
      <trkpt lat="48.97684" lon="2.13278">
        <ele>33</ele>
        <time>2022-05-29T13:11:20Z</time>
      </trkpt>
      <trkpt lat="48.97677" lon="2.13272">
        <ele>33</ele>
        <time>2022-05-29T13:11:25Z</time>
      </trkpt>
      <trkpt lat="48.97669" lon="2.13266">
        <ele>33</ele>
        <time>2022-05-29T13:11:31Z</time>
      </trkpt>
      <trkpt lat="48.97662" lon="2.13259">
        <ele>33</ele>
        <time>2022-05-29T13:11:37Z</time>
      </trkpt>
      <trkpt lat="48.97656" lon="2.13251">
        <ele>33</ele>
        <time>2022-05-29T13:11:43Z</time>
      </trkpt>
      <trkpt lat="48.97647" lon="2.13243">
        <ele>33</ele>
        <time>2022-05-29T13:11:49Z</time>
      </trkpt>
      <trkpt lat="48.97641" lon="2.13236">
        <ele>33</ele>
        <time>2022-05-29T13:11:54Z</time>
      </trkpt>
      <trkpt lat="48.97633" lon="2.13227">
        <ele>33</ele>
        <time>2022-05-29T13:12:00Z</time>
      </trkpt>
      <trkpt lat="48.97625" lon="2.13218">
        <ele>32.9</ele>
        <time>2022-05-29T13:12:06Z</time>
      </trkpt>
      <trkpt lat="48.97619" lon="2.13214">
        <ele>32.8</ele>
        <time>2022-05-29T13:12:11Z</time>
      </trkpt>
      <trkpt lat="48.97614" lon="2.13207">
        <ele>32.5</ele>
        <time>2022-05-29T13:12:16Z</time>
      </trkpt>
      <trkpt lat="48.97607" lon="2.13197">
        <ele>32.1</ele>
        <time>2022-05-29T13:12:22Z</time>
      </trkpt>
      <trkpt lat="48.97598" lon="2.13188">
        <ele>32.2</ele>
        <time>2022-05-29T13:12:28Z</time>
      </trkpt>
      <trkpt lat="48.97592" lon="2.13182">
        <ele>32.4</ele>
        <time>2022-05-29T13:12:33Z</time>
      </trkpt>
      <trkpt lat="48.97586" lon="2.13178">
        <ele>32.6</ele>
        <time>2022-05-29T13:12:38Z</time>
      </trkpt>
      <trkpt lat="48.9758" lon="2.13172">
        <ele>32.8</ele>
        <time>2022-05-29T13:12:43Z</time>
      </trkpt>
      <trkpt lat="48.97573" lon="2.13164">
        <ele>33</ele>
        <time>2022-05-29T13:12:49Z</time>
      </trkpt>
      <trkpt lat="48.97566" lon="2.13157">
        <ele>33</ele>
        <time>2022-05-29T13:12:54Z</time>
      </trkpt>
      <trkpt lat="48.9756" lon="2.13151">
        <ele>33</ele>
        <time>2022-05-29T13:13:00Z</time>
      </trkpt>
      <trkpt lat="48.97553" lon="2.13144">
        <ele>33</ele>
        <time>2022-05-29T13:13:05Z</time>
      </trkpt>
      <trkpt lat="48.97548" lon="2.13138">
        <ele>33</ele>
        <time>2022-05-29T13:13:11Z</time>
      </trkpt>
      <trkpt lat="48.97543" lon="2.13132">
        <ele>33</ele>
        <time>2022-05-29T13:13:16Z</time>
      </trkpt>
      <trkpt lat="48.9754" lon="2.13126">
        <ele>33</ele>
        <time>2022-05-29T13:13:22Z</time>
      </trkpt>
      <trkpt lat="48.97539" lon="2.13127">
        <ele>33</ele>
        <time>2022-05-29T13:13:28Z</time>
      </trkpt>
      <trkpt lat="48.97539" lon="2.13127">
        <ele>33</ele>
        <time>2022-05-29T13:13:33Z</time>
      </trkpt>
      <trkpt lat="48.97539" lon="2.13124">
        <ele>33</ele>
        <time>2022-05-29T13:13:39Z</time>
      </trkpt>
      <trkpt lat="48.97539" lon="2.13125">
        <ele>33</ele>
        <time>2022-05-29T13:13:44Z</time>
      </trkpt>
      <trkpt lat="48.97539" lon="2.13125">
        <ele>33</ele>
        <time>2022-05-29T13:13:50Z</time>
      </trkpt>
      <trkpt lat="48.97539" lon="2.13124">
        <ele>33</ele>
        <time>2022-05-29T13:13:56Z</time>
      </trkpt>
      <trkpt lat="48.97539" lon="2.13123">
        <ele>33</ele>
        <time>2022-05-29T13:14:01Z</time>
      </trkpt>
      <trkpt lat="48.97539" lon="2.13121">
        <ele>33</ele>
        <time>2022-05-29T13:14:07Z</time>
      </trkpt>
      <trkpt lat="48.9754" lon="2.1312">
        <ele>33</ele>
        <time>2022-05-29T13:14:12Z</time>
      </trkpt>
      <trkpt lat="48.97541" lon="2.1312">
        <ele>33</ele>
        <time>2022-05-29T13:14:17Z</time>
      </trkpt>
      <trkpt lat="48.97542" lon="2.13119">
        <ele>33</ele>
        <time>2022-05-29T13:14:23Z</time>
      </trkpt>
      <trkpt lat="48.97543" lon="2.13119">
        <ele>33</ele>
        <time>2022-05-29T13:14:29Z</time>
      </trkpt>
      <trkpt lat="48.97544" lon="2.13119">
        <ele>33</ele>
        <time>2022-05-29T13:14:35Z</time>
      </trkpt>
      <trkpt lat="48.97545" lon="2.13119">
        <ele>33</ele>
        <time>2022-05-29T13:14:40Z</time>
      </trkpt>
      <trkpt lat="48.97544" lon="2.13122">
        <ele>33</ele>
        <time>2022-05-29T13:14:46Z</time>
      </trkpt>
      <trkpt lat="48.97544" lon="2.13123">
        <ele>33</ele>
        <time>2022-05-29T13:14:51Z</time>
      </trkpt>
      <trkpt lat="48.97543" lon="2.13124">
        <ele>33</ele>
        <time>2022-05-29T13:14:57Z</time>
      </trkpt>
      <trkpt lat="48.97543" lon="2.13124">
        <ele>33</ele>
        <time>2022-05-29T13:15:03Z</time>
      </trkpt>
      <trkpt lat="48.97541" lon="2.13122">
        <ele>33</ele>
        <time>2022-05-29T13:15:09Z</time>
      </trkpt>
      <trkpt lat="48.97543" lon="2.13115">
        <ele>33</ele>
        <time>2022-05-29T13:15:15Z</time>
      </trkpt>
      <trkpt lat="48.97549" lon="2.13105">
        <ele>33</ele>
        <time>2022-05-29T13:15:21Z</time>
      </trkpt>
      <trkpt lat="48.97552" lon="2.131">
        <ele>33</ele>
        <time>2022-05-29T13:15:26Z</time>
      </trkpt>
      <trkpt lat="48.97557" lon="2.13091">
        <ele>33</ele>
        <time>2022-05-29T13:15:31Z</time>
      </trkpt>
      <trkpt lat="48.97561" lon="2.13081">
        <ele>33</ele>
        <time>2022-05-29T13:15:37Z</time>
      </trkpt>
      <trkpt lat="48.97563" lon="2.13069">
        <ele>33</ele>
        <time>2022-05-29T13:15:43Z</time>
      </trkpt>
      <trkpt lat="48.97568" lon="2.13061">
        <ele>33</ele>
        <time>2022-05-29T13:15:48Z</time>
      </trkpt>
      <trkpt lat="48.97571" lon="2.13053">
        <ele>33</ele>
        <time>2022-05-29T13:15:53Z</time>
      </trkpt>
      <trkpt lat="48.97576" lon="2.13039">
        <ele>33</ele>
        <time>2022-05-29T13:15:59Z</time>
      </trkpt>
      <trkpt lat="48.97581" lon="2.13032">
        <ele>33</ele>
        <time>2022-05-29T13:16:04Z</time>
      </trkpt>
      <trkpt lat="48.97588" lon="2.13023">
        <ele>32.8</ele>
        <time>2022-05-29T13:16:09Z</time>
      </trkpt>
      <trkpt lat="48.97592" lon="2.13012">
        <ele>32.7</ele>
        <time>2022-05-29T13:16:15Z</time>
      </trkpt>
      <trkpt lat="48.97596" lon="2.13003">
        <ele>32.5</ele>
        <time>2022-05-29T13:16:20Z</time>
      </trkpt>
      <trkpt lat="48.97599" lon="2.12994">
        <ele>32.4</ele>
        <time>2022-05-29T13:16:26Z</time>
      </trkpt>
      <trkpt lat="48.97604" lon="2.12988">
        <ele>32.3</ele>
        <time>2022-05-29T13:16:31Z</time>
      </trkpt>
      <trkpt lat="48.97611" lon="2.12978">
        <ele>32</ele>
        <time>2022-05-29T13:16:37Z</time>
      </trkpt>
      <trkpt lat="48.97616" lon="2.1297">
        <ele>32.1</ele>
        <time>2022-05-29T13:16:42Z</time>
      </trkpt>
      <trkpt lat="48.9762" lon="2.12959">
        <ele>32.3</ele>
        <time>2022-05-29T13:16:48Z</time>
      </trkpt>
      <trkpt lat="48.97625" lon="2.1295">
        <ele>32.4</ele>
        <time>2022-05-29T13:16:53Z</time>
      </trkpt>
      <trkpt lat="48.97629" lon="2.12942">
        <ele>32.3</ele>
        <time>2022-05-29T13:16:58Z</time>
      </trkpt>
      <trkpt lat="48.97635" lon="2.12933">
        <ele>32.1</ele>
        <time>2022-05-29T13:17:04Z</time>
      </trkpt>
      <trkpt lat="48.97639" lon="2.12924">
        <ele>32</ele>
        <time>2022-05-29T13:17:10Z</time>
      </trkpt>
      <trkpt lat="48.97643" lon="2.12914">
        <ele>32</ele>
        <time>2022-05-29T13:17:15Z</time>
      </trkpt>
      <trkpt lat="48.97649" lon="2.12903">
        <ele>32</ele>
        <time>2022-05-29T13:17:20Z</time>
      </trkpt>
      <trkpt lat="48.97654" lon="2.1289">
        <ele>32</ele>
        <time>2022-05-29T13:17:26Z</time>
      </trkpt>
      <trkpt lat="48.9766" lon="2.12881">
        <ele>32</ele>
        <time>2022-05-29T13:17:31Z</time>
      </trkpt>
      <trkpt lat="48.97668" lon="2.12871">
        <ele>32</ele>
        <time>2022-05-29T13:17:37Z</time>
      </trkpt>
      <trkpt lat="48.97672" lon="2.12862">
        <ele>32</ele>
        <time>2022-05-29T13:17:43Z</time>
      </trkpt>
      <trkpt lat="48.97674" lon="2.12853">
        <ele>32</ele>
        <time>2022-05-29T13:17:48Z</time>
      </trkpt>
      <trkpt lat="48.97676" lon="2.12843">
        <ele>32</ele>
        <time>2022-05-29T13:17:54Z</time>
      </trkpt>
      <trkpt lat="48.97681" lon="2.12833">
        <ele>32</ele>
        <time>2022-05-29T13:18:00Z</time>
      </trkpt>
      <trkpt lat="48.97685" lon="2.12826">
        <ele>32</ele>
        <time>2022-05-29T13:18:06Z</time>
      </trkpt>
      <trkpt lat="48.97691" lon="2.12814">
        <ele>32</ele>
        <time>2022-05-29T13:18:11Z</time>
      </trkpt>
      <trkpt lat="48.97696" lon="2.12805">
        <ele>32</ele>
        <time>2022-05-29T13:18:16Z</time>
      </trkpt>
      <trkpt lat="48.97704" lon="2.12793">
        <ele>32</ele>
        <time>2022-05-29T13:18:22Z</time>
      </trkpt>
      <trkpt lat="48.9771" lon="2.12778">
        <ele>32</ele>
        <time>2022-05-29T13:18:28Z</time>
      </trkpt>
      <trkpt lat="48.97717" lon="2.12766">
        <ele>32</ele>
        <time>2022-05-29T13:18:34Z</time>
      </trkpt>
      <trkpt lat="48.97722" lon="2.12757">
        <ele>32</ele>
        <time>2022-05-29T13:18:39Z</time>
      </trkpt>
      <trkpt lat="48.97726" lon="2.12749">
        <ele>32</ele>
        <time>2022-05-29T13:18:44Z</time>
      </trkpt>
      <trkpt lat="48.97731" lon="2.12742">
        <ele>32</ele>
        <time>2022-05-29T13:18:50Z</time>
      </trkpt>
      <trkpt lat="48.97735" lon="2.12733">
        <ele>32</ele>
        <time>2022-05-29T13:18:56Z</time>
      </trkpt>
      <trkpt lat="48.97739" lon="2.1272">
        <ele>32</ele>
        <time>2022-05-29T13:19:02Z</time>
      </trkpt>
      <trkpt lat="48.97745" lon="2.12707">
        <ele>32</ele>
        <time>2022-05-29T13:19:08Z</time>
      </trkpt>
      <trkpt lat="48.97751" lon="2.12698">
        <ele>32</ele>
        <time>2022-05-29T13:19:13Z</time>
      </trkpt>
      <trkpt lat="48.97756" lon="2.12689">
        <ele>32</ele>
        <time>2022-05-29T13:19:18Z</time>
      </trkpt>
      <trkpt lat="48.97761" lon="2.1268">
        <ele>32</ele>
        <time>2022-05-29T13:19:23Z</time>
      </trkpt>
      <trkpt lat="48.97768" lon="2.12671">
        <ele>32</ele>
        <time>2022-05-29T13:19:29Z</time>
      </trkpt>
      <trkpt lat="48.97773" lon="2.12661">
        <ele>31.8</ele>
        <time>2022-05-29T13:19:35Z</time>
      </trkpt>
      <trkpt lat="48.97773" lon="2.12651">
        <ele>31.5</ele>
        <time>2022-05-29T13:19:40Z</time>
      </trkpt>
      <trkpt lat="48.97777" lon="2.12643">
        <ele>31.2</ele>
        <time>2022-05-29T13:19:45Z</time>
      </trkpt>
      <trkpt lat="48.97784" lon="2.12634">
        <ele>31.2</ele>
        <time>2022-05-29T13:19:51Z</time>
      </trkpt>
      <trkpt lat="48.9779" lon="2.12627">
        <ele>31.3</ele>
        <time>2022-05-29T13:19:56Z</time>
      </trkpt>
      <trkpt lat="48.97796" lon="2.12615">
        <ele>31.1</ele>
        <time>2022-05-29T13:20:02Z</time>
      </trkpt>
      <trkpt lat="48.97799" lon="2.12606">
        <ele>31</ele>
        <time>2022-05-29T13:20:07Z</time>
      </trkpt>
      <trkpt lat="48.97801" lon="2.12597">
        <ele>31</ele>
        <time>2022-05-29T13:20:12Z</time>
      </trkpt>
      <trkpt lat="48.97806" lon="2.12589">
        <ele>31</ele>
        <time>2022-05-29T13:20:18Z</time>
      </trkpt>
      <trkpt lat="48.97809" lon="2.12581">
        <ele>31</ele>
        <time>2022-05-29T13:20:23Z</time>
      </trkpt>
      <trkpt lat="48.97813" lon="2.12571">
        <ele>31</ele>
        <time>2022-05-29T13:20:28Z</time>
      </trkpt>
      <trkpt lat="48.9782" lon="2.1256">
        <ele>31</ele>
        <time>2022-05-29T13:20:34Z</time>
      </trkpt>
      <trkpt lat="48.97822" lon="2.1255">
        <ele>31</ele>
        <time>2022-05-29T13:20:39Z</time>
      </trkpt>
      <trkpt lat="48.97824" lon="2.12536">
        <ele>31</ele>
        <time>2022-05-29T13:20:45Z</time>
      </trkpt>
      <trkpt lat="48.97829" lon="2.12529">
        <ele>31</ele>
        <time>2022-05-29T13:20:50Z</time>
      </trkpt>
      <trkpt lat="48.97832" lon="2.12523">
        <ele>31</ele>
        <time>2022-05-29T13:20:55Z</time>
      </trkpt>
      <trkpt lat="48.9784" lon="2.1251">
        <ele>31</ele>
        <time>2022-05-29T13:21:01Z</time>
      </trkpt>
      <trkpt lat="48.97843" lon="2.12502">
        <ele>31</ele>
        <time>2022-05-29T13:21:06Z</time>
      </trkpt>
      <trkpt lat="48.97849" lon="2.12492">
        <ele>31</ele>
        <time>2022-05-29T13:21:12Z</time>
      </trkpt>
      <trkpt lat="48.97855" lon="2.1248">
        <ele>31</ele>
        <time>2022-05-29T13:21:18Z</time>
      </trkpt>
      <trkpt lat="48.97859" lon="2.12468">
        <ele>31</ele>
        <time>2022-05-29T13:21:23Z</time>
      </trkpt>
      <trkpt lat="48.97864" lon="2.12457">
        <ele>31</ele>
        <time>2022-05-29T13:21:28Z</time>
      </trkpt>
      <trkpt lat="48.97867" lon="2.12446">
        <ele>31</ele>
        <time>2022-05-29T13:21:34Z</time>
      </trkpt>
      <trkpt lat="48.97872" lon="2.1244">
        <ele>31</ele>
        <time>2022-05-29T13:21:39Z</time>
      </trkpt>
      <trkpt lat="48.97879" lon="2.12429">
        <ele>31</ele>
        <time>2022-05-29T13:21:45Z</time>
      </trkpt>
      <trkpt lat="48.97885" lon="2.12419">
        <ele>31</ele>
        <time>2022-05-29T13:21:50Z</time>
      </trkpt>
      <trkpt lat="48.9789" lon="2.12411">
        <ele>31</ele>
        <time>2022-05-29T13:21:55Z</time>
      </trkpt>
      <trkpt lat="48.97895" lon="2.12401">
        <ele>30.8</ele>
        <time>2022-05-29T13:22:01Z</time>
      </trkpt>
      <trkpt lat="48.979" lon="2.12394">
        <ele>30.6</ele>
        <time>2022-05-29T13:22:06Z</time>
      </trkpt>
      <trkpt lat="48.97908" lon="2.12382">
        <ele>30.3</ele>
        <time>2022-05-29T13:22:12Z</time>
      </trkpt>
      <trkpt lat="48.9791" lon="2.12375">
        <ele>30.2</ele>
        <time>2022-05-29T13:22:17Z</time>
      </trkpt>
      <trkpt lat="48.97915" lon="2.12362">
        <ele>30.1</ele>
        <time>2022-05-29T13:22:23Z</time>
      </trkpt>
      <trkpt lat="48.9792" lon="2.12351">
        <ele>30.3</ele>
        <time>2022-05-29T13:22:29Z</time>
      </trkpt>
      <trkpt lat="48.97926" lon="2.12342">
        <ele>30.5</ele>
        <time>2022-05-29T13:22:35Z</time>
      </trkpt>
      <trkpt lat="48.97934" lon="2.1233">
        <ele>30.4</ele>
        <time>2022-05-29T13:22:41Z</time>
      </trkpt>
      <trkpt lat="48.97936" lon="2.12319">
        <ele>30.1</ele>
        <time>2022-05-29T13:22:47Z</time>
      </trkpt>
      <trkpt lat="48.97938" lon="2.1231">
        <ele>30</ele>
        <time>2022-05-29T13:22:52Z</time>
      </trkpt>
      <trkpt lat="48.97944" lon="2.12297">
        <ele>30</ele>
        <time>2022-05-29T13:22:58Z</time>
      </trkpt>
      <trkpt lat="48.97946" lon="2.12284">
        <ele>30</ele>
        <time>2022-05-29T13:23:03Z</time>
      </trkpt>
      <trkpt lat="48.97947" lon="2.12274">
        <ele>30</ele>
        <time>2022-05-29T13:23:08Z</time>
      </trkpt>
      <trkpt lat="48.97947" lon="2.12259">
        <ele>30</ele>
        <time>2022-05-29T13:23:14Z</time>
      </trkpt>
      <trkpt lat="48.97947" lon="2.12247">
        <ele>30</ele>
        <time>2022-05-29T13:23:19Z</time>
      </trkpt>
      <trkpt lat="48.97945" lon="2.12239">
        <ele>30</ele>
        <time>2022-05-29T13:23:24Z</time>
      </trkpt>
      <trkpt lat="48.97945" lon="2.12226">
        <ele>30</ele>
        <time>2022-05-29T13:23:30Z</time>
      </trkpt>
      <trkpt lat="48.97944" lon="2.12211">
        <ele>30</ele>
        <time>2022-05-29T13:23:36Z</time>
      </trkpt>
      <trkpt lat="48.97945" lon="2.122">
        <ele>30</ele>
        <time>2022-05-29T13:23:41Z</time>
      </trkpt>
      <trkpt lat="48.97944" lon="2.12186">
        <ele>30</ele>
        <time>2022-05-29T13:23:46Z</time>
      </trkpt>
      <trkpt lat="48.97944" lon="2.12171">
        <ele>30</ele>
        <time>2022-05-29T13:23:52Z</time>
      </trkpt>
      <trkpt lat="48.97945" lon="2.1216">
        <ele>30</ele>
        <time>2022-05-29T13:23:57Z</time>
      </trkpt>
      <trkpt lat="48.97944" lon="2.12148">
        <ele>30</ele>
        <time>2022-05-29T13:24:02Z</time>
      </trkpt>
      <trkpt lat="48.97944" lon="2.12137">
        <ele>30</ele>
        <time>2022-05-29T13:24:07Z</time>
      </trkpt>
      <trkpt lat="48.97945" lon="2.12123">
        <ele>30</ele>
        <time>2022-05-29T13:24:13Z</time>
      </trkpt>
      <trkpt lat="48.97945" lon="2.1211">
        <ele>30</ele>
        <time>2022-05-29T13:24:19Z</time>
      </trkpt>
      <trkpt lat="48.97939" lon="2.12101">
        <ele>30.2</ele>
        <time>2022-05-29T13:24:24Z</time>
      </trkpt>
      <trkpt lat="48.97933" lon="2.12099">
        <ele>30.4</ele>
        <time>2022-05-29T13:24:29Z</time>
      </trkpt>
      <trkpt lat="48.97923" lon="2.12097">
        <ele>30.8</ele>
        <time>2022-05-29T13:24:35Z</time>
      </trkpt>
      <trkpt lat="48.97918" lon="2.12091">
        <ele>30.9</ele>
        <time>2022-05-29T13:24:40Z</time>
      </trkpt>
      <trkpt lat="48.97918" lon="2.12082">
        <ele>30.9</ele>
        <time>2022-05-29T13:24:46Z</time>
      </trkpt>
      <trkpt lat="48.97915" lon="2.12072">
        <ele>31</ele>
        <time>2022-05-29T13:24:51Z</time>
      </trkpt>
      <trkpt lat="48.97907" lon="2.12062">
        <ele>31</ele>
        <time>2022-05-29T13:24:56Z</time>
      </trkpt>
      <trkpt lat="48.97899" lon="2.12054">
        <ele>31</ele>
        <time>2022-05-29T13:25:02Z</time>
      </trkpt>
      <trkpt lat="48.97894" lon="2.12041">
        <ele>31</ele>
        <time>2022-05-29T13:25:08Z</time>
      </trkpt>
      <trkpt lat="48.97892" lon="2.1203">
        <ele>31</ele>
        <time>2022-05-29T13:25:13Z</time>
      </trkpt>
      <trkpt lat="48.97893" lon="2.1202">
        <ele>31</ele>
        <time>2022-05-29T13:25:18Z</time>
      </trkpt>
      <trkpt lat="48.97887" lon="2.12011">
        <ele>31</ele>
        <time>2022-05-29T13:25:24Z</time>
      </trkpt>
      <trkpt lat="48.97882" lon="2.12009">
        <ele>31</ele>
        <time>2022-05-29T13:25:29Z</time>
      </trkpt>
      <trkpt lat="48.97881" lon="2.11997">
        <ele>31</ele>
        <time>2022-05-29T13:25:35Z</time>
      </trkpt>
      <trkpt lat="48.97877" lon="2.11982">
        <ele>31</ele>
        <time>2022-05-29T13:25:41Z</time>
      </trkpt>
      <trkpt lat="48.97874" lon="2.11968">
        <ele>31</ele>
        <time>2022-05-29T13:25:47Z</time>
      </trkpt>
      <trkpt lat="48.97866" lon="2.11964">
        <ele>31</ele>
        <time>2022-05-29T13:25:52Z</time>
      </trkpt>
      <trkpt lat="48.97858" lon="2.11954">
        <ele>31</ele>
        <time>2022-05-29T13:25:58Z</time>
      </trkpt>
      <trkpt lat="48.97851" lon="2.11948">
        <ele>31</ele>
        <time>2022-05-29T13:26:03Z</time>
      </trkpt>
      <trkpt lat="48.97842" lon="2.11945">
        <ele>31</ele>
        <time>2022-05-29T13:26:09Z</time>
      </trkpt>
      <trkpt lat="48.97833" lon="2.11945">
        <ele>31</ele>
        <time>2022-05-29T13:26:15Z</time>
      </trkpt>
      <trkpt lat="48.97826" lon="2.11944">
        <ele>31</ele>
        <time>2022-05-29T13:26:21Z</time>
      </trkpt>
      <trkpt lat="48.97817" lon="2.11944">
        <ele>31</ele>
        <time>2022-05-29T13:26:26Z</time>
      </trkpt>
      <trkpt lat="48.9781" lon="2.11942">
        <ele>31</ele>
        <time>2022-05-29T13:26:31Z</time>
      </trkpt>
      <trkpt lat="48.97801" lon="2.11937">
        <ele>31</ele>
        <time>2022-05-29T13:26:37Z</time>
      </trkpt>
      <trkpt lat="48.97793" lon="2.11935">
        <ele>31</ele>
        <time>2022-05-29T13:26:43Z</time>
      </trkpt>
      <trkpt lat="48.97786" lon="2.11933">
        <ele>31</ele>
        <time>2022-05-29T13:26:48Z</time>
      </trkpt>
      <trkpt lat="48.97777" lon="2.11931">
        <ele>31</ele>
        <time>2022-05-29T13:26:54Z</time>
      </trkpt>
      <trkpt lat="48.97768" lon="2.1193">
        <ele>31</ele>
        <time>2022-05-29T13:27:00Z</time>
      </trkpt>
      <trkpt lat="48.97763" lon="2.11922">
        <ele>31</ele>
        <time>2022-05-29T13:27:05Z</time>
      </trkpt>
      <trkpt lat="48.97762" lon="2.11909">
        <ele>31</ele>
        <time>2022-05-29T13:27:11Z</time>
      </trkpt>
      <trkpt lat="48.97763" lon="2.11899">
        <ele>31</ele>
        <time>2022-05-29T13:27:16Z</time>
      </trkpt>
      <trkpt lat="48.97768" lon="2.11884">
        <ele>31</ele>
        <time>2022-05-29T13:27:22Z</time>
      </trkpt>
      <trkpt lat="48.97771" lon="2.11871">
        <ele>31</ele>
        <time>2022-05-29T13:27:28Z</time>
      </trkpt>
      <trkpt lat="48.9777" lon="2.1186">
        <ele>31</ele>
        <time>2022-05-29T13:27:33Z</time>
      </trkpt>
      <trkpt lat="48.97769" lon="2.1185">
        <ele>31</ele>
        <time>2022-05-29T13:27:39Z</time>
      </trkpt>
      <trkpt lat="48.97767" lon="2.11837">
        <ele>31</ele>
        <time>2022-05-29T13:27:44Z</time>
      </trkpt>
      <trkpt lat="48.97759" lon="2.11825">
        <ele>31</ele>
        <time>2022-05-29T13:27:50Z</time>
      </trkpt>
      <trkpt lat="48.97756" lon="2.11812">
        <ele>31</ele>
        <time>2022-05-29T13:27:56Z</time>
      </trkpt>
      <trkpt lat="48.97755" lon="2.11802">
        <ele>30.9</ele>
        <time>2022-05-29T13:28:01Z</time>
      </trkpt>
      <trkpt lat="48.97756" lon="2.11789">
        <ele>30.5</ele>
        <time>2022-05-29T13:28:07Z</time>
      </trkpt>
      <trkpt lat="48.97755" lon="2.11777">
        <ele>30.2</ele>
        <time>2022-05-29T13:28:12Z</time>
      </trkpt>
      <trkpt lat="48.97751" lon="2.11764">
        <ele>30</ele>
        <time>2022-05-29T13:28:18Z</time>
      </trkpt>
      <trkpt lat="48.97744" lon="2.11754">
        <ele>30.2</ele>
        <time>2022-05-29T13:28:24Z</time>
      </trkpt>
      <trkpt lat="48.97738" lon="2.11745">
        <ele>30.5</ele>
        <time>2022-05-29T13:28:29Z</time>
      </trkpt>
      <trkpt lat="48.97735" lon="2.11731">
        <ele>30.9</ele>
        <time>2022-05-29T13:28:35Z</time>
      </trkpt>
      <trkpt lat="48.97736" lon="2.11723">
        <ele>31</ele>
        <time>2022-05-29T13:28:40Z</time>
      </trkpt>
      <trkpt lat="48.97736" lon="2.11721">
        <ele>31</ele>
        <time>2022-05-29T13:28:45Z</time>
      </trkpt>
      <trkpt lat="48.97735" lon="2.1172">
        <ele>31</ele>
        <time>2022-05-29T13:28:51Z</time>
      </trkpt>
      <trkpt lat="48.97735" lon="2.1172">
        <ele>31</ele>
        <time>2022-05-29T13:28:57Z</time>
      </trkpt>
      <trkpt lat="48.97735" lon="2.11719">
        <ele>31</ele>
        <time>2022-05-29T13:29:03Z</time>
      </trkpt>
      <trkpt lat="48.97734" lon="2.11719">
        <ele>31</ele>
        <time>2022-05-29T13:29:08Z</time>
      </trkpt>
      <trkpt lat="48.97734" lon="2.11718">
        <ele>31</ele>
        <time>2022-05-29T13:29:14Z</time>
      </trkpt>
      <trkpt lat="48.97734" lon="2.11718">
        <ele>31</ele>
        <time>2022-05-29T13:29:19Z</time>
      </trkpt>
      <trkpt lat="48.97736" lon="2.11718">
        <ele>31</ele>
        <time>2022-05-29T13:29:25Z</time>
      </trkpt>
      <trkpt lat="48.97742" lon="2.11723">
        <ele>31</ele>
        <time>2022-05-29T13:29:31Z</time>
      </trkpt>
      <trkpt lat="48.97748" lon="2.11728">
        <ele>30.8</ele>
        <time>2022-05-29T13:29:36Z</time>
      </trkpt>
      <trkpt lat="48.97761" lon="2.11732">
        <ele>30.8</ele>
        <time>2022-05-29T13:29:42Z</time>
      </trkpt>
      <trkpt lat="48.97768" lon="2.11736">
        <ele>30.8</ele>
        <time>2022-05-29T13:29:47Z</time>
      </trkpt>
      <trkpt lat="48.97775" lon="2.11742">
        <ele>30.9</ele>
        <time>2022-05-29T13:29:53Z</time>
      </trkpt>
      <trkpt lat="48.97783" lon="2.11745">
        <ele>30.9</ele>
        <time>2022-05-29T13:29:59Z</time>
      </trkpt>
      <trkpt lat="48.9779" lon="2.11749">
        <ele>30.6</ele>
        <time>2022-05-29T13:30:05Z</time>
      </trkpt>
      <trkpt lat="48.97797" lon="2.11743">
        <ele>30.5</ele>
        <time>2022-05-29T13:30:11Z</time>
      </trkpt>
      <trkpt lat="48.97795" lon="2.11726">
        <ele>30.9</ele>
        <time>2022-05-29T13:30:17Z</time>
      </trkpt>
      <trkpt lat="48.9779" lon="2.11714">
        <ele>30.7</ele>
        <time>2022-05-29T13:30:23Z</time>
      </trkpt>
      <trkpt lat="48.97787" lon="2.11706">
        <ele>30.4</ele>
        <time>2022-05-29T13:30:28Z</time>
      </trkpt>
      <trkpt lat="48.9778" lon="2.11696">
        <ele>30</ele>
        <time>2022-05-29T13:30:34Z</time>
      </trkpt>
      <trkpt lat="48.97774" lon="2.11687">
        <ele>30.1</ele>
        <time>2022-05-29T13:30:39Z</time>
      </trkpt>
      <trkpt lat="48.97768" lon="2.11676">
        <ele>30.4</ele>
        <time>2022-05-29T13:30:45Z</time>
      </trkpt>
      <trkpt lat="48.97764" lon="2.11668">
        <ele>30.5</ele>
        <time>2022-05-29T13:30:50Z</time>
      </trkpt>
      <trkpt lat="48.9776" lon="2.11659">
        <ele>30.5</ele>
        <time>2022-05-29T13:30:56Z</time>
      </trkpt>
      <trkpt lat="48.97757" lon="2.11649">
        <ele>30.3</ele>
        <time>2022-05-29T13:31:02Z</time>
      </trkpt>
      <trkpt lat="48.97753" lon="2.11638">
        <ele>30</ele>
        <time>2022-05-29T13:31:08Z</time>
      </trkpt>
      <trkpt lat="48.97746" lon="2.11628">
        <ele>30</ele>
        <time>2022-05-29T13:31:14Z</time>
      </trkpt>
      <trkpt lat="48.97741" lon="2.11616">
        <ele>30</ele>
        <time>2022-05-29T13:31:20Z</time>
      </trkpt>
      <trkpt lat="48.9774" lon="2.11607">
        <ele>30</ele>
        <time>2022-05-29T13:31:25Z</time>
      </trkpt>
      <trkpt lat="48.97734" lon="2.11597">
        <ele>30</ele>
        <time>2022-05-29T13:31:31Z</time>
      </trkpt>
      <trkpt lat="48.97727" lon="2.11586">
        <ele>30</ele>
        <time>2022-05-29T13:31:36Z</time>
      </trkpt>
      <trkpt lat="48.97719" lon="2.11575">
        <ele>30</ele>
        <time>2022-05-29T13:31:42Z</time>
      </trkpt>
      <trkpt lat="48.97713" lon="2.11566">
        <ele>30</ele>
        <time>2022-05-29T13:31:48Z</time>
      </trkpt>
      <trkpt lat="48.97709" lon="2.11556">
        <ele>30</ele>
        <time>2022-05-29T13:31:54Z</time>
      </trkpt>
      <trkpt lat="48.97706" lon="2.11546">
        <ele>30</ele>
        <time>2022-05-29T13:31:59Z</time>
      </trkpt>
      <trkpt lat="48.97702" lon="2.11536">
        <ele>30</ele>
        <time>2022-05-29T13:32:05Z</time>
      </trkpt>
      <trkpt lat="48.977" lon="2.11525">
        <ele>30</ele>
        <time>2022-05-29T13:32:10Z</time>
      </trkpt>
      <trkpt lat="48.97699" lon="2.11513">
        <ele>30</ele>
        <time>2022-05-29T13:32:15Z</time>
      </trkpt>
      <trkpt lat="48.97697" lon="2.11501">
        <ele>30</ele>
        <time>2022-05-29T13:32:21Z</time>
      </trkpt>
      <trkpt lat="48.97695" lon="2.11492">
        <ele>30</ele>
        <time>2022-05-29T13:32:26Z</time>
      </trkpt>
      <trkpt lat="48.97693" lon="2.11481">
        <ele>30</ele>
        <time>2022-05-29T13:32:32Z</time>
      </trkpt>
      <trkpt lat="48.9769" lon="2.1147">
        <ele>29.9</ele>
        <time>2022-05-29T13:32:37Z</time>
      </trkpt>
      <trkpt lat="48.97688" lon="2.11457">
        <ele>29.6</ele>
        <time>2022-05-29T13:32:43Z</time>
      </trkpt>
      <trkpt lat="48.97687" lon="2.11447">
        <ele>29.3</ele>
        <time>2022-05-29T13:32:48Z</time>
      </trkpt>
      <trkpt lat="48.97686" lon="2.11435">
        <ele>29.2</ele>
        <time>2022-05-29T13:32:53Z</time>
      </trkpt>
      <trkpt lat="48.97687" lon="2.11422">
        <ele>29.1</ele>
        <time>2022-05-29T13:32:58Z</time>
      </trkpt>
      <trkpt lat="48.97687" lon="2.11407">
        <ele>29</ele>
        <time>2022-05-29T13:33:03Z</time>
      </trkpt>
      <trkpt lat="48.97688" lon="2.11394">
        <ele>29</ele>
        <time>2022-05-29T13:33:09Z</time>
      </trkpt>
      <trkpt lat="48.97687" lon="2.11384">
        <ele>29</ele>
        <time>2022-05-29T13:33:14Z</time>
      </trkpt>
      <trkpt lat="48.97685" lon="2.11371">
        <ele>29</ele>
        <time>2022-05-29T13:33:19Z</time>
      </trkpt>
      <trkpt lat="48.97684" lon="2.1136">
        <ele>29</ele>
        <time>2022-05-29T13:33:25Z</time>
      </trkpt>
      <trkpt lat="48.97682" lon="2.11348">
        <ele>29</ele>
        <time>2022-05-29T13:33:31Z</time>
      </trkpt>
      <trkpt lat="48.97679" lon="2.11334">
        <ele>29</ele>
        <time>2022-05-29T13:33:37Z</time>
      </trkpt>
      <trkpt lat="48.97675" lon="2.11321">
        <ele>29</ele>
        <time>2022-05-29T13:33:43Z</time>
      </trkpt>
      <trkpt lat="48.97669" lon="2.11318">
        <ele>29</ele>
        <time>2022-05-29T13:33:49Z</time>
      </trkpt>
      <trkpt lat="48.97661" lon="2.1132">
        <ele>29</ele>
        <time>2022-05-29T13:33:55Z</time>
      </trkpt>
      <trkpt lat="48.97656" lon="2.1132">
        <ele>29</ele>
        <time>2022-05-29T13:34:01Z</time>
      </trkpt>
      <trkpt lat="48.97652" lon="2.11312">
        <ele>29</ele>
        <time>2022-05-29T13:34:06Z</time>
      </trkpt>
      <trkpt lat="48.97645" lon="2.11298">
        <ele>29</ele>
        <time>2022-05-29T13:34:12Z</time>
      </trkpt>
      <trkpt lat="48.9764" lon="2.11292">
        <ele>29</ele>
        <time>2022-05-29T13:34:18Z</time>
      </trkpt>
      <trkpt lat="48.97637" lon="2.11287">
        <ele>29</ele>
        <time>2022-05-29T13:34:23Z</time>
      </trkpt>
      <trkpt lat="48.97632" lon="2.11282">
        <ele>29</ele>
        <time>2022-05-29T13:34:29Z</time>
      </trkpt>
      <trkpt lat="48.97621" lon="2.11282">
        <ele>29</ele>
        <time>2022-05-29T13:34:35Z</time>
      </trkpt>
      <trkpt lat="48.97611" lon="2.11279">
        <ele>29</ele>
        <time>2022-05-29T13:34:40Z</time>
      </trkpt>
      <trkpt lat="48.97604" lon="2.11278">
        <ele>29</ele>
        <time>2022-05-29T13:34:46Z</time>
      </trkpt>
      <trkpt lat="48.97603" lon="2.11272">
        <ele>29</ele>
        <time>2022-05-29T13:34:51Z</time>
      </trkpt>
      <trkpt lat="48.97603" lon="2.11259">
        <ele>29</ele>
        <time>2022-05-29T13:34:57Z</time>
      </trkpt>
      <trkpt lat="48.97604" lon="2.11245">
        <ele>29</ele>
        <time>2022-05-29T13:35:03Z</time>
      </trkpt>
      <trkpt lat="48.97607" lon="2.11237">
        <ele>29</ele>
        <time>2022-05-29T13:35:09Z</time>
      </trkpt>
      <trkpt lat="48.97605" lon="2.11224">
        <ele>29</ele>
        <time>2022-05-29T13:35:15Z</time>
      </trkpt>
      <trkpt lat="48.97605" lon="2.11211">
        <ele>29</ele>
        <time>2022-05-29T13:35:21Z</time>
      </trkpt>
      <trkpt lat="48.97607" lon="2.11195">
        <ele>29</ele>
        <time>2022-05-29T13:35:27Z</time>
      </trkpt>
      <trkpt lat="48.97606" lon="2.1118">
        <ele>29</ele>
        <time>2022-05-29T13:35:33Z</time>
      </trkpt>
      <trkpt lat="48.97604" lon="2.11167">
        <ele>29</ele>
        <time>2022-05-29T13:35:39Z</time>
      </trkpt>
      <trkpt lat="48.97605" lon="2.11155">
        <ele>28.6</ele>
        <time>2022-05-29T13:35:45Z</time>
      </trkpt>
      <trkpt lat="48.97604" lon="2.1115">
        <ele>28.4</ele>
        <time>2022-05-29T13:35:50Z</time>
      </trkpt>
      <trkpt lat="48.97602" lon="2.11145">
        <ele>28.2</ele>
        <time>2022-05-29T13:35:55Z</time>
      </trkpt>
      <trkpt lat="48.97601" lon="2.11138">
        <ele>28</ele>
        <time>2022-05-29T13:36:01Z</time>
      </trkpt>
      <trkpt lat="48.97602" lon="2.11126">
        <ele>28</ele>
        <time>2022-05-29T13:36:06Z</time>
      </trkpt>
      <trkpt lat="48.97602" lon="2.11116">
        <ele>28</ele>
        <time>2022-05-29T13:36:12Z</time>
      </trkpt>
      <trkpt lat="48.97601" lon="2.11106">
        <ele>27.8</ele>
        <time>2022-05-29T13:36:17Z</time>
      </trkpt>
      <trkpt lat="48.976" lon="2.11092">
        <ele>27.3</ele>
        <time>2022-05-29T13:36:23Z</time>
      </trkpt>
      <trkpt lat="48.97603" lon="2.11079">
        <ele>26.8</ele>
        <time>2022-05-29T13:36:28Z</time>
      </trkpt>
      <trkpt lat="48.97604" lon="2.1107">
        <ele>26.5</ele>
        <time>2022-05-29T13:36:34Z</time>
      </trkpt>
      <trkpt lat="48.97605" lon="2.11059">
        <ele>26.1</ele>
        <time>2022-05-29T13:36:40Z</time>
      </trkpt>
      <trkpt lat="48.97605" lon="2.11046">
        <ele>26</ele>
        <time>2022-05-29T13:36:45Z</time>
      </trkpt>
      <trkpt lat="48.97609" lon="2.1103">
        <ele>26</ele>
        <time>2022-05-29T13:36:51Z</time>
      </trkpt>
      <trkpt lat="48.97611" lon="2.11017">
        <ele>26.4</ele>
        <time>2022-05-29T13:36:56Z</time>
      </trkpt>
      <trkpt lat="48.97611" lon="2.11006">
        <ele>26.8</ele>
        <time>2022-05-29T13:37:01Z</time>
      </trkpt>
      <trkpt lat="48.9761" lon="2.10993">
        <ele>26.7</ele>
        <time>2022-05-29T13:37:07Z</time>
      </trkpt>
      <trkpt lat="48.97609" lon="2.10984">
        <ele>26.5</ele>
        <time>2022-05-29T13:37:12Z</time>
      </trkpt>
      <trkpt lat="48.97609" lon="2.10967">
        <ele>26.3</ele>
        <time>2022-05-29T13:37:18Z</time>
      </trkpt>
      <trkpt lat="48.97608" lon="2.10944">
        <ele>27</ele>
        <time>2022-05-29T13:37:24Z</time>
      </trkpt>
      <trkpt lat="48.97611" lon="2.10928">
        <ele>27</ele>
        <time>2022-05-29T13:37:30Z</time>
      </trkpt>
      <trkpt lat="48.97611" lon="2.10918">
        <ele>27</ele>
        <time>2022-05-29T13:37:36Z</time>
      </trkpt>
      <trkpt lat="48.97609" lon="2.10908">
        <ele>27</ele>
        <time>2022-05-29T13:37:42Z</time>
      </trkpt>
      <trkpt lat="48.97608" lon="2.10898">
        <ele>27</ele>
        <time>2022-05-29T13:37:47Z</time>
      </trkpt>
      <trkpt lat="48.97613" lon="2.1088">
        <ele>27.3</ele>
        <time>2022-05-29T13:37:53Z</time>
      </trkpt>
      <trkpt lat="48.97615" lon="2.10867">
        <ele>27.8</ele>
        <time>2022-05-29T13:37:58Z</time>
      </trkpt>
      <trkpt lat="48.97618" lon="2.10855">
        <ele>28</ele>
        <time>2022-05-29T13:38:03Z</time>
      </trkpt>
      <trkpt lat="48.97622" lon="2.10843">
        <ele>28</ele>
        <time>2022-05-29T13:38:09Z</time>
      </trkpt>
      <trkpt lat="48.97623" lon="2.10835">
        <ele>28</ele>
        <time>2022-05-29T13:38:14Z</time>
      </trkpt>
      <trkpt lat="48.97622" lon="2.10829">
        <ele>28.2</ele>
        <time>2022-05-29T13:38:20Z</time>
      </trkpt>
      <trkpt lat="48.97621" lon="2.10826">
        <ele>28.3</ele>
        <time>2022-05-29T13:38:25Z</time>
      </trkpt>
      <trkpt lat="48.97623" lon="2.10822">
        <ele>28.4</ele>
        <time>2022-05-29T13:38:30Z</time>
      </trkpt>
      <trkpt lat="48.97624" lon="2.10817">
        <ele>28.6</ele>
        <time>2022-05-29T13:38:36Z</time>
      </trkpt>
      <trkpt lat="48.97624" lon="2.10809">
        <ele>28.9</ele>
        <time>2022-05-29T13:38:41Z</time>
      </trkpt>
      <trkpt lat="48.97625" lon="2.10793">
        <ele>29</ele>
        <time>2022-05-29T13:38:47Z</time>
      </trkpt>
      <trkpt lat="48.97627" lon="2.1078">
        <ele>29</ele>
        <time>2022-05-29T13:38:52Z</time>
      </trkpt>
      <trkpt lat="48.97629" lon="2.10766">
        <ele>29</ele>
        <time>2022-05-29T13:38:58Z</time>
      </trkpt>
      <trkpt lat="48.97632" lon="2.10756">
        <ele>29</ele>
        <time>2022-05-29T13:39:03Z</time>
      </trkpt>
      <trkpt lat="48.97637" lon="2.10743">
        <ele>29</ele>
        <time>2022-05-29T13:39:09Z</time>
      </trkpt>
      <trkpt lat="48.97642" lon="2.10728">
        <ele>29</ele>
        <time>2022-05-29T13:39:15Z</time>
      </trkpt>
      <trkpt lat="48.97644" lon="2.10716">
        <ele>29</ele>
        <time>2022-05-29T13:39:21Z</time>
      </trkpt>
      <trkpt lat="48.97644" lon="2.10706">
        <ele>29</ele>
        <time>2022-05-29T13:39:26Z</time>
      </trkpt>
      <trkpt lat="48.97645" lon="2.10692">
        <ele>29</ele>
        <time>2022-05-29T13:39:32Z</time>
      </trkpt>
      <trkpt lat="48.97647" lon="2.10683">
        <ele>29</ele>
        <time>2022-05-29T13:39:38Z</time>
      </trkpt>
      <trkpt lat="48.97647" lon="2.10674">
        <ele>29</ele>
        <time>2022-05-29T13:39:43Z</time>
      </trkpt>
      <trkpt lat="48.97648" lon="2.10663">
        <ele>29</ele>
        <time>2022-05-29T13:39:49Z</time>
      </trkpt>
      <trkpt lat="48.97648" lon="2.1065">
        <ele>29</ele>
        <time>2022-05-29T13:39:54Z</time>
      </trkpt>
      <trkpt lat="48.97648" lon="2.10639">
        <ele>29</ele>
        <time>2022-05-29T13:39:59Z</time>
      </trkpt>
      <trkpt lat="48.9765" lon="2.10627">
        <ele>29</ele>
        <time>2022-05-29T13:40:05Z</time>
      </trkpt>
      <trkpt lat="48.97652" lon="2.10614">
        <ele>29</ele>
        <time>2022-05-29T13:40:11Z</time>
      </trkpt>
      <trkpt lat="48.97656" lon="2.10603">
        <ele>29</ele>
        <time>2022-05-29T13:40:16Z</time>
      </trkpt>
      <trkpt lat="48.97661" lon="2.10591">
        <ele>29</ele>
        <time>2022-05-29T13:40:22Z</time>
      </trkpt>
      <trkpt lat="48.97664" lon="2.10579">
        <ele>29</ele>
        <time>2022-05-29T13:40:28Z</time>
      </trkpt>
      <trkpt lat="48.97664" lon="2.10567">
        <ele>29</ele>
        <time>2022-05-29T13:40:34Z</time>
      </trkpt>
      <trkpt lat="48.97665" lon="2.10554">
        <ele>29</ele>
        <time>2022-05-29T13:40:39Z</time>
      </trkpt>
      <trkpt lat="48.97668" lon="2.1054">
        <ele>29</ele>
        <time>2022-05-29T13:40:44Z</time>
      </trkpt>
      <trkpt lat="48.9767" lon="2.10531">
        <ele>29</ele>
        <time>2022-05-29T13:40:50Z</time>
      </trkpt>
      <trkpt lat="48.97672" lon="2.10524">
        <ele>29</ele>
        <time>2022-05-29T13:40:55Z</time>
      </trkpt>
      <trkpt lat="48.97672" lon="2.10512">
        <ele>29</ele>
        <time>2022-05-29T13:41:01Z</time>
      </trkpt>
      <trkpt lat="48.97675" lon="2.10498">
        <ele>29</ele>
        <time>2022-05-29T13:41:07Z</time>
      </trkpt>
      <trkpt lat="48.9768" lon="2.10484">
        <ele>29</ele>
        <time>2022-05-29T13:41:13Z</time>
      </trkpt>
      <trkpt lat="48.97683" lon="2.10471">
        <ele>29</ele>
        <time>2022-05-29T13:41:19Z</time>
      </trkpt>
      <trkpt lat="48.97688" lon="2.1046">
        <ele>29</ele>
        <time>2022-05-29T13:41:25Z</time>
      </trkpt>
      <trkpt lat="48.9769" lon="2.10449">
        <ele>29</ele>
        <time>2022-05-29T13:41:30Z</time>
      </trkpt>
      <trkpt lat="48.97691" lon="2.10432">
        <ele>29</ele>
        <time>2022-05-29T13:41:36Z</time>
      </trkpt>
      <trkpt lat="48.97693" lon="2.1042">
        <ele>29</ele>
        <time>2022-05-29T13:41:42Z</time>
      </trkpt>
      <trkpt lat="48.97696" lon="2.10409">
        <ele>29</ele>
        <time>2022-05-29T13:41:48Z</time>
      </trkpt>
      <trkpt lat="48.97699" lon="2.10397">
        <ele>29</ele>
        <time>2022-05-29T13:41:54Z</time>
      </trkpt>
      <trkpt lat="48.97698" lon="2.10384">
        <ele>29</ele>
        <time>2022-05-29T13:42:00Z</time>
      </trkpt>
      <trkpt lat="48.97699" lon="2.10375">
        <ele>29</ele>
        <time>2022-05-29T13:42:05Z</time>
      </trkpt>
      <trkpt lat="48.97699" lon="2.10364">
        <ele>29</ele>
        <time>2022-05-29T13:42:10Z</time>
      </trkpt>
      <trkpt lat="48.97701" lon="2.10353">
        <ele>29</ele>
        <time>2022-05-29T13:42:15Z</time>
      </trkpt>
      <trkpt lat="48.97703" lon="2.1034">
        <ele>29</ele>
        <time>2022-05-29T13:42:21Z</time>
      </trkpt>
      <trkpt lat="48.97703" lon="2.10329">
        <ele>29</ele>
        <time>2022-05-29T13:42:27Z</time>
      </trkpt>
      <trkpt lat="48.97705" lon="2.10319">
        <ele>29</ele>
        <time>2022-05-29T13:42:32Z</time>
      </trkpt>
      <trkpt lat="48.97704" lon="2.10307">
        <ele>29</ele>
        <time>2022-05-29T13:42:38Z</time>
      </trkpt>
      <trkpt lat="48.97704" lon="2.10297">
        <ele>29</ele>
        <time>2022-05-29T13:42:43Z</time>
      </trkpt>
      <trkpt lat="48.97708" lon="2.10283">
        <ele>29</ele>
        <time>2022-05-29T13:42:49Z</time>
      </trkpt>
      <trkpt lat="48.97712" lon="2.10269">
        <ele>29</ele>
        <time>2022-05-29T13:42:55Z</time>
      </trkpt>
      <trkpt lat="48.97714" lon="2.10254">
        <ele>29</ele>
        <time>2022-05-29T13:43:01Z</time>
      </trkpt>
      <trkpt lat="48.97717" lon="2.10241">
        <ele>29</ele>
        <time>2022-05-29T13:43:06Z</time>
      </trkpt>
      <trkpt lat="48.9772" lon="2.10231">
        <ele>29</ele>
        <time>2022-05-29T13:43:11Z</time>
      </trkpt>
      <trkpt lat="48.97721" lon="2.10219">
        <ele>29</ele>
        <time>2022-05-29T13:43:17Z</time>
      </trkpt>
      <trkpt lat="48.97722" lon="2.10208">
        <ele>29</ele>
        <time>2022-05-29T13:43:22Z</time>
      </trkpt>
      <trkpt lat="48.97724" lon="2.102">
        <ele>29</ele>
        <time>2022-05-29T13:43:28Z</time>
      </trkpt>
      <trkpt lat="48.97726" lon="2.10188">
        <ele>29</ele>
        <time>2022-05-29T13:43:34Z</time>
      </trkpt>
      <trkpt lat="48.97727" lon="2.10174">
        <ele>29</ele>
        <time>2022-05-29T13:43:40Z</time>
      </trkpt>
      <trkpt lat="48.9773" lon="2.1016">
        <ele>29</ele>
        <time>2022-05-29T13:43:46Z</time>
      </trkpt>
      <trkpt lat="48.97731" lon="2.10149">
        <ele>29</ele>
        <time>2022-05-29T13:43:51Z</time>
      </trkpt>
      <trkpt lat="48.97734" lon="2.10139">
        <ele>29</ele>
        <time>2022-05-29T13:43:56Z</time>
      </trkpt>
      <trkpt lat="48.97739" lon="2.10127">
        <ele>28.8</ele>
        <time>2022-05-29T13:44:02Z</time>
      </trkpt>
      <trkpt lat="48.97739" lon="2.10118">
        <ele>28.7</ele>
        <time>2022-05-29T13:44:07Z</time>
      </trkpt>
      <trkpt lat="48.97741" lon="2.10106">
        <ele>28.7</ele>
        <time>2022-05-29T13:44:13Z</time>
      </trkpt>
      <trkpt lat="48.97743" lon="2.10093">
        <ele>28.9</ele>
        <time>2022-05-29T13:44:18Z</time>
      </trkpt>
      <trkpt lat="48.97744" lon="2.1008">
        <ele>28.9</ele>
        <time>2022-05-29T13:44:24Z</time>
      </trkpt>
      <trkpt lat="48.97745" lon="2.10068">
        <ele>28.5</ele>
        <time>2022-05-29T13:44:30Z</time>
      </trkpt>
      <trkpt lat="48.97749" lon="2.10056">
        <ele>28</ele>
        <time>2022-05-29T13:44:36Z</time>
      </trkpt>
      <trkpt lat="48.97749" lon="2.10047">
        <ele>28</ele>
        <time>2022-05-29T13:44:41Z</time>
      </trkpt>
      <trkpt lat="48.97751" lon="2.10036">
        <ele>28</ele>
        <time>2022-05-29T13:44:46Z</time>
      </trkpt>
      <trkpt lat="48.97752" lon="2.10023">
        <ele>28</ele>
        <time>2022-05-29T13:44:52Z</time>
      </trkpt>
      <trkpt lat="48.97753" lon="2.10013">
        <ele>27.9</ele>
        <time>2022-05-29T13:44:57Z</time>
      </trkpt>
      <trkpt lat="48.97755" lon="2.10001">
        <ele>27.8</ele>
        <time>2022-05-29T13:45:03Z</time>
      </trkpt>
      <trkpt lat="48.97759" lon="2.09989">
        <ele>27.4</ele>
        <time>2022-05-29T13:45:08Z</time>
      </trkpt>
      <trkpt lat="48.97761" lon="2.09977">
        <ele>27.1</ele>
        <time>2022-05-29T13:45:13Z</time>
      </trkpt>
      <trkpt lat="48.97763" lon="2.09966">
        <ele>27</ele>
        <time>2022-05-29T13:45:18Z</time>
      </trkpt>
      <trkpt lat="48.97765" lon="2.09955">
        <ele>27</ele>
        <time>2022-05-29T13:45:23Z</time>
      </trkpt>
      <trkpt lat="48.97767" lon="2.09936">
        <ele>26.9</ele>
        <time>2022-05-29T13:45:29Z</time>
      </trkpt>
      <trkpt lat="48.97769" lon="2.09925">
        <ele>26.8</ele>
        <time>2022-05-29T13:45:35Z</time>
      </trkpt>
      <trkpt lat="48.9777" lon="2.09915">
        <ele>26.7</ele>
        <time>2022-05-29T13:45:41Z</time>
      </trkpt>
      <trkpt lat="48.97773" lon="2.09902">
        <ele>26.6</ele>
        <time>2022-05-29T13:45:47Z</time>
      </trkpt>
      <trkpt lat="48.97775" lon="2.09892">
        <ele>26.7</ele>
        <time>2022-05-29T13:45:52Z</time>
      </trkpt>
      <trkpt lat="48.97775" lon="2.09879">
        <ele>26.5</ele>
        <time>2022-05-29T13:45:58Z</time>
      </trkpt>
      <trkpt lat="48.97776" lon="2.09868">
        <ele>26.6</ele>
        <time>2022-05-29T13:46:04Z</time>
      </trkpt>
      <trkpt lat="48.97777" lon="2.09855">
        <ele>26.8</ele>
        <time>2022-05-29T13:46:09Z</time>
      </trkpt>
      <trkpt lat="48.97779" lon="2.09843">
        <ele>27</ele>
        <time>2022-05-29T13:46:14Z</time>
      </trkpt>
      <trkpt lat="48.97781" lon="2.09828">
        <ele>27</ele>
        <time>2022-05-29T13:46:20Z</time>
      </trkpt>
      <trkpt lat="48.97783" lon="2.09816">
        <ele>27</ele>
        <time>2022-05-29T13:46:25Z</time>
      </trkpt>
      <trkpt lat="48.97786" lon="2.09804">
        <ele>27</ele>
        <time>2022-05-29T13:46:30Z</time>
      </trkpt>
      <trkpt lat="48.9779" lon="2.09788">
        <ele>26.7</ele>
        <time>2022-05-29T13:46:36Z</time>
      </trkpt>
      <trkpt lat="48.97793" lon="2.09775">
        <ele>26.5</ele>
        <time>2022-05-29T13:46:41Z</time>
      </trkpt>
      <trkpt lat="48.97797" lon="2.09762">
        <ele>26.7</ele>
        <time>2022-05-29T13:46:47Z</time>
      </trkpt>
      <trkpt lat="48.97798" lon="2.09752">
        <ele>26.7</ele>
        <time>2022-05-29T13:46:52Z</time>
      </trkpt>
      <trkpt lat="48.978" lon="2.0974">
        <ele>26.7</ele>
        <time>2022-05-29T13:46:58Z</time>
      </trkpt>
      <trkpt lat="48.97802" lon="2.09728">
        <ele>26.8</ele>
        <time>2022-05-29T13:47:04Z</time>
      </trkpt>
      <trkpt lat="48.97802" lon="2.09717">
        <ele>26.7</ele>
        <time>2022-05-29T13:47:09Z</time>
      </trkpt>
      <trkpt lat="48.97803" lon="2.09701">
        <ele>26.6</ele>
        <time>2022-05-29T13:47:15Z</time>
      </trkpt>
      <trkpt lat="48.97806" lon="2.09688">
        <ele>27</ele>
        <time>2022-05-29T13:47:20Z</time>
      </trkpt>
      <trkpt lat="48.97809" lon="2.09677">
        <ele>27</ele>
        <time>2022-05-29T13:47:25Z</time>
      </trkpt>
      <trkpt lat="48.97813" lon="2.09661">
        <ele>26.9</ele>
        <time>2022-05-29T13:47:31Z</time>
      </trkpt>
      <trkpt lat="48.97817" lon="2.09649">
        <ele>26.6</ele>
        <time>2022-05-29T13:47:36Z</time>
      </trkpt>
      <trkpt lat="48.97819" lon="2.09635">
        <ele>26.4</ele>
        <time>2022-05-29T13:47:42Z</time>
      </trkpt>
      <trkpt lat="48.9782" lon="2.09621">
        <ele>26.2</ele>
        <time>2022-05-29T13:47:48Z</time>
      </trkpt>
      <trkpt lat="48.97821" lon="2.09612">
        <ele>26.1</ele>
        <time>2022-05-29T13:47:53Z</time>
      </trkpt>
      <trkpt lat="48.97823" lon="2.09599">
        <ele>26.1</ele>
        <time>2022-05-29T13:47:59Z</time>
      </trkpt>
      <trkpt lat="48.97825" lon="2.0959">
        <ele>26.2</ele>
        <time>2022-05-29T13:48:04Z</time>
      </trkpt>
      <trkpt lat="48.97828" lon="2.09581">
        <ele>26.4</ele>
        <time>2022-05-29T13:48:09Z</time>
      </trkpt>
      <trkpt lat="48.97832" lon="2.09563">
        <ele>26.1</ele>
        <time>2022-05-29T13:48:15Z</time>
      </trkpt>
      <trkpt lat="48.97835" lon="2.09548">
        <ele>26.1</ele>
        <time>2022-05-29T13:48:20Z</time>
      </trkpt>
      <trkpt lat="48.97839" lon="2.09537">
        <ele>26.2</ele>
        <time>2022-05-29T13:48:25Z</time>
      </trkpt>
      <trkpt lat="48.97843" lon="2.09524">
        <ele>26.3</ele>
        <time>2022-05-29T13:48:31Z</time>
      </trkpt>
      <trkpt lat="48.97844" lon="2.09511">
        <ele>26.4</ele>
        <time>2022-05-29T13:48:36Z</time>
      </trkpt>
      <trkpt lat="48.97842" lon="2.09498">
        <ele>26.3</ele>
        <time>2022-05-29T13:48:42Z</time>
      </trkpt>
      <trkpt lat="48.97844" lon="2.09486">
        <ele>26.4</ele>
        <time>2022-05-29T13:48:48Z</time>
      </trkpt>
      <trkpt lat="48.97846" lon="2.09473">
        <ele>26.4</ele>
        <time>2022-05-29T13:48:54Z</time>
      </trkpt>
      <trkpt lat="48.97847" lon="2.09461">
        <ele>26.3</ele>
        <time>2022-05-29T13:49:00Z</time>
      </trkpt>
      <trkpt lat="48.97848" lon="2.09448">
        <ele>26.1</ele>
        <time>2022-05-29T13:49:06Z</time>
      </trkpt>
      <trkpt lat="48.97849" lon="2.09435">
        <ele>25.9</ele>
        <time>2022-05-29T13:49:12Z</time>
      </trkpt>
      <trkpt lat="48.97852" lon="2.09423">
        <ele>25.8</ele>
        <time>2022-05-29T13:49:17Z</time>
      </trkpt>
      <trkpt lat="48.97856" lon="2.09409">
        <ele>25.6</ele>
        <time>2022-05-29T13:49:23Z</time>
      </trkpt>
      <trkpt lat="48.97858" lon="2.09393">
        <ele>25.1</ele>
        <time>2022-05-29T13:49:29Z</time>
      </trkpt>
      <trkpt lat="48.97863" lon="2.09378">
        <ele>25.1</ele>
        <time>2022-05-29T13:49:35Z</time>
      </trkpt>
      <trkpt lat="48.97865" lon="2.09366">
        <ele>25.1</ele>
        <time>2022-05-29T13:49:40Z</time>
      </trkpt>
      <trkpt lat="48.97867" lon="2.09356">
        <ele>25.2</ele>
        <time>2022-05-29T13:49:45Z</time>
      </trkpt>
      <trkpt lat="48.97868" lon="2.09343">
        <ele>25.1</ele>
        <time>2022-05-29T13:49:51Z</time>
      </trkpt>
      <trkpt lat="48.97871" lon="2.09329">
        <ele>25</ele>
        <time>2022-05-29T13:49:57Z</time>
      </trkpt>
      <trkpt lat="48.97874" lon="2.09318">
        <ele>25</ele>
        <time>2022-05-29T13:50:02Z</time>
      </trkpt>
      <trkpt lat="48.97877" lon="2.09305">
        <ele>25</ele>
        <time>2022-05-29T13:50:08Z</time>
      </trkpt>
      <trkpt lat="48.97876" lon="2.09294">
        <ele>24.8</ele>
        <time>2022-05-29T13:50:13Z</time>
      </trkpt>
      <trkpt lat="48.97877" lon="2.09283">
        <ele>24.5</ele>
        <time>2022-05-29T13:50:18Z</time>
      </trkpt>
      <trkpt lat="48.97881" lon="2.09271">
        <ele>24.3</ele>
        <time>2022-05-29T13:50:24Z</time>
      </trkpt>
      <trkpt lat="48.97884" lon="2.09258">
        <ele>24.2</ele>
        <time>2022-05-29T13:50:30Z</time>
      </trkpt>
      <trkpt lat="48.97884" lon="2.09246">
        <ele>24.2</ele>
        <time>2022-05-29T13:50:35Z</time>
      </trkpt>
      <trkpt lat="48.97887" lon="2.09233">
        <ele>24</ele>
        <time>2022-05-29T13:50:41Z</time>
      </trkpt>
      <trkpt lat="48.9789" lon="2.0922">
        <ele>24</ele>
        <time>2022-05-29T13:50:47Z</time>
      </trkpt>
      <trkpt lat="48.97891" lon="2.09205">
        <ele>24</ele>
        <time>2022-05-29T13:50:53Z</time>
      </trkpt>
      <trkpt lat="48.97895" lon="2.09192">
        <ele>24</ele>
        <time>2022-05-29T13:50:58Z</time>
      </trkpt>
      <trkpt lat="48.97898" lon="2.09181">
        <ele>23.8</ele>
        <time>2022-05-29T13:51:04Z</time>
      </trkpt>
      <trkpt lat="48.97897" lon="2.09169">
        <ele>23.7</ele>
        <time>2022-05-29T13:51:10Z</time>
      </trkpt>
      <trkpt lat="48.97897" lon="2.09156">
        <ele>23.4</ele>
        <time>2022-05-29T13:51:15Z</time>
      </trkpt>
      <trkpt lat="48.97899" lon="2.09143">
        <ele>23.1</ele>
        <time>2022-05-29T13:51:20Z</time>
      </trkpt>
      <trkpt lat="48.97903" lon="2.09131">
        <ele>23</ele>
        <time>2022-05-29T13:51:25Z</time>
      </trkpt>
      <trkpt lat="48.97904" lon="2.09119">
        <ele>23</ele>
        <time>2022-05-29T13:51:31Z</time>
      </trkpt>
      <trkpt lat="48.97905" lon="2.09108">
        <ele>23</ele>
        <time>2022-05-29T13:51:36Z</time>
      </trkpt>
      <trkpt lat="48.97906" lon="2.09097">
        <ele>23</ele>
        <time>2022-05-29T13:51:41Z</time>
      </trkpt>
      <trkpt lat="48.97909" lon="2.09081">
        <ele>23</ele>
        <time>2022-05-29T13:51:47Z</time>
      </trkpt>
      <trkpt lat="48.9791" lon="2.09065">
        <ele>23</ele>
        <time>2022-05-29T13:51:53Z</time>
      </trkpt>
      <trkpt lat="48.97913" lon="2.09054">
        <ele>23</ele>
        <time>2022-05-29T13:51:59Z</time>
      </trkpt>
      <trkpt lat="48.97916" lon="2.09044">
        <ele>23</ele>
        <time>2022-05-29T13:52:04Z</time>
      </trkpt>
      <trkpt lat="48.97919" lon="2.0903">
        <ele>23</ele>
        <time>2022-05-29T13:52:10Z</time>
      </trkpt>
      <trkpt lat="48.9792" lon="2.09017">
        <ele>23</ele>
        <time>2022-05-29T13:52:15Z</time>
      </trkpt>
      <trkpt lat="48.9792" lon="2.09004">
        <ele>23</ele>
        <time>2022-05-29T13:52:21Z</time>
      </trkpt>
      <trkpt lat="48.97924" lon="2.0899">
        <ele>23</ele>
        <time>2022-05-29T13:52:27Z</time>
      </trkpt>
      <trkpt lat="48.97928" lon="2.08977">
        <ele>23</ele>
        <time>2022-05-29T13:52:32Z</time>
      </trkpt>
      <trkpt lat="48.9793" lon="2.08964">
        <ele>23</ele>
        <time>2022-05-29T13:52:38Z</time>
      </trkpt>
      <trkpt lat="48.97932" lon="2.08954">
        <ele>23</ele>
        <time>2022-05-29T13:52:43Z</time>
      </trkpt>
      <trkpt lat="48.97931" lon="2.08941">
        <ele>23</ele>
        <time>2022-05-29T13:52:49Z</time>
      </trkpt>
      <trkpt lat="48.97933" lon="2.0893">
        <ele>23</ele>
        <time>2022-05-29T13:52:54Z</time>
      </trkpt>
      <trkpt lat="48.97934" lon="2.0892">
        <ele>23</ele>
        <time>2022-05-29T13:52:59Z</time>
      </trkpt>
      <trkpt lat="48.97936" lon="2.08907">
        <ele>23</ele>
        <time>2022-05-29T13:53:05Z</time>
      </trkpt>
      <trkpt lat="48.9794" lon="2.08895">
        <ele>23</ele>
        <time>2022-05-29T13:53:10Z</time>
      </trkpt>
      <trkpt lat="48.97943" lon="2.08882">
        <ele>23</ele>
        <time>2022-05-29T13:53:15Z</time>
      </trkpt>
      <trkpt lat="48.97944" lon="2.08872">
        <ele>23</ele>
        <time>2022-05-29T13:53:20Z</time>
      </trkpt>
      <trkpt lat="48.97947" lon="2.08862">
        <ele>23.1</ele>
        <time>2022-05-29T13:53:25Z</time>
      </trkpt>
      <trkpt lat="48.97949" lon="2.08849">
        <ele>23.2</ele>
        <time>2022-05-29T13:53:31Z</time>
      </trkpt>
      <trkpt lat="48.97955" lon="2.08833">
        <ele>23.4</ele>
        <time>2022-05-29T13:53:36Z</time>
      </trkpt>
      <trkpt lat="48.97957" lon="2.08819">
        <ele>23.4</ele>
        <time>2022-05-29T13:53:42Z</time>
      </trkpt>
      <trkpt lat="48.97955" lon="2.08809">
        <ele>23.4</ele>
        <time>2022-05-29T13:53:47Z</time>
      </trkpt>
      <trkpt lat="48.97957" lon="2.08797">
        <ele>23.5</ele>
        <time>2022-05-29T13:53:53Z</time>
      </trkpt>
      <trkpt lat="48.97959" lon="2.08788">
        <ele>23.5</ele>
        <time>2022-05-29T13:53:58Z</time>
      </trkpt>
      <trkpt lat="48.97959" lon="2.08778">
        <ele>23.5</ele>
        <time>2022-05-29T13:54:04Z</time>
      </trkpt>
      <trkpt lat="48.97962" lon="2.08769">
        <ele>24.1</ele>
        <time>2022-05-29T13:54:09Z</time>
      </trkpt>
      <trkpt lat="48.97966" lon="2.0876">
        <ele>24.6</ele>
        <time>2022-05-29T13:54:14Z</time>
      </trkpt>
      <trkpt lat="48.97967" lon="2.08757">
        <ele>24.7</ele>
        <time>2022-05-29T13:54:20Z</time>
      </trkpt>
      <trkpt lat="48.97966" lon="2.08757">
        <ele>24.7</ele>
        <time>2022-05-29T13:54:26Z</time>
      </trkpt>
      <trkpt lat="48.97968" lon="2.08754">
        <ele>24.9</ele>
        <time>2022-05-29T13:54:32Z</time>
      </trkpt>
      <trkpt lat="48.97974" lon="2.08755">
        <ele>24.8</ele>
        <time>2022-05-29T13:54:38Z</time>
      </trkpt>
      <trkpt lat="48.97984" lon="2.0876">
        <ele>24.8</ele>
        <time>2022-05-29T13:54:43Z</time>
      </trkpt>
      <trkpt lat="48.97991" lon="2.08764">
        <ele>24.8</ele>
        <time>2022-05-29T13:54:48Z</time>
      </trkpt>
      <trkpt lat="48.97998" lon="2.0877">
        <ele>24.9</ele>
        <time>2022-05-29T13:54:54Z</time>
      </trkpt>
      <trkpt lat="48.98003" lon="2.08777">
        <ele>25</ele>
        <time>2022-05-29T13:54:59Z</time>
      </trkpt>
      <trkpt lat="48.98009" lon="2.08785">
        <ele>24.9</ele>
        <time>2022-05-29T13:55:04Z</time>
      </trkpt>
      <trkpt lat="48.98013" lon="2.08795">
        <ele>24.9</ele>
        <time>2022-05-29T13:55:09Z</time>
      </trkpt>
      <trkpt lat="48.98019" lon="2.08806">
        <ele>25.3</ele>
        <time>2022-05-29T13:55:15Z</time>
      </trkpt>
      <trkpt lat="48.98026" lon="2.08814">
        <ele>25.6</ele>
        <time>2022-05-29T13:55:21Z</time>
      </trkpt>
      <trkpt lat="48.98032" lon="2.0882">
        <ele>25.6</ele>
        <time>2022-05-29T13:55:26Z</time>
      </trkpt>
      <trkpt lat="48.98038" lon="2.08829">
        <ele>25.7</ele>
        <time>2022-05-29T13:55:32Z</time>
      </trkpt>
      <trkpt lat="48.98046" lon="2.08835">
        <ele>26.2</ele>
        <time>2022-05-29T13:55:38Z</time>
      </trkpt>
      <trkpt lat="48.98053" lon="2.0884">
        <ele>26.3</ele>
        <time>2022-05-29T13:55:44Z</time>
      </trkpt>
      <trkpt lat="48.98061" lon="2.0884">
        <ele>26.5</ele>
        <time>2022-05-29T13:55:49Z</time>
      </trkpt>
      <trkpt lat="48.98069" lon="2.0884">
        <ele>26.4</ele>
        <time>2022-05-29T13:55:54Z</time>
      </trkpt>
      <trkpt lat="48.98077" lon="2.08839">
        <ele>26.4</ele>
        <time>2022-05-29T13:56:00Z</time>
      </trkpt>
      <trkpt lat="48.98085" lon="2.08839">
        <ele>26.5</ele>
        <time>2022-05-29T13:56:05Z</time>
      </trkpt>
      <trkpt lat="48.98092" lon="2.0884">
        <ele>26.6</ele>
        <time>2022-05-29T13:56:11Z</time>
      </trkpt>
      <trkpt lat="48.981" lon="2.08842">
        <ele>26.7</ele>
        <time>2022-05-29T13:56:17Z</time>
      </trkpt>
      <trkpt lat="48.98108" lon="2.08842">
        <ele>27</ele>
        <time>2022-05-29T13:56:22Z</time>
      </trkpt>
      <trkpt lat="48.98116" lon="2.08839">
        <ele>27.4</ele>
        <time>2022-05-29T13:56:28Z</time>
      </trkpt>
      <trkpt lat="48.98124" lon="2.08838">
        <ele>27.5</ele>
        <time>2022-05-29T13:56:33Z</time>
      </trkpt>
      <trkpt lat="48.9813" lon="2.08839">
        <ele>27.4</ele>
        <time>2022-05-29T13:56:38Z</time>
      </trkpt>
      <trkpt lat="48.98136" lon="2.08839">
        <ele>27.4</ele>
        <time>2022-05-29T13:56:44Z</time>
      </trkpt>
      <trkpt lat="48.9814" lon="2.08833">
        <ele>28</ele>
        <time>2022-05-29T13:56:49Z</time>
      </trkpt>
      <trkpt lat="48.98145" lon="2.08825">
        <ele>27.7</ele>
        <time>2022-05-29T13:56:54Z</time>
      </trkpt>
      <trkpt lat="48.98152" lon="2.08826">
        <ele>27.3</ele>
        <time>2022-05-29T13:57:00Z</time>
      </trkpt>
      <trkpt lat="48.98161" lon="2.08825">
        <ele>26.7</ele>
        <time>2022-05-29T13:57:06Z</time>
      </trkpt>
      <trkpt lat="48.98169" lon="2.08824">
        <ele>26.3</ele>
        <time>2022-05-29T13:57:11Z</time>
      </trkpt>
      <trkpt lat="48.98173" lon="2.08825">
        <ele>26.1</ele>
        <time>2022-05-29T13:57:16Z</time>
      </trkpt>
      <trkpt lat="48.98179" lon="2.08826">
        <ele>25.8</ele>
        <time>2022-05-29T13:57:22Z</time>
      </trkpt>
      <trkpt lat="48.98183" lon="2.0883">
        <ele>25.7</ele>
        <time>2022-05-29T13:57:27Z</time>
      </trkpt>
      <trkpt lat="48.98194" lon="2.08837">
        <ele>25</ele>
        <time>2022-05-29T13:57:33Z</time>
      </trkpt>
      <trkpt lat="48.98201" lon="2.08846">
        <ele>25</ele>
        <time>2022-05-29T13:57:39Z</time>
      </trkpt>
      <trkpt lat="48.98205" lon="2.08856">
        <ele>25</ele>
        <time>2022-05-29T13:57:45Z</time>
      </trkpt>
      <trkpt lat="48.98209" lon="2.08865">
        <ele>25</ele>
        <time>2022-05-29T13:57:50Z</time>
      </trkpt>
      <trkpt lat="48.98213" lon="2.08875">
        <ele>25</ele>
        <time>2022-05-29T13:57:55Z</time>
      </trkpt>
      <trkpt lat="48.98218" lon="2.08889">
        <ele>25</ele>
        <time>2022-05-29T13:58:01Z</time>
      </trkpt>
      <trkpt lat="48.98221" lon="2.08897">
        <ele>25</ele>
        <time>2022-05-29T13:58:06Z</time>
      </trkpt>
      <trkpt lat="48.98226" lon="2.0891">
        <ele>25</ele>
        <time>2022-05-29T13:58:12Z</time>
      </trkpt>
      <trkpt lat="48.98233" lon="2.08916">
        <ele>25</ele>
        <time>2022-05-29T13:58:17Z</time>
      </trkpt>
      <trkpt lat="48.98242" lon="2.08918">
        <ele>25</ele>
        <time>2022-05-29T13:58:23Z</time>
      </trkpt>
      <trkpt lat="48.98251" lon="2.08919">
        <ele>25</ele>
        <time>2022-05-29T13:58:29Z</time>
      </trkpt>
      <trkpt lat="48.98259" lon="2.08922">
        <ele>25</ele>
        <time>2022-05-29T13:58:35Z</time>
      </trkpt>
      <trkpt lat="48.98265" lon="2.08917">
        <ele>25</ele>
        <time>2022-05-29T13:58:41Z</time>
      </trkpt>
      <trkpt lat="48.9827" lon="2.0891">
        <ele>25.2</ele>
        <time>2022-05-29T13:58:46Z</time>
      </trkpt>
      <trkpt lat="48.98275" lon="2.089">
        <ele>25.6</ele>
        <time>2022-05-29T13:58:52Z</time>
      </trkpt>
      <trkpt lat="48.98281" lon="2.08891">
        <ele>25.8</ele>
        <time>2022-05-29T13:58:57Z</time>
      </trkpt>
      <trkpt lat="48.98287" lon="2.08882">
        <ele>25.6</ele>
        <time>2022-05-29T13:59:03Z</time>
      </trkpt>
      <trkpt lat="48.98292" lon="2.08873">
        <ele>25.5</ele>
        <time>2022-05-29T13:59:08Z</time>
      </trkpt>
      <trkpt lat="48.98297" lon="2.08864">
        <ele>25.6</ele>
        <time>2022-05-29T13:59:13Z</time>
      </trkpt>
      <trkpt lat="48.98304" lon="2.08855">
        <ele>26</ele>
        <time>2022-05-29T13:59:19Z</time>
      </trkpt>
      <trkpt lat="48.98312" lon="2.08855">
        <ele>26.2</ele>
        <time>2022-05-29T13:59:25Z</time>
      </trkpt>
      <trkpt lat="48.98318" lon="2.08863">
        <ele>26.4</ele>
        <time>2022-05-29T13:59:30Z</time>
      </trkpt>
      <trkpt lat="48.98324" lon="2.0887">
        <ele>26.3</ele>
        <time>2022-05-29T13:59:35Z</time>
      </trkpt>
      <trkpt lat="48.98334" lon="2.08875">
        <ele>26.5</ele>
        <time>2022-05-29T13:59:41Z</time>
      </trkpt>
      <trkpt lat="48.98342" lon="2.08874">
        <ele>26.5</ele>
        <time>2022-05-29T13:59:47Z</time>
      </trkpt>
      <trkpt lat="48.98349" lon="2.08869">
        <ele>26.5</ele>
        <time>2022-05-29T13:59:53Z</time>
      </trkpt>
      <trkpt lat="48.98351" lon="2.08866">
        <ele>26.4</ele>
        <time>2022-05-29T13:59:58Z</time>
      </trkpt>
      <trkpt lat="48.98359" lon="2.08861">
        <ele>26.1</ele>
        <time>2022-05-29T14:00:04Z</time>
      </trkpt>
      <trkpt lat="48.98369" lon="2.08857">
        <ele>26.2</ele>
        <time>2022-05-29T14:00:09Z</time>
      </trkpt>
      <trkpt lat="48.98377" lon="2.08851">
        <ele>26.4</ele>
        <time>2022-05-29T14:00:14Z</time>
      </trkpt>
      <trkpt lat="48.98386" lon="2.08848">
        <ele>26.5</ele>
        <time>2022-05-29T14:00:20Z</time>
      </trkpt>
      <trkpt lat="48.98393" lon="2.08845">
        <ele>26.6</ele>
        <time>2022-05-29T14:00:25Z</time>
      </trkpt>
      <trkpt lat="48.98399" lon="2.08844">
        <ele>26.5</ele>
        <time>2022-05-29T14:00:31Z</time>
      </trkpt>
      <trkpt lat="48.98405" lon="2.08847">
        <ele>26.5</ele>
        <time>2022-05-29T14:00:36Z</time>
      </trkpt>
      <trkpt lat="48.98413" lon="2.08844">
        <ele>26.4</ele>
        <time>2022-05-29T14:00:41Z</time>
      </trkpt>
      <trkpt lat="48.98421" lon="2.08843">
        <ele>26.3</ele>
        <time>2022-05-29T14:00:47Z</time>
      </trkpt>
      <trkpt lat="48.98428" lon="2.08843">
        <ele>26.2</ele>
        <time>2022-05-29T14:00:52Z</time>
      </trkpt>
      <trkpt lat="48.98434" lon="2.08843">
        <ele>26.1</ele>
        <time>2022-05-29T14:00:57Z</time>
      </trkpt>
      <trkpt lat="48.98442" lon="2.0884">
        <ele>26</ele>
        <time>2022-05-29T14:01:02Z</time>
      </trkpt>
      <trkpt lat="48.98453" lon="2.08838">
        <ele>26.1</ele>
        <time>2022-05-29T14:01:08Z</time>
      </trkpt>
      <trkpt lat="48.98458" lon="2.08836">
        <ele>26</ele>
        <time>2022-05-29T14:01:13Z</time>
      </trkpt>
      <trkpt lat="48.98464" lon="2.0883">
        <ele>26</ele>
        <time>2022-05-29T14:01:18Z</time>
      </trkpt>
      <trkpt lat="48.9847" lon="2.08823">
        <ele>26</ele>
        <time>2022-05-29T14:01:23Z</time>
      </trkpt>
      <trkpt lat="48.98478" lon="2.08818">
        <ele>26</ele>
        <time>2022-05-29T14:01:29Z</time>
      </trkpt>
      <trkpt lat="48.98486" lon="2.08813">
        <ele>26</ele>
        <time>2022-05-29T14:01:34Z</time>
      </trkpt>
      <trkpt lat="48.98493" lon="2.08811">
        <ele>26</ele>
        <time>2022-05-29T14:01:40Z</time>
      </trkpt>
      <trkpt lat="48.98502" lon="2.08806">
        <ele>25.9</ele>
        <time>2022-05-29T14:01:45Z</time>
      </trkpt>
      <trkpt lat="48.98514" lon="2.08802">
        <ele>25.5</ele>
        <time>2022-05-29T14:01:51Z</time>
      </trkpt>
      <trkpt lat="48.98522" lon="2.088">
        <ele>25.2</ele>
        <time>2022-05-29T14:01:57Z</time>
      </trkpt>
      <trkpt lat="48.98528" lon="2.08798">
        <ele>25</ele>
        <time>2022-05-29T14:02:03Z</time>
      </trkpt>
      <trkpt lat="48.98538" lon="2.08795">
        <ele>25</ele>
        <time>2022-05-29T14:02:09Z</time>
      </trkpt>
      <trkpt lat="48.98546" lon="2.08791">
        <ele>25</ele>
        <time>2022-05-29T14:02:14Z</time>
      </trkpt>
      <trkpt lat="48.98553" lon="2.08787">
        <ele>25</ele>
        <time>2022-05-29T14:02:19Z</time>
      </trkpt>
      <trkpt lat="48.98559" lon="2.08784">
        <ele>24.7</ele>
        <time>2022-05-29T14:02:24Z</time>
      </trkpt>
      <trkpt lat="48.98564" lon="2.08784">
        <ele>24.4</ele>
        <time>2022-05-29T14:02:29Z</time>
      </trkpt>
      <trkpt lat="48.98567" lon="2.08773">
        <ele>24.1</ele>
        <time>2022-05-29T14:02:35Z</time>
      </trkpt>
      <trkpt lat="48.98567" lon="2.08761">
        <ele>23.8</ele>
        <time>2022-05-29T14:02:40Z</time>
      </trkpt>
      <trkpt lat="48.98567" lon="2.08749">
        <ele>23.6</ele>
        <time>2022-05-29T14:02:45Z</time>
      </trkpt>
      <trkpt lat="48.98565" lon="2.08736">
        <ele>23.7</ele>
        <time>2022-05-29T14:02:51Z</time>
      </trkpt>
      <trkpt lat="48.98563" lon="2.08726">
        <ele>23.7</ele>
        <time>2022-05-29T14:02:56Z</time>
      </trkpt>
      <trkpt lat="48.98559" lon="2.08714">
        <ele>23.9</ele>
        <time>2022-05-29T14:03:02Z</time>
      </trkpt>
      <trkpt lat="48.98556" lon="2.08705">
        <ele>24</ele>
        <time>2022-05-29T14:03:08Z</time>
      </trkpt>
      <trkpt lat="48.98552" lon="2.08692">
        <ele>23.9</ele>
        <time>2022-05-29T14:03:14Z</time>
      </trkpt>
      <trkpt lat="48.98549" lon="2.0868">
        <ele>23.6</ele>
        <time>2022-05-29T14:03:19Z</time>
      </trkpt>
      <trkpt lat="48.98548" lon="2.08668">
        <ele>23.3</ele>
        <time>2022-05-29T14:03:24Z</time>
      </trkpt>
      <trkpt lat="48.98547" lon="2.08653">
        <ele>23.5</ele>
        <time>2022-05-29T14:03:30Z</time>
      </trkpt>
      <trkpt lat="48.98545" lon="2.08642">
        <ele>23.7</ele>
        <time>2022-05-29T14:03:35Z</time>
      </trkpt>
      <trkpt lat="48.98543" lon="2.08633">
        <ele>23.9</ele>
        <time>2022-05-29T14:03:40Z</time>
      </trkpt>
      <trkpt lat="48.9854" lon="2.08622">
        <ele>24.1</ele>
        <time>2022-05-29T14:03:45Z</time>
      </trkpt>
      <trkpt lat="48.98537" lon="2.08609">
        <ele>24.3</ele>
        <time>2022-05-29T14:03:51Z</time>
      </trkpt>
      <trkpt lat="48.98537" lon="2.08597">
        <ele>24</ele>
        <time>2022-05-29T14:03:57Z</time>
      </trkpt>
      <trkpt lat="48.98537" lon="2.08583">
        <ele>23.7</ele>
        <time>2022-05-29T14:04:03Z</time>
      </trkpt>
      <trkpt lat="48.98536" lon="2.08572">
        <ele>23.7</ele>
        <time>2022-05-29T14:04:08Z</time>
      </trkpt>
      <trkpt lat="48.98534" lon="2.08563">
        <ele>23.8</ele>
        <time>2022-05-29T14:04:13Z</time>
      </trkpt>
      <trkpt lat="48.98534" lon="2.08553">
        <ele>23.9</ele>
        <time>2022-05-29T14:04:18Z</time>
      </trkpt>
      <trkpt lat="48.98533" lon="2.0854">
        <ele>24.7</ele>
        <time>2022-05-29T14:04:24Z</time>
      </trkpt>
      <trkpt lat="48.98533" lon="2.08527">
        <ele>25.4</ele>
        <time>2022-05-29T14:04:29Z</time>
      </trkpt>
      <trkpt lat="48.98534" lon="2.08517">
        <ele>24.9</ele>
        <time>2022-05-29T14:04:34Z</time>
      </trkpt>
      <trkpt lat="48.98541" lon="2.08507">
        <ele>24.5</ele>
        <time>2022-05-29T14:04:40Z</time>
      </trkpt>
      <trkpt lat="48.98547" lon="2.085">
        <ele>24.7</ele>
        <time>2022-05-29T14:04:46Z</time>
      </trkpt>
      <trkpt lat="48.98553" lon="2.08496">
        <ele>25.2</ele>
        <time>2022-05-29T14:04:51Z</time>
      </trkpt>
      <trkpt lat="48.98559" lon="2.08492">
        <ele>25.2</ele>
        <time>2022-05-29T14:04:56Z</time>
      </trkpt>
      <trkpt lat="48.9857" lon="2.08487">
        <ele>24.3</ele>
        <time>2022-05-29T14:05:02Z</time>
      </trkpt>
      <trkpt lat="48.9858" lon="2.08484">
        <ele>23.5</ele>
        <time>2022-05-29T14:05:07Z</time>
      </trkpt>
      <trkpt lat="48.98587" lon="2.08481">
        <ele>23.3</ele>
        <time>2022-05-29T14:05:12Z</time>
      </trkpt>
      <trkpt lat="48.98597" lon="2.08475">
        <ele>23.4</ele>
        <time>2022-05-29T14:05:18Z</time>
      </trkpt>
      <trkpt lat="48.98602" lon="2.08472">
        <ele>23.4</ele>
        <time>2022-05-29T14:05:23Z</time>
      </trkpt>
      <trkpt lat="48.98608" lon="2.08466">
        <ele>24</ele>
        <time>2022-05-29T14:05:29Z</time>
      </trkpt>
      <trkpt lat="48.98616" lon="2.08462">
        <ele>24.3</ele>
        <time>2022-05-29T14:05:34Z</time>
      </trkpt>
      <trkpt lat="48.98624" lon="2.08458">
        <ele>24.4</ele>
        <time>2022-05-29T14:05:40Z</time>
      </trkpt>
      <trkpt lat="48.98632" lon="2.08453">
        <ele>24.2</ele>
        <time>2022-05-29T14:05:45Z</time>
      </trkpt>
      <trkpt lat="48.9864" lon="2.0845">
        <ele>23.8</ele>
        <time>2022-05-29T14:05:50Z</time>
      </trkpt>
      <trkpt lat="48.98647" lon="2.08447">
        <ele>23.9</ele>
        <time>2022-05-29T14:05:56Z</time>
      </trkpt>
      <trkpt lat="48.98653" lon="2.08443">
        <ele>24.3</ele>
        <time>2022-05-29T14:06:02Z</time>
      </trkpt>
      <trkpt lat="48.98659" lon="2.08438">
        <ele>24.9</ele>
        <time>2022-05-29T14:06:08Z</time>
      </trkpt>
      <trkpt lat="48.98664" lon="2.08434">
        <ele>25.3</ele>
        <time>2022-05-29T14:06:13Z</time>
      </trkpt>
      <trkpt lat="48.98672" lon="2.0843">
        <ele>25.3</ele>
        <time>2022-05-29T14:06:19Z</time>
      </trkpt>
      <trkpt lat="48.9868" lon="2.08424">
        <ele>25.1</ele>
        <time>2022-05-29T14:06:24Z</time>
      </trkpt>
      <trkpt lat="48.98688" lon="2.0842">
        <ele>24.6</ele>
        <time>2022-05-29T14:06:29Z</time>
      </trkpt>
      <trkpt lat="48.98696" lon="2.08416">
        <ele>24.2</ele>
        <time>2022-05-29T14:06:35Z</time>
      </trkpt>
      <trkpt lat="48.98705" lon="2.0841">
        <ele>25.2</ele>
        <time>2022-05-29T14:06:41Z</time>
      </trkpt>
      <trkpt lat="48.98713" lon="2.08407">
        <ele>25.3</ele>
        <time>2022-05-29T14:06:46Z</time>
      </trkpt>
      <trkpt lat="48.98725" lon="2.08402">
        <ele>25</ele>
        <time>2022-05-29T14:06:52Z</time>
      </trkpt>
      <trkpt lat="48.98733" lon="2.08399">
        <ele>25</ele>
        <time>2022-05-29T14:06:57Z</time>
      </trkpt>
      <trkpt lat="48.9874" lon="2.08393">
        <ele>25.2</ele>
        <time>2022-05-29T14:07:03Z</time>
      </trkpt>
      <trkpt lat="48.98745" lon="2.08389">
        <ele>25.2</ele>
        <time>2022-05-29T14:07:09Z</time>
      </trkpt>
      <trkpt lat="48.98752" lon="2.08386">
        <ele>25.5</ele>
        <time>2022-05-29T14:07:14Z</time>
      </trkpt>
      <trkpt lat="48.98758" lon="2.08382">
        <ele>26.1</ele>
        <time>2022-05-29T14:07:19Z</time>
      </trkpt>
      <trkpt lat="48.98763" lon="2.08377">
        <ele>26.6</ele>
        <time>2022-05-29T14:07:24Z</time>
      </trkpt>
      <trkpt lat="48.98769" lon="2.08373">
        <ele>26.5</ele>
        <time>2022-05-29T14:07:29Z</time>
      </trkpt>
      <trkpt lat="48.98777" lon="2.08367">
        <ele>26</ele>
        <time>2022-05-29T14:07:35Z</time>
      </trkpt>
      <trkpt lat="48.98784" lon="2.08357">
        <ele>26.4</ele>
        <time>2022-05-29T14:07:41Z</time>
      </trkpt>
      <trkpt lat="48.98793" lon="2.08346">
        <ele>27</ele>
        <time>2022-05-29T14:07:47Z</time>
      </trkpt>
      <trkpt lat="48.98803" lon="2.08339">
        <ele>27.1</ele>
        <time>2022-05-29T14:07:53Z</time>
      </trkpt>
      <trkpt lat="48.98812" lon="2.08335">
        <ele>26.1</ele>
        <time>2022-05-29T14:07:59Z</time>
      </trkpt>
      <trkpt lat="48.98818" lon="2.08333">
        <ele>25.2</ele>
        <time>2022-05-29T14:08:05Z</time>
      </trkpt>
      <trkpt lat="48.98823" lon="2.08329">
        <ele>24.1</ele>
        <time>2022-05-29T14:08:10Z</time>
      </trkpt>
      <trkpt lat="48.9883" lon="2.08324">
        <ele>23</ele>
        <time>2022-05-29T14:08:16Z</time>
      </trkpt>
      <trkpt lat="48.98837" lon="2.08319">
        <ele>22.4</ele>
        <time>2022-05-29T14:08:22Z</time>
      </trkpt>
      <trkpt lat="48.98844" lon="2.08315">
        <ele>22.1</ele>
        <time>2022-05-29T14:08:28Z</time>
      </trkpt>
      <trkpt lat="48.98852" lon="2.08312">
        <ele>21.9</ele>
        <time>2022-05-29T14:08:33Z</time>
      </trkpt>
      <trkpt lat="48.98858" lon="2.08309">
        <ele>21.9</ele>
        <time>2022-05-29T14:08:39Z</time>
      </trkpt>
      <trkpt lat="48.98863" lon="2.08305">
        <ele>21.9</ele>
        <time>2022-05-29T14:08:44Z</time>
      </trkpt>
      <trkpt lat="48.98871" lon="2.083">
        <ele>21.5</ele>
        <time>2022-05-29T14:08:50Z</time>
      </trkpt>
      <trkpt lat="48.98878" lon="2.08296">
        <ele>21.2</ele>
        <time>2022-05-29T14:08:56Z</time>
      </trkpt>
      <trkpt lat="48.98885" lon="2.08291">
        <ele>21.1</ele>
        <time>2022-05-29T14:09:02Z</time>
      </trkpt>
      <trkpt lat="48.98893" lon="2.08286">
        <ele>21</ele>
        <time>2022-05-29T14:09:07Z</time>
      </trkpt>
      <trkpt lat="48.98901" lon="2.08281">
        <ele>21</ele>
        <time>2022-05-29T14:09:12Z</time>
      </trkpt>
      <trkpt lat="48.98908" lon="2.08276">
        <ele>21</ele>
        <time>2022-05-29T14:09:18Z</time>
      </trkpt>
      <trkpt lat="48.98916" lon="2.0827">
        <ele>21.3</ele>
        <time>2022-05-29T14:09:24Z</time>
      </trkpt>
      <trkpt lat="48.98926" lon="2.08265">
        <ele>21.5</ele>
        <time>2022-05-29T14:09:29Z</time>
      </trkpt>
      <trkpt lat="48.98935" lon="2.08258">
        <ele>21.7</ele>
        <time>2022-05-29T14:09:35Z</time>
      </trkpt>
      <trkpt lat="48.98947" lon="2.08252">
        <ele>22.2</ele>
        <time>2022-05-29T14:09:41Z</time>
      </trkpt>
      <trkpt lat="48.98954" lon="2.08247">
        <ele>23</ele>
        <time>2022-05-29T14:09:47Z</time>
      </trkpt>
      <trkpt lat="48.98959" lon="2.0825">
        <ele>23.6</ele>
        <time>2022-05-29T14:09:52Z</time>
      </trkpt>
      <trkpt lat="48.98965" lon="2.08262">
        <ele>24.4</ele>
        <time>2022-05-29T14:09:58Z</time>
      </trkpt>
      <trkpt lat="48.98967" lon="2.08278">
        <ele>25.1</ele>
        <time>2022-05-29T14:10:04Z</time>
      </trkpt>
      <trkpt lat="48.98966" lon="2.08291">
        <ele>24.8</ele>
        <time>2022-05-29T14:10:09Z</time>
      </trkpt>
      <trkpt lat="48.98964" lon="2.08291">
        <ele>24.4</ele>
        <time>2022-05-29T14:10:15Z</time>
      </trkpt>
      <trkpt lat="48.98962" lon="2.08284">
        <ele>24.1</ele>
        <time>2022-05-29T14:10:21Z</time>
      </trkpt>
      <trkpt lat="48.98963" lon="2.08276">
        <ele>24.4</ele>
        <time>2022-05-29T14:10:26Z</time>
      </trkpt>
      <trkpt lat="48.9896" lon="2.08281">
        <ele>23.8</ele>
        <time>2022-05-29T14:10:32Z</time>
      </trkpt>
      <trkpt lat="48.98959" lon="2.08296">
        <ele>23.6</ele>
        <time>2022-05-29T14:10:38Z</time>
      </trkpt>
      <trkpt lat="48.98964" lon="2.08307">
        <ele>24.5</ele>
        <time>2022-05-29T14:10:44Z</time>
      </trkpt>
      <trkpt lat="48.98968" lon="2.08318">
        <ele>24.1</ele>
        <time>2022-05-29T14:10:50Z</time>
      </trkpt>
      <trkpt lat="48.9897" lon="2.08333">
        <ele>22.8</ele>
        <time>2022-05-29T14:10:56Z</time>
      </trkpt>
      <trkpt lat="48.9897" lon="2.0835">
        <ele>22.9</ele>
        <time>2022-05-29T14:11:02Z</time>
      </trkpt>
      <trkpt lat="48.98973" lon="2.08363">
        <ele>23</ele>
        <time>2022-05-29T14:11:07Z</time>
      </trkpt>
      <trkpt lat="48.98976" lon="2.0837">
        <ele>22.9</ele>
        <time>2022-05-29T14:11:12Z</time>
      </trkpt>
      <trkpt lat="48.98979" lon="2.0838">
        <ele>22.8</ele>
        <time>2022-05-29T14:11:18Z</time>
      </trkpt>
      <trkpt lat="48.98981" lon="2.08392">
        <ele>22.5</ele>
        <time>2022-05-29T14:11:24Z</time>
      </trkpt>
      <trkpt lat="48.98983" lon="2.08405">
        <ele>22.1</ele>
        <time>2022-05-29T14:11:29Z</time>
      </trkpt>
      <trkpt lat="48.98985" lon="2.08421">
        <ele>22</ele>
        <time>2022-05-29T14:11:35Z</time>
      </trkpt>
      <trkpt lat="48.98987" lon="2.08437">
        <ele>22.4</ele>
        <time>2022-05-29T14:11:41Z</time>
      </trkpt>
      <trkpt lat="48.98989" lon="2.08449">
        <ele>22.7</ele>
        <time>2022-05-29T14:11:47Z</time>
      </trkpt>
      <trkpt lat="48.9899" lon="2.08459">
        <ele>22.6</ele>
        <time>2022-05-29T14:11:52Z</time>
      </trkpt>
      <trkpt lat="48.98991" lon="2.0847">
        <ele>22.4</ele>
        <time>2022-05-29T14:11:57Z</time>
      </trkpt>
      <trkpt lat="48.98993" lon="2.0848">
        <ele>22.5</ele>
        <time>2022-05-29T14:12:03Z</time>
      </trkpt>
      <trkpt lat="48.98996" lon="2.08493">
        <ele>22.7</ele>
        <time>2022-05-29T14:12:09Z</time>
      </trkpt>
      <trkpt lat="48.98999" lon="2.08503">
        <ele>22.8</ele>
        <time>2022-05-29T14:12:14Z</time>
      </trkpt>
      <trkpt lat="48.99002" lon="2.08516">
        <ele>22.5</ele>
        <time>2022-05-29T14:12:19Z</time>
      </trkpt>
      <trkpt lat="48.99003" lon="2.08527">
        <ele>22.3</ele>
        <time>2022-05-29T14:12:24Z</time>
      </trkpt>
      <trkpt lat="48.99002" lon="2.08536">
        <ele>22.2</ele>
        <time>2022-05-29T14:12:30Z</time>
      </trkpt>
      <trkpt lat="48.99005" lon="2.08548">
        <ele>22.3</ele>
        <time>2022-05-29T14:12:36Z</time>
      </trkpt>
      <trkpt lat="48.99011" lon="2.08562">
        <ele>22.7</ele>
        <time>2022-05-29T14:12:42Z</time>
      </trkpt>
      <trkpt lat="48.99016" lon="2.08573">
        <ele>22.8</ele>
        <time>2022-05-29T14:12:48Z</time>
      </trkpt>
      <trkpt lat="48.99019" lon="2.08584">
        <ele>22.7</ele>
        <time>2022-05-29T14:12:54Z</time>
      </trkpt>
      <trkpt lat="48.99023" lon="2.08598">
        <ele>22.7</ele>
        <time>2022-05-29T14:13:00Z</time>
      </trkpt>
      <trkpt lat="48.99025" lon="2.08613">
        <ele>22.7</ele>
        <time>2022-05-29T14:13:06Z</time>
      </trkpt>
      <trkpt lat="48.99024" lon="2.08624">
        <ele>21.9</ele>
        <time>2022-05-29T14:13:11Z</time>
      </trkpt>
      <trkpt lat="48.99031" lon="2.08639">
        <ele>21.4</ele>
        <time>2022-05-29T14:13:17Z</time>
      </trkpt>
      <trkpt lat="48.99034" lon="2.0865">
        <ele>21.9</ele>
        <time>2022-05-29T14:13:22Z</time>
      </trkpt>
      <trkpt lat="48.99036" lon="2.08659">
        <ele>22.4</ele>
        <time>2022-05-29T14:13:27Z</time>
      </trkpt>
      <trkpt lat="48.99042" lon="2.08668">
        <ele>23</ele>
        <time>2022-05-29T14:13:32Z</time>
      </trkpt>
      <trkpt lat="48.99046" lon="2.08672">
        <ele>23.1</ele>
        <time>2022-05-29T14:13:38Z</time>
      </trkpt>
      <trkpt lat="48.99047" lon="2.08674">
        <ele>23.1</ele>
        <time>2022-05-29T14:13:43Z</time>
      </trkpt>
      <trkpt lat="48.99046" lon="2.08672">
        <ele>23.1</ele>
        <time>2022-05-29T14:13:48Z</time>
      </trkpt>
      <trkpt lat="48.99045" lon="2.08671">
        <ele>23.1</ele>
        <time>2022-05-29T14:13:53Z</time>
      </trkpt>
      <trkpt lat="48.99047" lon="2.0867">
        <ele>23.3</ele>
        <time>2022-05-29T14:13:59Z</time>
      </trkpt>
      <trkpt lat="48.99047" lon="2.08671">
        <ele>23.3</ele>
        <time>2022-05-29T14:14:04Z</time>
      </trkpt>
      <trkpt lat="48.99049" lon="2.08681">
        <ele>23</ele>
        <time>2022-05-29T14:14:10Z</time>
      </trkpt>
      <trkpt lat="48.99048" lon="2.08691">
        <ele>22.6</ele>
        <time>2022-05-29T14:14:15Z</time>
      </trkpt>
      <trkpt lat="48.99054" lon="2.08706">
        <ele>22.9</ele>
        <time>2022-05-29T14:14:21Z</time>
      </trkpt>
      <trkpt lat="48.99057" lon="2.08715">
        <ele>23</ele>
        <time>2022-05-29T14:14:26Z</time>
      </trkpt>
      <trkpt lat="48.9906" lon="2.08721">
        <ele>23.2</ele>
        <time>2022-05-29T14:14:32Z</time>
      </trkpt>
      <trkpt lat="48.99061" lon="2.08723">
        <ele>23.1</ele>
        <time>2022-05-29T14:14:37Z</time>
      </trkpt>
    </trkseg>
  </trk>
</gpx>